<?xml version="1.0" encoding="UTF-8" standalone="no" ?>
<gpx xmlns="http://www.topografix.com/GPX/1/1" xmlns:xsi="http://www.w3.org/2001/XMLSchema-instance" xsi:schemaLocation="http://www.topografix.com/GPX/1/1 http://www.topografix.com/GPX/1/1/gpx.xsd" version="1.1" creator="VisuGPX - https://www.visugpx.com">
  <metadata>
    <name>Champagnat Cyclisme sur route</name>
  </metadata>
  <trk>
    <name><![CDATA[Champagnat Cyclisme sur route_1]]></name>
    <trkseg>
      <trkpt lat="46.48261" lon="5.36826">
        <ele>264.2</ele>
        <time>2022-08-18T12:05:54Z</time>
      </trkpt>
      <trkpt lat="46.48251" lon="5.36815">
        <ele>263.8</ele>
        <time>2022-08-18T12:05:55Z</time>
      </trkpt>
      <trkpt lat="46.4823" lon="5.36797">
        <ele>263.2</ele>
        <time>2022-08-18T12:05:57Z</time>
      </trkpt>
      <trkpt lat="46.4822" lon="5.36788">
        <ele>262</ele>
        <time>2022-08-18T12:05:58Z</time>
      </trkpt>
      <trkpt lat="46.48199" lon="5.3677">
        <ele>260.8</ele>
        <time>2022-08-18T12:06:00Z</time>
      </trkpt>
      <trkpt lat="46.48188" lon="5.36761">
        <ele>259.4</ele>
        <time>2022-08-18T12:06:01Z</time>
      </trkpt>
      <trkpt lat="46.48167" lon="5.36743">
        <ele>258</ele>
        <time>2022-08-18T12:06:03Z</time>
      </trkpt>
      <trkpt lat="46.48145" lon="5.36726">
        <ele>256.6</ele>
        <time>2022-08-18T12:06:05Z</time>
      </trkpt>
      <trkpt lat="46.48124" lon="5.36711">
        <ele>255.2</ele>
        <time>2022-08-18T12:06:07Z</time>
      </trkpt>
      <trkpt lat="46.48114" lon="5.36703">
        <ele>254.4</ele>
        <time>2022-08-18T12:06:08Z</time>
      </trkpt>
      <trkpt lat="46.4811" lon="5.36697">
        <ele>254</ele>
        <time>2022-08-18T12:06:09Z</time>
      </trkpt>
      <trkpt lat="46.48106" lon="5.36687">
        <ele>253</ele>
        <time>2022-08-18T12:06:10Z</time>
      </trkpt>
      <trkpt lat="46.48106" lon="5.36678">
        <ele>252.4</ele>
        <time>2022-08-18T12:06:11Z</time>
      </trkpt>
      <trkpt lat="46.4811" lon="5.3667">
        <ele>251.4</ele>
        <time>2022-08-18T12:06:12Z</time>
      </trkpt>
      <trkpt lat="46.48115" lon="5.36662">
        <ele>251</ele>
        <time>2022-08-18T12:06:13Z</time>
      </trkpt>
      <trkpt lat="46.48121" lon="5.36656">
        <ele>250.4</ele>
        <time>2022-08-18T12:06:14Z</time>
      </trkpt>
      <trkpt lat="46.48129" lon="5.36648">
        <ele>249.8</ele>
        <time>2022-08-18T12:06:15Z</time>
      </trkpt>
      <trkpt lat="46.4814" lon="5.36635">
        <ele>248.6</ele>
        <time>2022-08-18T12:06:17Z</time>
      </trkpt>
      <trkpt lat="46.48146" lon="5.36628">
        <ele>248.2</ele>
        <time>2022-08-18T12:06:18Z</time>
      </trkpt>
      <trkpt lat="46.48162" lon="5.36618">
        <ele>247.4</ele>
        <time>2022-08-18T12:06:20Z</time>
      </trkpt>
      <trkpt lat="46.48179" lon="5.36608">
        <ele>247</ele>
        <time>2022-08-18T12:06:22Z</time>
      </trkpt>
      <trkpt lat="46.48187" lon="5.36605">
        <ele>246.8</ele>
        <time>2022-08-18T12:06:23Z</time>
      </trkpt>
      <trkpt lat="46.48195" lon="5.36603">
        <ele>246.8</ele>
        <time>2022-08-18T12:06:24Z</time>
      </trkpt>
      <trkpt lat="46.4821" lon="5.36597">
        <ele>246.6</ele>
        <time>2022-08-18T12:06:26Z</time>
      </trkpt>
      <trkpt lat="46.48216" lon="5.36591">
        <ele>246.6</ele>
        <time>2022-08-18T12:06:27Z</time>
      </trkpt>
      <trkpt lat="46.48221" lon="5.36582">
        <ele>246.6</ele>
        <time>2022-08-18T12:06:28Z</time>
      </trkpt>
      <trkpt lat="46.48226" lon="5.36564">
        <ele>246.4</ele>
        <time>2022-08-18T12:06:30Z</time>
      </trkpt>
      <trkpt lat="46.48235" lon="5.36549">
        <ele>246.2</ele>
        <time>2022-08-18T12:06:32Z</time>
      </trkpt>
      <trkpt lat="46.48241" lon="5.36543">
        <ele>246.2</ele>
        <time>2022-08-18T12:06:33Z</time>
      </trkpt>
      <trkpt lat="46.48265" lon="5.36517">
        <ele>245.4</ele>
        <time>2022-08-18T12:06:37Z</time>
      </trkpt>
      <trkpt lat="46.48295" lon="5.36484">
        <ele>244.2</ele>
        <time>2022-08-18T12:06:42Z</time>
      </trkpt>
      <trkpt lat="46.4832" lon="5.36457">
        <ele>243.2</ele>
        <time>2022-08-18T12:06:46Z</time>
      </trkpt>
      <trkpt lat="46.48351" lon="5.36422">
        <ele>242.2</ele>
        <time>2022-08-18T12:06:51Z</time>
      </trkpt>
      <trkpt lat="46.48358" lon="5.36415">
        <ele>242</ele>
        <time>2022-08-18T12:06:52Z</time>
      </trkpt>
      <trkpt lat="46.48383" lon="5.36387">
        <ele>241</ele>
        <time>2022-08-18T12:06:56Z</time>
      </trkpt>
      <trkpt lat="46.48396" lon="5.36373">
        <ele>240.8</ele>
        <time>2022-08-18T12:06:58Z</time>
      </trkpt>
      <trkpt lat="46.48403" lon="5.36367">
        <ele>240.4</ele>
        <time>2022-08-18T12:06:59Z</time>
      </trkpt>
      <trkpt lat="46.48417" lon="5.36358">
        <ele>240</ele>
        <time>2022-08-18T12:07:01Z</time>
      </trkpt>
      <trkpt lat="46.48425" lon="5.36354">
        <ele>239.8</ele>
        <time>2022-08-18T12:07:02Z</time>
      </trkpt>
      <trkpt lat="46.48462" lon="5.36345">
        <ele>239.4</ele>
        <time>2022-08-18T12:07:07Z</time>
      </trkpt>
      <trkpt lat="46.48498" lon="5.36339">
        <ele>239.2</ele>
        <time>2022-08-18T12:07:12Z</time>
      </trkpt>
      <trkpt lat="46.48505" lon="5.36338">
        <ele>239</ele>
        <time>2022-08-18T12:07:13Z</time>
      </trkpt>
      <trkpt lat="46.48512" lon="5.36337">
        <ele>239</ele>
        <time>2022-08-18T12:07:14Z</time>
      </trkpt>
      <trkpt lat="46.48562" lon="5.3633">
        <ele>238.2</ele>
        <time>2022-08-18T12:07:21Z</time>
      </trkpt>
      <trkpt lat="46.48609" lon="5.36322">
        <ele>237.8</ele>
        <time>2022-08-18T12:07:27Z</time>
      </trkpt>
      <trkpt lat="46.48616" lon="5.36318">
        <ele>237.8</ele>
        <time>2022-08-18T12:07:28Z</time>
      </trkpt>
      <trkpt lat="46.48622" lon="5.36312">
        <ele>237.6</ele>
        <time>2022-08-18T12:07:29Z</time>
      </trkpt>
      <trkpt lat="46.48633" lon="5.36293">
        <ele>236.8</ele>
        <time>2022-08-18T12:07:31Z</time>
      </trkpt>
      <trkpt lat="46.48636" lon="5.36282">
        <ele>236.2</ele>
        <time>2022-08-18T12:07:32Z</time>
      </trkpt>
      <trkpt lat="46.4864" lon="5.36257">
        <ele>235.6</ele>
        <time>2022-08-18T12:07:34Z</time>
      </trkpt>
      <trkpt lat="46.48641" lon="5.36244">
        <ele>235.2</ele>
        <time>2022-08-18T12:07:35Z</time>
      </trkpt>
      <trkpt lat="46.48644" lon="5.36206">
        <ele>234</ele>
        <time>2022-08-18T12:07:38Z</time>
      </trkpt>
      <trkpt lat="46.48645" lon="5.3618">
        <ele>233.4</ele>
        <time>2022-08-18T12:07:40Z</time>
      </trkpt>
      <trkpt lat="46.48646" lon="5.36167">
        <ele>233</ele>
        <time>2022-08-18T12:07:41Z</time>
      </trkpt>
      <trkpt lat="46.48656" lon="5.36093">
        <ele>232.4</ele>
        <time>2022-08-18T12:07:47Z</time>
      </trkpt>
      <trkpt lat="46.48663" lon="5.36061">
        <ele>232.2</ele>
        <time>2022-08-18T12:07:50Z</time>
      </trkpt>
      <trkpt lat="46.48666" lon="5.36052">
        <ele>232</ele>
        <time>2022-08-18T12:07:51Z</time>
      </trkpt>
      <trkpt lat="46.48672" lon="5.36034">
        <ele>232</ele>
        <time>2022-08-18T12:07:53Z</time>
      </trkpt>
      <trkpt lat="46.48675" lon="5.36016">
        <ele>232</ele>
        <time>2022-08-18T12:07:55Z</time>
      </trkpt>
      <trkpt lat="46.48677" lon="5.35989">
        <ele>232.2</ele>
        <time>2022-08-18T12:07:58Z</time>
      </trkpt>
      <trkpt lat="46.48679" lon="5.35972">
        <ele>232.6</ele>
        <time>2022-08-18T12:08:00Z</time>
      </trkpt>
      <trkpt lat="46.48683" lon="5.35942">
        <ele>233.2</ele>
        <time>2022-08-18T12:08:03Z</time>
      </trkpt>
      <trkpt lat="46.48692" lon="5.35902">
        <ele>233.6</ele>
        <time>2022-08-18T12:08:07Z</time>
      </trkpt>
      <trkpt lat="46.48715" lon="5.35842">
        <ele>233</ele>
        <time>2022-08-18T12:08:13Z</time>
      </trkpt>
      <trkpt lat="46.48733" lon="5.35803">
        <ele>232.2</ele>
        <time>2022-08-18T12:08:17Z</time>
      </trkpt>
      <trkpt lat="46.48746" lon="5.35774">
        <ele>231.4</ele>
        <time>2022-08-18T12:08:20Z</time>
      </trkpt>
      <trkpt lat="46.48757" lon="5.35745">
        <ele>231</ele>
        <time>2022-08-18T12:08:23Z</time>
      </trkpt>
      <trkpt lat="46.48769" lon="5.35718">
        <ele>230.6</ele>
        <time>2022-08-18T12:08:26Z</time>
      </trkpt>
      <trkpt lat="46.48777" lon="5.357">
        <ele>230.4</ele>
        <time>2022-08-18T12:08:28Z</time>
      </trkpt>
      <trkpt lat="46.48789" lon="5.35675">
        <ele>230.2</ele>
        <time>2022-08-18T12:08:31Z</time>
      </trkpt>
      <trkpt lat="46.48792" lon="5.35667">
        <ele>230.2</ele>
        <time>2022-08-18T12:08:32Z</time>
      </trkpt>
      <trkpt lat="46.48806" lon="5.35633">
        <ele>230.2</ele>
        <time>2022-08-18T12:08:36Z</time>
      </trkpt>
      <trkpt lat="46.48831" lon="5.35574">
        <ele>230.4</ele>
        <time>2022-08-18T12:08:43Z</time>
      </trkpt>
      <trkpt lat="46.4886" lon="5.3551">
        <ele>230.8</ele>
        <time>2022-08-18T12:08:51Z</time>
      </trkpt>
      <trkpt lat="46.48887" lon="5.35451">
        <ele>230.4</ele>
        <time>2022-08-18T12:08:58Z</time>
      </trkpt>
      <trkpt lat="46.4891" lon="5.354">
        <ele>230.2</ele>
        <time>2022-08-18T12:09:04Z</time>
      </trkpt>
      <trkpt lat="46.48934" lon="5.35346">
        <ele>229.6</ele>
        <time>2022-08-18T12:09:10Z</time>
      </trkpt>
      <trkpt lat="46.48941" lon="5.35328">
        <ele>229.4</ele>
        <time>2022-08-18T12:09:12Z</time>
      </trkpt>
      <trkpt lat="46.48963" lon="5.35279">
        <ele>229.2</ele>
        <time>2022-08-18T12:09:18Z</time>
      </trkpt>
      <trkpt lat="46.48978" lon="5.35241">
        <ele>229</ele>
        <time>2022-08-18T12:09:23Z</time>
      </trkpt>
      <trkpt lat="46.48994" lon="5.35204">
        <ele>229</ele>
        <time>2022-08-18T12:09:28Z</time>
      </trkpt>
      <trkpt lat="46.48997" lon="5.35197">
        <ele>229</ele>
        <time>2022-08-18T12:09:29Z</time>
      </trkpt>
      <trkpt lat="46.49013" lon="5.35164">
        <ele>229.4</ele>
        <time>2022-08-18T12:09:34Z</time>
      </trkpt>
      <trkpt lat="46.49016" lon="5.35157">
        <ele>229.8</ele>
        <time>2022-08-18T12:09:35Z</time>
      </trkpt>
      <trkpt lat="46.49031" lon="5.3512">
        <ele>230.4</ele>
        <time>2022-08-18T12:09:40Z</time>
      </trkpt>
      <trkpt lat="46.49034" lon="5.35111">
        <ele>230.4</ele>
        <time>2022-08-18T12:09:41Z</time>
      </trkpt>
      <trkpt lat="46.49041" lon="5.35086">
        <ele>230.6</ele>
        <time>2022-08-18T12:09:44Z</time>
      </trkpt>
      <trkpt lat="46.49043" lon="5.35077">
        <ele>230.6</ele>
        <time>2022-08-18T12:09:45Z</time>
      </trkpt>
      <trkpt lat="46.49045" lon="5.35067">
        <ele>230.6</ele>
        <time>2022-08-18T12:09:46Z</time>
      </trkpt>
      <trkpt lat="46.49054" lon="5.35042">
        <ele>230.6</ele>
        <time>2022-08-18T12:09:49Z</time>
      </trkpt>
      <trkpt lat="46.49056" lon="5.3503">
        <ele>230.6</ele>
        <time>2022-08-18T12:09:50Z</time>
      </trkpt>
      <trkpt lat="46.49061" lon="5.34998">
        <ele>230.4</ele>
        <time>2022-08-18T12:09:53Z</time>
      </trkpt>
      <trkpt lat="46.49067" lon="5.34962">
        <ele>229.8</ele>
        <time>2022-08-18T12:09:56Z</time>
      </trkpt>
      <trkpt lat="46.49068" lon="5.34953">
        <ele>229.6</ele>
        <time>2022-08-18T12:09:57Z</time>
      </trkpt>
      <trkpt lat="46.49071" lon="5.3494">
        <ele>229.4</ele>
        <time>2022-08-18T12:09:58Z</time>
      </trkpt>
      <trkpt lat="46.49076" lon="5.34918">
        <ele>228.8</ele>
        <time>2022-08-18T12:10:00Z</time>
      </trkpt>
      <trkpt lat="46.49077" lon="5.34907">
        <ele>228.4</ele>
        <time>2022-08-18T12:10:01Z</time>
      </trkpt>
      <trkpt lat="46.49083" lon="5.34874">
        <ele>228.2</ele>
        <time>2022-08-18T12:10:04Z</time>
      </trkpt>
      <trkpt lat="46.49086" lon="5.34862">
        <ele>228</ele>
        <time>2022-08-18T12:10:05Z</time>
      </trkpt>
      <trkpt lat="46.49095" lon="5.34827">
        <ele>227.2</ele>
        <time>2022-08-18T12:10:08Z</time>
      </trkpt>
      <trkpt lat="46.49103" lon="5.34791">
        <ele>226.6</ele>
        <time>2022-08-18T12:10:11Z</time>
      </trkpt>
      <trkpt lat="46.49107" lon="5.34769">
        <ele>226.2</ele>
        <time>2022-08-18T12:10:13Z</time>
      </trkpt>
      <trkpt lat="46.4911" lon="5.34744">
        <ele>226</ele>
        <time>2022-08-18T12:10:15Z</time>
      </trkpt>
      <trkpt lat="46.49117" lon="5.34694">
        <ele>225.2</ele>
        <time>2022-08-18T12:10:19Z</time>
      </trkpt>
      <trkpt lat="46.49119" lon="5.34682">
        <ele>225</ele>
        <time>2022-08-18T12:10:20Z</time>
      </trkpt>
      <trkpt lat="46.49129" lon="5.34617">
        <ele>224.4</ele>
        <time>2022-08-18T12:10:26Z</time>
      </trkpt>
      <trkpt lat="46.49136" lon="5.34572">
        <ele>225</ele>
        <time>2022-08-18T12:10:31Z</time>
      </trkpt>
      <trkpt lat="46.49144" lon="5.34524">
        <ele>225</ele>
        <time>2022-08-18T12:10:36Z</time>
      </trkpt>
      <trkpt lat="46.49147" lon="5.34514">
        <ele>225</ele>
        <time>2022-08-18T12:10:37Z</time>
      </trkpt>
      <trkpt lat="46.49157" lon="5.34462">
        <ele>224.6</ele>
        <time>2022-08-18T12:10:42Z</time>
      </trkpt>
      <trkpt lat="46.49173" lon="5.3439">
        <ele>224.2</ele>
        <time>2022-08-18T12:10:49Z</time>
      </trkpt>
      <trkpt lat="46.49181" lon="5.34343">
        <ele>224.4</ele>
        <time>2022-08-18T12:10:54Z</time>
      </trkpt>
      <trkpt lat="46.49184" lon="5.34327">
        <ele>224.6</ele>
        <time>2022-08-18T12:10:56Z</time>
      </trkpt>
      <trkpt lat="46.49188" lon="5.3431">
        <ele>225</ele>
        <time>2022-08-18T12:10:58Z</time>
      </trkpt>
      <trkpt lat="46.4919" lon="5.343">
        <ele>225.4</ele>
        <time>2022-08-18T12:10:59Z</time>
      </trkpt>
      <trkpt lat="46.49201" lon="5.34248">
        <ele>225.6</ele>
        <time>2022-08-18T12:11:04Z</time>
      </trkpt>
      <trkpt lat="46.49218" lon="5.34184">
        <ele>225.2</ele>
        <time>2022-08-18T12:11:10Z</time>
      </trkpt>
      <trkpt lat="46.4923" lon="5.34115">
        <ele>224.6</ele>
        <time>2022-08-18T12:11:17Z</time>
      </trkpt>
      <trkpt lat="46.49236" lon="5.34075">
        <ele>225</ele>
        <time>2022-08-18T12:11:22Z</time>
      </trkpt>
      <trkpt lat="46.49238" lon="5.3406">
        <ele>225.4</ele>
        <time>2022-08-18T12:11:24Z</time>
      </trkpt>
      <trkpt lat="46.49242" lon="5.34037">
        <ele>226.2</ele>
        <time>2022-08-18T12:11:27Z</time>
      </trkpt>
      <trkpt lat="46.49252" lon="5.33985">
        <ele>226.6</ele>
        <time>2022-08-18T12:11:33Z</time>
      </trkpt>
      <trkpt lat="46.49259" lon="5.33948">
        <ele>227.2</ele>
        <time>2022-08-18T12:11:37Z</time>
      </trkpt>
      <trkpt lat="46.4926" lon="5.33939">
        <ele>227.2</ele>
        <time>2022-08-18T12:11:38Z</time>
      </trkpt>
      <trkpt lat="46.49263" lon="5.33921">
        <ele>227.2</ele>
        <time>2022-08-18T12:11:40Z</time>
      </trkpt>
      <trkpt lat="46.49269" lon="5.33895">
        <ele>227.2</ele>
        <time>2022-08-18T12:11:43Z</time>
      </trkpt>
      <trkpt lat="46.49273" lon="5.33878">
        <ele>227.2</ele>
        <time>2022-08-18T12:11:45Z</time>
      </trkpt>
      <trkpt lat="46.49285" lon="5.33827">
        <ele>227.2</ele>
        <time>2022-08-18T12:11:51Z</time>
      </trkpt>
      <trkpt lat="46.49288" lon="5.33818">
        <ele>227</ele>
        <time>2022-08-18T12:11:52Z</time>
      </trkpt>
      <trkpt lat="46.49297" lon="5.33782">
        <ele>227</ele>
        <time>2022-08-18T12:11:56Z</time>
      </trkpt>
      <trkpt lat="46.49301" lon="5.3375">
        <ele>226.8</ele>
        <time>2022-08-18T12:11:59Z</time>
      </trkpt>
      <trkpt lat="46.49304" lon="5.33711">
        <ele>226.8</ele>
        <time>2022-08-18T12:12:03Z</time>
      </trkpt>
      <trkpt lat="46.49306" lon="5.3364">
        <ele>226</ele>
        <time>2022-08-18T12:12:10Z</time>
      </trkpt>
      <trkpt lat="46.49306" lon="5.33627">
        <ele>226</ele>
        <time>2022-08-18T12:12:11Z</time>
      </trkpt>
      <trkpt lat="46.49315" lon="5.33566">
        <ele>225.6</ele>
        <time>2022-08-18T12:12:17Z</time>
      </trkpt>
      <trkpt lat="46.49318" lon="5.33549">
        <ele>225.4</ele>
        <time>2022-08-18T12:12:19Z</time>
      </trkpt>
      <trkpt lat="46.49318" lon="5.33529">
        <ele>225.2</ele>
        <time>2022-08-18T12:12:21Z</time>
      </trkpt>
      <trkpt lat="46.49311" lon="5.3347">
        <ele>225</ele>
        <time>2022-08-18T12:12:27Z</time>
      </trkpt>
      <trkpt lat="46.49303" lon="5.3342">
        <ele>225</ele>
        <time>2022-08-18T12:12:32Z</time>
      </trkpt>
      <trkpt lat="46.49296" lon="5.33388">
        <ele>225</ele>
        <time>2022-08-18T12:12:35Z</time>
      </trkpt>
      <trkpt lat="46.49279" lon="5.33299">
        <ele>224.2</ele>
        <time>2022-08-18T12:12:43Z</time>
      </trkpt>
      <trkpt lat="46.49275" lon="5.3328">
        <ele>224</ele>
        <time>2022-08-18T12:12:45Z</time>
      </trkpt>
      <trkpt lat="46.49263" lon="5.33226">
        <ele>223.6</ele>
        <time>2022-08-18T12:12:50Z</time>
      </trkpt>
      <trkpt lat="46.49258" lon="5.33213">
        <ele>223.4</ele>
        <time>2022-08-18T12:12:51Z</time>
      </trkpt>
      <trkpt lat="46.49249" lon="5.33196">
        <ele>223</ele>
        <time>2022-08-18T12:12:53Z</time>
      </trkpt>
      <trkpt lat="46.49244" lon="5.3319">
        <ele>222.8</ele>
        <time>2022-08-18T12:12:54Z</time>
      </trkpt>
      <trkpt lat="46.49238" lon="5.33183">
        <ele>222.8</ele>
        <time>2022-08-18T12:12:55Z</time>
      </trkpt>
      <trkpt lat="46.49214" lon="5.33165">
        <ele>222.2</ele>
        <time>2022-08-18T12:12:58Z</time>
      </trkpt>
      <trkpt lat="46.49186" lon="5.33142">
        <ele>221.8</ele>
        <time>2022-08-18T12:13:02Z</time>
      </trkpt>
      <trkpt lat="46.49166" lon="5.3312">
        <ele>221.4</ele>
        <time>2022-08-18T12:13:05Z</time>
      </trkpt>
      <trkpt lat="46.49157" lon="5.33104">
        <ele>221.2</ele>
        <time>2022-08-18T12:13:07Z</time>
      </trkpt>
      <trkpt lat="46.49149" lon="5.33084">
        <ele>221</ele>
        <time>2022-08-18T12:13:09Z</time>
      </trkpt>
      <trkpt lat="46.49135" lon="5.33031">
        <ele>221</ele>
        <time>2022-08-18T12:13:14Z</time>
      </trkpt>
      <trkpt lat="46.49127" lon="5.32977">
        <ele>220.6</ele>
        <time>2022-08-18T12:13:19Z</time>
      </trkpt>
      <trkpt lat="46.49124" lon="5.32943">
        <ele>220.6</ele>
        <time>2022-08-18T12:13:22Z</time>
      </trkpt>
      <trkpt lat="46.49125" lon="5.32889">
        <ele>220</ele>
        <time>2022-08-18T12:13:27Z</time>
      </trkpt>
      <trkpt lat="46.49126" lon="5.32883">
        <ele>219.8</ele>
        <time>2022-08-18T12:13:28Z</time>
      </trkpt>
      <trkpt lat="46.49132" lon="5.32863">
        <ele>219.6</ele>
        <time>2022-08-18T12:13:30Z</time>
      </trkpt>
      <trkpt lat="46.49135" lon="5.32853">
        <ele>219.6</ele>
        <time>2022-08-18T12:13:31Z</time>
      </trkpt>
      <trkpt lat="46.49138" lon="5.32844">
        <ele>219.6</ele>
        <time>2022-08-18T12:13:32Z</time>
      </trkpt>
      <trkpt lat="46.4914" lon="5.32833">
        <ele>219.4</ele>
        <time>2022-08-18T12:13:33Z</time>
      </trkpt>
      <trkpt lat="46.49142" lon="5.32808">
        <ele>219.4</ele>
        <time>2022-08-18T12:13:35Z</time>
      </trkpt>
      <trkpt lat="46.49141" lon="5.32797">
        <ele>219.2</ele>
        <time>2022-08-18T12:13:36Z</time>
      </trkpt>
      <trkpt lat="46.49133" lon="5.32742">
        <ele>219.8</ele>
        <time>2022-08-18T12:13:42Z</time>
      </trkpt>
      <trkpt lat="46.4913" lon="5.32733">
        <ele>219.8</ele>
        <time>2022-08-18T12:13:43Z</time>
      </trkpt>
      <trkpt lat="46.49128" lon="5.32723">
        <ele>219.8</ele>
        <time>2022-08-18T12:13:44Z</time>
      </trkpt>
      <trkpt lat="46.49119" lon="5.32707">
        <ele>219.8</ele>
        <time>2022-08-18T12:13:46Z</time>
      </trkpt>
      <trkpt lat="46.49114" lon="5.327">
        <ele>219.8</ele>
        <time>2022-08-18T12:13:47Z</time>
      </trkpt>
      <trkpt lat="46.49107" lon="5.32695">
        <ele>219.8</ele>
        <time>2022-08-18T12:13:48Z</time>
      </trkpt>
      <trkpt lat="46.49092" lon="5.32692">
        <ele>219.6</ele>
        <time>2022-08-18T12:13:50Z</time>
      </trkpt>
      <trkpt lat="46.49058" lon="5.327">
        <ele>219.2</ele>
        <time>2022-08-18T12:13:54Z</time>
      </trkpt>
      <trkpt lat="46.49039" lon="5.32703">
        <ele>218.4</ele>
        <time>2022-08-18T12:13:56Z</time>
      </trkpt>
      <trkpt lat="46.4901" lon="5.32708">
        <ele>216.8</ele>
        <time>2022-08-18T12:13:59Z</time>
      </trkpt>
      <trkpt lat="46.48999" lon="5.32708">
        <ele>216.6</ele>
        <time>2022-08-18T12:14:00Z</time>
      </trkpt>
      <trkpt lat="46.48968" lon="5.32706">
        <ele>215.4</ele>
        <time>2022-08-18T12:14:03Z</time>
      </trkpt>
      <trkpt lat="46.48958" lon="5.32701">
        <ele>214.6</ele>
        <time>2022-08-18T12:14:04Z</time>
      </trkpt>
      <trkpt lat="46.48948" lon="5.32695">
        <ele>214.4</ele>
        <time>2022-08-18T12:14:05Z</time>
      </trkpt>
      <trkpt lat="46.48938" lon="5.32685">
        <ele>213.8</ele>
        <time>2022-08-18T12:14:06Z</time>
      </trkpt>
      <trkpt lat="46.48921" lon="5.32662">
        <ele>212.4</ele>
        <time>2022-08-18T12:14:08Z</time>
      </trkpt>
      <trkpt lat="46.48914" lon="5.32647">
        <ele>212</ele>
        <time>2022-08-18T12:14:09Z</time>
      </trkpt>
      <trkpt lat="46.48911" lon="5.32631">
        <ele>211.4</ele>
        <time>2022-08-18T12:14:10Z</time>
      </trkpt>
      <trkpt lat="46.48911" lon="5.32613">
        <ele>210</ele>
        <time>2022-08-18T12:14:11Z</time>
      </trkpt>
      <trkpt lat="46.48914" lon="5.32597">
        <ele>209.6</ele>
        <time>2022-08-18T12:14:12Z</time>
      </trkpt>
      <trkpt lat="46.4892" lon="5.32583">
        <ele>208.8</ele>
        <time>2022-08-18T12:14:13Z</time>
      </trkpt>
      <trkpt lat="46.4893" lon="5.3257">
        <ele>208.4</ele>
        <time>2022-08-18T12:14:14Z</time>
      </trkpt>
      <trkpt lat="46.48938" lon="5.32559">
        <ele>207.4</ele>
        <time>2022-08-18T12:14:15Z</time>
      </trkpt>
      <trkpt lat="46.48946" lon="5.32545">
        <ele>207</ele>
        <time>2022-08-18T12:14:16Z</time>
      </trkpt>
      <trkpt lat="46.4895" lon="5.32531">
        <ele>206.2</ele>
        <time>2022-08-18T12:14:17Z</time>
      </trkpt>
      <trkpt lat="46.48951" lon="5.32516">
        <ele>205.6</ele>
        <time>2022-08-18T12:14:18Z</time>
      </trkpt>
      <trkpt lat="46.48949" lon="5.32488">
        <ele>204.8</ele>
        <time>2022-08-18T12:14:20Z</time>
      </trkpt>
      <trkpt lat="46.48932" lon="5.32438">
        <ele>203.6</ele>
        <time>2022-08-18T12:14:24Z</time>
      </trkpt>
      <trkpt lat="46.48925" lon="5.32415">
        <ele>203.2</ele>
        <time>2022-08-18T12:14:26Z</time>
      </trkpt>
      <trkpt lat="46.4891" lon="5.3236">
        <ele>203</ele>
        <time>2022-08-18T12:14:31Z</time>
      </trkpt>
      <trkpt lat="46.48903" lon="5.32338">
        <ele>202.8</ele>
        <time>2022-08-18T12:14:33Z</time>
      </trkpt>
      <trkpt lat="46.48894" lon="5.32322">
        <ele>203</ele>
        <time>2022-08-18T12:14:35Z</time>
      </trkpt>
      <trkpt lat="46.48872" lon="5.32289">
        <ele>203.8</ele>
        <time>2022-08-18T12:14:40Z</time>
      </trkpt>
      <trkpt lat="46.48862" lon="5.32275">
        <ele>204.6</ele>
        <time>2022-08-18T12:14:43Z</time>
      </trkpt>
      <trkpt lat="46.48852" lon="5.32262">
        <ele>205.2</ele>
        <time>2022-08-18T12:14:46Z</time>
      </trkpt>
      <trkpt lat="46.48849" lon="5.32257">
        <ele>205.8</ele>
        <time>2022-08-18T12:14:47Z</time>
      </trkpt>
      <trkpt lat="46.4884" lon="5.32244">
        <ele>207</ele>
        <time>2022-08-18T12:14:50Z</time>
      </trkpt>
      <trkpt lat="46.48835" lon="5.32233">
        <ele>207.8</ele>
        <time>2022-08-18T12:14:52Z</time>
      </trkpt>
      <trkpt lat="46.48831" lon="5.32218">
        <ele>208.4</ele>
        <time>2022-08-18T12:14:54Z</time>
      </trkpt>
      <trkpt lat="46.48829" lon="5.3221">
        <ele>208.8</ele>
        <time>2022-08-18T12:14:55Z</time>
      </trkpt>
      <trkpt lat="46.48828" lon="5.32201">
        <ele>209</ele>
        <time>2022-08-18T12:14:56Z</time>
      </trkpt>
      <trkpt lat="46.48823" lon="5.32141">
        <ele>208.8</ele>
        <time>2022-08-18T12:15:02Z</time>
      </trkpt>
      <trkpt lat="46.48824" lon="5.3213">
        <ele>208.6</ele>
        <time>2022-08-18T12:15:03Z</time>
      </trkpt>
      <trkpt lat="46.48829" lon="5.32098">
        <ele>208</ele>
        <time>2022-08-18T12:15:06Z</time>
      </trkpt>
      <trkpt lat="46.48835" lon="5.32067">
        <ele>207.2</ele>
        <time>2022-08-18T12:15:09Z</time>
      </trkpt>
      <trkpt lat="46.48844" lon="5.32016">
        <ele>206.6</ele>
        <time>2022-08-18T12:15:14Z</time>
      </trkpt>
      <trkpt lat="46.48847" lon="5.31962">
        <ele>206.2</ele>
        <time>2022-08-18T12:15:19Z</time>
      </trkpt>
      <trkpt lat="46.48847" lon="5.31951">
        <ele>206</ele>
        <time>2022-08-18T12:15:20Z</time>
      </trkpt>
      <trkpt lat="46.48839" lon="5.31882">
        <ele>205</ele>
        <time>2022-08-18T12:15:26Z</time>
      </trkpt>
      <trkpt lat="46.48836" lon="5.31872">
        <ele>204.6</ele>
        <time>2022-08-18T12:15:27Z</time>
      </trkpt>
      <trkpt lat="46.48831" lon="5.31863">
        <ele>204.4</ele>
        <time>2022-08-18T12:15:28Z</time>
      </trkpt>
      <trkpt lat="46.48825" lon="5.31855">
        <ele>204.2</ele>
        <time>2022-08-18T12:15:29Z</time>
      </trkpt>
      <trkpt lat="46.48818" lon="5.3185">
        <ele>204</ele>
        <time>2022-08-18T12:15:30Z</time>
      </trkpt>
      <trkpt lat="46.48803" lon="5.31844">
        <ele>203.8</ele>
        <time>2022-08-18T12:15:32Z</time>
      </trkpt>
      <trkpt lat="46.48796" lon="5.3184">
        <ele>203.8</ele>
        <time>2022-08-18T12:15:33Z</time>
      </trkpt>
      <trkpt lat="46.48789" lon="5.31833">
        <ele>203.4</ele>
        <time>2022-08-18T12:15:34Z</time>
      </trkpt>
      <trkpt lat="46.48784" lon="5.31824">
        <ele>203.4</ele>
        <time>2022-08-18T12:15:35Z</time>
      </trkpt>
      <trkpt lat="46.48779" lon="5.31803">
        <ele>203.4</ele>
        <time>2022-08-18T12:15:37Z</time>
      </trkpt>
      <trkpt lat="46.48779" lon="5.31792">
        <ele>203.4</ele>
        <time>2022-08-18T12:15:38Z</time>
      </trkpt>
      <trkpt lat="46.48775" lon="5.3173">
        <ele>203.4</ele>
        <time>2022-08-18T12:15:44Z</time>
      </trkpt>
      <trkpt lat="46.48773" lon="5.31721">
        <ele>203.4</ele>
        <time>2022-08-18T12:15:45Z</time>
      </trkpt>
      <trkpt lat="46.4877" lon="5.31712">
        <ele>203.4</ele>
        <time>2022-08-18T12:15:46Z</time>
      </trkpt>
      <trkpt lat="46.48762" lon="5.31699">
        <ele>203.6</ele>
        <time>2022-08-18T12:15:48Z</time>
      </trkpt>
      <trkpt lat="46.48731" lon="5.31659">
        <ele>204.4</ele>
        <time>2022-08-18T12:15:55Z</time>
      </trkpt>
      <trkpt lat="46.48727" lon="5.31654">
        <ele>204.6</ele>
        <time>2022-08-18T12:15:56Z</time>
      </trkpt>
      <trkpt lat="46.4871" lon="5.31633">
        <ele>205</ele>
        <time>2022-08-18T12:16:00Z</time>
      </trkpt>
      <trkpt lat="46.48706" lon="5.31627">
        <ele>205.2</ele>
        <time>2022-08-18T12:16:01Z</time>
      </trkpt>
      <trkpt lat="46.48687" lon="5.31604">
        <ele>205.2</ele>
        <time>2022-08-18T12:16:04Z</time>
      </trkpt>
      <trkpt lat="46.48649" lon="5.31556">
        <ele>204.8</ele>
        <time>2022-08-18T12:16:11Z</time>
      </trkpt>
      <trkpt lat="46.4863" lon="5.31531">
        <ele>204.8</ele>
        <time>2022-08-18T12:16:15Z</time>
      </trkpt>
      <trkpt lat="46.48625" lon="5.31524">
        <ele>204.8</ele>
        <time>2022-08-18T12:16:16Z</time>
      </trkpt>
      <trkpt lat="46.48616" lon="5.31508">
        <ele>204.6</ele>
        <time>2022-08-18T12:16:18Z</time>
      </trkpt>
      <trkpt lat="46.48608" lon="5.31487">
        <ele>204.6</ele>
        <time>2022-08-18T12:16:20Z</time>
      </trkpt>
      <trkpt lat="46.48605" lon="5.31469">
        <ele>204.6</ele>
        <time>2022-08-18T12:16:22Z</time>
      </trkpt>
      <trkpt lat="46.48605" lon="5.31459">
        <ele>204.4</ele>
        <time>2022-08-18T12:16:23Z</time>
      </trkpt>
      <trkpt lat="46.48606" lon="5.31438">
        <ele>204.6</ele>
        <time>2022-08-18T12:16:25Z</time>
      </trkpt>
      <trkpt lat="46.48602" lon="5.31419">
        <ele>204.6</ele>
        <time>2022-08-18T12:16:27Z</time>
      </trkpt>
      <trkpt lat="46.48595" lon="5.31403">
        <ele>204.8</ele>
        <time>2022-08-18T12:16:29Z</time>
      </trkpt>
      <trkpt lat="46.48588" lon="5.31393">
        <ele>204.8</ele>
        <time>2022-08-18T12:16:31Z</time>
      </trkpt>
      <trkpt lat="46.48579" lon="5.31384">
        <ele>205.4</ele>
        <time>2022-08-18T12:16:33Z</time>
      </trkpt>
      <trkpt lat="46.48572" lon="5.31377">
        <ele>205.6</ele>
        <time>2022-08-18T12:16:35Z</time>
      </trkpt>
      <trkpt lat="46.48565" lon="5.31366">
        <ele>206</ele>
        <time>2022-08-18T12:16:37Z</time>
      </trkpt>
      <trkpt lat="46.48562" lon="5.31361">
        <ele>206</ele>
        <time>2022-08-18T12:16:38Z</time>
      </trkpt>
      <trkpt lat="46.48559" lon="5.3135">
        <ele>206.6</ele>
        <time>2022-08-18T12:16:40Z</time>
      </trkpt>
      <trkpt lat="46.48558" lon="5.31344">
        <ele>206.6</ele>
        <time>2022-08-18T12:16:41Z</time>
      </trkpt>
      <trkpt lat="46.48556" lon="5.31323">
        <ele>207.8</ele>
        <time>2022-08-18T12:16:44Z</time>
      </trkpt>
      <trkpt lat="46.48555" lon="5.31304">
        <ele>208.6</ele>
        <time>2022-08-18T12:16:47Z</time>
      </trkpt>
      <trkpt lat="46.48553" lon="5.31289">
        <ele>209.2</ele>
        <time>2022-08-18T12:16:49Z</time>
      </trkpt>
      <trkpt lat="46.48551" lon="5.31249">
        <ele>210</ele>
        <time>2022-08-18T12:16:54Z</time>
      </trkpt>
      <trkpt lat="46.48552" lon="5.31241">
        <ele>210.2</ele>
        <time>2022-08-18T12:16:55Z</time>
      </trkpt>
      <trkpt lat="46.48555" lon="5.31228">
        <ele>210.6</ele>
        <time>2022-08-18T12:16:57Z</time>
      </trkpt>
      <trkpt lat="46.48558" lon="5.31219">
        <ele>210.6</ele>
        <time>2022-08-18T12:16:58Z</time>
      </trkpt>
      <trkpt lat="46.48561" lon="5.31213">
        <ele>210.6</ele>
        <time>2022-08-18T12:16:59Z</time>
      </trkpt>
      <trkpt lat="46.48572" lon="5.31191">
        <ele>211.4</ele>
        <time>2022-08-18T12:17:03Z</time>
      </trkpt>
      <trkpt lat="46.48578" lon="5.31178">
        <ele>211.8</ele>
        <time>2022-08-18T12:17:05Z</time>
      </trkpt>
      <trkpt lat="46.486" lon="5.31135">
        <ele>212.6</ele>
        <time>2022-08-18T12:17:13Z</time>
      </trkpt>
      <trkpt lat="46.48609" lon="5.31118">
        <ele>212.6</ele>
        <time>2022-08-18T12:17:16Z</time>
      </trkpt>
      <trkpt lat="46.48625" lon="5.31085">
        <ele>213.8</ele>
        <time>2022-08-18T12:17:22Z</time>
      </trkpt>
      <trkpt lat="46.4863" lon="5.31075">
        <ele>214.2</ele>
        <time>2022-08-18T12:17:24Z</time>
      </trkpt>
      <trkpt lat="46.48641" lon="5.31052">
        <ele>215</ele>
        <time>2022-08-18T12:17:28Z</time>
      </trkpt>
      <trkpt lat="46.48655" lon="5.31024">
        <ele>215.8</ele>
        <time>2022-08-18T12:17:33Z</time>
      </trkpt>
      <trkpt lat="46.4866" lon="5.31013">
        <ele>216</ele>
        <time>2022-08-18T12:17:35Z</time>
      </trkpt>
      <trkpt lat="46.48686" lon="5.30957">
        <ele>217</ele>
        <time>2022-08-18T12:17:44Z</time>
      </trkpt>
      <trkpt lat="46.48706" lon="5.30922">
        <ele>217</ele>
        <time>2022-08-18T12:17:49Z</time>
      </trkpt>
      <trkpt lat="46.48711" lon="5.30915">
        <ele>216.8</ele>
        <time>2022-08-18T12:17:50Z</time>
      </trkpt>
      <trkpt lat="46.48717" lon="5.30907">
        <ele>216.8</ele>
        <time>2022-08-18T12:17:51Z</time>
      </trkpt>
      <trkpt lat="46.48723" lon="5.30886">
        <ele>216.6</ele>
        <time>2022-08-18T12:17:53Z</time>
      </trkpt>
      <trkpt lat="46.48724" lon="5.30866">
        <ele>216.2</ele>
        <time>2022-08-18T12:17:55Z</time>
      </trkpt>
      <trkpt lat="46.4872" lon="5.30857">
        <ele>215.8</ele>
        <time>2022-08-18T12:17:56Z</time>
      </trkpt>
      <trkpt lat="46.48714" lon="5.30849">
        <ele>215</ele>
        <time>2022-08-18T12:17:57Z</time>
      </trkpt>
      <trkpt lat="46.48707" lon="5.30843">
        <ele>214.6</ele>
        <time>2022-08-18T12:17:58Z</time>
      </trkpt>
      <trkpt lat="46.48699" lon="5.30838">
        <ele>214.2</ele>
        <time>2022-08-18T12:17:59Z</time>
      </trkpt>
      <trkpt lat="46.48692" lon="5.30833">
        <ele>214</ele>
        <time>2022-08-18T12:18:00Z</time>
      </trkpt>
      <trkpt lat="46.48643" lon="5.30804">
        <ele>212.8</ele>
        <time>2022-08-18T12:18:06Z</time>
      </trkpt>
      <trkpt lat="46.48591" lon="5.30766">
        <ele>211.8</ele>
        <time>2022-08-18T12:18:13Z</time>
      </trkpt>
      <trkpt lat="46.48561" lon="5.30733">
        <ele>212.4</ele>
        <time>2022-08-18T12:18:19Z</time>
      </trkpt>
      <trkpt lat="46.48554" lon="5.30718">
        <ele>212.8</ele>
        <time>2022-08-18T12:18:21Z</time>
      </trkpt>
      <trkpt lat="46.4855" lon="5.30704">
        <ele>213</ele>
        <time>2022-08-18T12:18:23Z</time>
      </trkpt>
      <trkpt lat="46.48543" lon="5.30675">
        <ele>214</ele>
        <time>2022-08-18T12:18:27Z</time>
      </trkpt>
      <trkpt lat="46.48543" lon="5.30668">
        <ele>214</ele>
        <time>2022-08-18T12:18:28Z</time>
      </trkpt>
      <trkpt lat="46.48543" lon="5.3066">
        <ele>214.2</ele>
        <time>2022-08-18T12:18:29Z</time>
      </trkpt>
      <trkpt lat="46.48544" lon="5.30639">
        <ele>215</ele>
        <time>2022-08-18T12:18:32Z</time>
      </trkpt>
      <trkpt lat="46.48545" lon="5.30625">
        <ele>215.2</ele>
        <time>2022-08-18T12:18:34Z</time>
      </trkpt>
      <trkpt lat="46.48547" lon="5.30598">
        <ele>216</ele>
        <time>2022-08-18T12:18:38Z</time>
      </trkpt>
      <trkpt lat="46.48551" lon="5.30571">
        <ele>216.6</ele>
        <time>2022-08-18T12:18:42Z</time>
      </trkpt>
      <trkpt lat="46.48552" lon="5.30557">
        <ele>217.2</ele>
        <time>2022-08-18T12:18:44Z</time>
      </trkpt>
      <trkpt lat="46.48555" lon="5.30538">
        <ele>217.8</ele>
        <time>2022-08-18T12:18:47Z</time>
      </trkpt>
      <trkpt lat="46.48558" lon="5.30524">
        <ele>218.2</ele>
        <time>2022-08-18T12:18:49Z</time>
      </trkpt>
      <trkpt lat="46.48558" lon="5.30516">
        <ele>218.4</ele>
        <time>2022-08-18T12:18:50Z</time>
      </trkpt>
      <trkpt lat="46.48558" lon="5.30504">
        <ele>218.6</ele>
        <time>2022-08-18T12:18:52Z</time>
      </trkpt>
      <trkpt lat="46.48552" lon="5.30498">
        <ele>219</ele>
        <time>2022-08-18T12:18:54Z</time>
      </trkpt>
      <trkpt lat="46.48547" lon="5.30496">
        <ele>219</ele>
        <time>2022-08-18T12:18:55Z</time>
      </trkpt>
      <trkpt lat="46.48543" lon="5.30497">
        <ele>219</ele>
        <time>2022-08-18T12:18:56Z</time>
      </trkpt>
      <trkpt lat="46.48538" lon="5.30499">
        <ele>219.2</ele>
        <time>2022-08-18T12:18:57Z</time>
      </trkpt>
      <trkpt lat="46.48527" lon="5.30506">
        <ele>219.4</ele>
        <time>2022-08-18T12:18:59Z</time>
      </trkpt>
      <trkpt lat="46.48511" lon="5.30517">
        <ele>219.6</ele>
        <time>2022-08-18T12:19:02Z</time>
      </trkpt>
      <trkpt lat="46.48495" lon="5.30532">
        <ele>219.6</ele>
        <time>2022-08-18T12:19:05Z</time>
      </trkpt>
      <trkpt lat="46.48449" lon="5.30577">
        <ele>219.6</ele>
        <time>2022-08-18T12:19:13Z</time>
      </trkpt>
      <trkpt lat="46.48398" lon="5.30625">
        <ele>219</ele>
        <time>2022-08-18T12:19:21Z</time>
      </trkpt>
      <trkpt lat="46.48392" lon="5.30631">
        <ele>219</ele>
        <time>2022-08-18T12:19:22Z</time>
      </trkpt>
      <trkpt lat="46.48345" lon="5.30674">
        <ele>218.6</ele>
        <time>2022-08-18T12:19:29Z</time>
      </trkpt>
      <trkpt lat="46.48332" lon="5.30685">
        <ele>218.4</ele>
        <time>2022-08-18T12:19:31Z</time>
      </trkpt>
      <trkpt lat="46.48324" lon="5.30689">
        <ele>218.2</ele>
        <time>2022-08-18T12:19:32Z</time>
      </trkpt>
      <trkpt lat="46.48301" lon="5.30696">
        <ele>218</ele>
        <time>2022-08-18T12:19:35Z</time>
      </trkpt>
      <trkpt lat="46.48279" lon="5.30694">
        <ele>217.8</ele>
        <time>2022-08-18T12:19:38Z</time>
      </trkpt>
      <trkpt lat="46.48272" lon="5.30692">
        <ele>217.8</ele>
        <time>2022-08-18T12:19:39Z</time>
      </trkpt>
      <trkpt lat="46.48238" lon="5.30683">
        <ele>218</ele>
        <time>2022-08-18T12:19:44Z</time>
      </trkpt>
      <trkpt lat="46.48219" lon="5.30681">
        <ele>218.2</ele>
        <time>2022-08-18T12:19:47Z</time>
      </trkpt>
      <trkpt lat="46.48207" lon="5.30683">
        <ele>218.6</ele>
        <time>2022-08-18T12:19:49Z</time>
      </trkpt>
      <trkpt lat="46.48191" lon="5.30689">
        <ele>219.2</ele>
        <time>2022-08-18T12:19:52Z</time>
      </trkpt>
      <trkpt lat="46.48175" lon="5.30698">
        <ele>219.6</ele>
        <time>2022-08-18T12:19:55Z</time>
      </trkpt>
      <trkpt lat="46.48154" lon="5.3071">
        <ele>220.4</ele>
        <time>2022-08-18T12:19:59Z</time>
      </trkpt>
      <trkpt lat="46.48128" lon="5.30725">
        <ele>221.2</ele>
        <time>2022-08-18T12:20:04Z</time>
      </trkpt>
      <trkpt lat="46.48112" lon="5.30733">
        <ele>221.4</ele>
        <time>2022-08-18T12:20:07Z</time>
      </trkpt>
      <trkpt lat="46.48083" lon="5.30749">
        <ele>221.6</ele>
        <time>2022-08-18T12:20:12Z</time>
      </trkpt>
      <trkpt lat="46.48034" lon="5.30777">
        <ele>221.8</ele>
        <time>2022-08-18T12:20:20Z</time>
      </trkpt>
      <trkpt lat="46.47982" lon="5.30806">
        <ele>221.2</ele>
        <time>2022-08-18T12:20:27Z</time>
      </trkpt>
      <trkpt lat="46.47949" lon="5.30816">
        <ele>220.6</ele>
        <time>2022-08-18T12:20:31Z</time>
      </trkpt>
      <trkpt lat="46.47941" lon="5.30817">
        <ele>220.4</ele>
        <time>2022-08-18T12:20:32Z</time>
      </trkpt>
      <trkpt lat="46.47934" lon="5.30816">
        <ele>220.4</ele>
        <time>2022-08-18T12:20:33Z</time>
      </trkpt>
      <trkpt lat="46.47913" lon="5.30811">
        <ele>220.4</ele>
        <time>2022-08-18T12:20:36Z</time>
      </trkpt>
      <trkpt lat="46.47886" lon="5.30802">
        <ele>221.2</ele>
        <time>2022-08-18T12:20:41Z</time>
      </trkpt>
      <trkpt lat="46.47881" lon="5.308">
        <ele>221.4</ele>
        <time>2022-08-18T12:20:42Z</time>
      </trkpt>
      <trkpt lat="46.47866" lon="5.30796">
        <ele>222.6</ele>
        <time>2022-08-18T12:20:45Z</time>
      </trkpt>
      <trkpt lat="46.47855" lon="5.30794">
        <ele>223.2</ele>
        <time>2022-08-18T12:20:47Z</time>
      </trkpt>
      <trkpt lat="46.47851" lon="5.30792">
        <ele>223.6</ele>
        <time>2022-08-18T12:20:48Z</time>
      </trkpt>
      <trkpt lat="46.47846" lon="5.30788">
        <ele>224</ele>
        <time>2022-08-18T12:20:49Z</time>
      </trkpt>
      <trkpt lat="46.47831" lon="5.30774">
        <ele>224.6</ele>
        <time>2022-08-18T12:20:52Z</time>
      </trkpt>
      <trkpt lat="46.47825" lon="5.3077">
        <ele>224.6</ele>
        <time>2022-08-18T12:20:53Z</time>
      </trkpt>
      <trkpt lat="46.47817" lon="5.30769">
        <ele>224.6</ele>
        <time>2022-08-18T12:20:54Z</time>
      </trkpt>
      <trkpt lat="46.47809" lon="5.30768">
        <ele>224.6</ele>
        <time>2022-08-18T12:20:55Z</time>
      </trkpt>
      <trkpt lat="46.47767" lon="5.30773">
        <ele>224.2</ele>
        <time>2022-08-18T12:21:00Z</time>
      </trkpt>
      <trkpt lat="46.47743" lon="5.30777">
        <ele>223.4</ele>
        <time>2022-08-18T12:21:03Z</time>
      </trkpt>
      <trkpt lat="46.47691" lon="5.30785">
        <ele>223</ele>
        <time>2022-08-18T12:21:10Z</time>
      </trkpt>
      <trkpt lat="46.47635" lon="5.30794">
        <ele>223.4</ele>
        <time>2022-08-18T12:21:18Z</time>
      </trkpt>
      <trkpt lat="46.47577" lon="5.30803">
        <ele>223.4</ele>
        <time>2022-08-18T12:21:26Z</time>
      </trkpt>
      <trkpt lat="46.47548" lon="5.30808">
        <ele>223.4</ele>
        <time>2022-08-18T12:21:30Z</time>
      </trkpt>
      <trkpt lat="46.47498" lon="5.30827">
        <ele>223.4</ele>
        <time>2022-08-18T12:21:37Z</time>
      </trkpt>
      <trkpt lat="46.47447" lon="5.30854">
        <ele>222.8</ele>
        <time>2022-08-18T12:21:44Z</time>
      </trkpt>
      <trkpt lat="46.47394" lon="5.3088">
        <ele>222.6</ele>
        <time>2022-08-18T12:21:51Z</time>
      </trkpt>
      <trkpt lat="46.47379" lon="5.30886">
        <ele>222.6</ele>
        <time>2022-08-18T12:21:53Z</time>
      </trkpt>
      <trkpt lat="46.47351" lon="5.30896">
        <ele>222.6</ele>
        <time>2022-08-18T12:21:57Z</time>
      </trkpt>
      <trkpt lat="46.47344" lon="5.30895">
        <ele>222.6</ele>
        <time>2022-08-18T12:21:58Z</time>
      </trkpt>
      <trkpt lat="46.47339" lon="5.3089">
        <ele>222.4</ele>
        <time>2022-08-18T12:21:59Z</time>
      </trkpt>
      <trkpt lat="46.47334" lon="5.30884">
        <ele>222.4</ele>
        <time>2022-08-18T12:22:00Z</time>
      </trkpt>
      <trkpt lat="46.47331" lon="5.30875">
        <ele>222.4</ele>
        <time>2022-08-18T12:22:01Z</time>
      </trkpt>
      <trkpt lat="46.47329" lon="5.30864">
        <ele>222.4</ele>
        <time>2022-08-18T12:22:02Z</time>
      </trkpt>
      <trkpt lat="46.47324" lon="5.3082">
        <ele>222.2</ele>
        <time>2022-08-18T12:22:06Z</time>
      </trkpt>
      <trkpt lat="46.47321" lon="5.30765">
        <ele>222.2</ele>
        <time>2022-08-18T12:22:11Z</time>
      </trkpt>
      <trkpt lat="46.47318" lon="5.30694">
        <ele>222.2</ele>
        <time>2022-08-18T12:22:18Z</time>
      </trkpt>
      <trkpt lat="46.47317" lon="5.30665">
        <ele>222.4</ele>
        <time>2022-08-18T12:22:21Z</time>
      </trkpt>
      <trkpt lat="46.47313" lon="5.30646">
        <ele>222.4</ele>
        <time>2022-08-18T12:22:23Z</time>
      </trkpt>
      <trkpt lat="46.47304" lon="5.3063">
        <ele>222.4</ele>
        <time>2022-08-18T12:22:25Z</time>
      </trkpt>
      <trkpt lat="46.47298" lon="5.30623">
        <ele>222.4</ele>
        <time>2022-08-18T12:22:26Z</time>
      </trkpt>
      <trkpt lat="46.47264" lon="5.30581">
        <ele>222.6</ele>
        <time>2022-08-18T12:22:32Z</time>
      </trkpt>
      <trkpt lat="46.47258" lon="5.30575">
        <ele>222.6</ele>
        <time>2022-08-18T12:22:33Z</time>
      </trkpt>
      <trkpt lat="46.47238" lon="5.30561">
        <ele>222.8</ele>
        <time>2022-08-18T12:22:36Z</time>
      </trkpt>
      <trkpt lat="46.47231" lon="5.30557">
        <ele>222.8</ele>
        <time>2022-08-18T12:22:37Z</time>
      </trkpt>
      <trkpt lat="46.47217" lon="5.30554">
        <ele>222.8</ele>
        <time>2022-08-18T12:22:39Z</time>
      </trkpt>
      <trkpt lat="46.4721" lon="5.30553">
        <ele>222.8</ele>
        <time>2022-08-18T12:22:40Z</time>
      </trkpt>
      <trkpt lat="46.47161" lon="5.30556">
        <ele>222.6</ele>
        <time>2022-08-18T12:22:47Z</time>
      </trkpt>
      <trkpt lat="46.47129" lon="5.30544">
        <ele>222.8</ele>
        <time>2022-08-18T12:22:52Z</time>
      </trkpt>
      <trkpt lat="46.4711" lon="5.30535">
        <ele>223.2</ele>
        <time>2022-08-18T12:22:55Z</time>
      </trkpt>
      <trkpt lat="46.47081" lon="5.30513">
        <ele>223.4</ele>
        <time>2022-08-18T12:23:00Z</time>
      </trkpt>
      <trkpt lat="46.47038" lon="5.30476">
        <ele>223.4</ele>
        <time>2022-08-18T12:23:07Z</time>
      </trkpt>
      <trkpt lat="46.46986" lon="5.3043">
        <ele>223</ele>
        <time>2022-08-18T12:23:15Z</time>
      </trkpt>
      <trkpt lat="46.46938" lon="5.30397">
        <ele>222.4</ele>
        <time>2022-08-18T12:23:22Z</time>
      </trkpt>
      <trkpt lat="46.46904" lon="5.30384">
        <ele>222.2</ele>
        <time>2022-08-18T12:23:27Z</time>
      </trkpt>
      <trkpt lat="46.4689" lon="5.30378">
        <ele>222.2</ele>
        <time>2022-08-18T12:23:29Z</time>
      </trkpt>
      <trkpt lat="46.4686" lon="5.30355">
        <ele>222.2</ele>
        <time>2022-08-18T12:23:34Z</time>
      </trkpt>
      <trkpt lat="46.46821" lon="5.30309">
        <ele>222.4</ele>
        <time>2022-08-18T12:23:41Z</time>
      </trkpt>
      <trkpt lat="46.46778" lon="5.30257">
        <ele>222.8</ele>
        <time>2022-08-18T12:23:49Z</time>
      </trkpt>
      <trkpt lat="46.46772" lon="5.30251">
        <ele>222.8</ele>
        <time>2022-08-18T12:23:50Z</time>
      </trkpt>
      <trkpt lat="46.46741" lon="5.30211">
        <ele>223</ele>
        <time>2022-08-18T12:23:56Z</time>
      </trkpt>
      <trkpt lat="46.46738" lon="5.30203">
        <ele>223</ele>
        <time>2022-08-18T12:23:57Z</time>
      </trkpt>
      <trkpt lat="46.46721" lon="5.30146">
        <ele>222.6</ele>
        <time>2022-08-18T12:24:03Z</time>
      </trkpt>
      <trkpt lat="46.46705" lon="5.30086">
        <ele>222.2</ele>
        <time>2022-08-18T12:24:09Z</time>
      </trkpt>
      <trkpt lat="46.467" lon="5.3008">
        <ele>222</ele>
        <time>2022-08-18T12:24:10Z</time>
      </trkpt>
      <trkpt lat="46.46693" lon="5.30075">
        <ele>222</ele>
        <time>2022-08-18T12:24:11Z</time>
      </trkpt>
      <trkpt lat="46.46679" lon="5.30069">
        <ele>222</ele>
        <time>2022-08-18T12:24:13Z</time>
      </trkpt>
      <trkpt lat="46.46645" lon="5.30056">
        <ele>222</ele>
        <time>2022-08-18T12:24:18Z</time>
      </trkpt>
      <trkpt lat="46.46638" lon="5.30056">
        <ele>222</ele>
        <time>2022-08-18T12:24:19Z</time>
      </trkpt>
      <trkpt lat="46.46625" lon="5.30056">
        <ele>222.2</ele>
        <time>2022-08-18T12:24:21Z</time>
      </trkpt>
      <trkpt lat="46.46605" lon="5.30061">
        <ele>222.4</ele>
        <time>2022-08-18T12:24:24Z</time>
      </trkpt>
      <trkpt lat="46.46568" lon="5.30059">
        <ele>222.4</ele>
        <time>2022-08-18T12:24:29Z</time>
      </trkpt>
      <trkpt lat="46.46512" lon="5.30059">
        <ele>221.8</ele>
        <time>2022-08-18T12:24:36Z</time>
      </trkpt>
      <trkpt lat="46.46486" lon="5.30057">
        <ele>221.2</ele>
        <time>2022-08-18T12:24:39Z</time>
      </trkpt>
      <trkpt lat="46.4646" lon="5.30053">
        <ele>220.4</ele>
        <time>2022-08-18T12:24:42Z</time>
      </trkpt>
      <trkpt lat="46.46442" lon="5.3005">
        <ele>220</ele>
        <time>2022-08-18T12:24:44Z</time>
      </trkpt>
      <trkpt lat="46.46424" lon="5.30049">
        <ele>219.6</ele>
        <time>2022-08-18T12:24:46Z</time>
      </trkpt>
      <trkpt lat="46.46405" lon="5.30052">
        <ele>219</ele>
        <time>2022-08-18T12:24:48Z</time>
      </trkpt>
      <trkpt lat="46.46396" lon="5.30054">
        <ele>218.4</ele>
        <time>2022-08-18T12:24:49Z</time>
      </trkpt>
      <trkpt lat="46.46367" lon="5.3006">
        <ele>217.2</ele>
        <time>2022-08-18T12:24:52Z</time>
      </trkpt>
      <trkpt lat="46.46346" lon="5.30063">
        <ele>216.4</ele>
        <time>2022-08-18T12:24:54Z</time>
      </trkpt>
      <trkpt lat="46.46336" lon="5.30063">
        <ele>216.2</ele>
        <time>2022-08-18T12:24:55Z</time>
      </trkpt>
      <trkpt lat="46.46304" lon="5.30061">
        <ele>215</ele>
        <time>2022-08-18T12:24:58Z</time>
      </trkpt>
      <trkpt lat="46.46293" lon="5.3006">
        <ele>214.2</ele>
        <time>2022-08-18T12:24:59Z</time>
      </trkpt>
      <trkpt lat="46.46282" lon="5.30058">
        <ele>213.4</ele>
        <time>2022-08-18T12:25:00Z</time>
      </trkpt>
      <trkpt lat="46.4626" lon="5.30056">
        <ele>211.8</ele>
        <time>2022-08-18T12:25:02Z</time>
      </trkpt>
      <trkpt lat="46.46226" lon="5.30054">
        <ele>210.2</ele>
        <time>2022-08-18T12:25:05Z</time>
      </trkpt>
      <trkpt lat="46.46215" lon="5.30052">
        <ele>209.4</ele>
        <time>2022-08-18T12:25:06Z</time>
      </trkpt>
      <trkpt lat="46.46204" lon="5.30048">
        <ele>208.8</ele>
        <time>2022-08-18T12:25:07Z</time>
      </trkpt>
      <trkpt lat="46.46193" lon="5.30042">
        <ele>207.4</ele>
        <time>2022-08-18T12:25:08Z</time>
      </trkpt>
      <trkpt lat="46.46184" lon="5.30033">
        <ele>207</ele>
        <time>2022-08-18T12:25:09Z</time>
      </trkpt>
      <trkpt lat="46.46176" lon="5.30023">
        <ele>206.4</ele>
        <time>2022-08-18T12:25:10Z</time>
      </trkpt>
      <trkpt lat="46.46161" lon="5.30003">
        <ele>205.6</ele>
        <time>2022-08-18T12:25:12Z</time>
      </trkpt>
      <trkpt lat="46.46155" lon="5.29994">
        <ele>204.8</ele>
        <time>2022-08-18T12:25:13Z</time>
      </trkpt>
      <trkpt lat="46.46151" lon="5.29986">
        <ele>204.6</ele>
        <time>2022-08-18T12:25:14Z</time>
      </trkpt>
      <trkpt lat="46.46144" lon="5.29976">
        <ele>203.8</ele>
        <time>2022-08-18T12:25:16Z</time>
      </trkpt>
      <trkpt lat="46.46137" lon="5.29977">
        <ele>202.8</ele>
        <time>2022-08-18T12:25:18Z</time>
      </trkpt>
      <trkpt lat="46.46134" lon="5.29982">
        <ele>202.6</ele>
        <time>2022-08-18T12:25:19Z</time>
      </trkpt>
      <trkpt lat="46.46129" lon="5.29996">
        <ele>202.2</ele>
        <time>2022-08-18T12:25:21Z</time>
      </trkpt>
      <trkpt lat="46.46113" lon="5.30049">
        <ele>201.6</ele>
        <time>2022-08-18T12:25:27Z</time>
      </trkpt>
      <trkpt lat="46.46093" lon="5.30111">
        <ele>202</ele>
        <time>2022-08-18T12:25:34Z</time>
      </trkpt>
      <trkpt lat="46.46079" lon="5.30156">
        <ele>202.6</ele>
        <time>2022-08-18T12:25:40Z</time>
      </trkpt>
      <trkpt lat="46.46065" lon="5.30198">
        <ele>204</ele>
        <time>2022-08-18T12:25:47Z</time>
      </trkpt>
      <trkpt lat="46.46063" lon="5.30204">
        <ele>204.4</ele>
        <time>2022-08-18T12:25:48Z</time>
      </trkpt>
      <trkpt lat="46.46054" lon="5.30228">
        <ele>205</ele>
        <time>2022-08-18T12:25:52Z</time>
      </trkpt>
      <trkpt lat="46.46044" lon="5.30259">
        <ele>205.6</ele>
        <time>2022-08-18T12:25:57Z</time>
      </trkpt>
      <trkpt lat="46.46041" lon="5.30273">
        <ele>206.4</ele>
        <time>2022-08-18T12:25:59Z</time>
      </trkpt>
      <trkpt lat="46.46035" lon="5.30292">
        <ele>206.8</ele>
        <time>2022-08-18T12:26:02Z</time>
      </trkpt>
      <trkpt lat="46.46027" lon="5.30309">
        <ele>207.4</ele>
        <time>2022-08-18T12:26:05Z</time>
      </trkpt>
      <trkpt lat="46.46013" lon="5.30352">
        <ele>208.4</ele>
        <time>2022-08-18T12:26:12Z</time>
      </trkpt>
      <trkpt lat="46.4601" lon="5.30364">
        <ele>209</ele>
        <time>2022-08-18T12:26:14Z</time>
      </trkpt>
      <trkpt lat="46.46003" lon="5.30373">
        <ele>209.6</ele>
        <time>2022-08-18T12:26:16Z</time>
      </trkpt>
      <trkpt lat="46.45995" lon="5.30375">
        <ele>210.2</ele>
        <time>2022-08-18T12:26:18Z</time>
      </trkpt>
      <trkpt lat="46.45991" lon="5.30374">
        <ele>210.2</ele>
        <time>2022-08-18T12:26:19Z</time>
      </trkpt>
      <trkpt lat="46.45987" lon="5.30372">
        <ele>210.4</ele>
        <time>2022-08-18T12:26:20Z</time>
      </trkpt>
      <trkpt lat="46.45984" lon="5.3037">
        <ele>210.6</ele>
        <time>2022-08-18T12:26:21Z</time>
      </trkpt>
      <trkpt lat="46.45975" lon="5.30365">
        <ele>211.6</ele>
        <time>2022-08-18T12:26:23Z</time>
      </trkpt>
      <trkpt lat="46.45971" lon="5.30363">
        <ele>212</ele>
        <time>2022-08-18T12:26:24Z</time>
      </trkpt>
      <trkpt lat="46.45957" lon="5.30357">
        <ele>212.6</ele>
        <time>2022-08-18T12:26:27Z</time>
      </trkpt>
      <trkpt lat="46.45943" lon="5.30349">
        <ele>213.2</ele>
        <time>2022-08-18T12:26:30Z</time>
      </trkpt>
      <trkpt lat="46.45934" lon="5.30343">
        <ele>213.6</ele>
        <time>2022-08-18T12:26:32Z</time>
      </trkpt>
      <trkpt lat="46.45913" lon="5.30331">
        <ele>213.6</ele>
        <time>2022-08-18T12:26:36Z</time>
      </trkpt>
      <trkpt lat="46.45874" lon="5.30309">
        <ele>213.2</ele>
        <time>2022-08-18T12:26:42Z</time>
      </trkpt>
      <trkpt lat="46.45848" lon="5.30302">
        <ele>212.4</ele>
        <time>2022-08-18T12:26:45Z</time>
      </trkpt>
      <trkpt lat="46.45839" lon="5.30302">
        <ele>212.2</ele>
        <time>2022-08-18T12:26:46Z</time>
      </trkpt>
      <trkpt lat="46.4583" lon="5.30305">
        <ele>211.8</ele>
        <time>2022-08-18T12:26:47Z</time>
      </trkpt>
      <trkpt lat="46.45822" lon="5.3031">
        <ele>211.4</ele>
        <time>2022-08-18T12:26:48Z</time>
      </trkpt>
      <trkpt lat="46.45813" lon="5.30316">
        <ele>211</ele>
        <time>2022-08-18T12:26:49Z</time>
      </trkpt>
      <trkpt lat="46.45797" lon="5.30333">
        <ele>210</ele>
        <time>2022-08-18T12:26:51Z</time>
      </trkpt>
      <trkpt lat="46.45772" lon="5.30359">
        <ele>209.2</ele>
        <time>2022-08-18T12:26:54Z</time>
      </trkpt>
      <trkpt lat="46.45763" lon="5.30369">
        <ele>208.2</ele>
        <time>2022-08-18T12:26:55Z</time>
      </trkpt>
      <trkpt lat="46.45727" lon="5.30407">
        <ele>207</ele>
        <time>2022-08-18T12:26:59Z</time>
      </trkpt>
      <trkpt lat="46.45717" lon="5.30416">
        <ele>206.4</ele>
        <time>2022-08-18T12:27:00Z</time>
      </trkpt>
      <trkpt lat="46.45706" lon="5.30424">
        <ele>206</ele>
        <time>2022-08-18T12:27:01Z</time>
      </trkpt>
      <trkpt lat="46.45695" lon="5.30431">
        <ele>205.2</ele>
        <time>2022-08-18T12:27:02Z</time>
      </trkpt>
      <trkpt lat="46.45683" lon="5.30435">
        <ele>204.6</ele>
        <time>2022-08-18T12:27:03Z</time>
      </trkpt>
      <trkpt lat="46.45671" lon="5.30436">
        <ele>203.4</ele>
        <time>2022-08-18T12:27:04Z</time>
      </trkpt>
      <trkpt lat="46.45659" lon="5.30436">
        <ele>203</ele>
        <time>2022-08-18T12:27:05Z</time>
      </trkpt>
      <trkpt lat="46.45648" lon="5.30434">
        <ele>202.2</ele>
        <time>2022-08-18T12:27:06Z</time>
      </trkpt>
      <trkpt lat="46.45637" lon="5.3043">
        <ele>201.6</ele>
        <time>2022-08-18T12:27:07Z</time>
      </trkpt>
      <trkpt lat="46.45616" lon="5.30419">
        <ele>200.8</ele>
        <time>2022-08-18T12:27:09Z</time>
      </trkpt>
      <trkpt lat="46.45584" lon="5.30385">
        <ele>200.2</ele>
        <time>2022-08-18T12:27:13Z</time>
      </trkpt>
      <trkpt lat="46.45545" lon="5.30351">
        <ele>199.8</ele>
        <time>2022-08-18T12:27:18Z</time>
      </trkpt>
      <trkpt lat="46.45528" lon="5.30346">
        <ele>199.8</ele>
        <time>2022-08-18T12:27:20Z</time>
      </trkpt>
      <trkpt lat="46.4552" lon="5.30346">
        <ele>199.8</ele>
        <time>2022-08-18T12:27:21Z</time>
      </trkpt>
      <trkpt lat="46.45512" lon="5.30347">
        <ele>199.8</ele>
        <time>2022-08-18T12:27:22Z</time>
      </trkpt>
      <trkpt lat="46.45488" lon="5.30351">
        <ele>199.6</ele>
        <time>2022-08-18T12:27:25Z</time>
      </trkpt>
      <trkpt lat="46.45479" lon="5.30351">
        <ele>199.8</ele>
        <time>2022-08-18T12:27:26Z</time>
      </trkpt>
      <trkpt lat="46.45456" lon="5.30346">
        <ele>199.6</ele>
        <time>2022-08-18T12:27:29Z</time>
      </trkpt>
      <trkpt lat="46.45403" lon="5.30329">
        <ele>199.6</ele>
        <time>2022-08-18T12:27:36Z</time>
      </trkpt>
      <trkpt lat="46.45389" lon="5.30325">
        <ele>200</ele>
        <time>2022-08-18T12:27:38Z</time>
      </trkpt>
      <trkpt lat="46.45367" lon="5.30322">
        <ele>200.2</ele>
        <time>2022-08-18T12:27:41Z</time>
      </trkpt>
      <trkpt lat="46.45353" lon="5.30325">
        <ele>200.2</ele>
        <time>2022-08-18T12:27:43Z</time>
      </trkpt>
      <trkpt lat="46.45347" lon="5.30328">
        <ele>200.2</ele>
        <time>2022-08-18T12:27:44Z</time>
      </trkpt>
      <trkpt lat="46.45328" lon="5.3034">
        <ele>200.6</ele>
        <time>2022-08-18T12:27:47Z</time>
      </trkpt>
      <trkpt lat="46.45321" lon="5.30344">
        <ele>200.6</ele>
        <time>2022-08-18T12:27:48Z</time>
      </trkpt>
      <trkpt lat="46.45308" lon="5.3035">
        <ele>200.8</ele>
        <time>2022-08-18T12:27:50Z</time>
      </trkpt>
      <trkpt lat="46.45301" lon="5.30351">
        <ele>201</ele>
        <time>2022-08-18T12:27:51Z</time>
      </trkpt>
      <trkpt lat="46.45295" lon="5.30351">
        <ele>201.2</ele>
        <time>2022-08-18T12:27:52Z</time>
      </trkpt>
      <trkpt lat="46.45268" lon="5.30346">
        <ele>201.2</ele>
        <time>2022-08-18T12:27:56Z</time>
      </trkpt>
      <trkpt lat="46.45241" lon="5.30338">
        <ele>201.8</ele>
        <time>2022-08-18T12:28:00Z</time>
      </trkpt>
      <trkpt lat="46.45213" lon="5.30332">
        <ele>202</ele>
        <time>2022-08-18T12:28:04Z</time>
      </trkpt>
      <trkpt lat="46.45198" lon="5.30333">
        <ele>202.2</ele>
        <time>2022-08-18T12:28:06Z</time>
      </trkpt>
      <trkpt lat="46.45186" lon="5.30341">
        <ele>202.4</ele>
        <time>2022-08-18T12:28:08Z</time>
      </trkpt>
      <trkpt lat="46.45176" lon="5.30353">
        <ele>202.6</ele>
        <time>2022-08-18T12:28:10Z</time>
      </trkpt>
      <trkpt lat="46.45168" lon="5.30365">
        <ele>203.2</ele>
        <time>2022-08-18T12:28:12Z</time>
      </trkpt>
      <trkpt lat="46.45155" lon="5.30403">
        <ele>203.8</ele>
        <time>2022-08-18T12:28:17Z</time>
      </trkpt>
      <trkpt lat="46.45151" lon="5.30417">
        <ele>204.4</ele>
        <time>2022-08-18T12:28:19Z</time>
      </trkpt>
      <trkpt lat="46.45143" lon="5.30445">
        <ele>205.4</ele>
        <time>2022-08-18T12:28:23Z</time>
      </trkpt>
      <trkpt lat="46.45141" lon="5.30452">
        <ele>205.6</ele>
        <time>2022-08-18T12:28:24Z</time>
      </trkpt>
      <trkpt lat="46.4513" lon="5.30479">
        <ele>206.6</ele>
        <time>2022-08-18T12:28:28Z</time>
      </trkpt>
      <trkpt lat="46.45127" lon="5.30485">
        <ele>206.8</ele>
        <time>2022-08-18T12:28:29Z</time>
      </trkpt>
      <trkpt lat="46.45123" lon="5.3049">
        <ele>206.8</ele>
        <time>2022-08-18T12:28:30Z</time>
      </trkpt>
      <trkpt lat="46.45115" lon="5.30497">
        <ele>207.4</ele>
        <time>2022-08-18T12:28:32Z</time>
      </trkpt>
      <trkpt lat="46.4511" lon="5.305">
        <ele>207.6</ele>
        <time>2022-08-18T12:28:33Z</time>
      </trkpt>
      <trkpt lat="46.45101" lon="5.30502">
        <ele>208</ele>
        <time>2022-08-18T12:28:35Z</time>
      </trkpt>
      <trkpt lat="46.45086" lon="5.30502">
        <ele>208.8</ele>
        <time>2022-08-18T12:28:38Z</time>
      </trkpt>
      <trkpt lat="46.45057" lon="5.30494">
        <ele>210</ele>
        <time>2022-08-18T12:28:44Z</time>
      </trkpt>
      <trkpt lat="46.45044" lon="5.3049">
        <ele>210.8</ele>
        <time>2022-08-18T12:28:47Z</time>
      </trkpt>
      <trkpt lat="46.45035" lon="5.30488">
        <ele>211.4</ele>
        <time>2022-08-18T12:28:49Z</time>
      </trkpt>
      <trkpt lat="46.45013" lon="5.30486">
        <ele>212.6</ele>
        <time>2022-08-18T12:28:54Z</time>
      </trkpt>
      <trkpt lat="46.45009" lon="5.30486">
        <ele>212.6</ele>
        <time>2022-08-18T12:28:55Z</time>
      </trkpt>
      <trkpt lat="46.44984" lon="5.30491">
        <ele>213.8</ele>
        <time>2022-08-18T12:29:00Z</time>
      </trkpt>
      <trkpt lat="46.44974" lon="5.30494">
        <ele>214.4</ele>
        <time>2022-08-18T12:29:02Z</time>
      </trkpt>
      <trkpt lat="46.4496" lon="5.30499">
        <ele>215.2</ele>
        <time>2022-08-18T12:29:05Z</time>
      </trkpt>
      <trkpt lat="46.44928" lon="5.30509">
        <ele>215.4</ele>
        <time>2022-08-18T12:29:11Z</time>
      </trkpt>
      <trkpt lat="46.4489" lon="5.30516">
        <ele>215.8</ele>
        <time>2022-08-18T12:29:18Z</time>
      </trkpt>
      <trkpt lat="46.4487" lon="5.30516">
        <ele>216</ele>
        <time>2022-08-18T12:29:22Z</time>
      </trkpt>
      <trkpt lat="46.4486" lon="5.30517">
        <ele>216.8</ele>
        <time>2022-08-18T12:29:24Z</time>
      </trkpt>
      <trkpt lat="46.44841" lon="5.30517">
        <ele>217.4</ele>
        <time>2022-08-18T12:29:28Z</time>
      </trkpt>
      <trkpt lat="46.44821" lon="5.30517">
        <ele>218.4</ele>
        <time>2022-08-18T12:29:32Z</time>
      </trkpt>
      <trkpt lat="46.44807" lon="5.30517">
        <ele>219.2</ele>
        <time>2022-08-18T12:29:35Z</time>
      </trkpt>
      <trkpt lat="46.44791" lon="5.30517">
        <ele>219.8</ele>
        <time>2022-08-18T12:29:38Z</time>
      </trkpt>
      <trkpt lat="46.44776" lon="5.30517">
        <ele>220.2</ele>
        <time>2022-08-18T12:29:41Z</time>
      </trkpt>
      <trkpt lat="46.44765" lon="5.30516">
        <ele>220.6</ele>
        <time>2022-08-18T12:29:43Z</time>
      </trkpt>
      <trkpt lat="46.44753" lon="5.30515">
        <ele>220.8</ele>
        <time>2022-08-18T12:29:45Z</time>
      </trkpt>
      <trkpt lat="46.44718" lon="5.30516">
        <ele>221</ele>
        <time>2022-08-18T12:29:51Z</time>
      </trkpt>
      <trkpt lat="46.44658" lon="5.30518">
        <ele>221.4</ele>
        <time>2022-08-18T12:30:01Z</time>
      </trkpt>
      <trkpt lat="46.44652" lon="5.30518">
        <ele>221.4</ele>
        <time>2022-08-18T12:30:02Z</time>
      </trkpt>
      <trkpt lat="46.44623" lon="5.30517">
        <ele>221.6</ele>
        <time>2022-08-18T12:30:07Z</time>
      </trkpt>
      <trkpt lat="46.44589" lon="5.30519">
        <ele>222.2</ele>
        <time>2022-08-18T12:30:13Z</time>
      </trkpt>
      <trkpt lat="46.44573" lon="5.30523">
        <ele>222.4</ele>
        <time>2022-08-18T12:30:16Z</time>
      </trkpt>
      <trkpt lat="46.44563" lon="5.30528">
        <ele>222.6</ele>
        <time>2022-08-18T12:30:18Z</time>
      </trkpt>
      <trkpt lat="46.44559" lon="5.30531">
        <ele>222.6</ele>
        <time>2022-08-18T12:30:19Z</time>
      </trkpt>
      <trkpt lat="46.44543" lon="5.30541">
        <ele>223.4</ele>
        <time>2022-08-18T12:30:23Z</time>
      </trkpt>
      <trkpt lat="46.44538" lon="5.30544">
        <ele>223.6</ele>
        <time>2022-08-18T12:30:24Z</time>
      </trkpt>
      <trkpt lat="46.44516" lon="5.30556">
        <ele>224.2</ele>
        <time>2022-08-18T12:30:28Z</time>
      </trkpt>
      <trkpt lat="46.44504" lon="5.30561">
        <ele>224.8</ele>
        <time>2022-08-18T12:30:30Z</time>
      </trkpt>
      <trkpt lat="46.44465" lon="5.30569">
        <ele>225.4</ele>
        <time>2022-08-18T12:30:36Z</time>
      </trkpt>
      <trkpt lat="46.44434" lon="5.30568">
        <ele>225.6</ele>
        <time>2022-08-18T12:30:41Z</time>
      </trkpt>
      <trkpt lat="46.44428" lon="5.3057">
        <ele>225.6</ele>
        <time>2022-08-18T12:30:42Z</time>
      </trkpt>
      <trkpt lat="46.44422" lon="5.30574">
        <ele>225.6</ele>
        <time>2022-08-18T12:30:43Z</time>
      </trkpt>
      <trkpt lat="46.44411" lon="5.30582">
        <ele>225.8</ele>
        <time>2022-08-18T12:30:45Z</time>
      </trkpt>
      <trkpt lat="46.44406" lon="5.30586">
        <ele>225.8</ele>
        <time>2022-08-18T12:30:46Z</time>
      </trkpt>
      <trkpt lat="46.444" lon="5.3059">
        <ele>225.8</ele>
        <time>2022-08-18T12:30:47Z</time>
      </trkpt>
      <trkpt lat="46.44365" lon="5.30602">
        <ele>226.4</ele>
        <time>2022-08-18T12:30:53Z</time>
      </trkpt>
      <trkpt lat="46.44342" lon="5.306">
        <ele>226.6</ele>
        <time>2022-08-18T12:30:57Z</time>
      </trkpt>
      <trkpt lat="46.44336" lon="5.30601">
        <ele>226.6</ele>
        <time>2022-08-18T12:30:58Z</time>
      </trkpt>
      <trkpt lat="46.44329" lon="5.30603">
        <ele>226.6</ele>
        <time>2022-08-18T12:30:59Z</time>
      </trkpt>
      <trkpt lat="46.44317" lon="5.30612">
        <ele>226.8</ele>
        <time>2022-08-18T12:31:01Z</time>
      </trkpt>
      <trkpt lat="46.44312" lon="5.30618">
        <ele>226.8</ele>
        <time>2022-08-18T12:31:02Z</time>
      </trkpt>
      <trkpt lat="46.44279" lon="5.30648">
        <ele>227.6</ele>
        <time>2022-08-18T12:31:08Z</time>
      </trkpt>
      <trkpt lat="46.44266" lon="5.30655">
        <ele>227.8</ele>
        <time>2022-08-18T12:31:10Z</time>
      </trkpt>
      <trkpt lat="46.4426" lon="5.30657">
        <ele>227.8</ele>
        <time>2022-08-18T12:31:11Z</time>
      </trkpt>
      <trkpt lat="46.4422" lon="5.30667">
        <ele>228</ele>
        <time>2022-08-18T12:31:17Z</time>
      </trkpt>
      <trkpt lat="46.44166" lon="5.3067">
        <ele>227.6</ele>
        <time>2022-08-18T12:31:25Z</time>
      </trkpt>
      <trkpt lat="46.44128" lon="5.30655">
        <ele>227.6</ele>
        <time>2022-08-18T12:31:31Z</time>
      </trkpt>
      <trkpt lat="46.44087" lon="5.30625">
        <ele>227.8</ele>
        <time>2022-08-18T12:31:38Z</time>
      </trkpt>
      <trkpt lat="46.4408" lon="5.30622">
        <ele>228</ele>
        <time>2022-08-18T12:31:39Z</time>
      </trkpt>
      <trkpt lat="46.44067" lon="5.30619">
        <ele>228</ele>
        <time>2022-08-18T12:31:41Z</time>
      </trkpt>
      <trkpt lat="46.44054" lon="5.30623">
        <ele>228</ele>
        <time>2022-08-18T12:31:43Z</time>
      </trkpt>
      <trkpt lat="46.44047" lon="5.30626">
        <ele>227.8</ele>
        <time>2022-08-18T12:31:44Z</time>
      </trkpt>
      <trkpt lat="46.44007" lon="5.30663">
        <ele>227.8</ele>
        <time>2022-08-18T12:31:51Z</time>
      </trkpt>
      <trkpt lat="46.43996" lon="5.30671">
        <ele>227.6</ele>
        <time>2022-08-18T12:31:53Z</time>
      </trkpt>
      <trkpt lat="46.43992" lon="5.3067">
        <ele>227.6</ele>
        <time>2022-08-18T12:31:54Z</time>
      </trkpt>
      <trkpt lat="46.43987" lon="5.30658">
        <ele>227.4</ele>
        <time>2022-08-18T12:31:56Z</time>
      </trkpt>
      <trkpt lat="46.43987" lon="5.30651">
        <ele>227.2</ele>
        <time>2022-08-18T12:31:57Z</time>
      </trkpt>
      <trkpt lat="46.43993" lon="5.30607">
        <ele>227.2</ele>
        <time>2022-08-18T12:32:02Z</time>
      </trkpt>
      <trkpt lat="46.43994" lon="5.30557">
        <ele>227.6</ele>
        <time>2022-08-18T12:32:07Z</time>
      </trkpt>
      <trkpt lat="46.43987" lon="5.30479">
        <ele>228</ele>
        <time>2022-08-18T12:32:15Z</time>
      </trkpt>
      <trkpt lat="46.43987" lon="5.30469">
        <ele>228</ele>
        <time>2022-08-18T12:32:16Z</time>
      </trkpt>
      <trkpt lat="46.43978" lon="5.30388">
        <ele>227.8</ele>
        <time>2022-08-18T12:32:24Z</time>
      </trkpt>
      <trkpt lat="46.43974" lon="5.30345">
        <ele>227.6</ele>
        <time>2022-08-18T12:32:28Z</time>
      </trkpt>
      <trkpt lat="46.43959" lon="5.3027">
        <ele>227.4</ele>
        <time>2022-08-18T12:32:35Z</time>
      </trkpt>
      <trkpt lat="46.43937" lon="5.30187">
        <ele>227.2</ele>
        <time>2022-08-18T12:32:43Z</time>
      </trkpt>
      <trkpt lat="46.43932" lon="5.30168">
        <ele>227.2</ele>
        <time>2022-08-18T12:32:45Z</time>
      </trkpt>
      <trkpt lat="46.43911" lon="5.30103">
        <ele>227.4</ele>
        <time>2022-08-18T12:32:52Z</time>
      </trkpt>
      <trkpt lat="46.43887" lon="5.30041">
        <ele>227.6</ele>
        <time>2022-08-18T12:32:59Z</time>
      </trkpt>
      <trkpt lat="46.43882" lon="5.30034">
        <ele>227.6</ele>
        <time>2022-08-18T12:33:00Z</time>
      </trkpt>
      <trkpt lat="46.43877" lon="5.30027">
        <ele>227.6</ele>
        <time>2022-08-18T12:33:01Z</time>
      </trkpt>
      <trkpt lat="46.43858" lon="5.3001">
        <ele>227.6</ele>
        <time>2022-08-18T12:33:04Z</time>
      </trkpt>
      <trkpt lat="46.43805" lon="5.29974">
        <ele>227.2</ele>
        <time>2022-08-18T12:33:12Z</time>
      </trkpt>
      <trkpt lat="46.43799" lon="5.29969">
        <ele>227.2</ele>
        <time>2022-08-18T12:33:13Z</time>
      </trkpt>
      <trkpt lat="46.43746" lon="5.29932">
        <ele>227.2</ele>
        <time>2022-08-18T12:33:21Z</time>
      </trkpt>
      <trkpt lat="46.43739" lon="5.29929">
        <ele>227.2</ele>
        <time>2022-08-18T12:33:22Z</time>
      </trkpt>
      <trkpt lat="46.43724" lon="5.29927">
        <ele>227.2</ele>
        <time>2022-08-18T12:33:24Z</time>
      </trkpt>
      <trkpt lat="46.43716" lon="5.29927">
        <ele>227.2</ele>
        <time>2022-08-18T12:33:25Z</time>
      </trkpt>
      <trkpt lat="46.4366" lon="5.29926">
        <ele>227</ele>
        <time>2022-08-18T12:33:32Z</time>
      </trkpt>
      <trkpt lat="46.43652" lon="5.29925">
        <ele>226.8</ele>
        <time>2022-08-18T12:33:33Z</time>
      </trkpt>
      <trkpt lat="46.43593" lon="5.29922">
        <ele>226.8</ele>
        <time>2022-08-18T12:33:41Z</time>
      </trkpt>
      <trkpt lat="46.43577" lon="5.29922">
        <ele>226.8</ele>
        <time>2022-08-18T12:33:43Z</time>
      </trkpt>
      <trkpt lat="46.43569" lon="5.29924">
        <ele>226.8</ele>
        <time>2022-08-18T12:33:44Z</time>
      </trkpt>
      <trkpt lat="46.43552" lon="5.29934">
        <ele>226.4</ele>
        <time>2022-08-18T12:33:46Z</time>
      </trkpt>
      <trkpt lat="46.43515" lon="5.29967">
        <ele>225.8</ele>
        <time>2022-08-18T12:33:50Z</time>
      </trkpt>
      <trkpt lat="46.43496" lon="5.29985">
        <ele>224.6</ele>
        <time>2022-08-18T12:33:52Z</time>
      </trkpt>
      <trkpt lat="46.43486" lon="5.29995">
        <ele>223.4</ele>
        <time>2022-08-18T12:33:53Z</time>
      </trkpt>
      <trkpt lat="46.43464" lon="5.30013">
        <ele>221.6</ele>
        <time>2022-08-18T12:33:55Z</time>
      </trkpt>
      <trkpt lat="46.43452" lon="5.30017">
        <ele>221</ele>
        <time>2022-08-18T12:33:56Z</time>
      </trkpt>
      <trkpt lat="46.43439" lon="5.30019">
        <ele>219.8</ele>
        <time>2022-08-18T12:33:57Z</time>
      </trkpt>
      <trkpt lat="46.43414" lon="5.3002">
        <ele>218.2</ele>
        <time>2022-08-18T12:33:59Z</time>
      </trkpt>
      <trkpt lat="46.43402" lon="5.3002">
        <ele>217.2</ele>
        <time>2022-08-18T12:34:00Z</time>
      </trkpt>
      <trkpt lat="46.43378" lon="5.30022">
        <ele>215.6</ele>
        <time>2022-08-18T12:34:02Z</time>
      </trkpt>
      <trkpt lat="46.43358" lon="5.30029">
        <ele>214.4</ele>
        <time>2022-08-18T12:34:04Z</time>
      </trkpt>
      <trkpt lat="46.43337" lon="5.30035">
        <ele>213.8</ele>
        <time>2022-08-18T12:34:06Z</time>
      </trkpt>
      <trkpt lat="46.43313" lon="5.30037">
        <ele>213.4</ele>
        <time>2022-08-18T12:34:08Z</time>
      </trkpt>
      <trkpt lat="46.43287" lon="5.30038">
        <ele>212.4</ele>
        <time>2022-08-18T12:34:10Z</time>
      </trkpt>
      <trkpt lat="46.43275" lon="5.30041">
        <ele>211.2</ele>
        <time>2022-08-18T12:34:11Z</time>
      </trkpt>
      <trkpt lat="46.43262" lon="5.30043">
        <ele>210.2</ele>
        <time>2022-08-18T12:34:12Z</time>
      </trkpt>
      <trkpt lat="46.43251" lon="5.30042">
        <ele>209.4</ele>
        <time>2022-08-18T12:34:13Z</time>
      </trkpt>
      <trkpt lat="46.43241" lon="5.30038">
        <ele>209</ele>
        <time>2022-08-18T12:34:14Z</time>
      </trkpt>
      <trkpt lat="46.43216" lon="5.30024">
        <ele>208.8</ele>
        <time>2022-08-18T12:34:17Z</time>
      </trkpt>
      <trkpt lat="46.43208" lon="5.30021">
        <ele>208.8</ele>
        <time>2022-08-18T12:34:18Z</time>
      </trkpt>
      <trkpt lat="46.43187" lon="5.30015">
        <ele>209.8</ele>
        <time>2022-08-18T12:34:21Z</time>
      </trkpt>
      <trkpt lat="46.43175" lon="5.30013">
        <ele>211.4</ele>
        <time>2022-08-18T12:34:23Z</time>
      </trkpt>
      <trkpt lat="46.43163" lon="5.30011">
        <ele>212.8</ele>
        <time>2022-08-18T12:34:25Z</time>
      </trkpt>
      <trkpt lat="46.43152" lon="5.3001">
        <ele>214.2</ele>
        <time>2022-08-18T12:34:27Z</time>
      </trkpt>
      <trkpt lat="46.43147" lon="5.30009">
        <ele>215.2</ele>
        <time>2022-08-18T12:34:28Z</time>
      </trkpt>
      <trkpt lat="46.43137" lon="5.30006">
        <ele>216.6</ele>
        <time>2022-08-18T12:34:30Z</time>
      </trkpt>
      <trkpt lat="46.43128" lon="5.30002">
        <ele>217.4</ele>
        <time>2022-08-18T12:34:32Z</time>
      </trkpt>
      <trkpt lat="46.43124" lon="5.3">
        <ele>217.8</ele>
        <time>2022-08-18T12:34:33Z</time>
      </trkpt>
      <trkpt lat="46.43116" lon="5.29996">
        <ele>218.8</ele>
        <time>2022-08-18T12:34:35Z</time>
      </trkpt>
      <trkpt lat="46.43107" lon="5.29993">
        <ele>219.8</ele>
        <time>2022-08-18T12:34:37Z</time>
      </trkpt>
      <trkpt lat="46.43102" lon="5.29992">
        <ele>220</ele>
        <time>2022-08-18T12:34:38Z</time>
      </trkpt>
      <trkpt lat="46.43098" lon="5.29991">
        <ele>220.4</ele>
        <time>2022-08-18T12:34:39Z</time>
      </trkpt>
      <trkpt lat="46.43088" lon="5.29989">
        <ele>221.2</ele>
        <time>2022-08-18T12:34:41Z</time>
      </trkpt>
      <trkpt lat="46.4307" lon="5.29988">
        <ele>222.4</ele>
        <time>2022-08-18T12:34:45Z</time>
      </trkpt>
      <trkpt lat="46.43065" lon="5.29988">
        <ele>222.6</ele>
        <time>2022-08-18T12:34:46Z</time>
      </trkpt>
      <trkpt lat="46.43055" lon="5.2999">
        <ele>223</ele>
        <time>2022-08-18T12:34:48Z</time>
      </trkpt>
      <trkpt lat="46.43035" lon="5.29998">
        <ele>223.4</ele>
        <time>2022-08-18T12:34:52Z</time>
      </trkpt>
      <trkpt lat="46.42992" lon="5.30009">
        <ele>224.4</ele>
        <time>2022-08-18T12:35:01Z</time>
      </trkpt>
      <trkpt lat="46.42972" lon="5.30011">
        <ele>224.4</ele>
        <time>2022-08-18T12:35:05Z</time>
      </trkpt>
      <trkpt lat="46.42935" lon="5.30012">
        <ele>225</ele>
        <time>2022-08-18T12:35:12Z</time>
      </trkpt>
      <trkpt lat="46.4289" lon="5.30007">
        <ele>225.2</ele>
        <time>2022-08-18T12:35:20Z</time>
      </trkpt>
      <trkpt lat="46.42878" lon="5.30005">
        <ele>225.4</ele>
        <time>2022-08-18T12:35:22Z</time>
      </trkpt>
      <trkpt lat="46.42837" lon="5.3">
        <ele>225.8</ele>
        <time>2022-08-18T12:35:29Z</time>
      </trkpt>
      <trkpt lat="46.4282" lon="5.30005">
        <ele>226.2</ele>
        <time>2022-08-18T12:35:32Z</time>
      </trkpt>
      <trkpt lat="46.42809" lon="5.30012">
        <ele>226.2</ele>
        <time>2022-08-18T12:35:34Z</time>
      </trkpt>
      <trkpt lat="46.42799" lon="5.3002">
        <ele>226.4</ele>
        <time>2022-08-18T12:35:36Z</time>
      </trkpt>
      <trkpt lat="46.42779" lon="5.30041">
        <ele>227.2</ele>
        <time>2022-08-18T12:35:40Z</time>
      </trkpt>
      <trkpt lat="46.42751" lon="5.30062">
        <ele>227.4</ele>
        <time>2022-08-18T12:35:45Z</time>
      </trkpt>
      <trkpt lat="46.42745" lon="5.30064">
        <ele>227.6</ele>
        <time>2022-08-18T12:35:46Z</time>
      </trkpt>
      <trkpt lat="46.42699" lon="5.30086">
        <ele>228</ele>
        <time>2022-08-18T12:35:54Z</time>
      </trkpt>
      <trkpt lat="46.42694" lon="5.30089">
        <ele>228</ele>
        <time>2022-08-18T12:35:55Z</time>
      </trkpt>
      <trkpt lat="46.42657" lon="5.30105">
        <ele>228.4</ele>
        <time>2022-08-18T12:36:01Z</time>
      </trkpt>
      <trkpt lat="46.42645" lon="5.30111">
        <ele>228.6</ele>
        <time>2022-08-18T12:36:03Z</time>
      </trkpt>
      <trkpt lat="46.42588" lon="5.30132">
        <ele>228.8</ele>
        <time>2022-08-18T12:36:12Z</time>
      </trkpt>
      <trkpt lat="46.42544" lon="5.30152">
        <ele>228.8</ele>
        <time>2022-08-18T12:36:19Z</time>
      </trkpt>
      <trkpt lat="46.42524" lon="5.3016">
        <ele>228.6</ele>
        <time>2022-08-18T12:36:22Z</time>
      </trkpt>
      <trkpt lat="46.42513" lon="5.30164">
        <ele>228.6</ele>
        <time>2022-08-18T12:36:24Z</time>
      </trkpt>
      <trkpt lat="46.42502" lon="5.30158">
        <ele>228.4</ele>
        <time>2022-08-18T12:36:26Z</time>
      </trkpt>
      <trkpt lat="46.42498" lon="5.30151">
        <ele>228.2</ele>
        <time>2022-08-18T12:36:27Z</time>
      </trkpt>
      <trkpt lat="46.42478" lon="5.30119">
        <ele>227.2</ele>
        <time>2022-08-18T12:36:31Z</time>
      </trkpt>
      <trkpt lat="46.42472" lon="5.3011">
        <ele>227.2</ele>
        <time>2022-08-18T12:36:32Z</time>
      </trkpt>
      <trkpt lat="46.42434" lon="5.30057">
        <ele>226</ele>
        <time>2022-08-18T12:36:38Z</time>
      </trkpt>
      <trkpt lat="46.42411" lon="5.30033">
        <ele>224.8</ele>
        <time>2022-08-18T12:36:41Z</time>
      </trkpt>
      <trkpt lat="46.42386" lon="5.3001">
        <ele>223.6</ele>
        <time>2022-08-18T12:36:44Z</time>
      </trkpt>
      <trkpt lat="46.42358" lon="5.29989">
        <ele>222.4</ele>
        <time>2022-08-18T12:36:47Z</time>
      </trkpt>
      <trkpt lat="46.42329" lon="5.29966">
        <ele>221.6</ele>
        <time>2022-08-18T12:36:50Z</time>
      </trkpt>
      <trkpt lat="46.4232" lon="5.29958">
        <ele>221.2</ele>
        <time>2022-08-18T12:36:51Z</time>
      </trkpt>
      <trkpt lat="46.423" lon="5.29942">
        <ele>220</ele>
        <time>2022-08-18T12:36:53Z</time>
      </trkpt>
      <trkpt lat="46.4228" lon="5.29927">
        <ele>218</ele>
        <time>2022-08-18T12:36:55Z</time>
      </trkpt>
      <trkpt lat="46.42259" lon="5.29911">
        <ele>217</ele>
        <time>2022-08-18T12:36:57Z</time>
      </trkpt>
      <trkpt lat="46.42248" lon="5.29902">
        <ele>216.8</ele>
        <time>2022-08-18T12:36:58Z</time>
      </trkpt>
      <trkpt lat="46.42237" lon="5.29894">
        <ele>215.4</ele>
        <time>2022-08-18T12:36:59Z</time>
      </trkpt>
      <trkpt lat="46.42215" lon="5.29875">
        <ele>214</ele>
        <time>2022-08-18T12:37:01Z</time>
      </trkpt>
      <trkpt lat="46.42193" lon="5.29856">
        <ele>212.6</ele>
        <time>2022-08-18T12:37:03Z</time>
      </trkpt>
      <trkpt lat="46.42181" lon="5.29846">
        <ele>211.4</ele>
        <time>2022-08-18T12:37:04Z</time>
      </trkpt>
      <trkpt lat="46.4216" lon="5.29826">
        <ele>209.6</ele>
        <time>2022-08-18T12:37:06Z</time>
      </trkpt>
      <trkpt lat="46.42141" lon="5.29805">
        <ele>208</ele>
        <time>2022-08-18T12:37:08Z</time>
      </trkpt>
      <trkpt lat="46.42113" lon="5.29765">
        <ele>207.2</ele>
        <time>2022-08-18T12:37:12Z</time>
      </trkpt>
      <trkpt lat="46.42101" lon="5.29748">
        <ele>207</ele>
        <time>2022-08-18T12:37:14Z</time>
      </trkpt>
      <trkpt lat="46.42086" lon="5.29726">
        <ele>207.6</ele>
        <time>2022-08-18T12:37:17Z</time>
      </trkpt>
      <trkpt lat="46.42082" lon="5.2972">
        <ele>208.4</ele>
        <time>2022-08-18T12:37:18Z</time>
      </trkpt>
      <trkpt lat="46.42066" lon="5.29697">
        <ele>209.8</ele>
        <time>2022-08-18T12:37:22Z</time>
      </trkpt>
      <trkpt lat="46.42062" lon="5.29692">
        <ele>210.2</ele>
        <time>2022-08-18T12:37:23Z</time>
      </trkpt>
      <trkpt lat="46.42055" lon="5.29681">
        <ele>210.8</ele>
        <time>2022-08-18T12:37:25Z</time>
      </trkpt>
      <trkpt lat="46.4204" lon="5.2966">
        <ele>212</ele>
        <time>2022-08-18T12:37:29Z</time>
      </trkpt>
      <trkpt lat="46.42023" lon="5.29636">
        <ele>213.4</ele>
        <time>2022-08-18T12:37:34Z</time>
      </trkpt>
      <trkpt lat="46.42017" lon="5.29627">
        <ele>214.2</ele>
        <time>2022-08-18T12:37:36Z</time>
      </trkpt>
      <trkpt lat="46.42015" lon="5.29623">
        <ele>214.6</ele>
        <time>2022-08-18T12:37:37Z</time>
      </trkpt>
      <trkpt lat="46.42004" lon="5.29607">
        <ele>215.6</ele>
        <time>2022-08-18T12:37:41Z</time>
      </trkpt>
      <trkpt lat="46.41999" lon="5.29599">
        <ele>216.2</ele>
        <time>2022-08-18T12:37:43Z</time>
      </trkpt>
      <trkpt lat="46.41991" lon="5.29588">
        <ele>217</ele>
        <time>2022-08-18T12:37:46Z</time>
      </trkpt>
      <trkpt lat="46.41981" lon="5.29574">
        <ele>218.2</ele>
        <time>2022-08-18T12:37:50Z</time>
      </trkpt>
      <trkpt lat="46.41971" lon="5.29559">
        <ele>219.2</ele>
        <time>2022-08-18T12:37:54Z</time>
      </trkpt>
      <trkpt lat="46.41962" lon="5.29544">
        <ele>220.4</ele>
        <time>2022-08-18T12:37:58Z</time>
      </trkpt>
      <trkpt lat="46.41955" lon="5.29527">
        <ele>221.2</ele>
        <time>2022-08-18T12:38:02Z</time>
      </trkpt>
      <trkpt lat="46.41953" lon="5.29523">
        <ele>221.4</ele>
        <time>2022-08-18T12:38:03Z</time>
      </trkpt>
      <trkpt lat="46.41945" lon="5.295">
        <ele>222.4</ele>
        <time>2022-08-18T12:38:08Z</time>
      </trkpt>
      <trkpt lat="46.41941" lon="5.29487">
        <ele>223.4</ele>
        <time>2022-08-18T12:38:11Z</time>
      </trkpt>
      <trkpt lat="46.41939" lon="5.29483">
        <ele>223.8</ele>
        <time>2022-08-18T12:38:12Z</time>
      </trkpt>
      <trkpt lat="46.4193" lon="5.29455">
        <ele>225</ele>
        <time>2022-08-18T12:38:18Z</time>
      </trkpt>
      <trkpt lat="46.41928" lon="5.29452">
        <ele>225.2</ele>
        <time>2022-08-18T12:38:19Z</time>
      </trkpt>
      <trkpt lat="46.41925" lon="5.2945">
        <ele>225.4</ele>
        <time>2022-08-18T12:38:20Z</time>
      </trkpt>
      <trkpt lat="46.41922" lon="5.2945">
        <ele>225.4</ele>
        <time>2022-08-18T12:38:21Z</time>
      </trkpt>
      <trkpt lat="46.4191" lon="5.29456">
        <ele>225.6</ele>
        <time>2022-08-18T12:38:24Z</time>
      </trkpt>
      <trkpt lat="46.41901" lon="5.2946">
        <ele>226</ele>
        <time>2022-08-18T12:38:26Z</time>
      </trkpt>
      <trkpt lat="46.41883" lon="5.29463">
        <ele>226.2</ele>
        <time>2022-08-18T12:38:30Z</time>
      </trkpt>
      <trkpt lat="46.41846" lon="5.2947">
        <ele>226.4</ele>
        <time>2022-08-18T12:38:37Z</time>
      </trkpt>
      <trkpt lat="46.41832" lon="5.29474">
        <ele>226.2</ele>
        <time>2022-08-18T12:38:39Z</time>
      </trkpt>
      <trkpt lat="46.41811" lon="5.29482">
        <ele>225.8</ele>
        <time>2022-08-18T12:38:42Z</time>
      </trkpt>
      <trkpt lat="46.41782" lon="5.29492">
        <ele>225.2</ele>
        <time>2022-08-18T12:38:46Z</time>
      </trkpt>
      <trkpt lat="46.41774" lon="5.29494">
        <ele>224.6</ele>
        <time>2022-08-18T12:38:47Z</time>
      </trkpt>
      <trkpt lat="46.41766" lon="5.29495">
        <ele>224.4</ele>
        <time>2022-08-18T12:38:48Z</time>
      </trkpt>
      <trkpt lat="46.41735" lon="5.29496">
        <ele>223.6</ele>
        <time>2022-08-18T12:38:52Z</time>
      </trkpt>
      <trkpt lat="46.41727" lon="5.29496">
        <ele>223.4</ele>
        <time>2022-08-18T12:38:53Z</time>
      </trkpt>
      <trkpt lat="46.41697" lon="5.29494">
        <ele>223.2</ele>
        <time>2022-08-18T12:38:57Z</time>
      </trkpt>
      <trkpt lat="46.4169" lon="5.29496">
        <ele>223.2</ele>
        <time>2022-08-18T12:38:58Z</time>
      </trkpt>
      <trkpt lat="46.41683" lon="5.29499">
        <ele>223.2</ele>
        <time>2022-08-18T12:38:59Z</time>
      </trkpt>
      <trkpt lat="46.41672" lon="5.29508">
        <ele>223.2</ele>
        <time>2022-08-18T12:39:01Z</time>
      </trkpt>
      <trkpt lat="46.41667" lon="5.29514">
        <ele>223.2</ele>
        <time>2022-08-18T12:39:02Z</time>
      </trkpt>
      <trkpt lat="46.41662" lon="5.2952">
        <ele>223.2</ele>
        <time>2022-08-18T12:39:03Z</time>
      </trkpt>
      <trkpt lat="46.41655" lon="5.29535">
        <ele>223.2</ele>
        <time>2022-08-18T12:39:05Z</time>
      </trkpt>
      <trkpt lat="46.41652" lon="5.29544">
        <ele>223.4</ele>
        <time>2022-08-18T12:39:06Z</time>
      </trkpt>
      <trkpt lat="46.41643" lon="5.29569">
        <ele>223.4</ele>
        <time>2022-08-18T12:39:09Z</time>
      </trkpt>
      <trkpt lat="46.41635" lon="5.29584">
        <ele>223.6</ele>
        <time>2022-08-18T12:39:11Z</time>
      </trkpt>
      <trkpt lat="46.4163" lon="5.2959">
        <ele>223.8</ele>
        <time>2022-08-18T12:39:12Z</time>
      </trkpt>
      <trkpt lat="46.41624" lon="5.29596">
        <ele>223.6</ele>
        <time>2022-08-18T12:39:13Z</time>
      </trkpt>
      <trkpt lat="46.41612" lon="5.29605">
        <ele>223.4</ele>
        <time>2022-08-18T12:39:15Z</time>
      </trkpt>
      <trkpt lat="46.41605" lon="5.29609">
        <ele>223.4</ele>
        <time>2022-08-18T12:39:16Z</time>
      </trkpt>
      <trkpt lat="46.41558" lon="5.29628">
        <ele>222.8</ele>
        <time>2022-08-18T12:39:23Z</time>
      </trkpt>
      <trkpt lat="46.41537" lon="5.29634">
        <ele>223</ele>
        <time>2022-08-18T12:39:26Z</time>
      </trkpt>
      <trkpt lat="46.41516" lon="5.29635">
        <ele>223</ele>
        <time>2022-08-18T12:39:29Z</time>
      </trkpt>
      <trkpt lat="46.41461" lon="5.2964">
        <ele>223.6</ele>
        <time>2022-08-18T12:39:37Z</time>
      </trkpt>
      <trkpt lat="46.41454" lon="5.29641">
        <ele>223.8</ele>
        <time>2022-08-18T12:39:38Z</time>
      </trkpt>
      <trkpt lat="46.41401" lon="5.29652">
        <ele>224</ele>
        <time>2022-08-18T12:39:46Z</time>
      </trkpt>
      <trkpt lat="46.41368" lon="5.29662">
        <ele>224.8</ele>
        <time>2022-08-18T12:39:51Z</time>
      </trkpt>
      <trkpt lat="46.41343" lon="5.29669">
        <ele>225</ele>
        <time>2022-08-18T12:39:55Z</time>
      </trkpt>
      <trkpt lat="46.41317" lon="5.29681">
        <ele>225.2</ele>
        <time>2022-08-18T12:39:59Z</time>
      </trkpt>
      <trkpt lat="46.41305" lon="5.29692">
        <ele>225.2</ele>
        <time>2022-08-18T12:40:01Z</time>
      </trkpt>
      <trkpt lat="46.41286" lon="5.29725">
        <ele>225.4</ele>
        <time>2022-08-18T12:40:05Z</time>
      </trkpt>
      <trkpt lat="46.41274" lon="5.29754">
        <ele>225.2</ele>
        <time>2022-08-18T12:40:08Z</time>
      </trkpt>
      <trkpt lat="46.41271" lon="5.29776">
        <ele>225.2</ele>
        <time>2022-08-18T12:40:10Z</time>
      </trkpt>
      <trkpt lat="46.41271" lon="5.29798">
        <ele>225.4</ele>
        <time>2022-08-18T12:40:12Z</time>
      </trkpt>
      <trkpt lat="46.41273" lon="5.2982">
        <ele>225.4</ele>
        <time>2022-08-18T12:40:14Z</time>
      </trkpt>
      <trkpt lat="46.41275" lon="5.29864">
        <ele>225.4</ele>
        <time>2022-08-18T12:40:18Z</time>
      </trkpt>
      <trkpt lat="46.41272" lon="5.29885">
        <ele>225.4</ele>
        <time>2022-08-18T12:40:20Z</time>
      </trkpt>
      <trkpt lat="46.41266" lon="5.29904">
        <ele>225.4</ele>
        <time>2022-08-18T12:40:22Z</time>
      </trkpt>
      <trkpt lat="46.41262" lon="5.29912">
        <ele>225.4</ele>
        <time>2022-08-18T12:40:23Z</time>
      </trkpt>
      <trkpt lat="46.41253" lon="5.29925">
        <ele>225.4</ele>
        <time>2022-08-18T12:40:25Z</time>
      </trkpt>
      <trkpt lat="46.41242" lon="5.29934">
        <ele>225.4</ele>
        <time>2022-08-18T12:40:27Z</time>
      </trkpt>
      <trkpt lat="46.41211" lon="5.29953">
        <ele>225.8</ele>
        <time>2022-08-18T12:40:33Z</time>
      </trkpt>
      <trkpt lat="46.41185" lon="5.29969">
        <ele>227.2</ele>
        <time>2022-08-18T12:40:38Z</time>
      </trkpt>
      <trkpt lat="46.41173" lon="5.29973">
        <ele>227.6</ele>
        <time>2022-08-18T12:40:40Z</time>
      </trkpt>
      <trkpt lat="46.41154" lon="5.29974">
        <ele>228.2</ele>
        <time>2022-08-18T12:40:43Z</time>
      </trkpt>
      <trkpt lat="46.41115" lon="5.2998">
        <ele>228.8</ele>
        <time>2022-08-18T12:40:49Z</time>
      </trkpt>
      <trkpt lat="46.41068" lon="5.29986">
        <ele>228.6</ele>
        <time>2022-08-18T12:40:56Z</time>
      </trkpt>
      <trkpt lat="46.41022" lon="5.29993">
        <ele>228.2</ele>
        <time>2022-08-18T12:41:03Z</time>
      </trkpt>
      <trkpt lat="46.40974" lon="5.29999">
        <ele>228.2</ele>
        <time>2022-08-18T12:41:11Z</time>
      </trkpt>
      <trkpt lat="46.4093" lon="5.29995">
        <ele>228.2</ele>
        <time>2022-08-18T12:41:18Z</time>
      </trkpt>
      <trkpt lat="46.40886" lon="5.29995">
        <ele>228.4</ele>
        <time>2022-08-18T12:41:25Z</time>
      </trkpt>
      <trkpt lat="46.40851" lon="5.29992">
        <ele>228.8</ele>
        <time>2022-08-18T12:41:31Z</time>
      </trkpt>
      <trkpt lat="46.40839" lon="5.29988">
        <ele>229.2</ele>
        <time>2022-08-18T12:41:33Z</time>
      </trkpt>
      <trkpt lat="46.40833" lon="5.29986">
        <ele>229.2</ele>
        <time>2022-08-18T12:41:34Z</time>
      </trkpt>
      <trkpt lat="46.40812" lon="5.29977">
        <ele>229.4</ele>
        <time>2022-08-18T12:41:37Z</time>
      </trkpt>
      <trkpt lat="46.40774" lon="5.29961">
        <ele>229</ele>
        <time>2022-08-18T12:41:43Z</time>
      </trkpt>
      <trkpt lat="46.40731" lon="5.29941">
        <ele>229</ele>
        <time>2022-08-18T12:41:50Z</time>
      </trkpt>
      <trkpt lat="46.40707" lon="5.29928">
        <ele>229</ele>
        <time>2022-08-18T12:41:54Z</time>
      </trkpt>
      <trkpt lat="46.40702" lon="5.29924">
        <ele>229.2</ele>
        <time>2022-08-18T12:41:55Z</time>
      </trkpt>
      <trkpt lat="46.40675" lon="5.29903">
        <ele>229.2</ele>
        <time>2022-08-18T12:42:00Z</time>
      </trkpt>
      <trkpt lat="46.40655" lon="5.29884">
        <ele>229.2</ele>
        <time>2022-08-18T12:42:04Z</time>
      </trkpt>
      <trkpt lat="46.40632" lon="5.29857">
        <ele>229.8</ele>
        <time>2022-08-18T12:42:09Z</time>
      </trkpt>
      <trkpt lat="46.40622" lon="5.29846">
        <ele>229.8</ele>
        <time>2022-08-18T12:42:11Z</time>
      </trkpt>
      <trkpt lat="46.40612" lon="5.29838">
        <ele>230</ele>
        <time>2022-08-18T12:42:13Z</time>
      </trkpt>
      <trkpt lat="46.40606" lon="5.29834">
        <ele>230</ele>
        <time>2022-08-18T12:42:14Z</time>
      </trkpt>
      <trkpt lat="46.40599" lon="5.2983">
        <ele>230</ele>
        <time>2022-08-18T12:42:15Z</time>
      </trkpt>
      <trkpt lat="46.40578" lon="5.29822">
        <ele>230.4</ele>
        <time>2022-08-18T12:42:18Z</time>
      </trkpt>
      <trkpt lat="46.40571" lon="5.29821">
        <ele>230.4</ele>
        <time>2022-08-18T12:42:19Z</time>
      </trkpt>
      <trkpt lat="46.40515" lon="5.29819">
        <ele>230.4</ele>
        <time>2022-08-18T12:42:27Z</time>
      </trkpt>
      <trkpt lat="46.40508" lon="5.29818">
        <ele>230.4</ele>
        <time>2022-08-18T12:42:28Z</time>
      </trkpt>
      <trkpt lat="46.40448" lon="5.29813">
        <ele>230.4</ele>
        <time>2022-08-18T12:42:37Z</time>
      </trkpt>
      <trkpt lat="46.40441" lon="5.29812">
        <ele>230.4</ele>
        <time>2022-08-18T12:42:38Z</time>
      </trkpt>
      <trkpt lat="46.40383" lon="5.29805">
        <ele>230.2</ele>
        <time>2022-08-18T12:42:46Z</time>
      </trkpt>
      <trkpt lat="46.40376" lon="5.29804">
        <ele>230</ele>
        <time>2022-08-18T12:42:47Z</time>
      </trkpt>
      <trkpt lat="46.40318" lon="5.29797">
        <ele>230.2</ele>
        <time>2022-08-18T12:42:55Z</time>
      </trkpt>
      <trkpt lat="46.40312" lon="5.29796">
        <ele>230.2</ele>
        <time>2022-08-18T12:42:56Z</time>
      </trkpt>
      <trkpt lat="46.40254" lon="5.29788">
        <ele>230.2</ele>
        <time>2022-08-18T12:43:04Z</time>
      </trkpt>
      <trkpt lat="46.4024" lon="5.29786">
        <ele>230</ele>
        <time>2022-08-18T12:43:06Z</time>
      </trkpt>
      <trkpt lat="46.40208" lon="5.29782">
        <ele>229.8</ele>
        <time>2022-08-18T12:43:11Z</time>
      </trkpt>
      <trkpt lat="46.40203" lon="5.2978">
        <ele>229.6</ele>
        <time>2022-08-18T12:43:12Z</time>
      </trkpt>
      <trkpt lat="46.402" lon="5.29776">
        <ele>229.6</ele>
        <time>2022-08-18T12:43:13Z</time>
      </trkpt>
      <trkpt lat="46.40198" lon="5.2977">
        <ele>229.6</ele>
        <time>2022-08-18T12:43:14Z</time>
      </trkpt>
      <trkpt lat="46.40199" lon="5.29763">
        <ele>229.6</ele>
        <time>2022-08-18T12:43:15Z</time>
      </trkpt>
      <trkpt lat="46.402" lon="5.29739">
        <ele>229.6</ele>
        <time>2022-08-18T12:43:18Z</time>
      </trkpt>
      <trkpt lat="46.40203" lon="5.29692">
        <ele>230</ele>
        <time>2022-08-18T12:43:23Z</time>
      </trkpt>
      <trkpt lat="46.40206" lon="5.29622">
        <ele>230.4</ele>
        <time>2022-08-18T12:43:30Z</time>
      </trkpt>
      <trkpt lat="46.40208" lon="5.29548">
        <ele>229.2</ele>
        <time>2022-08-18T12:43:36Z</time>
      </trkpt>
      <trkpt lat="46.40208" lon="5.29535">
        <ele>229</ele>
        <time>2022-08-18T12:43:37Z</time>
      </trkpt>
      <trkpt lat="46.40209" lon="5.29466">
        <ele>227.4</ele>
        <time>2022-08-18T12:43:42Z</time>
      </trkpt>
      <trkpt lat="46.40209" lon="5.29452">
        <ele>226.8</ele>
        <time>2022-08-18T12:43:43Z</time>
      </trkpt>
      <trkpt lat="46.40209" lon="5.29422">
        <ele>225.8</ele>
        <time>2022-08-18T12:43:45Z</time>
      </trkpt>
      <trkpt lat="46.40206" lon="5.29392">
        <ele>224.6</ele>
        <time>2022-08-18T12:43:47Z</time>
      </trkpt>
      <trkpt lat="46.40203" lon="5.29377">
        <ele>224.4</ele>
        <time>2022-08-18T12:43:48Z</time>
      </trkpt>
      <trkpt lat="46.40194" lon="5.29349">
        <ele>223.2</ele>
        <time>2022-08-18T12:43:50Z</time>
      </trkpt>
      <trkpt lat="46.40181" lon="5.29307">
        <ele>222.2</ele>
        <time>2022-08-18T12:43:53Z</time>
      </trkpt>
      <trkpt lat="46.40173" lon="5.29282">
        <ele>220.8</ele>
        <time>2022-08-18T12:43:55Z</time>
      </trkpt>
      <trkpt lat="46.40165" lon="5.29258">
        <ele>219.8</ele>
        <time>2022-08-18T12:43:57Z</time>
      </trkpt>
      <trkpt lat="46.40157" lon="5.29235">
        <ele>219.2</ele>
        <time>2022-08-18T12:43:59Z</time>
      </trkpt>
      <trkpt lat="46.4014" lon="5.29171">
        <ele>219.2</ele>
        <time>2022-08-18T12:44:05Z</time>
      </trkpt>
      <trkpt lat="46.4014" lon="5.29151">
        <ele>219.4</ele>
        <time>2022-08-18T12:44:07Z</time>
      </trkpt>
      <trkpt lat="46.40142" lon="5.29121">
        <ele>220</ele>
        <time>2022-08-18T12:44:10Z</time>
      </trkpt>
      <trkpt lat="46.40142" lon="5.29043">
        <ele>220.2</ele>
        <time>2022-08-18T12:44:17Z</time>
      </trkpt>
      <trkpt lat="46.4014" lon="5.28961">
        <ele>218.8</ele>
        <time>2022-08-18T12:44:23Z</time>
      </trkpt>
      <trkpt lat="46.4014" lon="5.28947">
        <ele>218.4</ele>
        <time>2022-08-18T12:44:24Z</time>
      </trkpt>
      <trkpt lat="46.40137" lon="5.28918">
        <ele>217.6</ele>
        <time>2022-08-18T12:44:26Z</time>
      </trkpt>
      <trkpt lat="46.40133" lon="5.28891">
        <ele>216.6</ele>
        <time>2022-08-18T12:44:28Z</time>
      </trkpt>
      <trkpt lat="46.40129" lon="5.28877">
        <ele>215.8</ele>
        <time>2022-08-18T12:44:29Z</time>
      </trkpt>
      <trkpt lat="46.40125" lon="5.28865">
        <ele>215.4</ele>
        <time>2022-08-18T12:44:30Z</time>
      </trkpt>
      <trkpt lat="46.40111" lon="5.28833">
        <ele>214.6</ele>
        <time>2022-08-18T12:44:33Z</time>
      </trkpt>
      <trkpt lat="46.40107" lon="5.28823">
        <ele>214.2</ele>
        <time>2022-08-18T12:44:34Z</time>
      </trkpt>
      <trkpt lat="46.40092" lon="5.28784">
        <ele>213.6</ele>
        <time>2022-08-18T12:44:38Z</time>
      </trkpt>
      <trkpt lat="46.40089" lon="5.28774">
        <ele>213.2</ele>
        <time>2022-08-18T12:44:39Z</time>
      </trkpt>
      <trkpt lat="46.40081" lon="5.2873">
        <ele>213.2</ele>
        <time>2022-08-18T12:44:43Z</time>
      </trkpt>
      <trkpt lat="46.40081" lon="5.28708">
        <ele>213.2</ele>
        <time>2022-08-18T12:44:45Z</time>
      </trkpt>
      <trkpt lat="46.40084" lon="5.28685">
        <ele>213.2</ele>
        <time>2022-08-18T12:44:47Z</time>
      </trkpt>
      <trkpt lat="46.40096" lon="5.28631">
        <ele>213.4</ele>
        <time>2022-08-18T12:44:52Z</time>
      </trkpt>
      <trkpt lat="46.40117" lon="5.28549">
        <ele>213.2</ele>
        <time>2022-08-18T12:44:59Z</time>
      </trkpt>
      <trkpt lat="46.4012" lon="5.28537">
        <ele>213</ele>
        <time>2022-08-18T12:45:00Z</time>
      </trkpt>
      <trkpt lat="46.40133" lon="5.28488">
        <ele>212.2</ele>
        <time>2022-08-18T12:45:04Z</time>
      </trkpt>
      <trkpt lat="46.40143" lon="5.28449">
        <ele>210.8</ele>
        <time>2022-08-18T12:45:07Z</time>
      </trkpt>
      <trkpt lat="46.40147" lon="5.28436">
        <ele>210.4</ele>
        <time>2022-08-18T12:45:08Z</time>
      </trkpt>
      <trkpt lat="46.4015" lon="5.28423">
        <ele>209.8</ele>
        <time>2022-08-18T12:45:09Z</time>
      </trkpt>
      <trkpt lat="46.4016" lon="5.28384">
        <ele>208.4</ele>
        <time>2022-08-18T12:45:12Z</time>
      </trkpt>
      <trkpt lat="46.40168" lon="5.28334">
        <ele>207.6</ele>
        <time>2022-08-18T12:45:16Z</time>
      </trkpt>
      <trkpt lat="46.4017" lon="5.28309">
        <ele>207.4</ele>
        <time>2022-08-18T12:45:18Z</time>
      </trkpt>
      <trkpt lat="46.40171" lon="5.2826">
        <ele>207</ele>
        <time>2022-08-18T12:45:22Z</time>
      </trkpt>
      <trkpt lat="46.40172" lon="5.28211">
        <ele>206.2</ele>
        <time>2022-08-18T12:45:26Z</time>
      </trkpt>
      <trkpt lat="46.40173" lon="5.28149">
        <ele>205.2</ele>
        <time>2022-08-18T12:45:31Z</time>
      </trkpt>
      <trkpt lat="46.40174" lon="5.28137">
        <ele>205</ele>
        <time>2022-08-18T12:45:32Z</time>
      </trkpt>
      <trkpt lat="46.40175" lon="5.28067">
        <ele>204</ele>
        <time>2022-08-18T12:45:38Z</time>
      </trkpt>
      <trkpt lat="46.40176" lon="5.28055">
        <ele>204</ele>
        <time>2022-08-18T12:45:39Z</time>
      </trkpt>
      <trkpt lat="46.40178" lon="5.27977">
        <ele>203.2</ele>
        <time>2022-08-18T12:45:46Z</time>
      </trkpt>
      <trkpt lat="46.40179" lon="5.27953">
        <ele>203</ele>
        <time>2022-08-18T12:45:48Z</time>
      </trkpt>
      <trkpt lat="46.40181" lon="5.27868">
        <ele>202</ele>
        <time>2022-08-18T12:45:55Z</time>
      </trkpt>
      <trkpt lat="46.40181" lon="5.27856">
        <ele>201.8</ele>
        <time>2022-08-18T12:45:56Z</time>
      </trkpt>
      <trkpt lat="46.40183" lon="5.27778">
        <ele>201</ele>
        <time>2022-08-18T12:46:03Z</time>
      </trkpt>
      <trkpt lat="46.40185" lon="5.27727">
        <ele>200.8</ele>
        <time>2022-08-18T12:46:08Z</time>
      </trkpt>
      <trkpt lat="46.40186" lon="5.27698">
        <ele>200.8</ele>
        <time>2022-08-18T12:46:11Z</time>
      </trkpt>
      <trkpt lat="46.40191" lon="5.27661">
        <ele>200.6</ele>
        <time>2022-08-18T12:46:15Z</time>
      </trkpt>
      <trkpt lat="46.40204" lon="5.27591">
        <ele>200.4</ele>
        <time>2022-08-18T12:46:23Z</time>
      </trkpt>
      <trkpt lat="46.40223" lon="5.2753">
        <ele>200.2</ele>
        <time>2022-08-18T12:46:30Z</time>
      </trkpt>
      <trkpt lat="46.40234" lon="5.27506">
        <ele>200</ele>
        <time>2022-08-18T12:46:33Z</time>
      </trkpt>
      <trkpt lat="46.40241" lon="5.2749">
        <ele>200</ele>
        <time>2022-08-18T12:46:35Z</time>
      </trkpt>
      <trkpt lat="46.40273" lon="5.27449">
        <ele>199.8</ele>
        <time>2022-08-18T12:46:42Z</time>
      </trkpt>
      <trkpt lat="46.40275" lon="5.27444">
        <ele>199.8</ele>
        <time>2022-08-18T12:46:43Z</time>
      </trkpt>
      <trkpt lat="46.40312" lon="5.27415">
        <ele>200</ele>
        <time>2022-08-18T12:46:50Z</time>
      </trkpt>
      <trkpt lat="46.40335" lon="5.27398">
        <ele>200.4</ele>
        <time>2022-08-18T12:46:55Z</time>
      </trkpt>
      <trkpt lat="46.40344" lon="5.27391">
        <ele>200.8</ele>
        <time>2022-08-18T12:46:57Z</time>
      </trkpt>
      <trkpt lat="46.40351" lon="5.27387">
        <ele>201.2</ele>
        <time>2022-08-18T12:46:59Z</time>
      </trkpt>
      <trkpt lat="46.40359" lon="5.27382">
        <ele>201.6</ele>
        <time>2022-08-18T12:47:01Z</time>
      </trkpt>
      <trkpt lat="46.40374" lon="5.27371">
        <ele>202.4</ele>
        <time>2022-08-18T12:47:05Z</time>
      </trkpt>
      <trkpt lat="46.40387" lon="5.27361">
        <ele>203.4</ele>
        <time>2022-08-18T12:47:09Z</time>
      </trkpt>
      <trkpt lat="46.4039" lon="5.27359">
        <ele>203.6</ele>
        <time>2022-08-18T12:47:10Z</time>
      </trkpt>
      <trkpt lat="46.40403" lon="5.27348">
        <ele>204.6</ele>
        <time>2022-08-18T12:47:14Z</time>
      </trkpt>
      <trkpt lat="46.40409" lon="5.27344">
        <ele>205.2</ele>
        <time>2022-08-18T12:47:16Z</time>
      </trkpt>
      <trkpt lat="46.40416" lon="5.27339">
        <ele>205.8</ele>
        <time>2022-08-18T12:47:18Z</time>
      </trkpt>
      <trkpt lat="46.40427" lon="5.2733">
        <ele>206.8</ele>
        <time>2022-08-18T12:47:22Z</time>
      </trkpt>
      <trkpt lat="46.40437" lon="5.27323">
        <ele>207.6</ele>
        <time>2022-08-18T12:47:25Z</time>
      </trkpt>
      <trkpt lat="46.40446" lon="5.27317">
        <ele>208</ele>
        <time>2022-08-18T12:47:28Z</time>
      </trkpt>
      <trkpt lat="46.40459" lon="5.2731">
        <ele>209.4</ele>
        <time>2022-08-18T12:47:32Z</time>
      </trkpt>
      <trkpt lat="46.40465" lon="5.27306">
        <ele>209.8</ele>
        <time>2022-08-18T12:47:34Z</time>
      </trkpt>
      <trkpt lat="46.40475" lon="5.27299">
        <ele>210.4</ele>
        <time>2022-08-18T12:47:37Z</time>
      </trkpt>
      <trkpt lat="46.40493" lon="5.27287">
        <ele>211.6</ele>
        <time>2022-08-18T12:47:42Z</time>
      </trkpt>
      <trkpt lat="46.405" lon="5.27282">
        <ele>212</ele>
        <time>2022-08-18T12:47:44Z</time>
      </trkpt>
      <trkpt lat="46.40511" lon="5.27275">
        <ele>212.6</ele>
        <time>2022-08-18T12:47:47Z</time>
      </trkpt>
      <trkpt lat="46.40538" lon="5.27252">
        <ele>213.6</ele>
        <time>2022-08-18T12:47:55Z</time>
      </trkpt>
      <trkpt lat="46.40566" lon="5.27225">
        <ele>214.2</ele>
        <time>2022-08-18T12:48:03Z</time>
      </trkpt>
      <trkpt lat="46.40583" lon="5.27206">
        <ele>214.6</ele>
        <time>2022-08-18T12:48:08Z</time>
      </trkpt>
      <trkpt lat="46.40592" lon="5.27196">
        <ele>215</ele>
        <time>2022-08-18T12:48:11Z</time>
      </trkpt>
      <trkpt lat="46.40604" lon="5.27183">
        <ele>215.6</ele>
        <time>2022-08-18T12:48:15Z</time>
      </trkpt>
      <trkpt lat="46.40622" lon="5.27163">
        <ele>216.6</ele>
        <time>2022-08-18T12:48:21Z</time>
      </trkpt>
      <trkpt lat="46.40626" lon="5.27158">
        <ele>216.8</ele>
        <time>2022-08-18T12:48:22Z</time>
      </trkpt>
      <trkpt lat="46.40655" lon="5.27126">
        <ele>217.8</ele>
        <time>2022-08-18T12:48:31Z</time>
      </trkpt>
      <trkpt lat="46.40659" lon="5.27122">
        <ele>218</ele>
        <time>2022-08-18T12:48:32Z</time>
      </trkpt>
      <trkpt lat="46.40675" lon="5.27104">
        <ele>219</ele>
        <time>2022-08-18T12:48:37Z</time>
      </trkpt>
      <trkpt lat="46.40689" lon="5.27089">
        <ele>219.6</ele>
        <time>2022-08-18T12:48:41Z</time>
      </trkpt>
      <trkpt lat="46.4071" lon="5.27065">
        <ele>220</ele>
        <time>2022-08-18T12:48:46Z</time>
      </trkpt>
      <trkpt lat="46.40713" lon="5.27061">
        <ele>220</ele>
        <time>2022-08-18T12:48:47Z</time>
      </trkpt>
      <trkpt lat="46.40748" lon="5.27025">
        <ele>220.4</ele>
        <time>2022-08-18T12:48:53Z</time>
      </trkpt>
      <trkpt lat="46.40759" lon="5.27014">
        <ele>220.2</ele>
        <time>2022-08-18T12:48:54Z</time>
      </trkpt>
      <trkpt lat="46.4079" lon="5.26991">
        <ele>219.4</ele>
        <time>2022-08-18T12:48:59Z</time>
      </trkpt>
      <trkpt lat="46.40828" lon="5.26973">
        <ele>219.2</ele>
        <time>2022-08-18T12:49:05Z</time>
      </trkpt>
      <trkpt lat="46.40871" lon="5.26951">
        <ele>219.6</ele>
        <time>2022-08-18T12:49:13Z</time>
      </trkpt>
      <trkpt lat="46.40916" lon="5.2693">
        <ele>220.2</ele>
        <time>2022-08-18T12:49:22Z</time>
      </trkpt>
      <trkpt lat="46.40954" lon="5.26921">
        <ele>220.6</ele>
        <time>2022-08-18T12:49:29Z</time>
      </trkpt>
      <trkpt lat="46.40981" lon="5.26915">
        <ele>221.4</ele>
        <time>2022-08-18T12:49:35Z</time>
      </trkpt>
      <trkpt lat="46.41007" lon="5.26911">
        <ele>221.8</ele>
        <time>2022-08-18T12:49:39Z</time>
      </trkpt>
      <trkpt lat="46.41044" lon="5.26908">
        <ele>222.6</ele>
        <time>2022-08-18T12:49:46Z</time>
      </trkpt>
      <trkpt lat="46.41101" lon="5.26911">
        <ele>223.4</ele>
        <time>2022-08-18T12:49:57Z</time>
      </trkpt>
      <trkpt lat="46.41107" lon="5.2691">
        <ele>223.8</ele>
        <time>2022-08-18T12:49:58Z</time>
      </trkpt>
      <trkpt lat="46.41161" lon="5.26897">
        <ele>224.6</ele>
        <time>2022-08-18T12:50:08Z</time>
      </trkpt>
      <trkpt lat="46.41172" lon="5.26898">
        <ele>224.6</ele>
        <time>2022-08-18T12:50:10Z</time>
      </trkpt>
      <trkpt lat="46.41184" lon="5.26904">
        <ele>224.8</ele>
        <time>2022-08-18T12:50:12Z</time>
      </trkpt>
      <trkpt lat="46.4119" lon="5.26907">
        <ele>224.8</ele>
        <time>2022-08-18T12:50:13Z</time>
      </trkpt>
      <trkpt lat="46.41194" lon="5.26907">
        <ele>224.8</ele>
        <time>2022-08-18T12:50:14Z</time>
      </trkpt>
      <trkpt lat="46.412" lon="5.26906">
        <ele>224.8</ele>
        <time>2022-08-18T12:50:15Z</time>
      </trkpt>
      <trkpt lat="46.4121" lon="5.26895">
        <ele>224.8</ele>
        <time>2022-08-18T12:50:17Z</time>
      </trkpt>
      <trkpt lat="46.41213" lon="5.26886">
        <ele>224.8</ele>
        <time>2022-08-18T12:50:18Z</time>
      </trkpt>
      <trkpt lat="46.41219" lon="5.2686">
        <ele>224.6</ele>
        <time>2022-08-18T12:50:21Z</time>
      </trkpt>
      <trkpt lat="46.41223" lon="5.26853">
        <ele>224.6</ele>
        <time>2022-08-18T12:50:22Z</time>
      </trkpt>
      <trkpt lat="46.4123" lon="5.26845">
        <ele>224.4</ele>
        <time>2022-08-18T12:50:23Z</time>
      </trkpt>
      <trkpt lat="46.41242" lon="5.26834">
        <ele>224.2</ele>
        <time>2022-08-18T12:50:25Z</time>
      </trkpt>
      <trkpt lat="46.41249" lon="5.26829">
        <ele>224.2</ele>
        <time>2022-08-18T12:50:26Z</time>
      </trkpt>
      <trkpt lat="46.41278" lon="5.26819">
        <ele>223.8</ele>
        <time>2022-08-18T12:50:30Z</time>
      </trkpt>
      <trkpt lat="46.41288" lon="5.26815">
        <ele>223.4</ele>
        <time>2022-08-18T12:50:31Z</time>
      </trkpt>
      <trkpt lat="46.41311" lon="5.26801">
        <ele>222.8</ele>
        <time>2022-08-18T12:50:34Z</time>
      </trkpt>
      <trkpt lat="46.41319" lon="5.26794">
        <ele>222.2</ele>
        <time>2022-08-18T12:50:35Z</time>
      </trkpt>
      <trkpt lat="46.41336" lon="5.26779">
        <ele>221</ele>
        <time>2022-08-18T12:50:37Z</time>
      </trkpt>
      <trkpt lat="46.41352" lon="5.26762">
        <ele>219.8</ele>
        <time>2022-08-18T12:50:39Z</time>
      </trkpt>
      <trkpt lat="46.41377" lon="5.26736">
        <ele>218.2</ele>
        <time>2022-08-18T12:50:42Z</time>
      </trkpt>
      <trkpt lat="46.41402" lon="5.26711">
        <ele>216.8</ele>
        <time>2022-08-18T12:50:45Z</time>
      </trkpt>
      <trkpt lat="46.4141" lon="5.26703">
        <ele>216.6</ele>
        <time>2022-08-18T12:50:46Z</time>
      </trkpt>
      <trkpt lat="46.41436" lon="5.26676">
        <ele>215</ele>
        <time>2022-08-18T12:50:49Z</time>
      </trkpt>
      <trkpt lat="46.41459" lon="5.26651">
        <ele>213.8</ele>
        <time>2022-08-18T12:50:52Z</time>
      </trkpt>
      <trkpt lat="46.41481" lon="5.26629">
        <ele>212.8</ele>
        <time>2022-08-18T12:50:55Z</time>
      </trkpt>
      <trkpt lat="46.41489" lon="5.26619">
        <ele>212</ele>
        <time>2022-08-18T12:50:56Z</time>
      </trkpt>
      <trkpt lat="46.41495" lon="5.26613">
        <ele>211.6</ele>
        <time>2022-08-18T12:50:57Z</time>
      </trkpt>
      <trkpt lat="46.41526" lon="5.26582">
        <ele>210.4</ele>
        <time>2022-08-18T12:51:01Z</time>
      </trkpt>
      <trkpt lat="46.41546" lon="5.26563">
        <ele>209.8</ele>
        <time>2022-08-18T12:51:04Z</time>
      </trkpt>
      <trkpt lat="46.41552" lon="5.26557">
        <ele>209.4</ele>
        <time>2022-08-18T12:51:05Z</time>
      </trkpt>
      <trkpt lat="46.41589" lon="5.2653">
        <ele>208.4</ele>
        <time>2022-08-18T12:51:10Z</time>
      </trkpt>
      <trkpt lat="46.4163" lon="5.26513">
        <ele>207.8</ele>
        <time>2022-08-18T12:51:16Z</time>
      </trkpt>
      <trkpt lat="46.41667" lon="5.26508">
        <ele>208</ele>
        <time>2022-08-18T12:51:22Z</time>
      </trkpt>
      <trkpt lat="46.41723" lon="5.26517">
        <ele>208.4</ele>
        <time>2022-08-18T12:51:29Z</time>
      </trkpt>
      <trkpt lat="46.41779" lon="5.2654">
        <ele>208.4</ele>
        <time>2022-08-18T12:51:38Z</time>
      </trkpt>
      <trkpt lat="46.41837" lon="5.26564">
        <ele>208.4</ele>
        <time>2022-08-18T12:51:47Z</time>
      </trkpt>
      <trkpt lat="46.4189" lon="5.26587">
        <ele>209</ele>
        <time>2022-08-18T12:51:56Z</time>
      </trkpt>
      <trkpt lat="46.41929" lon="5.26603">
        <ele>209.4</ele>
        <time>2022-08-18T12:52:03Z</time>
      </trkpt>
      <trkpt lat="46.41935" lon="5.26605">
        <ele>209.6</ele>
        <time>2022-08-18T12:52:04Z</time>
      </trkpt>
      <trkpt lat="46.41973" lon="5.2662">
        <ele>209.8</ele>
        <time>2022-08-18T12:52:11Z</time>
      </trkpt>
      <trkpt lat="46.4203" lon="5.26641">
        <ele>210</ele>
        <time>2022-08-18T12:52:21Z</time>
      </trkpt>
      <trkpt lat="46.42074" lon="5.26658">
        <ele>210.6</ele>
        <time>2022-08-18T12:52:29Z</time>
      </trkpt>
      <trkpt lat="46.42124" lon="5.26677">
        <ele>210.4</ele>
        <time>2022-08-18T12:52:38Z</time>
      </trkpt>
      <trkpt lat="46.42155" lon="5.26688">
        <ele>210.8</ele>
        <time>2022-08-18T12:52:44Z</time>
      </trkpt>
      <trkpt lat="46.42159" lon="5.2669">
        <ele>211</ele>
        <time>2022-08-18T12:52:45Z</time>
      </trkpt>
      <trkpt lat="46.4219" lon="5.267">
        <ele>211.8</ele>
        <time>2022-08-18T12:52:51Z</time>
      </trkpt>
      <trkpt lat="46.42218" lon="5.2671">
        <ele>212.2</ele>
        <time>2022-08-18T12:52:56Z</time>
      </trkpt>
      <trkpt lat="46.42257" lon="5.26722">
        <ele>212.2</ele>
        <time>2022-08-18T12:53:02Z</time>
      </trkpt>
      <trkpt lat="46.42298" lon="5.26735">
        <ele>211.6</ele>
        <time>2022-08-18T12:53:08Z</time>
      </trkpt>
      <trkpt lat="46.42328" lon="5.26743">
        <ele>210.8</ele>
        <time>2022-08-18T12:53:12Z</time>
      </trkpt>
      <trkpt lat="46.42352" lon="5.26748">
        <ele>210.2</ele>
        <time>2022-08-18T12:53:15Z</time>
      </trkpt>
      <trkpt lat="46.42365" lon="5.26751">
        <ele>209.8</ele>
        <time>2022-08-18T12:53:17Z</time>
      </trkpt>
      <trkpt lat="46.42404" lon="5.26761">
        <ele>208.8</ele>
        <time>2022-08-18T12:53:22Z</time>
      </trkpt>
      <trkpt lat="46.42421" lon="5.26765">
        <ele>208.2</ele>
        <time>2022-08-18T12:53:24Z</time>
      </trkpt>
      <trkpt lat="46.42453" lon="5.26772">
        <ele>207.6</ele>
        <time>2022-08-18T12:53:28Z</time>
      </trkpt>
      <trkpt lat="46.42493" lon="5.26782">
        <ele>206.4</ele>
        <time>2022-08-18T12:53:33Z</time>
      </trkpt>
      <trkpt lat="46.42499" lon="5.26784">
        <ele>206.2</ele>
        <time>2022-08-18T12:53:34Z</time>
      </trkpt>
      <trkpt lat="46.42552" lon="5.26797">
        <ele>205.6</ele>
        <time>2022-08-18T12:53:41Z</time>
      </trkpt>
      <trkpt lat="46.42559" lon="5.26799">
        <ele>205.4</ele>
        <time>2022-08-18T12:53:42Z</time>
      </trkpt>
      <trkpt lat="46.42596" lon="5.26808">
        <ele>205.2</ele>
        <time>2022-08-18T12:53:48Z</time>
      </trkpt>
      <trkpt lat="46.42626" lon="5.26816">
        <ele>205.6</ele>
        <time>2022-08-18T12:53:54Z</time>
      </trkpt>
      <trkpt lat="46.42644" lon="5.26818">
        <ele>206.6</ele>
        <time>2022-08-18T12:53:58Z</time>
      </trkpt>
      <trkpt lat="46.42657" lon="5.26821">
        <ele>207.2</ele>
        <time>2022-08-18T12:54:01Z</time>
      </trkpt>
      <trkpt lat="46.42665" lon="5.26823">
        <ele>208</ele>
        <time>2022-08-18T12:54:03Z</time>
      </trkpt>
      <trkpt lat="46.42681" lon="5.26826">
        <ele>209</ele>
        <time>2022-08-18T12:54:07Z</time>
      </trkpt>
      <trkpt lat="46.42685" lon="5.26827">
        <ele>209.2</ele>
        <time>2022-08-18T12:54:08Z</time>
      </trkpt>
      <trkpt lat="46.42697" lon="5.2683">
        <ele>210</ele>
        <time>2022-08-18T12:54:11Z</time>
      </trkpt>
      <trkpt lat="46.42713" lon="5.26835">
        <ele>211</ele>
        <time>2022-08-18T12:54:15Z</time>
      </trkpt>
      <trkpt lat="46.4272" lon="5.26837">
        <ele>211.4</ele>
        <time>2022-08-18T12:54:17Z</time>
      </trkpt>
      <trkpt lat="46.42732" lon="5.2684">
        <ele>212.4</ele>
        <time>2022-08-18T12:54:20Z</time>
      </trkpt>
      <trkpt lat="46.42747" lon="5.26844">
        <ele>213.4</ele>
        <time>2022-08-18T12:54:24Z</time>
      </trkpt>
      <trkpt lat="46.42754" lon="5.26846">
        <ele>213.8</ele>
        <time>2022-08-18T12:54:26Z</time>
      </trkpt>
      <trkpt lat="46.42766" lon="5.26849">
        <ele>214.6</ele>
        <time>2022-08-18T12:54:29Z</time>
      </trkpt>
      <trkpt lat="46.42777" lon="5.26851">
        <ele>215.6</ele>
        <time>2022-08-18T12:54:32Z</time>
      </trkpt>
      <trkpt lat="46.42788" lon="5.26855">
        <ele>216.4</ele>
        <time>2022-08-18T12:54:35Z</time>
      </trkpt>
      <trkpt lat="46.42791" lon="5.26855">
        <ele>216.8</ele>
        <time>2022-08-18T12:54:36Z</time>
      </trkpt>
      <trkpt lat="46.42814" lon="5.2686">
        <ele>217.8</ele>
        <time>2022-08-18T12:54:42Z</time>
      </trkpt>
      <trkpt lat="46.42826" lon="5.26863">
        <ele>218.2</ele>
        <time>2022-08-18T12:54:45Z</time>
      </trkpt>
      <trkpt lat="46.42851" lon="5.26864">
        <ele>218.8</ele>
        <time>2022-08-18T12:54:51Z</time>
      </trkpt>
      <trkpt lat="46.42859" lon="5.26864">
        <ele>219.6</ele>
        <time>2022-08-18T12:54:53Z</time>
      </trkpt>
      <trkpt lat="46.42868" lon="5.26864">
        <ele>220</ele>
        <time>2022-08-18T12:54:55Z</time>
      </trkpt>
      <trkpt lat="46.42894" lon="5.26861">
        <ele>220.6</ele>
        <time>2022-08-18T12:55:01Z</time>
      </trkpt>
      <trkpt lat="46.42934" lon="5.26856">
        <ele>221</ele>
        <time>2022-08-18T12:55:09Z</time>
      </trkpt>
      <trkpt lat="46.42939" lon="5.26855">
        <ele>221</ele>
        <time>2022-08-18T12:55:10Z</time>
      </trkpt>
      <trkpt lat="46.42995" lon="5.26848">
        <ele>221</ele>
        <time>2022-08-18T12:55:20Z</time>
      </trkpt>
      <trkpt lat="46.43042" lon="5.26845">
        <ele>220.4</ele>
        <time>2022-08-18T12:55:27Z</time>
      </trkpt>
      <trkpt lat="46.43059" lon="5.26846">
        <ele>219.8</ele>
        <time>2022-08-18T12:55:29Z</time>
      </trkpt>
      <trkpt lat="46.43081" lon="5.26847">
        <ele>218.6</ele>
        <time>2022-08-18T12:55:32Z</time>
      </trkpt>
      <trkpt lat="46.43098" lon="5.2685">
        <ele>217.6</ele>
        <time>2022-08-18T12:55:34Z</time>
      </trkpt>
      <trkpt lat="46.43106" lon="5.26852">
        <ele>217.4</ele>
        <time>2022-08-18T12:55:35Z</time>
      </trkpt>
      <trkpt lat="46.43141" lon="5.26861">
        <ele>216</ele>
        <time>2022-08-18T12:55:39Z</time>
      </trkpt>
      <trkpt lat="46.4315" lon="5.26864">
        <ele>215.8</ele>
        <time>2022-08-18T12:55:40Z</time>
      </trkpt>
      <trkpt lat="46.4317" lon="5.2687">
        <ele>214.8</ele>
        <time>2022-08-18T12:55:42Z</time>
      </trkpt>
      <trkpt lat="46.43187" lon="5.26875">
        <ele>213.2</ele>
        <time>2022-08-18T12:55:44Z</time>
      </trkpt>
      <trkpt lat="46.43206" lon="5.26878">
        <ele>212.4</ele>
        <time>2022-08-18T12:55:46Z</time>
      </trkpt>
      <trkpt lat="46.43224" lon="5.2688">
        <ele>211.8</ele>
        <time>2022-08-18T12:55:48Z</time>
      </trkpt>
      <trkpt lat="46.4325" lon="5.26882">
        <ele>210.6</ele>
        <time>2022-08-18T12:55:51Z</time>
      </trkpt>
      <trkpt lat="46.43267" lon="5.26882">
        <ele>210</ele>
        <time>2022-08-18T12:55:53Z</time>
      </trkpt>
      <trkpt lat="46.43283" lon="5.26882">
        <ele>209.6</ele>
        <time>2022-08-18T12:55:55Z</time>
      </trkpt>
      <trkpt lat="46.43321" lon="5.26884">
        <ele>208.6</ele>
        <time>2022-08-18T12:56:00Z</time>
      </trkpt>
      <trkpt lat="46.43357" lon="5.26886">
        <ele>208.4</ele>
        <time>2022-08-18T12:56:05Z</time>
      </trkpt>
      <trkpt lat="46.43387" lon="5.2689">
        <ele>208.2</ele>
        <time>2022-08-18T12:56:09Z</time>
      </trkpt>
      <trkpt lat="46.43446" lon="5.269">
        <ele>207.4</ele>
        <time>2022-08-18T12:56:17Z</time>
      </trkpt>
      <trkpt lat="46.43461" lon="5.26902">
        <ele>207</ele>
        <time>2022-08-18T12:56:19Z</time>
      </trkpt>
      <trkpt lat="46.43505" lon="5.26911">
        <ele>206.2</ele>
        <time>2022-08-18T12:56:25Z</time>
      </trkpt>
      <trkpt lat="46.4352" lon="5.26913">
        <ele>206</ele>
        <time>2022-08-18T12:56:27Z</time>
      </trkpt>
      <trkpt lat="46.43564" lon="5.26922">
        <ele>205.2</ele>
        <time>2022-08-18T12:56:33Z</time>
      </trkpt>
      <trkpt lat="46.43578" lon="5.26925">
        <ele>205.2</ele>
        <time>2022-08-18T12:56:35Z</time>
      </trkpt>
      <trkpt lat="46.43619" lon="5.2694">
        <ele>204.8</ele>
        <time>2022-08-18T12:56:41Z</time>
      </trkpt>
      <trkpt lat="46.43675" lon="5.26961">
        <ele>204.2</ele>
        <time>2022-08-18T12:56:49Z</time>
      </trkpt>
      <trkpt lat="46.43689" lon="5.26967">
        <ele>204.2</ele>
        <time>2022-08-18T12:56:51Z</time>
      </trkpt>
      <trkpt lat="46.43745" lon="5.26988">
        <ele>203.8</ele>
        <time>2022-08-18T12:56:59Z</time>
      </trkpt>
      <trkpt lat="46.43779" lon="5.26998">
        <ele>203.6</ele>
        <time>2022-08-18T12:57:04Z</time>
      </trkpt>
      <trkpt lat="46.43786" lon="5.26999">
        <ele>203.6</ele>
        <time>2022-08-18T12:57:05Z</time>
      </trkpt>
      <trkpt lat="46.438" lon="5.26997">
        <ele>203.4</ele>
        <time>2022-08-18T12:57:07Z</time>
      </trkpt>
      <trkpt lat="46.43806" lon="5.26994">
        <ele>203.4</ele>
        <time>2022-08-18T12:57:08Z</time>
      </trkpt>
      <trkpt lat="46.43835" lon="5.26976">
        <ele>203.2</ele>
        <time>2022-08-18T12:57:13Z</time>
      </trkpt>
      <trkpt lat="46.43839" lon="5.26971">
        <ele>203.4</ele>
        <time>2022-08-18T12:57:14Z</time>
      </trkpt>
      <trkpt lat="46.43848" lon="5.26958">
        <ele>203.4</ele>
        <time>2022-08-18T12:57:16Z</time>
      </trkpt>
      <trkpt lat="46.43851" lon="5.26952">
        <ele>203.6</ele>
        <time>2022-08-18T12:57:17Z</time>
      </trkpt>
      <trkpt lat="46.43864" lon="5.26912">
        <ele>204.2</ele>
        <time>2022-08-18T12:57:22Z</time>
      </trkpt>
      <trkpt lat="46.43867" lon="5.26895">
        <ele>204.4</ele>
        <time>2022-08-18T12:57:24Z</time>
      </trkpt>
      <trkpt lat="46.43869" lon="5.26867">
        <ele>204.6</ele>
        <time>2022-08-18T12:57:27Z</time>
      </trkpt>
      <trkpt lat="46.43872" lon="5.26837">
        <ele>204.6</ele>
        <time>2022-08-18T12:57:30Z</time>
      </trkpt>
      <trkpt lat="46.43875" lon="5.26828">
        <ele>204.8</ele>
        <time>2022-08-18T12:57:31Z</time>
      </trkpt>
      <trkpt lat="46.4388" lon="5.2682">
        <ele>204.8</ele>
        <time>2022-08-18T12:57:32Z</time>
      </trkpt>
      <trkpt lat="46.43894" lon="5.26812">
        <ele>204.6</ele>
        <time>2022-08-18T12:57:34Z</time>
      </trkpt>
      <trkpt lat="46.43907" lon="5.26816">
        <ele>204.4</ele>
        <time>2022-08-18T12:57:36Z</time>
      </trkpt>
      <trkpt lat="46.4392" lon="5.26827">
        <ele>204.2</ele>
        <time>2022-08-18T12:57:38Z</time>
      </trkpt>
      <trkpt lat="46.43933" lon="5.2683">
        <ele>204</ele>
        <time>2022-08-18T12:57:40Z</time>
      </trkpt>
      <trkpt lat="46.43945" lon="5.26823">
        <ele>203.8</ele>
        <time>2022-08-18T12:57:42Z</time>
      </trkpt>
      <trkpt lat="46.4395" lon="5.26816">
        <ele>203.6</ele>
        <time>2022-08-18T12:57:43Z</time>
      </trkpt>
      <trkpt lat="46.43959" lon="5.26799">
        <ele>203.4</ele>
        <time>2022-08-18T12:57:45Z</time>
      </trkpt>
      <trkpt lat="46.4397" lon="5.26788">
        <ele>203.2</ele>
        <time>2022-08-18T12:57:47Z</time>
      </trkpt>
      <trkpt lat="46.43985" lon="5.26787">
        <ele>203.2</ele>
        <time>2022-08-18T12:57:49Z</time>
      </trkpt>
      <trkpt lat="46.43992" lon="5.2679">
        <ele>203</ele>
        <time>2022-08-18T12:57:50Z</time>
      </trkpt>
      <trkpt lat="46.43999" lon="5.26795">
        <ele>203</ele>
        <time>2022-08-18T12:57:51Z</time>
      </trkpt>
      <trkpt lat="46.44018" lon="5.26814">
        <ele>203</ele>
        <time>2022-08-18T12:57:54Z</time>
      </trkpt>
      <trkpt lat="46.44068" lon="5.26862">
        <ele>202.2</ele>
        <time>2022-08-18T12:58:01Z</time>
      </trkpt>
      <trkpt lat="46.44075" lon="5.26869">
        <ele>202</ele>
        <time>2022-08-18T12:58:02Z</time>
      </trkpt>
      <trkpt lat="46.44103" lon="5.26896">
        <ele>200.8</ele>
        <time>2022-08-18T12:58:06Z</time>
      </trkpt>
      <trkpt lat="46.44136" lon="5.26927">
        <ele>200.4</ele>
        <time>2022-08-18T12:58:11Z</time>
      </trkpt>
      <trkpt lat="46.44142" lon="5.26932">
        <ele>200.4</ele>
        <time>2022-08-18T12:58:12Z</time>
      </trkpt>
      <trkpt lat="46.44149" lon="5.26936">
        <ele>200.2</ele>
        <time>2022-08-18T12:58:13Z</time>
      </trkpt>
      <trkpt lat="46.44163" lon="5.26937">
        <ele>200.2</ele>
        <time>2022-08-18T12:58:15Z</time>
      </trkpt>
      <trkpt lat="46.44176" lon="5.26931">
        <ele>200</ele>
        <time>2022-08-18T12:58:17Z</time>
      </trkpt>
      <trkpt lat="46.44182" lon="5.26926">
        <ele>199.8</ele>
        <time>2022-08-18T12:58:18Z</time>
      </trkpt>
      <trkpt lat="46.44186" lon="5.26919">
        <ele>199.8</ele>
        <time>2022-08-18T12:58:19Z</time>
      </trkpt>
      <trkpt lat="46.442" lon="5.269">
        <ele>200</ele>
        <time>2022-08-18T12:58:22Z</time>
      </trkpt>
      <trkpt lat="46.44221" lon="5.26879">
        <ele>200.8</ele>
        <time>2022-08-18T12:58:27Z</time>
      </trkpt>
      <trkpt lat="46.44225" lon="5.26876">
        <ele>201</ele>
        <time>2022-08-18T12:58:28Z</time>
      </trkpt>
      <trkpt lat="46.4424" lon="5.26863">
        <ele>202</ele>
        <time>2022-08-18T12:58:32Z</time>
      </trkpt>
      <trkpt lat="46.44245" lon="5.2686">
        <ele>202.2</ele>
        <time>2022-08-18T12:58:33Z</time>
      </trkpt>
      <trkpt lat="46.44258" lon="5.26849">
        <ele>203.2</ele>
        <time>2022-08-18T12:58:37Z</time>
      </trkpt>
      <trkpt lat="46.4426" lon="5.26847">
        <ele>203.6</ele>
        <time>2022-08-18T12:58:38Z</time>
      </trkpt>
      <trkpt lat="46.4427" lon="5.26842">
        <ele>204.4</ele>
        <time>2022-08-18T12:58:41Z</time>
      </trkpt>
      <trkpt lat="46.44283" lon="5.26838">
        <ele>205.4</ele>
        <time>2022-08-18T12:58:44Z</time>
      </trkpt>
      <trkpt lat="46.44288" lon="5.26837">
        <ele>205.4</ele>
        <time>2022-08-18T12:58:45Z</time>
      </trkpt>
      <trkpt lat="46.4431" lon="5.26831">
        <ele>206.4</ele>
        <time>2022-08-18T12:58:50Z</time>
      </trkpt>
      <trkpt lat="46.44315" lon="5.2683">
        <ele>206.6</ele>
        <time>2022-08-18T12:58:51Z</time>
      </trkpt>
      <trkpt lat="46.44329" lon="5.26825">
        <ele>207</ele>
        <time>2022-08-18T12:58:54Z</time>
      </trkpt>
      <trkpt lat="46.44338" lon="5.26819">
        <ele>207.4</ele>
        <time>2022-08-18T12:58:56Z</time>
      </trkpt>
      <trkpt lat="46.44342" lon="5.26815">
        <ele>207.6</ele>
        <time>2022-08-18T12:58:57Z</time>
      </trkpt>
      <trkpt lat="46.44346" lon="5.2681">
        <ele>207.6</ele>
        <time>2022-08-18T12:58:58Z</time>
      </trkpt>
      <trkpt lat="46.44353" lon="5.26798">
        <ele>207.8</ele>
        <time>2022-08-18T12:59:00Z</time>
      </trkpt>
      <trkpt lat="46.44358" lon="5.26785">
        <ele>208.2</ele>
        <time>2022-08-18T12:59:02Z</time>
      </trkpt>
      <trkpt lat="46.44377" lon="5.26748">
        <ele>208.6</ele>
        <time>2022-08-18T12:59:09Z</time>
      </trkpt>
      <trkpt lat="46.44392" lon="5.26738">
        <ele>209.6</ele>
        <time>2022-08-18T12:59:14Z</time>
      </trkpt>
      <trkpt lat="46.44396" lon="5.26737">
        <ele>209.8</ele>
        <time>2022-08-18T12:59:15Z</time>
      </trkpt>
      <trkpt lat="46.44413" lon="5.26733">
        <ele>210.8</ele>
        <time>2022-08-18T12:59:19Z</time>
      </trkpt>
      <trkpt lat="46.44417" lon="5.26732">
        <ele>211</ele>
        <time>2022-08-18T12:59:20Z</time>
      </trkpt>
      <trkpt lat="46.44441" lon="5.26725">
        <ele>212</ele>
        <time>2022-08-18T12:59:26Z</time>
      </trkpt>
      <trkpt lat="46.44462" lon="5.26718">
        <ele>213.2</ele>
        <time>2022-08-18T12:59:31Z</time>
      </trkpt>
      <trkpt lat="46.44467" lon="5.26715">
        <ele>213.6</ele>
        <time>2022-08-18T12:59:32Z</time>
      </trkpt>
      <trkpt lat="46.44475" lon="5.26709">
        <ele>213.8</ele>
        <time>2022-08-18T12:59:34Z</time>
      </trkpt>
      <trkpt lat="46.44485" lon="5.26698">
        <ele>214.2</ele>
        <time>2022-08-18T12:59:37Z</time>
      </trkpt>
      <trkpt lat="46.44497" lon="5.26683">
        <ele>214.8</ele>
        <time>2022-08-18T12:59:41Z</time>
      </trkpt>
      <trkpt lat="46.44503" lon="5.26675">
        <ele>215.4</ele>
        <time>2022-08-18T12:59:43Z</time>
      </trkpt>
      <trkpt lat="46.44515" lon="5.26661">
        <ele>216.4</ele>
        <time>2022-08-18T12:59:47Z</time>
      </trkpt>
      <trkpt lat="46.44526" lon="5.26653">
        <ele>217.4</ele>
        <time>2022-08-18T12:59:50Z</time>
      </trkpt>
      <trkpt lat="46.4453" lon="5.26651">
        <ele>217.8</ele>
        <time>2022-08-18T12:59:51Z</time>
      </trkpt>
      <trkpt lat="46.4455" lon="5.26642">
        <ele>218.8</ele>
        <time>2022-08-18T12:59:56Z</time>
      </trkpt>
      <trkpt lat="46.4456" lon="5.2664">
        <ele>219</ele>
        <time>2022-08-18T12:59:58Z</time>
      </trkpt>
      <trkpt lat="46.4457" lon="5.26641">
        <ele>219.2</ele>
        <time>2022-08-18T13:00:00Z</time>
      </trkpt>
      <trkpt lat="46.44586" lon="5.26645">
        <ele>219.4</ele>
        <time>2022-08-18T13:00:03Z</time>
      </trkpt>
      <trkpt lat="46.44592" lon="5.26647">
        <ele>219.4</ele>
        <time>2022-08-18T13:00:04Z</time>
      </trkpt>
      <trkpt lat="46.4461" lon="5.26658">
        <ele>219.2</ele>
        <time>2022-08-18T13:00:07Z</time>
      </trkpt>
      <trkpt lat="46.44647" lon="5.26684">
        <ele>217.8</ele>
        <time>2022-08-18T13:00:12Z</time>
      </trkpt>
      <trkpt lat="46.44684" lon="5.26702">
        <ele>216.8</ele>
        <time>2022-08-18T13:00:17Z</time>
      </trkpt>
      <trkpt lat="46.44692" lon="5.26704">
        <ele>216.4</ele>
        <time>2022-08-18T13:00:18Z</time>
      </trkpt>
      <trkpt lat="46.44713" lon="5.26702">
        <ele>216.2</ele>
        <time>2022-08-18T13:00:21Z</time>
      </trkpt>
      <trkpt lat="46.44749" lon="5.26692">
        <ele>216.8</ele>
        <time>2022-08-18T13:00:27Z</time>
      </trkpt>
      <trkpt lat="46.44764" lon="5.26685">
        <ele>217.6</ele>
        <time>2022-08-18T13:00:30Z</time>
      </trkpt>
      <trkpt lat="46.44774" lon="5.26677">
        <ele>218.2</ele>
        <time>2022-08-18T13:00:32Z</time>
      </trkpt>
      <trkpt lat="46.44787" lon="5.26666">
        <ele>219.4</ele>
        <time>2022-08-18T13:00:35Z</time>
      </trkpt>
      <trkpt lat="46.44797" lon="5.26662">
        <ele>219.6</ele>
        <time>2022-08-18T13:00:37Z</time>
      </trkpt>
      <trkpt lat="46.44814" lon="5.2666">
        <ele>220.4</ele>
        <time>2022-08-18T13:00:40Z</time>
      </trkpt>
      <trkpt lat="46.44825" lon="5.26655">
        <ele>221</ele>
        <time>2022-08-18T13:00:42Z</time>
      </trkpt>
      <trkpt lat="46.44833" lon="5.26643">
        <ele>221.4</ele>
        <time>2022-08-18T13:00:44Z</time>
      </trkpt>
      <trkpt lat="46.44835" lon="5.26635">
        <ele>221.4</ele>
        <time>2022-08-18T13:00:45Z</time>
      </trkpt>
      <trkpt lat="46.44837" lon="5.26626">
        <ele>221.4</ele>
        <time>2022-08-18T13:00:46Z</time>
      </trkpt>
      <trkpt lat="46.44841" lon="5.26607">
        <ele>221.6</ele>
        <time>2022-08-18T13:00:48Z</time>
      </trkpt>
      <trkpt lat="46.44845" lon="5.26598">
        <ele>221.6</ele>
        <time>2022-08-18T13:00:49Z</time>
      </trkpt>
      <trkpt lat="46.44849" lon="5.26589">
        <ele>221.6</ele>
        <time>2022-08-18T13:00:50Z</time>
      </trkpt>
      <trkpt lat="46.44861" lon="5.26573">
        <ele>221.4</ele>
        <time>2022-08-18T13:00:52Z</time>
      </trkpt>
      <trkpt lat="46.44882" lon="5.26553">
        <ele>220.4</ele>
        <time>2022-08-18T13:00:55Z</time>
      </trkpt>
      <trkpt lat="46.44889" lon="5.26548">
        <ele>219.8</ele>
        <time>2022-08-18T13:00:56Z</time>
      </trkpt>
      <trkpt lat="46.44897" lon="5.26545">
        <ele>219.6</ele>
        <time>2022-08-18T13:00:57Z</time>
      </trkpt>
      <trkpt lat="46.44936" lon="5.26528">
        <ele>218.8</ele>
        <time>2022-08-18T13:01:02Z</time>
      </trkpt>
      <trkpt lat="46.44951" lon="5.26521">
        <ele>218.4</ele>
        <time>2022-08-18T13:01:04Z</time>
      </trkpt>
      <trkpt lat="46.44979" lon="5.26517">
        <ele>218.2</ele>
        <time>2022-08-18T13:01:08Z</time>
      </trkpt>
      <trkpt lat="46.45039" lon="5.26517">
        <ele>218.6</ele>
        <time>2022-08-18T13:01:17Z</time>
      </trkpt>
      <trkpt lat="46.45088" lon="5.26521">
        <ele>219.4</ele>
        <time>2022-08-18T13:01:25Z</time>
      </trkpt>
      <trkpt lat="46.45107" lon="5.26526">
        <ele>219.8</ele>
        <time>2022-08-18T13:01:28Z</time>
      </trkpt>
      <trkpt lat="46.45127" lon="5.26533">
        <ele>220</ele>
        <time>2022-08-18T13:01:31Z</time>
      </trkpt>
      <trkpt lat="46.4518" lon="5.26555">
        <ele>220.2</ele>
        <time>2022-08-18T13:01:39Z</time>
      </trkpt>
      <trkpt lat="46.45187" lon="5.26558">
        <ele>220</ele>
        <time>2022-08-18T13:01:40Z</time>
      </trkpt>
      <trkpt lat="46.45228" lon="5.26563">
        <ele>219.6</ele>
        <time>2022-08-18T13:01:46Z</time>
      </trkpt>
      <trkpt lat="46.45279" lon="5.26555">
        <ele>219.4</ele>
        <time>2022-08-18T13:01:54Z</time>
      </trkpt>
      <trkpt lat="46.45318" lon="5.2655">
        <ele>219.6</ele>
        <time>2022-08-18T13:02:00Z</time>
      </trkpt>
      <trkpt lat="46.45355" lon="5.26559">
        <ele>219.8</ele>
        <time>2022-08-18T13:02:06Z</time>
      </trkpt>
      <trkpt lat="46.45398" lon="5.26575">
        <ele>219.8</ele>
        <time>2022-08-18T13:02:13Z</time>
      </trkpt>
      <trkpt lat="46.45441" lon="5.26599">
        <ele>219.6</ele>
        <time>2022-08-18T13:02:20Z</time>
      </trkpt>
      <trkpt lat="46.45479" lon="5.2662">
        <ele>218.8</ele>
        <time>2022-08-18T13:02:26Z</time>
      </trkpt>
      <trkpt lat="46.45492" lon="5.26626">
        <ele>218.6</ele>
        <time>2022-08-18T13:02:28Z</time>
      </trkpt>
      <trkpt lat="46.45535" lon="5.26644">
        <ele>218.2</ele>
        <time>2022-08-18T13:02:34Z</time>
      </trkpt>
      <trkpt lat="46.45558" lon="5.2665">
        <ele>217.8</ele>
        <time>2022-08-18T13:02:37Z</time>
      </trkpt>
      <trkpt lat="46.45566" lon="5.26651">
        <ele>217.4</ele>
        <time>2022-08-18T13:02:38Z</time>
      </trkpt>
      <trkpt lat="46.45582" lon="5.26649">
        <ele>217</ele>
        <time>2022-08-18T13:02:40Z</time>
      </trkpt>
      <trkpt lat="46.45606" lon="5.26642">
        <ele>216.8</ele>
        <time>2022-08-18T13:02:43Z</time>
      </trkpt>
      <trkpt lat="46.45636" lon="5.26632">
        <ele>216.2</ele>
        <time>2022-08-18T13:02:47Z</time>
      </trkpt>
      <trkpt lat="46.45647" lon="5.26622">
        <ele>216</ele>
        <time>2022-08-18T13:02:49Z</time>
      </trkpt>
      <trkpt lat="46.45653" lon="5.26616">
        <ele>216</ele>
        <time>2022-08-18T13:02:50Z</time>
      </trkpt>
      <trkpt lat="46.45662" lon="5.26601">
        <ele>215.8</ele>
        <time>2022-08-18T13:02:52Z</time>
      </trkpt>
      <trkpt lat="46.45668" lon="5.26586">
        <ele>215.8</ele>
        <time>2022-08-18T13:02:54Z</time>
      </trkpt>
      <trkpt lat="46.45671" lon="5.26578">
        <ele>216</ele>
        <time>2022-08-18T13:02:55Z</time>
      </trkpt>
      <trkpt lat="46.45679" lon="5.26557">
        <ele>216.2</ele>
        <time>2022-08-18T13:02:58Z</time>
      </trkpt>
      <trkpt lat="46.4569" lon="5.26509">
        <ele>217.4</ele>
        <time>2022-08-18T13:03:04Z</time>
      </trkpt>
      <trkpt lat="46.45691" lon="5.26493">
        <ele>217.8</ele>
        <time>2022-08-18T13:03:06Z</time>
      </trkpt>
      <trkpt lat="46.45696" lon="5.26452">
        <ele>218.8</ele>
        <time>2022-08-18T13:03:11Z</time>
      </trkpt>
      <trkpt lat="46.45699" lon="5.26434">
        <ele>219.2</ele>
        <time>2022-08-18T13:03:13Z</time>
      </trkpt>
      <trkpt lat="46.4571" lon="5.26373">
        <ele>220</ele>
        <time>2022-08-18T13:03:20Z</time>
      </trkpt>
      <trkpt lat="46.45714" lon="5.26356">
        <ele>220.2</ele>
        <time>2022-08-18T13:03:22Z</time>
      </trkpt>
      <trkpt lat="46.45731" lon="5.26289">
        <ele>220.8</ele>
        <time>2022-08-18T13:03:30Z</time>
      </trkpt>
      <trkpt lat="46.45744" lon="5.26239">
        <ele>221</ele>
        <time>2022-08-18T13:03:36Z</time>
      </trkpt>
      <trkpt lat="46.45761" lon="5.26183">
        <ele>221.6</ele>
        <time>2022-08-18T13:03:43Z</time>
      </trkpt>
      <trkpt lat="46.4577" lon="5.26171">
        <ele>221.8</ele>
        <time>2022-08-18T13:03:45Z</time>
      </trkpt>
      <trkpt lat="46.45776" lon="5.26167">
        <ele>221.8</ele>
        <time>2022-08-18T13:03:46Z</time>
      </trkpt>
      <trkpt lat="46.45781" lon="5.26165">
        <ele>221.8</ele>
        <time>2022-08-18T13:03:47Z</time>
      </trkpt>
      <trkpt lat="46.458" lon="5.26163">
        <ele>221.8</ele>
        <time>2022-08-18T13:03:50Z</time>
      </trkpt>
      <trkpt lat="46.45854" lon="5.26165">
        <ele>222</ele>
        <time>2022-08-18T13:03:59Z</time>
      </trkpt>
      <trkpt lat="46.4586" lon="5.26165">
        <ele>222.2</ele>
        <time>2022-08-18T13:04:00Z</time>
      </trkpt>
      <trkpt lat="46.45914" lon="5.26166">
        <ele>222.4</ele>
        <time>2022-08-18T13:04:09Z</time>
      </trkpt>
      <trkpt lat="46.4592" lon="5.26167">
        <ele>222.4</ele>
        <time>2022-08-18T13:04:10Z</time>
      </trkpt>
      <trkpt lat="46.4598" lon="5.26168">
        <ele>222</ele>
        <time>2022-08-18T13:04:19Z</time>
      </trkpt>
      <trkpt lat="46.45987" lon="5.26168">
        <ele>221.8</ele>
        <time>2022-08-18T13:04:20Z</time>
      </trkpt>
      <trkpt lat="46.46034" lon="5.2617">
        <ele>221</ele>
        <time>2022-08-18T13:04:27Z</time>
      </trkpt>
      <trkpt lat="46.46059" lon="5.2616">
        <ele>220.6</ele>
        <time>2022-08-18T13:04:31Z</time>
      </trkpt>
      <trkpt lat="46.46096" lon="5.26143">
        <ele>220.4</ele>
        <time>2022-08-18T13:04:37Z</time>
      </trkpt>
      <trkpt lat="46.46115" lon="5.26139">
        <ele>220.4</ele>
        <time>2022-08-18T13:04:40Z</time>
      </trkpt>
      <trkpt lat="46.46133" lon="5.26129">
        <ele>220.4</ele>
        <time>2022-08-18T13:04:43Z</time>
      </trkpt>
      <trkpt lat="46.46169" lon="5.26094">
        <ele>220.4</ele>
        <time>2022-08-18T13:04:50Z</time>
      </trkpt>
      <trkpt lat="46.46178" lon="5.26083">
        <ele>220.2</ele>
        <time>2022-08-18T13:04:52Z</time>
      </trkpt>
      <trkpt lat="46.46195" lon="5.26061">
        <ele>220.2</ele>
        <time>2022-08-18T13:04:56Z</time>
      </trkpt>
      <trkpt lat="46.46203" lon="5.26047">
        <ele>220</ele>
        <time>2022-08-18T13:04:59Z</time>
      </trkpt>
      <trkpt lat="46.46209" lon="5.26037">
        <ele>219.8</ele>
        <time>2022-08-18T13:05:01Z</time>
      </trkpt>
      <trkpt lat="46.46211" lon="5.2603">
        <ele>219.6</ele>
        <time>2022-08-18T13:05:02Z</time>
      </trkpt>
      <trkpt lat="46.46215" lon="5.26006">
        <ele>219.6</ele>
        <time>2022-08-18T13:05:05Z</time>
      </trkpt>
      <trkpt lat="46.46225" lon="5.25968">
        <ele>219.4</ele>
        <time>2022-08-18T13:05:09Z</time>
      </trkpt>
      <trkpt lat="46.46239" lon="5.25925">
        <ele>219</ele>
        <time>2022-08-18T13:05:13Z</time>
      </trkpt>
      <trkpt lat="46.46243" lon="5.25914">
        <ele>218.6</ele>
        <time>2022-08-18T13:05:14Z</time>
      </trkpt>
      <trkpt lat="46.46249" lon="5.2589">
        <ele>217.8</ele>
        <time>2022-08-18T13:05:16Z</time>
      </trkpt>
      <trkpt lat="46.46252" lon="5.25877">
        <ele>217.4</ele>
        <time>2022-08-18T13:05:17Z</time>
      </trkpt>
      <trkpt lat="46.46254" lon="5.25864">
        <ele>217</ele>
        <time>2022-08-18T13:05:18Z</time>
      </trkpt>
      <trkpt lat="46.46254" lon="5.2585">
        <ele>216.6</ele>
        <time>2022-08-18T13:05:19Z</time>
      </trkpt>
      <trkpt lat="46.4625" lon="5.25822">
        <ele>216</ele>
        <time>2022-08-18T13:05:21Z</time>
      </trkpt>
      <trkpt lat="46.46245" lon="5.25792">
        <ele>215</ele>
        <time>2022-08-18T13:05:23Z</time>
      </trkpt>
      <trkpt lat="46.46239" lon="5.25763">
        <ele>213.8</ele>
        <time>2022-08-18T13:05:25Z</time>
      </trkpt>
      <trkpt lat="46.46233" lon="5.25734">
        <ele>213</ele>
        <time>2022-08-18T13:05:27Z</time>
      </trkpt>
      <trkpt lat="46.46231" lon="5.2572">
        <ele>212.6</ele>
        <time>2022-08-18T13:05:28Z</time>
      </trkpt>
      <trkpt lat="46.46229" lon="5.25707">
        <ele>212.4</ele>
        <time>2022-08-18T13:05:29Z</time>
      </trkpt>
      <trkpt lat="46.46228" lon="5.2568">
        <ele>211.8</ele>
        <time>2022-08-18T13:05:31Z</time>
      </trkpt>
      <trkpt lat="46.46232" lon="5.25645">
        <ele>211.8</ele>
        <time>2022-08-18T13:05:34Z</time>
      </trkpt>
      <trkpt lat="46.46234" lon="5.25635">
        <ele>211.8</ele>
        <time>2022-08-18T13:05:35Z</time>
      </trkpt>
      <trkpt lat="46.46257" lon="5.25553">
        <ele>213</ele>
        <time>2022-08-18T13:05:43Z</time>
      </trkpt>
      <trkpt lat="46.46278" lon="5.25506">
        <ele>213.2</ele>
        <time>2022-08-18T13:05:48Z</time>
      </trkpt>
      <trkpt lat="46.46316" lon="5.25437">
        <ele>212.4</ele>
        <time>2022-08-18T13:05:56Z</time>
      </trkpt>
      <trkpt lat="46.46326" lon="5.2542">
        <ele>212.2</ele>
        <time>2022-08-18T13:05:58Z</time>
      </trkpt>
      <trkpt lat="46.46341" lon="5.25394">
        <ele>211.6</ele>
        <time>2022-08-18T13:06:01Z</time>
      </trkpt>
      <trkpt lat="46.46374" lon="5.25337">
        <ele>211</ele>
        <time>2022-08-18T13:06:08Z</time>
      </trkpt>
      <trkpt lat="46.46395" lon="5.25307">
        <ele>210.6</ele>
        <time>2022-08-18T13:06:12Z</time>
      </trkpt>
      <trkpt lat="46.46407" lon="5.25293">
        <ele>210.6</ele>
        <time>2022-08-18T13:06:14Z</time>
      </trkpt>
      <trkpt lat="46.46449" lon="5.25258">
        <ele>209.4</ele>
        <time>2022-08-18T13:06:20Z</time>
      </trkpt>
      <trkpt lat="46.46495" lon="5.2522">
        <ele>208.2</ele>
        <time>2022-08-18T13:06:26Z</time>
      </trkpt>
      <trkpt lat="46.46509" lon="5.25208">
        <ele>207.8</ele>
        <time>2022-08-18T13:06:28Z</time>
      </trkpt>
      <trkpt lat="46.46531" lon="5.25191">
        <ele>206.8</ele>
        <time>2022-08-18T13:06:31Z</time>
      </trkpt>
      <trkpt lat="46.46554" lon="5.25175">
        <ele>206.2</ele>
        <time>2022-08-18T13:06:34Z</time>
      </trkpt>
      <trkpt lat="46.46568" lon="5.25163">
        <ele>205.6</ele>
        <time>2022-08-18T13:06:36Z</time>
      </trkpt>
      <trkpt lat="46.46589" lon="5.25147">
        <ele>205.2</ele>
        <time>2022-08-18T13:06:39Z</time>
      </trkpt>
      <trkpt lat="46.46604" lon="5.25137">
        <ele>205</ele>
        <time>2022-08-18T13:06:41Z</time>
      </trkpt>
      <trkpt lat="46.46618" lon="5.25127">
        <ele>204.8</ele>
        <time>2022-08-18T13:06:43Z</time>
      </trkpt>
      <trkpt lat="46.46632" lon="5.25117">
        <ele>204.6</ele>
        <time>2022-08-18T13:06:45Z</time>
      </trkpt>
      <trkpt lat="46.46646" lon="5.25107">
        <ele>204.4</ele>
        <time>2022-08-18T13:06:47Z</time>
      </trkpt>
      <trkpt lat="46.46685" lon="5.25074">
        <ele>204</ele>
        <time>2022-08-18T13:06:52Z</time>
      </trkpt>
      <trkpt lat="46.46708" lon="5.25055">
        <ele>203.4</ele>
        <time>2022-08-18T13:06:55Z</time>
      </trkpt>
      <trkpt lat="46.46722" lon="5.25042">
        <ele>203.2</ele>
        <time>2022-08-18T13:06:57Z</time>
      </trkpt>
      <trkpt lat="46.46728" lon="5.25036">
        <ele>203</ele>
        <time>2022-08-18T13:06:58Z</time>
      </trkpt>
      <trkpt lat="46.46748" lon="5.25021">
        <ele>202.8</ele>
        <time>2022-08-18T13:07:01Z</time>
      </trkpt>
      <trkpt lat="46.46754" lon="5.25016">
        <ele>202.8</ele>
        <time>2022-08-18T13:07:02Z</time>
      </trkpt>
      <trkpt lat="46.46806" lon="5.24977">
        <ele>202.6</ele>
        <time>2022-08-18T13:07:09Z</time>
      </trkpt>
      <trkpt lat="46.46822" lon="5.24963">
        <ele>202.4</ele>
        <time>2022-08-18T13:07:11Z</time>
      </trkpt>
      <trkpt lat="46.46844" lon="5.24944">
        <ele>201.8</ele>
        <time>2022-08-18T13:07:14Z</time>
      </trkpt>
      <trkpt lat="46.46852" lon="5.24938">
        <ele>201.4</ele>
        <time>2022-08-18T13:07:15Z</time>
      </trkpt>
      <trkpt lat="46.46887" lon="5.24908">
        <ele>200.6</ele>
        <time>2022-08-18T13:07:20Z</time>
      </trkpt>
      <trkpt lat="46.46895" lon="5.24902">
        <ele>200.4</ele>
        <time>2022-08-18T13:07:21Z</time>
      </trkpt>
      <trkpt lat="46.46929" lon="5.24871">
        <ele>199.4</ele>
        <time>2022-08-18T13:07:26Z</time>
      </trkpt>
      <trkpt lat="46.46945" lon="5.24858">
        <ele>199</ele>
        <time>2022-08-18T13:07:28Z</time>
      </trkpt>
      <trkpt lat="46.46961" lon="5.24844">
        <ele>198</ele>
        <time>2022-08-18T13:07:30Z</time>
      </trkpt>
      <trkpt lat="46.46992" lon="5.24819">
        <ele>196.8</ele>
        <time>2022-08-18T13:07:34Z</time>
      </trkpt>
      <trkpt lat="46.47006" lon="5.24808">
        <ele>196.8</ele>
        <time>2022-08-18T13:07:36Z</time>
      </trkpt>
      <trkpt lat="46.47019" lon="5.24797">
        <ele>196.6</ele>
        <time>2022-08-18T13:07:38Z</time>
      </trkpt>
      <trkpt lat="46.47037" lon="5.24775">
        <ele>197.2</ele>
        <time>2022-08-18T13:07:42Z</time>
      </trkpt>
      <trkpt lat="46.47044" lon="5.24764">
        <ele>197.8</ele>
        <time>2022-08-18T13:07:44Z</time>
      </trkpt>
      <trkpt lat="46.47048" lon="5.2476">
        <ele>198.2</ele>
        <time>2022-08-18T13:07:45Z</time>
      </trkpt>
      <trkpt lat="46.47055" lon="5.24751">
        <ele>198.4</ele>
        <time>2022-08-18T13:07:47Z</time>
      </trkpt>
      <trkpt lat="46.4706" lon="5.24741">
        <ele>198.8</ele>
        <time>2022-08-18T13:07:49Z</time>
      </trkpt>
      <trkpt lat="46.47065" lon="5.24731">
        <ele>199.2</ele>
        <time>2022-08-18T13:07:51Z</time>
      </trkpt>
      <trkpt lat="46.47068" lon="5.24726">
        <ele>199.8</ele>
        <time>2022-08-18T13:07:52Z</time>
      </trkpt>
      <trkpt lat="46.47071" lon="5.24721">
        <ele>200</ele>
        <time>2022-08-18T13:07:53Z</time>
      </trkpt>
      <trkpt lat="46.47073" lon="5.24707">
        <ele>200.2</ele>
        <time>2022-08-18T13:07:55Z</time>
      </trkpt>
      <trkpt lat="46.47072" lon="5.24701">
        <ele>200.4</ele>
        <time>2022-08-18T13:07:56Z</time>
      </trkpt>
      <trkpt lat="46.47069" lon="5.24696">
        <ele>200.6</ele>
        <time>2022-08-18T13:07:57Z</time>
      </trkpt>
      <trkpt lat="46.47066" lon="5.24693">
        <ele>200.6</ele>
        <time>2022-08-18T13:07:58Z</time>
      </trkpt>
      <trkpt lat="46.47062" lon="5.2469">
        <ele>201</ele>
        <time>2022-08-18T13:08:00Z</time>
      </trkpt>
      <trkpt lat="46.47063" lon="5.24687">
        <ele>201</ele>
        <time>2022-08-18T13:08:01Z</time>
      </trkpt>
      <trkpt lat="46.47067" lon="5.2469">
        <ele>201.2</ele>
        <time>2022-08-18T13:08:04Z</time>
      </trkpt>
      <trkpt lat="46.47071" lon="5.24701">
        <ele>201.2</ele>
        <time>2022-08-18T13:08:07Z</time>
      </trkpt>
      <trkpt lat="46.47074" lon="5.24703">
        <ele>201.2</ele>
        <time>2022-08-18T13:08:08Z</time>
      </trkpt>
      <trkpt lat="46.47079" lon="5.24701">
        <ele>201.2</ele>
        <time>2022-08-18T13:08:10Z</time>
      </trkpt>
      <trkpt lat="46.47081" lon="5.24697">
        <ele>201.4</ele>
        <time>2022-08-18T13:08:11Z</time>
      </trkpt>
      <trkpt lat="46.47085" lon="5.24684">
        <ele>201.6</ele>
        <time>2022-08-18T13:08:13Z</time>
      </trkpt>
      <trkpt lat="46.47088" lon="5.24672">
        <ele>201.6</ele>
        <time>2022-08-18T13:08:15Z</time>
      </trkpt>
      <trkpt lat="46.47099" lon="5.24648">
        <ele>202</ele>
        <time>2022-08-18T13:08:19Z</time>
      </trkpt>
      <trkpt lat="46.47106" lon="5.24639">
        <ele>202.4</ele>
        <time>2022-08-18T13:08:21Z</time>
      </trkpt>
      <trkpt lat="46.47111" lon="5.24638">
        <ele>202.4</ele>
        <time>2022-08-18T13:08:22Z</time>
      </trkpt>
      <trkpt lat="46.47115" lon="5.24639">
        <ele>202.4</ele>
        <time>2022-08-18T13:08:23Z</time>
      </trkpt>
      <trkpt lat="46.4712" lon="5.24641">
        <ele>202.6</ele>
        <time>2022-08-18T13:08:24Z</time>
      </trkpt>
      <trkpt lat="46.47157" lon="5.24656">
        <ele>203.4</ele>
        <time>2022-08-18T13:08:32Z</time>
      </trkpt>
      <trkpt lat="46.47189" lon="5.24663">
        <ele>204.2</ele>
        <time>2022-08-18T13:08:39Z</time>
      </trkpt>
      <trkpt lat="46.47199" lon="5.24665">
        <ele>204.6</ele>
        <time>2022-08-18T13:08:41Z</time>
      </trkpt>
      <trkpt lat="46.47228" lon="5.24667">
        <ele>205.6</ele>
        <time>2022-08-18T13:08:47Z</time>
      </trkpt>
      <trkpt lat="46.47233" lon="5.24667">
        <ele>206</ele>
        <time>2022-08-18T13:08:48Z</time>
      </trkpt>
      <trkpt lat="46.47263" lon="5.24665">
        <ele>207</ele>
        <time>2022-08-18T13:08:54Z</time>
      </trkpt>
      <trkpt lat="46.47268" lon="5.24664">
        <ele>207.2</ele>
        <time>2022-08-18T13:08:55Z</time>
      </trkpt>
      <trkpt lat="46.47301" lon="5.24661">
        <ele>208</ele>
        <time>2022-08-18T13:09:02Z</time>
      </trkpt>
      <trkpt lat="46.47315" lon="5.24659">
        <ele>208.4</ele>
        <time>2022-08-18T13:09:05Z</time>
      </trkpt>
      <trkpt lat="46.47344" lon="5.24657">
        <ele>209</ele>
        <time>2022-08-18T13:09:11Z</time>
      </trkpt>
      <trkpt lat="46.47359" lon="5.24656">
        <ele>209.4</ele>
        <time>2022-08-18T13:09:14Z</time>
      </trkpt>
      <trkpt lat="46.47383" lon="5.24654">
        <ele>210.2</ele>
        <time>2022-08-18T13:09:19Z</time>
      </trkpt>
      <trkpt lat="46.47394" lon="5.24653">
        <ele>210.6</ele>
        <time>2022-08-18T13:09:21Z</time>
      </trkpt>
      <trkpt lat="46.47431" lon="5.2465">
        <ele>211.2</ele>
        <time>2022-08-18T13:09:28Z</time>
      </trkpt>
      <trkpt lat="46.47453" lon="5.24647">
        <ele>211.8</ele>
        <time>2022-08-18T13:09:32Z</time>
      </trkpt>
      <trkpt lat="46.47499" lon="5.2464">
        <ele>212</ele>
        <time>2022-08-18T13:09:40Z</time>
      </trkpt>
      <trkpt lat="46.47533" lon="5.24625">
        <ele>212.4</ele>
        <time>2022-08-18T13:09:46Z</time>
      </trkpt>
      <trkpt lat="46.47587" lon="5.24594">
        <ele>213.2</ele>
        <time>2022-08-18T13:09:56Z</time>
      </trkpt>
      <trkpt lat="46.47592" lon="5.24591">
        <ele>213.2</ele>
        <time>2022-08-18T13:09:57Z</time>
      </trkpt>
      <trkpt lat="46.47624" lon="5.24573">
        <ele>213.4</ele>
        <time>2022-08-18T13:10:03Z</time>
      </trkpt>
      <trkpt lat="46.47645" lon="5.24561">
        <ele>213.8</ele>
        <time>2022-08-18T13:10:07Z</time>
      </trkpt>
      <trkpt lat="46.47679" lon="5.24541">
        <ele>214.6</ele>
        <time>2022-08-18T13:10:13Z</time>
      </trkpt>
      <trkpt lat="46.47691" lon="5.24536">
        <ele>214.6</ele>
        <time>2022-08-18T13:10:15Z</time>
      </trkpt>
      <trkpt lat="46.47743" lon="5.24516">
        <ele>214.6</ele>
        <time>2022-08-18T13:10:23Z</time>
      </trkpt>
      <trkpt lat="46.47788" lon="5.24506">
        <ele>214.2</ele>
        <time>2022-08-18T13:10:30Z</time>
      </trkpt>
      <trkpt lat="46.47834" lon="5.24504">
        <ele>215.2</ele>
        <time>2022-08-18T13:10:38Z</time>
      </trkpt>
      <trkpt lat="46.47879" lon="5.24507">
        <ele>215.8</ele>
        <time>2022-08-18T13:10:46Z</time>
      </trkpt>
      <trkpt lat="46.47884" lon="5.24507">
        <ele>216</ele>
        <time>2022-08-18T13:10:47Z</time>
      </trkpt>
      <trkpt lat="46.47911" lon="5.24507">
        <ele>216.6</ele>
        <time>2022-08-18T13:10:52Z</time>
      </trkpt>
      <trkpt lat="46.47917" lon="5.24505">
        <ele>216.6</ele>
        <time>2022-08-18T13:10:53Z</time>
      </trkpt>
      <trkpt lat="46.47946" lon="5.24491">
        <ele>216.8</ele>
        <time>2022-08-18T13:10:58Z</time>
      </trkpt>
      <trkpt lat="46.47996" lon="5.24458">
        <ele>216.4</ele>
        <time>2022-08-18T13:11:06Z</time>
      </trkpt>
      <trkpt lat="46.48033" lon="5.24434">
        <ele>215.6</ele>
        <time>2022-08-18T13:11:12Z</time>
      </trkpt>
      <trkpt lat="46.48069" lon="5.24408">
        <ele>215</ele>
        <time>2022-08-18T13:11:18Z</time>
      </trkpt>
      <trkpt lat="46.48081" lon="5.24399">
        <ele>214.8</ele>
        <time>2022-08-18T13:11:20Z</time>
      </trkpt>
      <trkpt lat="46.48086" lon="5.24394">
        <ele>214.8</ele>
        <time>2022-08-18T13:11:21Z</time>
      </trkpt>
      <trkpt lat="46.48097" lon="5.24382">
        <ele>215</ele>
        <time>2022-08-18T13:11:23Z</time>
      </trkpt>
      <trkpt lat="46.48107" lon="5.24371">
        <ele>215.2</ele>
        <time>2022-08-18T13:11:25Z</time>
      </trkpt>
      <trkpt lat="46.48123" lon="5.2435">
        <ele>215.2</ele>
        <time>2022-08-18T13:11:29Z</time>
      </trkpt>
      <trkpt lat="46.48123" lon="5.24344">
        <ele>215.2</ele>
        <time>2022-08-18T13:11:30Z</time>
      </trkpt>
      <trkpt lat="46.48115" lon="5.24333">
        <ele>215</ele>
        <time>2022-08-18T13:11:32Z</time>
      </trkpt>
      <trkpt lat="46.48109" lon="5.24329">
        <ele>215</ele>
        <time>2022-08-18T13:11:33Z</time>
      </trkpt>
      <trkpt lat="46.48095" lon="5.24319">
        <ele>214.6</ele>
        <time>2022-08-18T13:11:35Z</time>
      </trkpt>
      <trkpt lat="46.48088" lon="5.24311">
        <ele>214.6</ele>
        <time>2022-08-18T13:11:36Z</time>
      </trkpt>
      <trkpt lat="46.48083" lon="5.24302">
        <ele>214.4</ele>
        <time>2022-08-18T13:11:37Z</time>
      </trkpt>
      <trkpt lat="46.48077" lon="5.24278">
        <ele>213.6</ele>
        <time>2022-08-18T13:11:39Z</time>
      </trkpt>
      <trkpt lat="46.48078" lon="5.2425">
        <ele>213</ele>
        <time>2022-08-18T13:11:41Z</time>
      </trkpt>
      <trkpt lat="46.48081" lon="5.24237">
        <ele>212.6</ele>
        <time>2022-08-18T13:11:42Z</time>
      </trkpt>
      <trkpt lat="46.48085" lon="5.24224">
        <ele>212</ele>
        <time>2022-08-18T13:11:43Z</time>
      </trkpt>
      <trkpt lat="46.48094" lon="5.24199">
        <ele>211.2</ele>
        <time>2022-08-18T13:11:45Z</time>
      </trkpt>
      <trkpt lat="46.48104" lon="5.24174">
        <ele>210.2</ele>
        <time>2022-08-18T13:11:47Z</time>
      </trkpt>
      <trkpt lat="46.48108" lon="5.24161">
        <ele>209.8</ele>
        <time>2022-08-18T13:11:48Z</time>
      </trkpt>
      <trkpt lat="46.48118" lon="5.24134">
        <ele>208.6</ele>
        <time>2022-08-18T13:11:50Z</time>
      </trkpt>
      <trkpt lat="46.48128" lon="5.24107">
        <ele>207.6</ele>
        <time>2022-08-18T13:11:52Z</time>
      </trkpt>
      <trkpt lat="46.48138" lon="5.2408">
        <ele>206.4</ele>
        <time>2022-08-18T13:11:54Z</time>
      </trkpt>
      <trkpt lat="46.48144" lon="5.24066">
        <ele>205.6</ele>
        <time>2022-08-18T13:11:55Z</time>
      </trkpt>
      <trkpt lat="46.48149" lon="5.24052">
        <ele>205</ele>
        <time>2022-08-18T13:11:56Z</time>
      </trkpt>
      <trkpt lat="46.48159" lon="5.24025">
        <ele>203.8</ele>
        <time>2022-08-18T13:11:58Z</time>
      </trkpt>
      <trkpt lat="46.4817" lon="5.23999">
        <ele>202.4</ele>
        <time>2022-08-18T13:12:00Z</time>
      </trkpt>
      <trkpt lat="46.48184" lon="5.23957">
        <ele>201.2</ele>
        <time>2022-08-18T13:12:03Z</time>
      </trkpt>
      <trkpt lat="46.48191" lon="5.23928">
        <ele>199.8</ele>
        <time>2022-08-18T13:12:05Z</time>
      </trkpt>
      <trkpt lat="46.48192" lon="5.23913">
        <ele>198.8</ele>
        <time>2022-08-18T13:12:06Z</time>
      </trkpt>
      <trkpt lat="46.48192" lon="5.23898">
        <ele>198</ele>
        <time>2022-08-18T13:12:07Z</time>
      </trkpt>
      <trkpt lat="46.4819" lon="5.23884">
        <ele>197.6</ele>
        <time>2022-08-18T13:12:08Z</time>
      </trkpt>
      <trkpt lat="46.48188" lon="5.23869">
        <ele>197.2</ele>
        <time>2022-08-18T13:12:09Z</time>
      </trkpt>
      <trkpt lat="46.48179" lon="5.23844">
        <ele>196.6</ele>
        <time>2022-08-18T13:12:11Z</time>
      </trkpt>
      <trkpt lat="46.48159" lon="5.23815">
        <ele>195.4</ele>
        <time>2022-08-18T13:12:14Z</time>
      </trkpt>
      <trkpt lat="46.48152" lon="5.23806">
        <ele>195.2</ele>
        <time>2022-08-18T13:12:15Z</time>
      </trkpt>
      <trkpt lat="46.48105" lon="5.23747">
        <ele>194.4</ele>
        <time>2022-08-18T13:12:22Z</time>
      </trkpt>
      <trkpt lat="46.48081" lon="5.23694">
        <ele>194.2</ele>
        <time>2022-08-18T13:12:27Z</time>
      </trkpt>
      <trkpt lat="46.48067" lon="5.23634">
        <ele>193.6</ele>
        <time>2022-08-18T13:12:32Z</time>
      </trkpt>
      <trkpt lat="46.48063" lon="5.23597">
        <ele>193.2</ele>
        <time>2022-08-18T13:12:35Z</time>
      </trkpt>
      <trkpt lat="46.48062" lon="5.23572">
        <ele>192.6</ele>
        <time>2022-08-18T13:12:37Z</time>
      </trkpt>
      <trkpt lat="46.48061" lon="5.23525">
        <ele>192.2</ele>
        <time>2022-08-18T13:12:41Z</time>
      </trkpt>
      <trkpt lat="46.48059" lon="5.23491">
        <ele>192</ele>
        <time>2022-08-18T13:12:44Z</time>
      </trkpt>
      <trkpt lat="46.48058" lon="5.23436">
        <ele>192</ele>
        <time>2022-08-18T13:12:49Z</time>
      </trkpt>
      <trkpt lat="46.48057" lon="5.2335">
        <ele>192.8</ele>
        <time>2022-08-18T13:12:57Z</time>
      </trkpt>
      <trkpt lat="46.48056" lon="5.2334">
        <ele>192.8</ele>
        <time>2022-08-18T13:12:58Z</time>
      </trkpt>
      <trkpt lat="46.48054" lon="5.23259">
        <ele>193</ele>
        <time>2022-08-18T13:13:06Z</time>
      </trkpt>
      <trkpt lat="46.48053" lon="5.23199">
        <ele>193</ele>
        <time>2022-08-18T13:13:12Z</time>
      </trkpt>
      <trkpt lat="46.48052" lon="5.23162">
        <ele>193.4</ele>
        <time>2022-08-18T13:13:16Z</time>
      </trkpt>
      <trkpt lat="46.48052" lon="5.23137">
        <ele>194.2</ele>
        <time>2022-08-18T13:13:19Z</time>
      </trkpt>
      <trkpt lat="46.48052" lon="5.2312">
        <ele>194.6</ele>
        <time>2022-08-18T13:13:21Z</time>
      </trkpt>
      <trkpt lat="46.48052" lon="5.23081">
        <ele>195</ele>
        <time>2022-08-18T13:13:26Z</time>
      </trkpt>
      <trkpt lat="46.48052" lon="5.23058">
        <ele>195.6</ele>
        <time>2022-08-18T13:13:29Z</time>
      </trkpt>
      <trkpt lat="46.48052" lon="5.23026">
        <ele>196.6</ele>
        <time>2022-08-18T13:13:33Z</time>
      </trkpt>
      <trkpt lat="46.48052" lon="5.23018">
        <ele>196.8</ele>
        <time>2022-08-18T13:13:34Z</time>
      </trkpt>
      <trkpt lat="46.4805" lon="5.22985">
        <ele>197.8</ele>
        <time>2022-08-18T13:13:38Z</time>
      </trkpt>
      <trkpt lat="46.48047" lon="5.22953">
        <ele>198.8</ele>
        <time>2022-08-18T13:13:42Z</time>
      </trkpt>
      <trkpt lat="46.48044" lon="5.22938">
        <ele>199.2</ele>
        <time>2022-08-18T13:13:44Z</time>
      </trkpt>
      <trkpt lat="46.48033" lon="5.22897">
        <ele>200.2</ele>
        <time>2022-08-18T13:13:50Z</time>
      </trkpt>
      <trkpt lat="46.48031" lon="5.2289">
        <ele>200.4</ele>
        <time>2022-08-18T13:13:51Z</time>
      </trkpt>
      <trkpt lat="46.48014" lon="5.22845">
        <ele>201.6</ele>
        <time>2022-08-18T13:13:58Z</time>
      </trkpt>
      <trkpt lat="46.48006" lon="5.22825">
        <ele>201.6</ele>
        <time>2022-08-18T13:14:01Z</time>
      </trkpt>
      <trkpt lat="46.47989" lon="5.2278">
        <ele>202.6</ele>
        <time>2022-08-18T13:14:08Z</time>
      </trkpt>
      <trkpt lat="46.47987" lon="5.22774">
        <ele>202.8</ele>
        <time>2022-08-18T13:14:09Z</time>
      </trkpt>
      <trkpt lat="46.47971" lon="5.22738">
        <ele>203.4</ele>
        <time>2022-08-18T13:14:15Z</time>
      </trkpt>
      <trkpt lat="46.47967" lon="5.22733">
        <ele>203.4</ele>
        <time>2022-08-18T13:14:16Z</time>
      </trkpt>
      <trkpt lat="46.47956" lon="5.22718">
        <ele>203.8</ele>
        <time>2022-08-18T13:14:19Z</time>
      </trkpt>
      <trkpt lat="46.47936" lon="5.22696">
        <ele>204.4</ele>
        <time>2022-08-18T13:14:24Z</time>
      </trkpt>
      <trkpt lat="46.47924" lon="5.22683">
        <ele>204.8</ele>
        <time>2022-08-18T13:14:27Z</time>
      </trkpt>
      <trkpt lat="46.47901" lon="5.22659">
        <ele>206</ele>
        <time>2022-08-18T13:14:33Z</time>
      </trkpt>
      <trkpt lat="46.47881" lon="5.22638">
        <ele>207.4</ele>
        <time>2022-08-18T13:14:38Z</time>
      </trkpt>
      <trkpt lat="46.47858" lon="5.22613">
        <ele>208.4</ele>
        <time>2022-08-18T13:14:44Z</time>
      </trkpt>
      <trkpt lat="46.47835" lon="5.22587">
        <ele>209.6</ele>
        <time>2022-08-18T13:14:50Z</time>
      </trkpt>
      <trkpt lat="46.47832" lon="5.22583">
        <ele>209.8</ele>
        <time>2022-08-18T13:14:51Z</time>
      </trkpt>
      <trkpt lat="46.47821" lon="5.22569">
        <ele>210.6</ele>
        <time>2022-08-18T13:14:54Z</time>
      </trkpt>
      <trkpt lat="46.47812" lon="5.22552">
        <ele>211.2</ele>
        <time>2022-08-18T13:14:57Z</time>
      </trkpt>
      <trkpt lat="46.47809" lon="5.22546">
        <ele>211.4</ele>
        <time>2022-08-18T13:14:58Z</time>
      </trkpt>
      <trkpt lat="46.47805" lon="5.22533">
        <ele>211.8</ele>
        <time>2022-08-18T13:15:00Z</time>
      </trkpt>
      <trkpt lat="46.47799" lon="5.22504">
        <ele>213.2</ele>
        <time>2022-08-18T13:15:04Z</time>
      </trkpt>
      <trkpt lat="46.47796" lon="5.22489">
        <ele>213.4</ele>
        <time>2022-08-18T13:15:06Z</time>
      </trkpt>
      <trkpt lat="46.47782" lon="5.22422">
        <ele>213.6</ele>
        <time>2022-08-18T13:15:14Z</time>
      </trkpt>
      <trkpt lat="46.47778" lon="5.22405">
        <ele>213.6</ele>
        <time>2022-08-18T13:15:16Z</time>
      </trkpt>
      <trkpt lat="46.47772" lon="5.22368">
        <ele>213.6</ele>
        <time>2022-08-18T13:15:20Z</time>
      </trkpt>
      <trkpt lat="46.47767" lon="5.22331">
        <ele>213.6</ele>
        <time>2022-08-18T13:15:24Z</time>
      </trkpt>
      <trkpt lat="46.47769" lon="5.22322">
        <ele>213.6</ele>
        <time>2022-08-18T13:15:25Z</time>
      </trkpt>
      <trkpt lat="46.47774" lon="5.22316">
        <ele>213.4</ele>
        <time>2022-08-18T13:15:26Z</time>
      </trkpt>
      <trkpt lat="46.47785" lon="5.22313">
        <ele>213.2</ele>
        <time>2022-08-18T13:15:28Z</time>
      </trkpt>
      <trkpt lat="46.47818" lon="5.2231">
        <ele>213</ele>
        <time>2022-08-18T13:15:33Z</time>
      </trkpt>
      <trkpt lat="46.47876" lon="5.22303">
        <ele>213.4</ele>
        <time>2022-08-18T13:15:41Z</time>
      </trkpt>
      <trkpt lat="46.47931" lon="5.22296">
        <ele>213.6</ele>
        <time>2022-08-18T13:15:48Z</time>
      </trkpt>
      <trkpt lat="46.47939" lon="5.22295">
        <ele>213.2</ele>
        <time>2022-08-18T13:15:49Z</time>
      </trkpt>
      <trkpt lat="46.47992" lon="5.2229">
        <ele>212.2</ele>
        <time>2022-08-18T13:15:56Z</time>
      </trkpt>
      <trkpt lat="46.48007" lon="5.2229">
        <ele>211.8</ele>
        <time>2022-08-18T13:15:58Z</time>
      </trkpt>
      <trkpt lat="46.48036" lon="5.22287">
        <ele>211.6</ele>
        <time>2022-08-18T13:16:02Z</time>
      </trkpt>
      <trkpt lat="46.48043" lon="5.22285">
        <ele>211.6</ele>
        <time>2022-08-18T13:16:03Z</time>
      </trkpt>
      <trkpt lat="46.48049" lon="5.22281">
        <ele>211.4</ele>
        <time>2022-08-18T13:16:04Z</time>
      </trkpt>
      <trkpt lat="46.48062" lon="5.22272">
        <ele>211.2</ele>
        <time>2022-08-18T13:16:06Z</time>
      </trkpt>
      <trkpt lat="46.48068" lon="5.22266">
        <ele>211.2</ele>
        <time>2022-08-18T13:16:07Z</time>
      </trkpt>
      <trkpt lat="46.48105" lon="5.22236">
        <ele>211</ele>
        <time>2022-08-18T13:16:13Z</time>
      </trkpt>
      <trkpt lat="46.48139" lon="5.22228">
        <ele>210.8</ele>
        <time>2022-08-18T13:16:18Z</time>
      </trkpt>
      <trkpt lat="46.48198" lon="5.22214">
        <ele>210.6</ele>
        <time>2022-08-18T13:16:27Z</time>
      </trkpt>
      <trkpt lat="46.48204" lon="5.22212">
        <ele>210.6</ele>
        <time>2022-08-18T13:16:28Z</time>
      </trkpt>
      <trkpt lat="46.48216" lon="5.2221">
        <ele>210.8</ele>
        <time>2022-08-18T13:16:30Z</time>
      </trkpt>
      <trkpt lat="46.48235" lon="5.22213">
        <ele>210.8</ele>
        <time>2022-08-18T13:16:33Z</time>
      </trkpt>
      <trkpt lat="46.48288" lon="5.22225">
        <ele>210.8</ele>
        <time>2022-08-18T13:16:42Z</time>
      </trkpt>
      <trkpt lat="46.48341" lon="5.22227">
        <ele>211.2</ele>
        <time>2022-08-18T13:16:51Z</time>
      </trkpt>
      <trkpt lat="46.48352" lon="5.22229">
        <ele>211.2</ele>
        <time>2022-08-18T13:16:53Z</time>
      </trkpt>
      <trkpt lat="46.48375" lon="5.22238">
        <ele>211.4</ele>
        <time>2022-08-18T13:16:57Z</time>
      </trkpt>
      <trkpt lat="46.48412" lon="5.22266">
        <ele>211.8</ele>
        <time>2022-08-18T13:17:04Z</time>
      </trkpt>
      <trkpt lat="46.4843" lon="5.22287">
        <ele>212.2</ele>
        <time>2022-08-18T13:17:08Z</time>
      </trkpt>
      <trkpt lat="46.48443" lon="5.22305">
        <ele>212.6</ele>
        <time>2022-08-18T13:17:11Z</time>
      </trkpt>
      <trkpt lat="46.48465" lon="5.22336">
        <ele>213.2</ele>
        <time>2022-08-18T13:17:16Z</time>
      </trkpt>
      <trkpt lat="46.48475" lon="5.22347">
        <ele>213.4</ele>
        <time>2022-08-18T13:17:18Z</time>
      </trkpt>
      <trkpt lat="46.48515" lon="5.22378">
        <ele>213.8</ele>
        <time>2022-08-18T13:17:25Z</time>
      </trkpt>
      <trkpt lat="46.4856" lon="5.2241">
        <ele>213.8</ele>
        <time>2022-08-18T13:17:33Z</time>
      </trkpt>
      <trkpt lat="46.48598" lon="5.22444">
        <ele>214.2</ele>
        <time>2022-08-18T13:17:40Z</time>
      </trkpt>
      <trkpt lat="46.48604" lon="5.22449">
        <ele>214.2</ele>
        <time>2022-08-18T13:17:41Z</time>
      </trkpt>
      <trkpt lat="46.4865" lon="5.22492">
        <ele>214</ele>
        <time>2022-08-18T13:17:49Z</time>
      </trkpt>
      <trkpt lat="46.48673" lon="5.2252">
        <ele>213.2</ele>
        <time>2022-08-18T13:17:53Z</time>
      </trkpt>
      <trkpt lat="46.48691" lon="5.22539">
        <ele>212.6</ele>
        <time>2022-08-18T13:17:56Z</time>
      </trkpt>
      <trkpt lat="46.48719" lon="5.22557">
        <ele>212</ele>
        <time>2022-08-18T13:18:00Z</time>
      </trkpt>
      <trkpt lat="46.48732" lon="5.22564">
        <ele>211.8</ele>
        <time>2022-08-18T13:18:02Z</time>
      </trkpt>
      <trkpt lat="46.48787" lon="5.22595">
        <ele>211.6</ele>
        <time>2022-08-18T13:18:10Z</time>
      </trkpt>
      <trkpt lat="46.488" lon="5.22603">
        <ele>211.4</ele>
        <time>2022-08-18T13:18:12Z</time>
      </trkpt>
      <trkpt lat="46.48819" lon="5.22614">
        <ele>211.2</ele>
        <time>2022-08-18T13:18:15Z</time>
      </trkpt>
      <trkpt lat="46.48852" lon="5.22632">
        <ele>211</ele>
        <time>2022-08-18T13:18:20Z</time>
      </trkpt>
      <trkpt lat="46.48894" lon="5.22654">
        <ele>211.2</ele>
        <time>2022-08-18T13:18:27Z</time>
      </trkpt>
      <trkpt lat="46.48909" lon="5.22663">
        <ele>211.2</ele>
        <time>2022-08-18T13:18:30Z</time>
      </trkpt>
      <trkpt lat="46.48909" lon="5.22667">
        <ele>211.2</ele>
        <time>2022-08-18T13:18:31Z</time>
      </trkpt>
      <trkpt lat="46.48903" lon="5.22674">
        <ele>211.4</ele>
        <time>2022-08-18T13:18:34Z</time>
      </trkpt>
      <trkpt lat="46.48902" lon="5.22678">
        <ele>211.6</ele>
        <time>2022-08-18T13:18:38Z</time>
      </trkpt>
      <trkpt lat="46.48902" lon="5.22678">
        <ele>211.6</ele>
        <time>2022-08-18T13:18:39Z</time>
      </trkpt>
      <trkpt lat="46.48904" lon="5.22674">
        <ele>211.2</ele>
        <time>2022-08-18T13:19:24Z</time>
      </trkpt>
      <trkpt lat="46.4891" lon="5.22668">
        <ele>211.4</ele>
        <time>2022-08-18T13:19:26Z</time>
      </trkpt>
      <trkpt lat="46.48917" lon="5.22665">
        <ele>211.4</ele>
        <time>2022-08-18T13:19:28Z</time>
      </trkpt>
      <trkpt lat="46.48926" lon="5.22668">
        <ele>211.4</ele>
        <time>2022-08-18T13:19:30Z</time>
      </trkpt>
      <trkpt lat="46.48953" lon="5.22682">
        <ele>211.6</ele>
        <time>2022-08-18T13:19:35Z</time>
      </trkpt>
      <trkpt lat="46.48994" lon="5.22705">
        <ele>212.4</ele>
        <time>2022-08-18T13:19:43Z</time>
      </trkpt>
      <trkpt lat="46.49042" lon="5.22732">
        <ele>213.4</ele>
        <time>2022-08-18T13:19:52Z</time>
      </trkpt>
      <trkpt lat="46.49048" lon="5.22734">
        <ele>213.6</ele>
        <time>2022-08-18T13:19:53Z</time>
      </trkpt>
      <trkpt lat="46.49083" lon="5.22751">
        <ele>213.8</ele>
        <time>2022-08-18T13:19:59Z</time>
      </trkpt>
      <trkpt lat="46.49112" lon="5.22768">
        <ele>213.8</ele>
        <time>2022-08-18T13:20:04Z</time>
      </trkpt>
      <trkpt lat="46.49147" lon="5.22787">
        <ele>213.6</ele>
        <time>2022-08-18T13:20:10Z</time>
      </trkpt>
      <trkpt lat="46.49187" lon="5.228">
        <ele>213.6</ele>
        <time>2022-08-18T13:20:17Z</time>
      </trkpt>
      <trkpt lat="46.49219" lon="5.22798">
        <ele>213.8</ele>
        <time>2022-08-18T13:20:22Z</time>
      </trkpt>
      <trkpt lat="46.49267" lon="5.22795">
        <ele>213.4</ele>
        <time>2022-08-18T13:20:28Z</time>
      </trkpt>
      <trkpt lat="46.49296" lon="5.22793">
        <ele>212.4</ele>
        <time>2022-08-18T13:20:31Z</time>
      </trkpt>
      <trkpt lat="46.49326" lon="5.2279">
        <ele>211.4</ele>
        <time>2022-08-18T13:20:34Z</time>
      </trkpt>
      <trkpt lat="46.49336" lon="5.22789">
        <ele>210.8</ele>
        <time>2022-08-18T13:20:35Z</time>
      </trkpt>
      <trkpt lat="46.49356" lon="5.22788">
        <ele>209.2</ele>
        <time>2022-08-18T13:20:37Z</time>
      </trkpt>
      <trkpt lat="46.49376" lon="5.22786">
        <ele>208.2</ele>
        <time>2022-08-18T13:20:39Z</time>
      </trkpt>
      <trkpt lat="46.49405" lon="5.22785">
        <ele>207</ele>
        <time>2022-08-18T13:20:42Z</time>
      </trkpt>
      <trkpt lat="46.49444" lon="5.22781">
        <ele>205.8</ele>
        <time>2022-08-18T13:20:46Z</time>
      </trkpt>
      <trkpt lat="46.49473" lon="5.22778">
        <ele>204</ele>
        <time>2022-08-18T13:20:49Z</time>
      </trkpt>
      <trkpt lat="46.49492" lon="5.22776">
        <ele>203.2</ele>
        <time>2022-08-18T13:20:51Z</time>
      </trkpt>
      <trkpt lat="46.49512" lon="5.22775">
        <ele>202.6</ele>
        <time>2022-08-18T13:20:53Z</time>
      </trkpt>
      <trkpt lat="46.49541" lon="5.22774">
        <ele>201.6</ele>
        <time>2022-08-18T13:20:56Z</time>
      </trkpt>
      <trkpt lat="46.49579" lon="5.2277">
        <ele>200.2</ele>
        <time>2022-08-18T13:21:00Z</time>
      </trkpt>
      <trkpt lat="46.49588" lon="5.2277">
        <ele>200</ele>
        <time>2022-08-18T13:21:01Z</time>
      </trkpt>
      <trkpt lat="46.49633" lon="5.22766">
        <ele>199.6</ele>
        <time>2022-08-18T13:21:07Z</time>
      </trkpt>
      <trkpt lat="46.49662" lon="5.22764">
        <ele>200.2</ele>
        <time>2022-08-18T13:21:12Z</time>
      </trkpt>
      <trkpt lat="46.49687" lon="5.22763">
        <ele>201.4</ele>
        <time>2022-08-18T13:21:17Z</time>
      </trkpt>
      <trkpt lat="46.49692" lon="5.22763">
        <ele>201.6</ele>
        <time>2022-08-18T13:21:18Z</time>
      </trkpt>
      <trkpt lat="46.49708" lon="5.22761">
        <ele>202.6</ele>
        <time>2022-08-18T13:21:22Z</time>
      </trkpt>
      <trkpt lat="46.49719" lon="5.22759">
        <ele>203.6</ele>
        <time>2022-08-18T13:21:25Z</time>
      </trkpt>
      <trkpt lat="46.49723" lon="5.22758">
        <ele>203.8</ele>
        <time>2022-08-18T13:21:26Z</time>
      </trkpt>
      <trkpt lat="46.49745" lon="5.22755">
        <ele>204.6</ele>
        <time>2022-08-18T13:21:30Z</time>
      </trkpt>
      <trkpt lat="46.49757" lon="5.22753">
        <ele>205</ele>
        <time>2022-08-18T13:21:32Z</time>
      </trkpt>
      <trkpt lat="46.49786" lon="5.22748">
        <ele>206</ele>
        <time>2022-08-18T13:21:37Z</time>
      </trkpt>
      <trkpt lat="46.49838" lon="5.22741">
        <ele>206.6</ele>
        <time>2022-08-18T13:21:45Z</time>
      </trkpt>
      <trkpt lat="46.49876" lon="5.22737">
        <ele>207</ele>
        <time>2022-08-18T13:21:51Z</time>
      </trkpt>
      <trkpt lat="46.49898" lon="5.22734">
        <ele>207.4</ele>
        <time>2022-08-18T13:21:55Z</time>
      </trkpt>
      <trkpt lat="46.49955" lon="5.22728">
        <ele>208.2</ele>
        <time>2022-08-18T13:22:05Z</time>
      </trkpt>
      <trkpt lat="46.49988" lon="5.22722">
        <ele>209.2</ele>
        <time>2022-08-18T13:22:11Z</time>
      </trkpt>
      <trkpt lat="46.49993" lon="5.22721">
        <ele>209.4</ele>
        <time>2022-08-18T13:22:12Z</time>
      </trkpt>
      <trkpt lat="46.50009" lon="5.22717">
        <ele>210.4</ele>
        <time>2022-08-18T13:22:15Z</time>
      </trkpt>
      <trkpt lat="46.50027" lon="5.22712">
        <ele>211</ele>
        <time>2022-08-18T13:22:19Z</time>
      </trkpt>
      <trkpt lat="46.5004" lon="5.22709">
        <ele>211.4</ele>
        <time>2022-08-18T13:22:22Z</time>
      </trkpt>
      <trkpt lat="46.50045" lon="5.22708">
        <ele>211.6</ele>
        <time>2022-08-18T13:22:23Z</time>
      </trkpt>
      <trkpt lat="46.50055" lon="5.22707">
        <ele>211.8</ele>
        <time>2022-08-18T13:22:25Z</time>
      </trkpt>
      <trkpt lat="46.50086" lon="5.22707">
        <ele>212.6</ele>
        <time>2022-08-18T13:22:30Z</time>
      </trkpt>
      <trkpt lat="46.50104" lon="5.22712">
        <ele>213</ele>
        <time>2022-08-18T13:22:33Z</time>
      </trkpt>
      <trkpt lat="46.50119" lon="5.22719">
        <ele>213.4</ele>
        <time>2022-08-18T13:22:36Z</time>
      </trkpt>
      <trkpt lat="46.50135" lon="5.22727">
        <ele>213.6</ele>
        <time>2022-08-18T13:22:39Z</time>
      </trkpt>
      <trkpt lat="46.50165" lon="5.22742">
        <ele>214.2</ele>
        <time>2022-08-18T13:22:44Z</time>
      </trkpt>
      <trkpt lat="46.50183" lon="5.22752">
        <ele>214.2</ele>
        <time>2022-08-18T13:22:47Z</time>
      </trkpt>
      <trkpt lat="46.50202" lon="5.22756">
        <ele>214.4</ele>
        <time>2022-08-18T13:22:50Z</time>
      </trkpt>
      <trkpt lat="46.50241" lon="5.22752">
        <ele>214.4</ele>
        <time>2022-08-18T13:22:56Z</time>
      </trkpt>
      <trkpt lat="46.50296" lon="5.22745">
        <ele>214.6</ele>
        <time>2022-08-18T13:23:04Z</time>
      </trkpt>
      <trkpt lat="46.50303" lon="5.22745">
        <ele>214.6</ele>
        <time>2022-08-18T13:23:05Z</time>
      </trkpt>
      <trkpt lat="46.5036" lon="5.22749">
        <ele>214.4</ele>
        <time>2022-08-18T13:23:13Z</time>
      </trkpt>
      <trkpt lat="46.50421" lon="5.22759">
        <ele>213.6</ele>
        <time>2022-08-18T13:23:21Z</time>
      </trkpt>
      <trkpt lat="46.50428" lon="5.22761">
        <ele>213.4</ele>
        <time>2022-08-18T13:23:22Z</time>
      </trkpt>
      <trkpt lat="46.50482" lon="5.22769">
        <ele>213</ele>
        <time>2022-08-18T13:23:29Z</time>
      </trkpt>
      <trkpt lat="46.50505" lon="5.22773">
        <ele>212.8</ele>
        <time>2022-08-18T13:23:32Z</time>
      </trkpt>
      <trkpt lat="46.50556" lon="5.22793">
        <ele>212.8</ele>
        <time>2022-08-18T13:23:39Z</time>
      </trkpt>
      <trkpt lat="46.50569" lon="5.22802">
        <ele>212.6</ele>
        <time>2022-08-18T13:23:41Z</time>
      </trkpt>
      <trkpt lat="46.50592" lon="5.22822">
        <ele>212.6</ele>
        <time>2022-08-18T13:23:45Z</time>
      </trkpt>
      <trkpt lat="46.50637" lon="5.22869">
        <ele>212.6</ele>
        <time>2022-08-18T13:23:53Z</time>
      </trkpt>
      <trkpt lat="46.50674" lon="5.22919">
        <ele>212.8</ele>
        <time>2022-08-18T13:24:00Z</time>
      </trkpt>
      <trkpt lat="46.50715" lon="5.22979">
        <ele>212.8</ele>
        <time>2022-08-18T13:24:08Z</time>
      </trkpt>
      <trkpt lat="46.5072" lon="5.22986">
        <ele>212.8</ele>
        <time>2022-08-18T13:24:09Z</time>
      </trkpt>
      <trkpt lat="46.50763" lon="5.23048">
        <ele>212.8</ele>
        <time>2022-08-18T13:24:17Z</time>
      </trkpt>
      <trkpt lat="46.50768" lon="5.23056">
        <ele>212.8</ele>
        <time>2022-08-18T13:24:18Z</time>
      </trkpt>
      <trkpt lat="46.50812" lon="5.23113">
        <ele>212.8</ele>
        <time>2022-08-18T13:24:26Z</time>
      </trkpt>
      <trkpt lat="46.50851" lon="5.23141">
        <ele>212.8</ele>
        <time>2022-08-18T13:24:32Z</time>
      </trkpt>
      <trkpt lat="46.509" lon="5.23161">
        <ele>212.8</ele>
        <time>2022-08-18T13:24:39Z</time>
      </trkpt>
      <trkpt lat="46.50948" lon="5.23181">
        <ele>212.8</ele>
        <time>2022-08-18T13:24:46Z</time>
      </trkpt>
      <trkpt lat="46.50989" lon="5.23208">
        <ele>213</ele>
        <time>2022-08-18T13:24:52Z</time>
      </trkpt>
      <trkpt lat="46.51042" lon="5.2325">
        <ele>212.6</ele>
        <time>2022-08-18T13:25:00Z</time>
      </trkpt>
      <trkpt lat="46.51049" lon="5.23255">
        <ele>212.6</ele>
        <time>2022-08-18T13:25:01Z</time>
      </trkpt>
      <trkpt lat="46.51095" lon="5.23298">
        <ele>212</ele>
        <time>2022-08-18T13:25:08Z</time>
      </trkpt>
      <trkpt lat="46.51101" lon="5.23305">
        <ele>212</ele>
        <time>2022-08-18T13:25:09Z</time>
      </trkpt>
      <trkpt lat="46.51142" lon="5.23356">
        <ele>211.6</ele>
        <time>2022-08-18T13:25:16Z</time>
      </trkpt>
      <trkpt lat="46.51148" lon="5.23363">
        <ele>211.6</ele>
        <time>2022-08-18T13:25:17Z</time>
      </trkpt>
      <trkpt lat="46.51154" lon="5.2337">
        <ele>211.6</ele>
        <time>2022-08-18T13:25:18Z</time>
      </trkpt>
      <trkpt lat="46.512" lon="5.23426">
        <ele>211.2</ele>
        <time>2022-08-18T13:25:26Z</time>
      </trkpt>
      <trkpt lat="46.51205" lon="5.23432">
        <ele>211.2</ele>
        <time>2022-08-18T13:25:27Z</time>
      </trkpt>
      <trkpt lat="46.51238" lon="5.23474">
        <ele>211</ele>
        <time>2022-08-18T13:25:33Z</time>
      </trkpt>
      <trkpt lat="46.5127" lon="5.23514">
        <ele>211</ele>
        <time>2022-08-18T13:25:39Z</time>
      </trkpt>
      <trkpt lat="46.51311" lon="5.23567">
        <ele>211.2</ele>
        <time>2022-08-18T13:25:47Z</time>
      </trkpt>
      <trkpt lat="46.51328" lon="5.23587">
        <ele>211.4</ele>
        <time>2022-08-18T13:25:50Z</time>
      </trkpt>
      <trkpt lat="46.5134" lon="5.236">
        <ele>211.4</ele>
        <time>2022-08-18T13:25:52Z</time>
      </trkpt>
      <trkpt lat="46.51373" lon="5.23639">
        <ele>211.6</ele>
        <time>2022-08-18T13:25:58Z</time>
      </trkpt>
      <trkpt lat="46.51379" lon="5.23645">
        <ele>211.8</ele>
        <time>2022-08-18T13:25:59Z</time>
      </trkpt>
      <trkpt lat="46.51392" lon="5.23655">
        <ele>211.8</ele>
        <time>2022-08-18T13:26:01Z</time>
      </trkpt>
      <trkpt lat="46.51413" lon="5.23664">
        <ele>211.8</ele>
        <time>2022-08-18T13:26:04Z</time>
      </trkpt>
      <trkpt lat="46.51473" lon="5.23682">
        <ele>211.6</ele>
        <time>2022-08-18T13:26:12Z</time>
      </trkpt>
      <trkpt lat="46.51481" lon="5.23685">
        <ele>211.4</ele>
        <time>2022-08-18T13:26:13Z</time>
      </trkpt>
      <trkpt lat="46.51533" lon="5.23703">
        <ele>211</ele>
        <time>2022-08-18T13:26:20Z</time>
      </trkpt>
      <trkpt lat="46.51548" lon="5.23708">
        <ele>211</ele>
        <time>2022-08-18T13:26:22Z</time>
      </trkpt>
      <trkpt lat="46.51601" lon="5.23726">
        <ele>210.6</ele>
        <time>2022-08-18T13:26:29Z</time>
      </trkpt>
      <trkpt lat="46.51616" lon="5.23731">
        <ele>210.6</ele>
        <time>2022-08-18T13:26:31Z</time>
      </trkpt>
      <trkpt lat="46.51669" lon="5.23738">
        <ele>210.4</ele>
        <time>2022-08-18T13:26:38Z</time>
      </trkpt>
      <trkpt lat="46.51728" lon="5.2373">
        <ele>209.6</ele>
        <time>2022-08-18T13:26:46Z</time>
      </trkpt>
      <trkpt lat="46.51766" lon="5.23724">
        <ele>209.2</ele>
        <time>2022-08-18T13:26:51Z</time>
      </trkpt>
      <trkpt lat="46.51811" lon="5.23717">
        <ele>208.8</ele>
        <time>2022-08-18T13:26:57Z</time>
      </trkpt>
      <trkpt lat="46.51872" lon="5.23706">
        <ele>209</ele>
        <time>2022-08-18T13:27:05Z</time>
      </trkpt>
      <trkpt lat="46.51925" lon="5.23701">
        <ele>208.6</ele>
        <time>2022-08-18T13:27:12Z</time>
      </trkpt>
      <trkpt lat="46.51975" lon="5.23697">
        <ele>208.4</ele>
        <time>2022-08-18T13:27:19Z</time>
      </trkpt>
      <trkpt lat="46.51981" lon="5.23695">
        <ele>208.2</ele>
        <time>2022-08-18T13:27:20Z</time>
      </trkpt>
      <trkpt lat="46.52034" lon="5.23679">
        <ele>208.4</ele>
        <time>2022-08-18T13:27:28Z</time>
      </trkpt>
      <trkpt lat="46.52093" lon="5.23669">
        <ele>208.6</ele>
        <time>2022-08-18T13:27:37Z</time>
      </trkpt>
      <trkpt lat="46.5212" lon="5.23671">
        <ele>208.4</ele>
        <time>2022-08-18T13:27:41Z</time>
      </trkpt>
      <trkpt lat="46.52127" lon="5.23673">
        <ele>208.8</ele>
        <time>2022-08-18T13:27:42Z</time>
      </trkpt>
      <trkpt lat="46.52133" lon="5.23676">
        <ele>208.8</ele>
        <time>2022-08-18T13:27:43Z</time>
      </trkpt>
      <trkpt lat="46.52145" lon="5.23685">
        <ele>208.8</ele>
        <time>2022-08-18T13:27:45Z</time>
      </trkpt>
      <trkpt lat="46.52151" lon="5.23691">
        <ele>208.8</ele>
        <time>2022-08-18T13:27:46Z</time>
      </trkpt>
      <trkpt lat="46.52165" lon="5.23709">
        <ele>209</ele>
        <time>2022-08-18T13:27:49Z</time>
      </trkpt>
      <trkpt lat="46.52179" lon="5.23732">
        <ele>208.8</ele>
        <time>2022-08-18T13:27:52Z</time>
      </trkpt>
      <trkpt lat="46.52207" lon="5.23778">
        <ele>208.4</ele>
        <time>2022-08-18T13:27:58Z</time>
      </trkpt>
      <trkpt lat="46.52237" lon="5.23828">
        <ele>208.6</ele>
        <time>2022-08-18T13:28:05Z</time>
      </trkpt>
      <trkpt lat="46.52278" lon="5.23892">
        <ele>208.8</ele>
        <time>2022-08-18T13:28:14Z</time>
      </trkpt>
      <trkpt lat="46.52286" lon="5.23907">
        <ele>208.8</ele>
        <time>2022-08-18T13:28:16Z</time>
      </trkpt>
      <trkpt lat="46.52309" lon="5.23956">
        <ele>208.6</ele>
        <time>2022-08-18T13:28:22Z</time>
      </trkpt>
      <trkpt lat="46.52336" lon="5.24022">
        <ele>208.6</ele>
        <time>2022-08-18T13:28:30Z</time>
      </trkpt>
      <trkpt lat="46.52359" lon="5.24086">
        <ele>208.4</ele>
        <time>2022-08-18T13:28:38Z</time>
      </trkpt>
      <trkpt lat="46.52362" lon="5.24096">
        <ele>208.2</ele>
        <time>2022-08-18T13:28:41Z</time>
      </trkpt>
      <trkpt lat="46.52362" lon="5.24097">
        <ele>208.2</ele>
        <time>2022-08-18T13:28:43Z</time>
      </trkpt>
      <trkpt lat="46.52365" lon="5.24103">
        <ele>208</ele>
        <time>2022-08-18T13:28:56Z</time>
      </trkpt>
      <trkpt lat="46.52368" lon="5.24105">
        <ele>208</ele>
        <time>2022-08-18T13:28:57Z</time>
      </trkpt>
      <trkpt lat="46.52377" lon="5.24107">
        <ele>208</ele>
        <time>2022-08-18T13:28:59Z</time>
      </trkpt>
      <trkpt lat="46.5241" lon="5.24113">
        <ele>208</ele>
        <time>2022-08-18T13:29:05Z</time>
      </trkpt>
      <trkpt lat="46.52447" lon="5.24122">
        <ele>208</ele>
        <time>2022-08-18T13:29:11Z</time>
      </trkpt>
      <trkpt lat="46.52502" lon="5.24135">
        <ele>209</ele>
        <time>2022-08-18T13:29:20Z</time>
      </trkpt>
      <trkpt lat="46.52521" lon="5.24138">
        <ele>209.2</ele>
        <time>2022-08-18T13:29:23Z</time>
      </trkpt>
      <trkpt lat="46.52539" lon="5.24143">
        <ele>209.4</ele>
        <time>2022-08-18T13:29:26Z</time>
      </trkpt>
      <trkpt lat="46.52595" lon="5.24156">
        <ele>209.8</ele>
        <time>2022-08-18T13:29:35Z</time>
      </trkpt>
      <trkpt lat="46.52653" lon="5.2417">
        <ele>209.8</ele>
        <time>2022-08-18T13:29:44Z</time>
      </trkpt>
      <trkpt lat="46.52659" lon="5.24171">
        <ele>209.8</ele>
        <time>2022-08-18T13:29:45Z</time>
      </trkpt>
      <trkpt lat="46.52718" lon="5.24185">
        <ele>209.6</ele>
        <time>2022-08-18T13:29:54Z</time>
      </trkpt>
      <trkpt lat="46.52724" lon="5.24186">
        <ele>209.6</ele>
        <time>2022-08-18T13:29:55Z</time>
      </trkpt>
      <trkpt lat="46.52777" lon="5.24198">
        <ele>209.8</ele>
        <time>2022-08-18T13:30:03Z</time>
      </trkpt>
      <trkpt lat="46.52837" lon="5.24213">
        <ele>209.2</ele>
        <time>2022-08-18T13:30:12Z</time>
      </trkpt>
      <trkpt lat="46.52844" lon="5.24214">
        <ele>209</ele>
        <time>2022-08-18T13:30:13Z</time>
      </trkpt>
      <trkpt lat="46.52897" lon="5.24227">
        <ele>208.8</ele>
        <time>2022-08-18T13:30:21Z</time>
      </trkpt>
      <trkpt lat="46.52904" lon="5.24229">
        <ele>208.8</ele>
        <time>2022-08-18T13:30:22Z</time>
      </trkpt>
      <trkpt lat="46.52943" lon="5.24236">
        <ele>208.4</ele>
        <time>2022-08-18T13:30:28Z</time>
      </trkpt>
      <trkpt lat="46.52956" lon="5.24239">
        <ele>208</ele>
        <time>2022-08-18T13:30:30Z</time>
      </trkpt>
      <trkpt lat="46.53006" lon="5.24253">
        <ele>208</ele>
        <time>2022-08-18T13:30:38Z</time>
      </trkpt>
      <trkpt lat="46.53049" lon="5.24263">
        <ele>208</ele>
        <time>2022-08-18T13:30:45Z</time>
      </trkpt>
      <trkpt lat="46.53107" lon="5.24277">
        <ele>208.4</ele>
        <time>2022-08-18T13:30:54Z</time>
      </trkpt>
      <trkpt lat="46.5312" lon="5.2428">
        <ele>208.4</ele>
        <time>2022-08-18T13:30:56Z</time>
      </trkpt>
      <trkpt lat="46.53178" lon="5.24294">
        <ele>208</ele>
        <time>2022-08-18T13:31:05Z</time>
      </trkpt>
      <trkpt lat="46.53232" lon="5.24306">
        <ele>207.8</ele>
        <time>2022-08-18T13:31:13Z</time>
      </trkpt>
      <trkpt lat="46.53239" lon="5.24307">
        <ele>207.6</ele>
        <time>2022-08-18T13:31:14Z</time>
      </trkpt>
      <trkpt lat="46.53299" lon="5.24319">
        <ele>207.4</ele>
        <time>2022-08-18T13:31:23Z</time>
      </trkpt>
      <trkpt lat="46.53351" lon="5.24329">
        <ele>207.4</ele>
        <time>2022-08-18T13:31:31Z</time>
      </trkpt>
      <trkpt lat="46.53406" lon="5.24338">
        <ele>207.2</ele>
        <time>2022-08-18T13:31:39Z</time>
      </trkpt>
      <trkpt lat="46.53433" lon="5.24343">
        <ele>207.2</ele>
        <time>2022-08-18T13:31:43Z</time>
      </trkpt>
      <trkpt lat="46.53488" lon="5.24354">
        <ele>206.8</ele>
        <time>2022-08-18T13:31:51Z</time>
      </trkpt>
      <trkpt lat="46.53495" lon="5.24355">
        <ele>206.8</ele>
        <time>2022-08-18T13:31:52Z</time>
      </trkpt>
      <trkpt lat="46.53549" lon="5.24365">
        <ele>206.6</ele>
        <time>2022-08-18T13:32:00Z</time>
      </trkpt>
      <trkpt lat="46.53563" lon="5.24367">
        <ele>206.6</ele>
        <time>2022-08-18T13:32:02Z</time>
      </trkpt>
      <trkpt lat="46.5359" lon="5.24372">
        <ele>206.4</ele>
        <time>2022-08-18T13:32:06Z</time>
      </trkpt>
      <trkpt lat="46.53632" lon="5.24379">
        <ele>206</ele>
        <time>2022-08-18T13:32:12Z</time>
      </trkpt>
      <trkpt lat="46.53686" lon="5.24389">
        <ele>205.8</ele>
        <time>2022-08-18T13:32:20Z</time>
      </trkpt>
      <trkpt lat="46.53693" lon="5.2439">
        <ele>205.8</ele>
        <time>2022-08-18T13:32:21Z</time>
      </trkpt>
      <trkpt lat="46.5375" lon="5.244">
        <ele>205.6</ele>
        <time>2022-08-18T13:32:29Z</time>
      </trkpt>
      <trkpt lat="46.53757" lon="5.24402">
        <ele>205.6</ele>
        <time>2022-08-18T13:32:30Z</time>
      </trkpt>
      <trkpt lat="46.5378" lon="5.24406">
        <ele>205.4</ele>
        <time>2022-08-18T13:32:33Z</time>
      </trkpt>
      <trkpt lat="46.53835" lon="5.24416">
        <ele>204.4</ele>
        <time>2022-08-18T13:32:40Z</time>
      </trkpt>
      <trkpt lat="46.53895" lon="5.24427">
        <ele>203.4</ele>
        <time>2022-08-18T13:32:47Z</time>
      </trkpt>
      <trkpt lat="46.53904" lon="5.24429">
        <ele>203</ele>
        <time>2022-08-18T13:32:48Z</time>
      </trkpt>
      <trkpt lat="46.53913" lon="5.2443">
        <ele>202.8</ele>
        <time>2022-08-18T13:32:49Z</time>
      </trkpt>
      <trkpt lat="46.5394" lon="5.24435">
        <ele>202</ele>
        <time>2022-08-18T13:32:52Z</time>
      </trkpt>
      <trkpt lat="46.53959" lon="5.24438">
        <ele>201.4</ele>
        <time>2022-08-18T13:32:54Z</time>
      </trkpt>
      <trkpt lat="46.53977" lon="5.24441">
        <ele>200.8</ele>
        <time>2022-08-18T13:32:56Z</time>
      </trkpt>
      <trkpt lat="46.54025" lon="5.24449">
        <ele>199.6</ele>
        <time>2022-08-18T13:33:01Z</time>
      </trkpt>
      <trkpt lat="46.54044" lon="5.24452">
        <ele>199.2</ele>
        <time>2022-08-18T13:33:03Z</time>
      </trkpt>
      <trkpt lat="46.54063" lon="5.24456">
        <ele>198.4</ele>
        <time>2022-08-18T13:33:05Z</time>
      </trkpt>
      <trkpt lat="46.54109" lon="5.24465">
        <ele>197.4</ele>
        <time>2022-08-18T13:33:10Z</time>
      </trkpt>
      <trkpt lat="46.54134" lon="5.2447">
        <ele>197</ele>
        <time>2022-08-18T13:33:13Z</time>
      </trkpt>
      <trkpt lat="46.54167" lon="5.24476">
        <ele>196.2</ele>
        <time>2022-08-18T13:33:17Z</time>
      </trkpt>
      <trkpt lat="46.5419" lon="5.2448">
        <ele>196</ele>
        <time>2022-08-18T13:33:20Z</time>
      </trkpt>
      <trkpt lat="46.54249" lon="5.24491">
        <ele>195.6</ele>
        <time>2022-08-18T13:33:28Z</time>
      </trkpt>
      <trkpt lat="46.54263" lon="5.24494">
        <ele>195.6</ele>
        <time>2022-08-18T13:33:30Z</time>
      </trkpt>
      <trkpt lat="46.54315" lon="5.24504">
        <ele>196.2</ele>
        <time>2022-08-18T13:33:38Z</time>
      </trkpt>
      <trkpt lat="46.54358" lon="5.24513">
        <ele>196.8</ele>
        <time>2022-08-18T13:33:45Z</time>
      </trkpt>
      <trkpt lat="46.54413" lon="5.24524">
        <ele>197.2</ele>
        <time>2022-08-18T13:33:54Z</time>
      </trkpt>
      <trkpt lat="46.54419" lon="5.24526">
        <ele>197.4</ele>
        <time>2022-08-18T13:33:55Z</time>
      </trkpt>
      <trkpt lat="46.54425" lon="5.24527">
        <ele>197.4</ele>
        <time>2022-08-18T13:33:56Z</time>
      </trkpt>
      <trkpt lat="46.5448" lon="5.24539">
        <ele>197.6</ele>
        <time>2022-08-18T13:34:05Z</time>
      </trkpt>
      <trkpt lat="46.54486" lon="5.2454">
        <ele>197.6</ele>
        <time>2022-08-18T13:34:06Z</time>
      </trkpt>
      <trkpt lat="46.54539" lon="5.24553">
        <ele>198</ele>
        <time>2022-08-18T13:34:15Z</time>
      </trkpt>
      <trkpt lat="46.54555" lon="5.24556">
        <ele>198.4</ele>
        <time>2022-08-18T13:34:18Z</time>
      </trkpt>
      <trkpt lat="46.54587" lon="5.24563">
        <ele>199.2</ele>
        <time>2022-08-18T13:34:24Z</time>
      </trkpt>
      <trkpt lat="46.54598" lon="5.24565">
        <ele>199.4</ele>
        <time>2022-08-18T13:34:26Z</time>
      </trkpt>
      <trkpt lat="46.54634" lon="5.24574">
        <ele>200</ele>
        <time>2022-08-18T13:34:33Z</time>
      </trkpt>
      <trkpt lat="46.54655" lon="5.24579">
        <ele>200.6</ele>
        <time>2022-08-18T13:34:37Z</time>
      </trkpt>
      <trkpt lat="46.54693" lon="5.24588">
        <ele>201.8</ele>
        <time>2022-08-18T13:34:44Z</time>
      </trkpt>
      <trkpt lat="46.5473" lon="5.24593">
        <ele>203</ele>
        <time>2022-08-18T13:34:51Z</time>
      </trkpt>
      <trkpt lat="46.54736" lon="5.24593">
        <ele>203</ele>
        <time>2022-08-18T13:34:52Z</time>
      </trkpt>
      <trkpt lat="46.54774" lon="5.24584">
        <ele>203.8</ele>
        <time>2022-08-18T13:34:59Z</time>
      </trkpt>
      <trkpt lat="46.54784" lon="5.24579">
        <ele>204.2</ele>
        <time>2022-08-18T13:35:01Z</time>
      </trkpt>
      <trkpt lat="46.5482" lon="5.24558">
        <ele>205</ele>
        <time>2022-08-18T13:35:08Z</time>
      </trkpt>
      <trkpt lat="46.54831" lon="5.24551">
        <ele>205.2</ele>
        <time>2022-08-18T13:35:10Z</time>
      </trkpt>
      <trkpt lat="46.54876" lon="5.24523">
        <ele>206.2</ele>
        <time>2022-08-18T13:35:19Z</time>
      </trkpt>
      <trkpt lat="46.54881" lon="5.2452">
        <ele>206.4</ele>
        <time>2022-08-18T13:35:20Z</time>
      </trkpt>
      <trkpt lat="46.54912" lon="5.24501">
        <ele>207.6</ele>
        <time>2022-08-18T13:35:26Z</time>
      </trkpt>
      <trkpt lat="46.54922" lon="5.24495">
        <ele>208</ele>
        <time>2022-08-18T13:35:28Z</time>
      </trkpt>
      <trkpt lat="46.54959" lon="5.24473">
        <ele>208.4</ele>
        <time>2022-08-18T13:35:35Z</time>
      </trkpt>
      <trkpt lat="46.55004" lon="5.24446">
        <ele>208.4</ele>
        <time>2022-08-18T13:35:43Z</time>
      </trkpt>
      <trkpt lat="46.55059" lon="5.24412">
        <ele>208.4</ele>
        <time>2022-08-18T13:35:52Z</time>
      </trkpt>
      <trkpt lat="46.55099" lon="5.24389">
        <ele>208.2</ele>
        <time>2022-08-18T13:35:58Z</time>
      </trkpt>
      <trkpt lat="46.55129" lon="5.24373">
        <ele>207.8</ele>
        <time>2022-08-18T13:36:02Z</time>
      </trkpt>
      <trkpt lat="46.55137" lon="5.2437">
        <ele>207.6</ele>
        <time>2022-08-18T13:36:03Z</time>
      </trkpt>
      <trkpt lat="46.55162" lon="5.24363">
        <ele>206.6</ele>
        <time>2022-08-18T13:36:06Z</time>
      </trkpt>
      <trkpt lat="46.55179" lon="5.2436">
        <ele>206</ele>
        <time>2022-08-18T13:36:08Z</time>
      </trkpt>
      <trkpt lat="46.55196" lon="5.24358">
        <ele>205.6</ele>
        <time>2022-08-18T13:36:10Z</time>
      </trkpt>
      <trkpt lat="46.55253" lon="5.24353">
        <ele>204.8</ele>
        <time>2022-08-18T13:36:17Z</time>
      </trkpt>
      <trkpt lat="46.55277" lon="5.24351">
        <ele>204.6</ele>
        <time>2022-08-18T13:36:20Z</time>
      </trkpt>
      <trkpt lat="46.55331" lon="5.24348">
        <ele>204.4</ele>
        <time>2022-08-18T13:36:27Z</time>
      </trkpt>
      <trkpt lat="46.55338" lon="5.24347">
        <ele>204.6</ele>
        <time>2022-08-18T13:36:28Z</time>
      </trkpt>
      <trkpt lat="46.55387" lon="5.24343">
        <ele>205</ele>
        <time>2022-08-18T13:36:35Z</time>
      </trkpt>
      <trkpt lat="46.5544" lon="5.24339">
        <ele>204.8</ele>
        <time>2022-08-18T13:36:42Z</time>
      </trkpt>
      <trkpt lat="46.55478" lon="5.24336">
        <ele>204.4</ele>
        <time>2022-08-18T13:36:47Z</time>
      </trkpt>
      <trkpt lat="46.55527" lon="5.24333">
        <ele>204</ele>
        <time>2022-08-18T13:36:53Z</time>
      </trkpt>
      <trkpt lat="46.55583" lon="5.24327">
        <ele>203.4</ele>
        <time>2022-08-18T13:37:00Z</time>
      </trkpt>
      <trkpt lat="46.55608" lon="5.24325">
        <ele>203.2</ele>
        <time>2022-08-18T13:37:03Z</time>
      </trkpt>
      <trkpt lat="46.55663" lon="5.24321">
        <ele>202.8</ele>
        <time>2022-08-18T13:37:10Z</time>
      </trkpt>
      <trkpt lat="46.55692" lon="5.2432">
        <ele>203</ele>
        <time>2022-08-18T13:37:14Z</time>
      </trkpt>
      <trkpt lat="46.55747" lon="5.24316">
        <ele>203.4</ele>
        <time>2022-08-18T13:37:22Z</time>
      </trkpt>
      <trkpt lat="46.55779" lon="5.24314">
        <ele>204</ele>
        <time>2022-08-18T13:37:27Z</time>
      </trkpt>
      <trkpt lat="46.55798" lon="5.24313">
        <ele>204.2</ele>
        <time>2022-08-18T13:37:30Z</time>
      </trkpt>
      <trkpt lat="46.5581" lon="5.24312">
        <ele>204.4</ele>
        <time>2022-08-18T13:37:32Z</time>
      </trkpt>
      <trkpt lat="46.55853" lon="5.24308">
        <ele>204.8</ele>
        <time>2022-08-18T13:37:39Z</time>
      </trkpt>
      <trkpt lat="46.5589" lon="5.24306">
        <ele>205.4</ele>
        <time>2022-08-18T13:37:45Z</time>
      </trkpt>
      <trkpt lat="46.55909" lon="5.24305">
        <ele>205.6</ele>
        <time>2022-08-18T13:37:48Z</time>
      </trkpt>
      <trkpt lat="46.55943" lon="5.24305">
        <ele>206.4</ele>
        <time>2022-08-18T13:37:54Z</time>
      </trkpt>
      <trkpt lat="46.55961" lon="5.24306">
        <ele>207.2</ele>
        <time>2022-08-18T13:37:57Z</time>
      </trkpt>
      <trkpt lat="46.55966" lon="5.24306">
        <ele>207.6</ele>
        <time>2022-08-18T13:37:58Z</time>
      </trkpt>
      <trkpt lat="46.56015" lon="5.24317">
        <ele>208.2</ele>
        <time>2022-08-18T13:38:06Z</time>
      </trkpt>
      <trkpt lat="46.56041" lon="5.24324">
        <ele>208.6</ele>
        <time>2022-08-18T13:38:10Z</time>
      </trkpt>
      <trkpt lat="46.56066" lon="5.24333">
        <ele>209.2</ele>
        <time>2022-08-18T13:38:14Z</time>
      </trkpt>
      <trkpt lat="46.56123" lon="5.24352">
        <ele>209.2</ele>
        <time>2022-08-18T13:38:23Z</time>
      </trkpt>
      <trkpt lat="46.56136" lon="5.24356">
        <ele>209.2</ele>
        <time>2022-08-18T13:38:25Z</time>
      </trkpt>
      <trkpt lat="46.56185" lon="5.24374">
        <ele>209.6</ele>
        <time>2022-08-18T13:38:33Z</time>
      </trkpt>
      <trkpt lat="46.56198" lon="5.24378">
        <ele>209.6</ele>
        <time>2022-08-18T13:38:35Z</time>
      </trkpt>
      <trkpt lat="46.56255" lon="5.24397">
        <ele>209.6</ele>
        <time>2022-08-18T13:38:44Z</time>
      </trkpt>
      <trkpt lat="46.56268" lon="5.24402">
        <ele>209.8</ele>
        <time>2022-08-18T13:38:46Z</time>
      </trkpt>
      <trkpt lat="46.56326" lon="5.24422">
        <ele>209.6</ele>
        <time>2022-08-18T13:38:55Z</time>
      </trkpt>
      <trkpt lat="46.56333" lon="5.24424">
        <ele>209.4</ele>
        <time>2022-08-18T13:38:56Z</time>
      </trkpt>
      <trkpt lat="46.56372" lon="5.24438">
        <ele>209.2</ele>
        <time>2022-08-18T13:39:01Z</time>
      </trkpt>
      <trkpt lat="46.56428" lon="5.24457">
        <ele>208.4</ele>
        <time>2022-08-18T13:39:08Z</time>
      </trkpt>
      <trkpt lat="46.56479" lon="5.24474">
        <ele>207.2</ele>
        <time>2022-08-18T13:39:14Z</time>
      </trkpt>
      <trkpt lat="46.56513" lon="5.24486">
        <ele>206.2</ele>
        <time>2022-08-18T13:39:18Z</time>
      </trkpt>
      <trkpt lat="46.56555" lon="5.245">
        <ele>205.2</ele>
        <time>2022-08-18T13:39:23Z</time>
      </trkpt>
      <trkpt lat="46.56579" lon="5.24509">
        <ele>204.6</ele>
        <time>2022-08-18T13:39:26Z</time>
      </trkpt>
      <trkpt lat="46.56612" lon="5.2452">
        <ele>204</ele>
        <time>2022-08-18T13:39:30Z</time>
      </trkpt>
      <trkpt lat="46.56656" lon="5.24536">
        <ele>203.2</ele>
        <time>2022-08-18T13:39:35Z</time>
      </trkpt>
      <trkpt lat="46.56665" lon="5.24539">
        <ele>202.8</ele>
        <time>2022-08-18T13:39:36Z</time>
      </trkpt>
      <trkpt lat="46.56702" lon="5.24552">
        <ele>201.6</ele>
        <time>2022-08-18T13:39:40Z</time>
      </trkpt>
      <trkpt lat="46.5673" lon="5.24561">
        <ele>200.4</ele>
        <time>2022-08-18T13:39:43Z</time>
      </trkpt>
      <trkpt lat="46.5674" lon="5.24564">
        <ele>200</ele>
        <time>2022-08-18T13:39:44Z</time>
      </trkpt>
      <trkpt lat="46.56777" lon="5.24578">
        <ele>199.2</ele>
        <time>2022-08-18T13:39:48Z</time>
      </trkpt>
      <trkpt lat="46.56795" lon="5.24584">
        <ele>198.2</ele>
        <time>2022-08-18T13:39:50Z</time>
      </trkpt>
      <trkpt lat="46.56822" lon="5.24594">
        <ele>197</ele>
        <time>2022-08-18T13:39:53Z</time>
      </trkpt>
      <trkpt lat="46.56856" lon="5.24606">
        <ele>196</ele>
        <time>2022-08-18T13:39:57Z</time>
      </trkpt>
      <trkpt lat="46.56873" lon="5.24612">
        <ele>195.4</ele>
        <time>2022-08-18T13:39:59Z</time>
      </trkpt>
      <trkpt lat="46.5689" lon="5.24618">
        <ele>194.8</ele>
        <time>2022-08-18T13:40:01Z</time>
      </trkpt>
      <trkpt lat="46.56942" lon="5.24636">
        <ele>194.2</ele>
        <time>2022-08-18T13:40:07Z</time>
      </trkpt>
      <trkpt lat="46.56969" lon="5.24645">
        <ele>193.6</ele>
        <time>2022-08-18T13:40:10Z</time>
      </trkpt>
      <trkpt lat="46.57023" lon="5.24664">
        <ele>192.4</ele>
        <time>2022-08-18T13:40:16Z</time>
      </trkpt>
      <trkpt lat="46.57067" lon="5.24678">
        <ele>191.4</ele>
        <time>2022-08-18T13:40:21Z</time>
      </trkpt>
      <trkpt lat="46.57101" lon="5.2469">
        <ele>190.2</ele>
        <time>2022-08-18T13:40:25Z</time>
      </trkpt>
      <trkpt lat="46.57145" lon="5.24698">
        <ele>189.2</ele>
        <time>2022-08-18T13:40:30Z</time>
      </trkpt>
      <trkpt lat="46.57189" lon="5.24685">
        <ele>188.2</ele>
        <time>2022-08-18T13:40:35Z</time>
      </trkpt>
      <trkpt lat="46.57238" lon="5.24666">
        <ele>187</ele>
        <time>2022-08-18T13:40:41Z</time>
      </trkpt>
      <trkpt lat="46.57263" lon="5.24656">
        <ele>186.6</ele>
        <time>2022-08-18T13:40:44Z</time>
      </trkpt>
      <trkpt lat="46.57278" lon="5.24658">
        <ele>186.4</ele>
        <time>2022-08-18T13:40:46Z</time>
      </trkpt>
      <trkpt lat="46.57284" lon="5.24664">
        <ele>186.2</ele>
        <time>2022-08-18T13:40:47Z</time>
      </trkpt>
      <trkpt lat="46.57288" lon="5.24673">
        <ele>186</ele>
        <time>2022-08-18T13:40:48Z</time>
      </trkpt>
      <trkpt lat="46.57295" lon="5.24694">
        <ele>185.6</ele>
        <time>2022-08-18T13:40:50Z</time>
      </trkpt>
      <trkpt lat="46.57299" lon="5.24704">
        <ele>185.6</ele>
        <time>2022-08-18T13:40:51Z</time>
      </trkpt>
      <trkpt lat="46.57308" lon="5.24723">
        <ele>185.4</ele>
        <time>2022-08-18T13:40:53Z</time>
      </trkpt>
      <trkpt lat="46.57314" lon="5.24731">
        <ele>185.4</ele>
        <time>2022-08-18T13:40:54Z</time>
      </trkpt>
      <trkpt lat="46.57351" lon="5.24768">
        <ele>185.2</ele>
        <time>2022-08-18T13:41:00Z</time>
      </trkpt>
      <trkpt lat="46.57369" lon="5.24787">
        <ele>185.4</ele>
        <time>2022-08-18T13:41:03Z</time>
      </trkpt>
      <trkpt lat="46.57379" lon="5.24803">
        <ele>185.6</ele>
        <time>2022-08-18T13:41:05Z</time>
      </trkpt>
      <trkpt lat="46.57397" lon="5.24839">
        <ele>186</ele>
        <time>2022-08-18T13:41:09Z</time>
      </trkpt>
      <trkpt lat="46.57401" lon="5.24848">
        <ele>186</ele>
        <time>2022-08-18T13:41:10Z</time>
      </trkpt>
      <trkpt lat="46.57425" lon="5.249">
        <ele>186.2</ele>
        <time>2022-08-18T13:41:16Z</time>
      </trkpt>
      <trkpt lat="46.57457" lon="5.24967">
        <ele>186.6</ele>
        <time>2022-08-18T13:41:24Z</time>
      </trkpt>
      <trkpt lat="46.57461" lon="5.24976">
        <ele>186.6</ele>
        <time>2022-08-18T13:41:25Z</time>
      </trkpt>
      <trkpt lat="46.5749" lon="5.25042">
        <ele>186.6</ele>
        <time>2022-08-18T13:41:33Z</time>
      </trkpt>
      <trkpt lat="46.57518" lon="5.25097">
        <ele>186.8</ele>
        <time>2022-08-18T13:41:40Z</time>
      </trkpt>
      <trkpt lat="46.57543" lon="5.25125">
        <ele>187</ele>
        <time>2022-08-18T13:41:45Z</time>
      </trkpt>
      <trkpt lat="46.57564" lon="5.2514">
        <ele>187.2</ele>
        <time>2022-08-18T13:41:49Z</time>
      </trkpt>
      <trkpt lat="46.5757" lon="5.25142">
        <ele>187.4</ele>
        <time>2022-08-18T13:41:50Z</time>
      </trkpt>
      <trkpt lat="46.57575" lon="5.25144">
        <ele>187.4</ele>
        <time>2022-08-18T13:41:51Z</time>
      </trkpt>
      <trkpt lat="46.57609" lon="5.25147">
        <ele>188.4</ele>
        <time>2022-08-18T13:41:57Z</time>
      </trkpt>
      <trkpt lat="46.57642" lon="5.25136">
        <ele>189.2</ele>
        <time>2022-08-18T13:42:03Z</time>
      </trkpt>
      <trkpt lat="46.57647" lon="5.25133">
        <ele>189.6</ele>
        <time>2022-08-18T13:42:04Z</time>
      </trkpt>
      <trkpt lat="46.57678" lon="5.25114">
        <ele>190.6</ele>
        <time>2022-08-18T13:42:10Z</time>
      </trkpt>
      <trkpt lat="46.57683" lon="5.25111">
        <ele>191</ele>
        <time>2022-08-18T13:42:11Z</time>
      </trkpt>
      <trkpt lat="46.5771" lon="5.25103">
        <ele>192</ele>
        <time>2022-08-18T13:42:16Z</time>
      </trkpt>
      <trkpt lat="46.57721" lon="5.25101">
        <ele>192.2</ele>
        <time>2022-08-18T13:42:18Z</time>
      </trkpt>
      <trkpt lat="46.57749" lon="5.25101">
        <ele>193</ele>
        <time>2022-08-18T13:42:23Z</time>
      </trkpt>
      <trkpt lat="46.57786" lon="5.25102">
        <ele>194</ele>
        <time>2022-08-18T13:42:29Z</time>
      </trkpt>
      <trkpt lat="46.57792" lon="5.25102">
        <ele>194.2</ele>
        <time>2022-08-18T13:42:30Z</time>
      </trkpt>
      <trkpt lat="46.57839" lon="5.25103">
        <ele>194.4</ele>
        <time>2022-08-18T13:42:37Z</time>
      </trkpt>
      <trkpt lat="46.57898" lon="5.25103">
        <ele>193.4</ele>
        <time>2022-08-18T13:42:45Z</time>
      </trkpt>
      <trkpt lat="46.57913" lon="5.25103">
        <ele>193</ele>
        <time>2022-08-18T13:42:47Z</time>
      </trkpt>
      <trkpt lat="46.57936" lon="5.25102">
        <ele>192.4</ele>
        <time>2022-08-18T13:42:50Z</time>
      </trkpt>
      <trkpt lat="46.57951" lon="5.25099">
        <ele>192</ele>
        <time>2022-08-18T13:42:52Z</time>
      </trkpt>
      <trkpt lat="46.57958" lon="5.251">
        <ele>191.8</ele>
        <time>2022-08-18T13:42:53Z</time>
      </trkpt>
      <trkpt lat="46.57965" lon="5.25105">
        <ele>191.6</ele>
        <time>2022-08-18T13:42:54Z</time>
      </trkpt>
      <trkpt lat="46.57969" lon="5.25113">
        <ele>191.4</ele>
        <time>2022-08-18T13:42:55Z</time>
      </trkpt>
      <trkpt lat="46.57966" lon="5.25132">
        <ele>191.4</ele>
        <time>2022-08-18T13:42:57Z</time>
      </trkpt>
      <trkpt lat="46.57951" lon="5.25141">
        <ele>190.8</ele>
        <time>2022-08-18T13:42:59Z</time>
      </trkpt>
      <trkpt lat="46.57934" lon="5.25139">
        <ele>190</ele>
        <time>2022-08-18T13:43:01Z</time>
      </trkpt>
      <trkpt lat="46.57908" lon="5.25134">
        <ele>189.2</ele>
        <time>2022-08-18T13:43:04Z</time>
      </trkpt>
      <trkpt lat="46.57899" lon="5.25133">
        <ele>189</ele>
        <time>2022-08-18T13:43:05Z</time>
      </trkpt>
      <trkpt lat="46.57841" lon="5.25128">
        <ele>188.2</ele>
        <time>2022-08-18T13:43:12Z</time>
      </trkpt>
      <trkpt lat="46.57817" lon="5.25135">
        <ele>187.8</ele>
        <time>2022-08-18T13:43:15Z</time>
      </trkpt>
      <trkpt lat="46.57809" lon="5.25139">
        <ele>187.8</ele>
        <time>2022-08-18T13:43:16Z</time>
      </trkpt>
      <trkpt lat="46.57768" lon="5.25172">
        <ele>187.4</ele>
        <time>2022-08-18T13:43:22Z</time>
      </trkpt>
      <trkpt lat="46.57721" lon="5.25212">
        <ele>187.4</ele>
        <time>2022-08-18T13:43:29Z</time>
      </trkpt>
      <trkpt lat="46.57702" lon="5.25229">
        <ele>187.6</ele>
        <time>2022-08-18T13:43:32Z</time>
      </trkpt>
      <trkpt lat="46.57651" lon="5.25272">
        <ele>187.8</ele>
        <time>2022-08-18T13:43:40Z</time>
      </trkpt>
      <trkpt lat="46.57639" lon="5.25282">
        <ele>187.8</ele>
        <time>2022-08-18T13:43:42Z</time>
      </trkpt>
      <trkpt lat="46.57611" lon="5.25305">
        <ele>188.4</ele>
        <time>2022-08-18T13:43:47Z</time>
      </trkpt>
      <trkpt lat="46.57594" lon="5.25318">
        <ele>188.8</ele>
        <time>2022-08-18T13:43:50Z</time>
      </trkpt>
      <trkpt lat="46.57584" lon="5.25329">
        <ele>189.2</ele>
        <time>2022-08-18T13:43:52Z</time>
      </trkpt>
      <trkpt lat="46.5758" lon="5.25335">
        <ele>189.4</ele>
        <time>2022-08-18T13:43:53Z</time>
      </trkpt>
      <trkpt lat="46.57577" lon="5.25341">
        <ele>189.8</ele>
        <time>2022-08-18T13:43:54Z</time>
      </trkpt>
      <trkpt lat="46.57574" lon="5.25349">
        <ele>190</ele>
        <time>2022-08-18T13:43:55Z</time>
      </trkpt>
      <trkpt lat="46.57571" lon="5.25357">
        <ele>190.2</ele>
        <time>2022-08-18T13:43:56Z</time>
      </trkpt>
      <trkpt lat="46.57568" lon="5.25367">
        <ele>190.4</ele>
        <time>2022-08-18T13:43:57Z</time>
      </trkpt>
      <trkpt lat="46.57567" lon="5.25377">
        <ele>190.4</ele>
        <time>2022-08-18T13:43:58Z</time>
      </trkpt>
      <trkpt lat="46.57567" lon="5.25413">
        <ele>190.6</ele>
        <time>2022-08-18T13:44:02Z</time>
      </trkpt>
      <trkpt lat="46.57569" lon="5.25437">
        <ele>191</ele>
        <time>2022-08-18T13:44:05Z</time>
      </trkpt>
      <trkpt lat="46.5757" lon="5.25457">
        <ele>191.6</ele>
        <time>2022-08-18T13:44:08Z</time>
      </trkpt>
      <trkpt lat="46.57572" lon="5.25469">
        <ele>192</ele>
        <time>2022-08-18T13:44:10Z</time>
      </trkpt>
      <trkpt lat="46.57572" lon="5.25475">
        <ele>192.6</ele>
        <time>2022-08-18T13:44:11Z</time>
      </trkpt>
      <trkpt lat="46.57574" lon="5.25498">
        <ele>193.8</ele>
        <time>2022-08-18T13:44:15Z</time>
      </trkpt>
      <trkpt lat="46.57575" lon="5.25522">
        <ele>194.8</ele>
        <time>2022-08-18T13:44:19Z</time>
      </trkpt>
      <trkpt lat="46.57577" lon="5.25539">
        <ele>196</ele>
        <time>2022-08-18T13:44:22Z</time>
      </trkpt>
      <trkpt lat="46.57579" lon="5.25562">
        <ele>197.2</ele>
        <time>2022-08-18T13:44:26Z</time>
      </trkpt>
      <trkpt lat="46.57581" lon="5.25574">
        <ele>198</ele>
        <time>2022-08-18T13:44:28Z</time>
      </trkpt>
      <trkpt lat="46.57581" lon="5.25579">
        <ele>198.2</ele>
        <time>2022-08-18T13:44:29Z</time>
      </trkpt>
      <trkpt lat="46.57585" lon="5.25596">
        <ele>199.4</ele>
        <time>2022-08-18T13:44:32Z</time>
      </trkpt>
      <trkpt lat="46.57587" lon="5.25607">
        <ele>200.2</ele>
        <time>2022-08-18T13:44:34Z</time>
      </trkpt>
      <trkpt lat="46.5759" lon="5.25616">
        <ele>200.8</ele>
        <time>2022-08-18T13:44:36Z</time>
      </trkpt>
      <trkpt lat="46.57596" lon="5.25635">
        <ele>202</ele>
        <time>2022-08-18T13:44:40Z</time>
      </trkpt>
      <trkpt lat="46.576" lon="5.25649">
        <ele>203</ele>
        <time>2022-08-18T13:44:44Z</time>
      </trkpt>
      <trkpt lat="46.57607" lon="5.25672">
        <ele>204.2</ele>
        <time>2022-08-18T13:44:49Z</time>
      </trkpt>
      <trkpt lat="46.57608" lon="5.25677">
        <ele>204.2</ele>
        <time>2022-08-18T13:44:50Z</time>
      </trkpt>
      <trkpt lat="46.57613" lon="5.25694">
        <ele>205.4</ele>
        <time>2022-08-18T13:44:54Z</time>
      </trkpt>
      <trkpt lat="46.57621" lon="5.25723">
        <ele>206.4</ele>
        <time>2022-08-18T13:44:59Z</time>
      </trkpt>
      <trkpt lat="46.57629" lon="5.25752">
        <ele>207</ele>
        <time>2022-08-18T13:45:04Z</time>
      </trkpt>
      <trkpt lat="46.57633" lon="5.25764">
        <ele>207.2</ele>
        <time>2022-08-18T13:45:06Z</time>
      </trkpt>
      <trkpt lat="46.57641" lon="5.2579">
        <ele>207.6</ele>
        <time>2022-08-18T13:45:10Z</time>
      </trkpt>
      <trkpt lat="46.57648" lon="5.25815">
        <ele>208.4</ele>
        <time>2022-08-18T13:45:14Z</time>
      </trkpt>
      <trkpt lat="46.57649" lon="5.25821">
        <ele>208.6</ele>
        <time>2022-08-18T13:45:15Z</time>
      </trkpt>
      <trkpt lat="46.57651" lon="5.25828">
        <ele>208.6</ele>
        <time>2022-08-18T13:45:16Z</time>
      </trkpt>
      <trkpt lat="46.57657" lon="5.25849">
        <ele>208.6</ele>
        <time>2022-08-18T13:45:19Z</time>
      </trkpt>
      <trkpt lat="46.57669" lon="5.25883">
        <ele>208.8</ele>
        <time>2022-08-18T13:45:23Z</time>
      </trkpt>
      <trkpt lat="46.57687" lon="5.2594">
        <ele>208.8</ele>
        <time>2022-08-18T13:45:29Z</time>
      </trkpt>
      <trkpt lat="46.57701" lon="5.25992">
        <ele>208.4</ele>
        <time>2022-08-18T13:45:34Z</time>
      </trkpt>
      <trkpt lat="46.57722" lon="5.26049">
        <ele>207.6</ele>
        <time>2022-08-18T13:45:39Z</time>
      </trkpt>
      <trkpt lat="46.57736" lon="5.26087">
        <ele>206.6</ele>
        <time>2022-08-18T13:45:42Z</time>
      </trkpt>
      <trkpt lat="46.5775" lon="5.26126">
        <ele>205.6</ele>
        <time>2022-08-18T13:45:45Z</time>
      </trkpt>
      <trkpt lat="46.57765" lon="5.26162">
        <ele>204.4</ele>
        <time>2022-08-18T13:45:48Z</time>
      </trkpt>
      <trkpt lat="46.57786" lon="5.26219">
        <ele>203.6</ele>
        <time>2022-08-18T13:45:53Z</time>
      </trkpt>
      <trkpt lat="46.57794" lon="5.26241">
        <ele>203.4</ele>
        <time>2022-08-18T13:45:55Z</time>
      </trkpt>
      <trkpt lat="46.57809" lon="5.26283">
        <ele>203</ele>
        <time>2022-08-18T13:45:59Z</time>
      </trkpt>
      <trkpt lat="46.57827" lon="5.26328">
        <ele>203.2</ele>
        <time>2022-08-18T13:46:04Z</time>
      </trkpt>
      <trkpt lat="46.57846" lon="5.26381">
        <ele>204.6</ele>
        <time>2022-08-18T13:46:11Z</time>
      </trkpt>
      <trkpt lat="46.57856" lon="5.26407">
        <ele>206</ele>
        <time>2022-08-18T13:46:15Z</time>
      </trkpt>
      <trkpt lat="46.57861" lon="5.2642">
        <ele>206.4</ele>
        <time>2022-08-18T13:46:17Z</time>
      </trkpt>
      <trkpt lat="46.57869" lon="5.26441">
        <ele>207.4</ele>
        <time>2022-08-18T13:46:20Z</time>
      </trkpt>
      <trkpt lat="46.5788" lon="5.2647">
        <ele>208</ele>
        <time>2022-08-18T13:46:24Z</time>
      </trkpt>
      <trkpt lat="46.57883" lon="5.26478">
        <ele>208.4</ele>
        <time>2022-08-18T13:46:25Z</time>
      </trkpt>
      <trkpt lat="46.57904" lon="5.26533">
        <ele>209.6</ele>
        <time>2022-08-18T13:46:32Z</time>
      </trkpt>
      <trkpt lat="46.57909" lon="5.26549">
        <ele>209.6</ele>
        <time>2022-08-18T13:46:34Z</time>
      </trkpt>
      <trkpt lat="46.57924" lon="5.26588">
        <ele>209.8</ele>
        <time>2022-08-18T13:46:39Z</time>
      </trkpt>
      <trkpt lat="46.57954" lon="5.2665">
        <ele>210.2</ele>
        <time>2022-08-18T13:46:47Z</time>
      </trkpt>
      <trkpt lat="46.57992" lon="5.2671">
        <ele>210</ele>
        <time>2022-08-18T13:46:55Z</time>
      </trkpt>
      <trkpt lat="46.57997" lon="5.26718">
        <ele>209.8</ele>
        <time>2022-08-18T13:46:56Z</time>
      </trkpt>
      <trkpt lat="46.58037" lon="5.26781">
        <ele>209.4</ele>
        <time>2022-08-18T13:47:04Z</time>
      </trkpt>
      <trkpt lat="46.58042" lon="5.26789">
        <ele>209.4</ele>
        <time>2022-08-18T13:47:05Z</time>
      </trkpt>
      <trkpt lat="46.58084" lon="5.26853">
        <ele>209.2</ele>
        <time>2022-08-18T13:47:13Z</time>
      </trkpt>
      <trkpt lat="46.58089" lon="5.26861">
        <ele>209.2</ele>
        <time>2022-08-18T13:47:14Z</time>
      </trkpt>
      <trkpt lat="46.58129" lon="5.26922">
        <ele>209.4</ele>
        <time>2022-08-18T13:47:22Z</time>
      </trkpt>
      <trkpt lat="46.58138" lon="5.26937">
        <ele>209.4</ele>
        <time>2022-08-18T13:47:24Z</time>
      </trkpt>
      <trkpt lat="46.58178" lon="5.26999">
        <ele>210</ele>
        <time>2022-08-18T13:47:32Z</time>
      </trkpt>
      <trkpt lat="46.58183" lon="5.27007">
        <ele>209.6</ele>
        <time>2022-08-18T13:47:33Z</time>
      </trkpt>
      <trkpt lat="46.58216" lon="5.27058">
        <ele>209.6</ele>
        <time>2022-08-18T13:47:40Z</time>
      </trkpt>
      <trkpt lat="46.58229" lon="5.27079">
        <ele>209.6</ele>
        <time>2022-08-18T13:47:43Z</time>
      </trkpt>
      <trkpt lat="46.58237" lon="5.27092">
        <ele>209.4</ele>
        <time>2022-08-18T13:47:45Z</time>
      </trkpt>
      <trkpt lat="46.58241" lon="5.27098">
        <ele>209.4</ele>
        <time>2022-08-18T13:47:46Z</time>
      </trkpt>
      <trkpt lat="46.58246" lon="5.27107">
        <ele>209.2</ele>
        <time>2022-08-18T13:47:48Z</time>
      </trkpt>
      <trkpt lat="46.58247" lon="5.27111">
        <ele>209.2</ele>
        <time>2022-08-18T13:47:49Z</time>
      </trkpt>
      <trkpt lat="46.58246" lon="5.27115">
        <ele>209</ele>
        <time>2022-08-18T13:47:52Z</time>
      </trkpt>
      <trkpt lat="46.58249" lon="5.27119">
        <ele>209</ele>
        <time>2022-08-18T13:48:02Z</time>
      </trkpt>
      <trkpt lat="46.58256" lon="5.2712">
        <ele>208.8</ele>
        <time>2022-08-18T13:48:04Z</time>
      </trkpt>
      <trkpt lat="46.5826" lon="5.27123">
        <ele>208.8</ele>
        <time>2022-08-18T13:48:05Z</time>
      </trkpt>
      <trkpt lat="46.58268" lon="5.27135">
        <ele>208.8</ele>
        <time>2022-08-18T13:48:07Z</time>
      </trkpt>
      <trkpt lat="46.58294" lon="5.27169">
        <ele>208.6</ele>
        <time>2022-08-18T13:48:12Z</time>
      </trkpt>
      <trkpt lat="46.58299" lon="5.27176">
        <ele>208.6</ele>
        <time>2022-08-18T13:48:13Z</time>
      </trkpt>
      <trkpt lat="46.58335" lon="5.27218">
        <ele>208.4</ele>
        <time>2022-08-18T13:48:19Z</time>
      </trkpt>
      <trkpt lat="46.58385" lon="5.27268">
        <ele>209.6</ele>
        <time>2022-08-18T13:48:27Z</time>
      </trkpt>
      <trkpt lat="46.58433" lon="5.27319">
        <ele>209.6</ele>
        <time>2022-08-18T13:48:35Z</time>
      </trkpt>
      <trkpt lat="46.58474" lon="5.27381">
        <ele>209.6</ele>
        <time>2022-08-18T13:48:43Z</time>
      </trkpt>
      <trkpt lat="46.58505" lon="5.27441">
        <ele>208.8</ele>
        <time>2022-08-18T13:48:50Z</time>
      </trkpt>
      <trkpt lat="46.58521" lon="5.27477">
        <ele>208.6</ele>
        <time>2022-08-18T13:48:54Z</time>
      </trkpt>
      <trkpt lat="46.5854" lon="5.27523">
        <ele>208.6</ele>
        <time>2022-08-18T13:48:59Z</time>
      </trkpt>
      <trkpt lat="46.58543" lon="5.27533">
        <ele>208.6</ele>
        <time>2022-08-18T13:49:00Z</time>
      </trkpt>
      <trkpt lat="46.58545" lon="5.27556">
        <ele>208.6</ele>
        <time>2022-08-18T13:49:02Z</time>
      </trkpt>
      <trkpt lat="46.58544" lon="5.27568">
        <ele>208.6</ele>
        <time>2022-08-18T13:49:03Z</time>
      </trkpt>
      <trkpt lat="46.58534" lon="5.27634">
        <ele>208.6</ele>
        <time>2022-08-18T13:49:09Z</time>
      </trkpt>
      <trkpt lat="46.58519" lon="5.27719">
        <ele>208.6</ele>
        <time>2022-08-18T13:49:17Z</time>
      </trkpt>
      <trkpt lat="46.58514" lon="5.27742">
        <ele>208.4</ele>
        <time>2022-08-18T13:49:19Z</time>
      </trkpt>
      <trkpt lat="46.58502" lon="5.27792">
        <ele>208</ele>
        <time>2022-08-18T13:49:23Z</time>
      </trkpt>
      <trkpt lat="46.58495" lon="5.27819">
        <ele>207.2</ele>
        <time>2022-08-18T13:49:25Z</time>
      </trkpt>
      <trkpt lat="46.58483" lon="5.27875">
        <ele>205.6</ele>
        <time>2022-08-18T13:49:29Z</time>
      </trkpt>
      <trkpt lat="46.58473" lon="5.2792">
        <ele>204</ele>
        <time>2022-08-18T13:49:32Z</time>
      </trkpt>
      <trkpt lat="46.58461" lon="5.27966">
        <ele>202.6</ele>
        <time>2022-08-18T13:49:35Z</time>
      </trkpt>
      <trkpt lat="46.58456" lon="5.27997">
        <ele>201.4</ele>
        <time>2022-08-18T13:49:37Z</time>
      </trkpt>
      <trkpt lat="46.58454" lon="5.28013">
        <ele>200.4</ele>
        <time>2022-08-18T13:49:38Z</time>
      </trkpt>
      <trkpt lat="46.58453" lon="5.28028">
        <ele>199.6</ele>
        <time>2022-08-18T13:49:39Z</time>
      </trkpt>
      <trkpt lat="46.58452" lon="5.28043">
        <ele>199.2</ele>
        <time>2022-08-18T13:49:40Z</time>
      </trkpt>
      <trkpt lat="46.58456" lon="5.28072">
        <ele>198</ele>
        <time>2022-08-18T13:49:42Z</time>
      </trkpt>
      <trkpt lat="46.58467" lon="5.28096">
        <ele>197.4</ele>
        <time>2022-08-18T13:49:44Z</time>
      </trkpt>
      <trkpt lat="46.58474" lon="5.28107">
        <ele>196.8</ele>
        <time>2022-08-18T13:49:45Z</time>
      </trkpt>
      <trkpt lat="46.58493" lon="5.28138">
        <ele>195.8</ele>
        <time>2022-08-18T13:49:48Z</time>
      </trkpt>
      <trkpt lat="46.58499" lon="5.28148">
        <ele>195.4</ele>
        <time>2022-08-18T13:49:49Z</time>
      </trkpt>
      <trkpt lat="46.58533" lon="5.28205">
        <ele>194.6</ele>
        <time>2022-08-18T13:49:55Z</time>
      </trkpt>
      <trkpt lat="46.58539" lon="5.28214">
        <ele>194.6</ele>
        <time>2022-08-18T13:49:56Z</time>
      </trkpt>
      <trkpt lat="46.58576" lon="5.28273">
        <ele>194.8</ele>
        <time>2022-08-18T13:50:03Z</time>
      </trkpt>
      <trkpt lat="46.58613" lon="5.28336">
        <ele>195.2</ele>
        <time>2022-08-18T13:50:11Z</time>
      </trkpt>
      <trkpt lat="46.58618" lon="5.28343">
        <ele>195.4</ele>
        <time>2022-08-18T13:50:12Z</time>
      </trkpt>
      <trkpt lat="46.58627" lon="5.28357">
        <ele>195.8</ele>
        <time>2022-08-18T13:50:14Z</time>
      </trkpt>
      <trkpt lat="46.58651" lon="5.28399">
        <ele>196.2</ele>
        <time>2022-08-18T13:50:20Z</time>
      </trkpt>
      <trkpt lat="46.5867" lon="5.28432">
        <ele>196.8</ele>
        <time>2022-08-18T13:50:25Z</time>
      </trkpt>
      <trkpt lat="46.58682" lon="5.28451">
        <ele>197.2</ele>
        <time>2022-08-18T13:50:28Z</time>
      </trkpt>
      <trkpt lat="46.5871" lon="5.28499">
        <ele>198</ele>
        <time>2022-08-18T13:50:36Z</time>
      </trkpt>
      <trkpt lat="46.58713" lon="5.28504">
        <ele>198.2</ele>
        <time>2022-08-18T13:50:37Z</time>
      </trkpt>
      <trkpt lat="46.58722" lon="5.2852">
        <ele>199</ele>
        <time>2022-08-18T13:50:40Z</time>
      </trkpt>
      <trkpt lat="46.58733" lon="5.28541">
        <ele>200.2</ele>
        <time>2022-08-18T13:50:44Z</time>
      </trkpt>
      <trkpt lat="46.58737" lon="5.28546">
        <ele>200.4</ele>
        <time>2022-08-18T13:50:45Z</time>
      </trkpt>
      <trkpt lat="46.58753" lon="5.28571">
        <ele>201.4</ele>
        <time>2022-08-18T13:50:50Z</time>
      </trkpt>
      <trkpt lat="46.58765" lon="5.28591">
        <ele>202.6</ele>
        <time>2022-08-18T13:50:54Z</time>
      </trkpt>
      <trkpt lat="46.58768" lon="5.28596">
        <ele>202.6</ele>
        <time>2022-08-18T13:50:55Z</time>
      </trkpt>
      <trkpt lat="46.58783" lon="5.28621">
        <ele>203.6</ele>
        <time>2022-08-18T13:51:00Z</time>
      </trkpt>
      <trkpt lat="46.58788" lon="5.28631">
        <ele>204.2</ele>
        <time>2022-08-18T13:51:02Z</time>
      </trkpt>
      <trkpt lat="46.58796" lon="5.28646">
        <ele>204.8</ele>
        <time>2022-08-18T13:51:05Z</time>
      </trkpt>
      <trkpt lat="46.58802" lon="5.28656">
        <ele>205.2</ele>
        <time>2022-08-18T13:51:07Z</time>
      </trkpt>
      <trkpt lat="46.58806" lon="5.28661">
        <ele>205.4</ele>
        <time>2022-08-18T13:51:08Z</time>
      </trkpt>
      <trkpt lat="46.58825" lon="5.28677">
        <ele>206</ele>
        <time>2022-08-18T13:51:12Z</time>
      </trkpt>
      <trkpt lat="46.5883" lon="5.2868">
        <ele>206.4</ele>
        <time>2022-08-18T13:51:13Z</time>
      </trkpt>
      <trkpt lat="46.58851" lon="5.28692">
        <ele>207.2</ele>
        <time>2022-08-18T13:51:17Z</time>
      </trkpt>
      <trkpt lat="46.58879" lon="5.28707">
        <ele>207.2</ele>
        <time>2022-08-18T13:51:22Z</time>
      </trkpt>
      <trkpt lat="46.58918" lon="5.28733">
        <ele>206.8</ele>
        <time>2022-08-18T13:51:28Z</time>
      </trkpt>
      <trkpt lat="46.58939" lon="5.28765">
        <ele>206.2</ele>
        <time>2022-08-18T13:51:32Z</time>
      </trkpt>
      <trkpt lat="46.58963" lon="5.28805">
        <ele>206.2</ele>
        <time>2022-08-18T13:51:37Z</time>
      </trkpt>
      <trkpt lat="46.58969" lon="5.28812">
        <ele>206.2</ele>
        <time>2022-08-18T13:51:38Z</time>
      </trkpt>
      <trkpt lat="46.58976" lon="5.28817">
        <ele>206.2</ele>
        <time>2022-08-18T13:51:39Z</time>
      </trkpt>
      <trkpt lat="46.58983" lon="5.28821">
        <ele>206</ele>
        <time>2022-08-18T13:51:40Z</time>
      </trkpt>
      <trkpt lat="46.5899" lon="5.28824">
        <ele>206</ele>
        <time>2022-08-18T13:51:41Z</time>
      </trkpt>
      <trkpt lat="46.58997" lon="5.28826">
        <ele>206.2</ele>
        <time>2022-08-18T13:51:42Z</time>
      </trkpt>
      <trkpt lat="46.59053" lon="5.28844">
        <ele>206</ele>
        <time>2022-08-18T13:51:50Z</time>
      </trkpt>
      <trkpt lat="46.5906" lon="5.28845">
        <ele>206</ele>
        <time>2022-08-18T13:51:51Z</time>
      </trkpt>
      <trkpt lat="46.59108" lon="5.2886">
        <ele>206.2</ele>
        <time>2022-08-18T13:51:58Z</time>
      </trkpt>
      <trkpt lat="46.59159" lon="5.28887">
        <ele>206.2</ele>
        <time>2022-08-18T13:52:05Z</time>
      </trkpt>
      <trkpt lat="46.59202" lon="5.28911">
        <ele>204</ele>
        <time>2022-08-18T13:52:10Z</time>
      </trkpt>
      <trkpt lat="46.5921" lon="5.28916">
        <ele>203.4</ele>
        <time>2022-08-18T13:52:11Z</time>
      </trkpt>
      <trkpt lat="46.59226" lon="5.28926">
        <ele>202.8</ele>
        <time>2022-08-18T13:52:13Z</time>
      </trkpt>
      <trkpt lat="46.59256" lon="5.28943">
        <ele>202.4</ele>
        <time>2022-08-18T13:52:17Z</time>
      </trkpt>
      <trkpt lat="46.59303" lon="5.2897">
        <ele>202</ele>
        <time>2022-08-18T13:52:24Z</time>
      </trkpt>
      <trkpt lat="46.59343" lon="5.28993">
        <ele>203.4</ele>
        <time>2022-08-18T13:52:31Z</time>
      </trkpt>
      <trkpt lat="46.59349" lon="5.28996">
        <ele>203.8</ele>
        <time>2022-08-18T13:52:32Z</time>
      </trkpt>
      <trkpt lat="46.5939" lon="5.29023">
        <ele>204.8</ele>
        <time>2022-08-18T13:52:40Z</time>
      </trkpt>
      <trkpt lat="46.59395" lon="5.29026">
        <ele>205</ele>
        <time>2022-08-18T13:52:41Z</time>
      </trkpt>
      <trkpt lat="46.59428" lon="5.29049">
        <ele>205.6</ele>
        <time>2022-08-18T13:52:47Z</time>
      </trkpt>
      <trkpt lat="46.59456" lon="5.29076">
        <ele>206</ele>
        <time>2022-08-18T13:52:52Z</time>
      </trkpt>
      <trkpt lat="46.59467" lon="5.29088">
        <ele>206</ele>
        <time>2022-08-18T13:52:54Z</time>
      </trkpt>
      <trkpt lat="46.59506" lon="5.29133">
        <ele>205.6</ele>
        <time>2022-08-18T13:53:01Z</time>
      </trkpt>
      <trkpt lat="46.59549" lon="5.29181">
        <ele>205.4</ele>
        <time>2022-08-18T13:53:09Z</time>
      </trkpt>
      <trkpt lat="46.59565" lon="5.29199">
        <ele>205.6</ele>
        <time>2022-08-18T13:53:12Z</time>
      </trkpt>
      <trkpt lat="46.59593" lon="5.29221">
        <ele>205.2</ele>
        <time>2022-08-18T13:53:17Z</time>
      </trkpt>
      <trkpt lat="46.596" lon="5.29224">
        <ele>205</ele>
        <time>2022-08-18T13:53:18Z</time>
      </trkpt>
      <trkpt lat="46.59633" lon="5.29233">
        <ele>205</ele>
        <time>2022-08-18T13:53:23Z</time>
      </trkpt>
      <trkpt lat="46.59647" lon="5.29236">
        <ele>204.8</ele>
        <time>2022-08-18T13:53:25Z</time>
      </trkpt>
      <trkpt lat="46.59701" lon="5.29247">
        <ele>204.4</ele>
        <time>2022-08-18T13:53:32Z</time>
      </trkpt>
      <trkpt lat="46.59709" lon="5.29248">
        <ele>204.4</ele>
        <time>2022-08-18T13:53:33Z</time>
      </trkpt>
      <trkpt lat="46.59754" lon="5.29263">
        <ele>204</ele>
        <time>2022-08-18T13:53:39Z</time>
      </trkpt>
      <trkpt lat="46.59761" lon="5.29268">
        <ele>204</ele>
        <time>2022-08-18T13:53:40Z</time>
      </trkpt>
      <trkpt lat="46.59781" lon="5.29284">
        <ele>203.8</ele>
        <time>2022-08-18T13:53:43Z</time>
      </trkpt>
      <trkpt lat="46.59825" lon="5.29329">
        <ele>203</ele>
        <time>2022-08-18T13:53:50Z</time>
      </trkpt>
      <trkpt lat="46.59829" lon="5.29339">
        <ele>202.8</ele>
        <time>2022-08-18T13:53:51Z</time>
      </trkpt>
      <trkpt lat="46.59831" lon="5.29351">
        <ele>202.6</ele>
        <time>2022-08-18T13:53:52Z</time>
      </trkpt>
      <trkpt lat="46.59835" lon="5.2939">
        <ele>201.6</ele>
        <time>2022-08-18T13:53:55Z</time>
      </trkpt>
      <trkpt lat="46.59839" lon="5.29444">
        <ele>200.4</ele>
        <time>2022-08-18T13:53:59Z</time>
      </trkpt>
      <trkpt lat="46.59844" lon="5.29497">
        <ele>199.8</ele>
        <time>2022-08-18T13:54:03Z</time>
      </trkpt>
      <trkpt lat="46.59851" lon="5.29576">
        <ele>199.6</ele>
        <time>2022-08-18T13:54:09Z</time>
      </trkpt>
      <trkpt lat="46.59853" lon="5.29589">
        <ele>199.2</ele>
        <time>2022-08-18T13:54:10Z</time>
      </trkpt>
      <trkpt lat="46.59855" lon="5.29645">
        <ele>198.2</ele>
        <time>2022-08-18T13:54:14Z</time>
      </trkpt>
      <trkpt lat="46.59853" lon="5.29674">
        <ele>197</ele>
        <time>2022-08-18T13:54:16Z</time>
      </trkpt>
      <trkpt lat="46.59848" lon="5.29703">
        <ele>196.2</ele>
        <time>2022-08-18T13:54:18Z</time>
      </trkpt>
      <trkpt lat="46.59845" lon="5.29717">
        <ele>195.6</ele>
        <time>2022-08-18T13:54:19Z</time>
      </trkpt>
      <trkpt lat="46.59838" lon="5.29746">
        <ele>194.4</ele>
        <time>2022-08-18T13:54:21Z</time>
      </trkpt>
      <trkpt lat="46.59827" lon="5.29789">
        <ele>193.4</ele>
        <time>2022-08-18T13:54:24Z</time>
      </trkpt>
      <trkpt lat="46.59824" lon="5.29803">
        <ele>193.2</ele>
        <time>2022-08-18T13:54:25Z</time>
      </trkpt>
      <trkpt lat="46.59815" lon="5.29829">
        <ele>192.2</ele>
        <time>2022-08-18T13:54:27Z</time>
      </trkpt>
      <trkpt lat="46.59808" lon="5.29856">
        <ele>191.2</ele>
        <time>2022-08-18T13:54:29Z</time>
      </trkpt>
      <trkpt lat="46.59799" lon="5.29894">
        <ele>190.8</ele>
        <time>2022-08-18T13:54:32Z</time>
      </trkpt>
      <trkpt lat="46.59796" lon="5.29919">
        <ele>190.6</ele>
        <time>2022-08-18T13:54:34Z</time>
      </trkpt>
      <trkpt lat="46.59787" lon="5.30007">
        <ele>191</ele>
        <time>2022-08-18T13:54:41Z</time>
      </trkpt>
      <trkpt lat="46.59779" lon="5.30089">
        <ele>191</ele>
        <time>2022-08-18T13:54:47Z</time>
      </trkpt>
      <trkpt lat="46.59776" lon="5.30115">
        <ele>190.8</ele>
        <time>2022-08-18T13:54:49Z</time>
      </trkpt>
      <trkpt lat="46.59763" lon="5.30176">
        <ele>190</ele>
        <time>2022-08-18T13:54:54Z</time>
      </trkpt>
      <trkpt lat="46.5976" lon="5.30188">
        <ele>190</ele>
        <time>2022-08-18T13:54:55Z</time>
      </trkpt>
      <trkpt lat="46.59748" lon="5.30257">
        <ele>189.6</ele>
        <time>2022-08-18T13:55:01Z</time>
      </trkpt>
      <trkpt lat="46.59747" lon="5.30281">
        <ele>189.4</ele>
        <time>2022-08-18T13:55:03Z</time>
      </trkpt>
      <trkpt lat="46.5975" lon="5.30304">
        <ele>189.4</ele>
        <time>2022-08-18T13:55:05Z</time>
      </trkpt>
      <trkpt lat="46.59763" lon="5.30346">
        <ele>189.4</ele>
        <time>2022-08-18T13:55:09Z</time>
      </trkpt>
      <trkpt lat="46.59791" lon="5.30395">
        <ele>190</ele>
        <time>2022-08-18T13:55:15Z</time>
      </trkpt>
      <trkpt lat="46.5981" lon="5.30439">
        <ele>190.4</ele>
        <time>2022-08-18T13:55:20Z</time>
      </trkpt>
      <trkpt lat="46.59827" lon="5.305">
        <ele>190.6</ele>
        <time>2022-08-18T13:55:27Z</time>
      </trkpt>
      <trkpt lat="46.59836" lon="5.30531">
        <ele>191</ele>
        <time>2022-08-18T13:55:31Z</time>
      </trkpt>
      <trkpt lat="46.59839" lon="5.30538">
        <ele>191.2</ele>
        <time>2022-08-18T13:55:32Z</time>
      </trkpt>
      <trkpt lat="46.59849" lon="5.30582">
        <ele>192.4</ele>
        <time>2022-08-18T13:55:38Z</time>
      </trkpt>
      <trkpt lat="46.59849" lon="5.3059">
        <ele>192.6</ele>
        <time>2022-08-18T13:55:39Z</time>
      </trkpt>
      <trkpt lat="46.59848" lon="5.30604">
        <ele>193.4</ele>
        <time>2022-08-18T13:55:41Z</time>
      </trkpt>
      <trkpt lat="46.59845" lon="5.30618">
        <ele>193.8</ele>
        <time>2022-08-18T13:55:43Z</time>
      </trkpt>
      <trkpt lat="46.59836" lon="5.30638">
        <ele>194.8</ele>
        <time>2022-08-18T13:55:46Z</time>
      </trkpt>
      <trkpt lat="46.59833" lon="5.30645">
        <ele>194.8</ele>
        <time>2022-08-18T13:55:47Z</time>
      </trkpt>
      <trkpt lat="46.59831" lon="5.30652">
        <ele>195</ele>
        <time>2022-08-18T13:55:48Z</time>
      </trkpt>
      <trkpt lat="46.59822" lon="5.30697">
        <ele>195.8</ele>
        <time>2022-08-18T13:55:54Z</time>
      </trkpt>
      <trkpt lat="46.59819" lon="5.30711">
        <ele>196.2</ele>
        <time>2022-08-18T13:55:56Z</time>
      </trkpt>
      <trkpt lat="46.59817" lon="5.30718">
        <ele>196.6</ele>
        <time>2022-08-18T13:55:57Z</time>
      </trkpt>
      <trkpt lat="46.59815" lon="5.30732">
        <ele>197</ele>
        <time>2022-08-18T13:55:59Z</time>
      </trkpt>
      <trkpt lat="46.59811" lon="5.30753">
        <ele>197.4</ele>
        <time>2022-08-18T13:56:02Z</time>
      </trkpt>
      <trkpt lat="46.59809" lon="5.30773">
        <ele>197.6</ele>
        <time>2022-08-18T13:56:05Z</time>
      </trkpt>
      <trkpt lat="46.59807" lon="5.30786">
        <ele>197.8</ele>
        <time>2022-08-18T13:56:07Z</time>
      </trkpt>
      <trkpt lat="46.59805" lon="5.30791">
        <ele>198.2</ele>
        <time>2022-08-18T13:56:08Z</time>
      </trkpt>
      <trkpt lat="46.59798" lon="5.30799">
        <ele>198.4</ele>
        <time>2022-08-18T13:56:10Z</time>
      </trkpt>
      <trkpt lat="46.59793" lon="5.30803">
        <ele>198.4</ele>
        <time>2022-08-18T13:56:12Z</time>
      </trkpt>
      <trkpt lat="46.5979" lon="5.30804">
        <ele>198.4</ele>
        <time>2022-08-18T13:56:13Z</time>
      </trkpt>
      <trkpt lat="46.59784" lon="5.30803">
        <ele>198.4</ele>
        <time>2022-08-18T13:56:14Z</time>
      </trkpt>
      <trkpt lat="46.59776" lon="5.308">
        <ele>198.4</ele>
        <time>2022-08-18T13:56:15Z</time>
      </trkpt>
      <trkpt lat="46.59767" lon="5.30799">
        <ele>198.4</ele>
        <time>2022-08-18T13:56:16Z</time>
      </trkpt>
      <trkpt lat="46.59722" lon="5.30796">
        <ele>197.6</ele>
        <time>2022-08-18T13:56:21Z</time>
      </trkpt>
      <trkpt lat="46.59704" lon="5.30797">
        <ele>196.8</ele>
        <time>2022-08-18T13:56:23Z</time>
      </trkpt>
      <trkpt lat="46.59675" lon="5.30796">
        <ele>195.8</ele>
        <time>2022-08-18T13:56:26Z</time>
      </trkpt>
      <trkpt lat="46.59666" lon="5.30796">
        <ele>195</ele>
        <time>2022-08-18T13:56:27Z</time>
      </trkpt>
      <trkpt lat="46.59656" lon="5.30797">
        <ele>194.4</ele>
        <time>2022-08-18T13:56:28Z</time>
      </trkpt>
      <trkpt lat="46.59638" lon="5.30798">
        <ele>193.2</ele>
        <time>2022-08-18T13:56:30Z</time>
      </trkpt>
      <trkpt lat="46.59602" lon="5.30802">
        <ele>192</ele>
        <time>2022-08-18T13:56:34Z</time>
      </trkpt>
      <trkpt lat="46.59593" lon="5.30803">
        <ele>191.8</ele>
        <time>2022-08-18T13:56:35Z</time>
      </trkpt>
      <trkpt lat="46.59551" lon="5.30807">
        <ele>191</ele>
        <time>2022-08-18T13:56:40Z</time>
      </trkpt>
      <trkpt lat="46.59535" lon="5.30809">
        <ele>191</ele>
        <time>2022-08-18T13:56:42Z</time>
      </trkpt>
      <trkpt lat="46.59477" lon="5.30817">
        <ele>191.4</ele>
        <time>2022-08-18T13:56:49Z</time>
      </trkpt>
      <trkpt lat="46.5946" lon="5.30819">
        <ele>191.4</ele>
        <time>2022-08-18T13:56:51Z</time>
      </trkpt>
      <trkpt lat="46.59405" lon="5.30826">
        <ele>191.4</ele>
        <time>2022-08-18T13:56:58Z</time>
      </trkpt>
      <trkpt lat="46.59397" lon="5.30827">
        <ele>191.4</ele>
        <time>2022-08-18T13:56:59Z</time>
      </trkpt>
      <trkpt lat="46.59347" lon="5.30834">
        <ele>192</ele>
        <time>2022-08-18T13:57:06Z</time>
      </trkpt>
      <trkpt lat="46.59327" lon="5.30836">
        <ele>192.4</ele>
        <time>2022-08-18T13:57:09Z</time>
      </trkpt>
      <trkpt lat="46.59307" lon="5.30839">
        <ele>193</ele>
        <time>2022-08-18T13:57:12Z</time>
      </trkpt>
      <trkpt lat="46.59288" lon="5.30842">
        <ele>193.6</ele>
        <time>2022-08-18T13:57:15Z</time>
      </trkpt>
      <trkpt lat="46.59262" lon="5.30846">
        <ele>194.6</ele>
        <time>2022-08-18T13:57:19Z</time>
      </trkpt>
      <trkpt lat="46.59256" lon="5.30846">
        <ele>194.8</ele>
        <time>2022-08-18T13:57:20Z</time>
      </trkpt>
      <trkpt lat="46.59232" lon="5.30849">
        <ele>195.6</ele>
        <time>2022-08-18T13:57:24Z</time>
      </trkpt>
      <trkpt lat="46.59214" lon="5.3085">
        <ele>196.4</ele>
        <time>2022-08-18T13:57:27Z</time>
      </trkpt>
      <trkpt lat="46.59202" lon="5.30852">
        <ele>196.6</ele>
        <time>2022-08-18T13:57:29Z</time>
      </trkpt>
      <trkpt lat="46.59167" lon="5.30856">
        <ele>198</ele>
        <time>2022-08-18T13:57:35Z</time>
      </trkpt>
      <trkpt lat="46.59139" lon="5.30861">
        <ele>199.2</ele>
        <time>2022-08-18T13:57:40Z</time>
      </trkpt>
      <trkpt lat="46.59118" lon="5.30864">
        <ele>199.8</ele>
        <time>2022-08-18T13:57:44Z</time>
      </trkpt>
      <trkpt lat="46.59107" lon="5.30865">
        <ele>200.4</ele>
        <time>2022-08-18T13:57:46Z</time>
      </trkpt>
      <trkpt lat="46.59085" lon="5.30868">
        <ele>201.4</ele>
        <time>2022-08-18T13:57:50Z</time>
      </trkpt>
      <trkpt lat="46.59053" lon="5.30873">
        <ele>202.6</ele>
        <time>2022-08-18T13:57:56Z</time>
      </trkpt>
      <trkpt lat="46.59026" lon="5.30876">
        <ele>204</ele>
        <time>2022-08-18T13:58:01Z</time>
      </trkpt>
      <trkpt lat="46.5901" lon="5.30878">
        <ele>204.8</ele>
        <time>2022-08-18T13:58:04Z</time>
      </trkpt>
      <trkpt lat="46.59004" lon="5.30878">
        <ele>205.2</ele>
        <time>2022-08-18T13:58:05Z</time>
      </trkpt>
      <trkpt lat="46.58982" lon="5.30881">
        <ele>206.2</ele>
        <time>2022-08-18T13:58:09Z</time>
      </trkpt>
      <trkpt lat="46.58961" lon="5.30884">
        <ele>207.2</ele>
        <time>2022-08-18T13:58:13Z</time>
      </trkpt>
      <trkpt lat="46.58945" lon="5.30886">
        <ele>208</ele>
        <time>2022-08-18T13:58:16Z</time>
      </trkpt>
      <trkpt lat="46.5894" lon="5.30886">
        <ele>208.4</ele>
        <time>2022-08-18T13:58:17Z</time>
      </trkpt>
      <trkpt lat="46.58912" lon="5.30889">
        <ele>209.4</ele>
        <time>2022-08-18T13:58:22Z</time>
      </trkpt>
      <trkpt lat="46.58889" lon="5.30892">
        <ele>210</ele>
        <time>2022-08-18T13:58:26Z</time>
      </trkpt>
      <trkpt lat="46.58853" lon="5.30898">
        <ele>210.4</ele>
        <time>2022-08-18T13:58:32Z</time>
      </trkpt>
      <trkpt lat="46.58841" lon="5.309">
        <ele>210.4</ele>
        <time>2022-08-18T13:58:34Z</time>
      </trkpt>
      <trkpt lat="46.58815" lon="5.30907">
        <ele>210.6</ele>
        <time>2022-08-18T13:58:38Z</time>
      </trkpt>
      <trkpt lat="46.58803" lon="5.30915">
        <ele>210.6</ele>
        <time>2022-08-18T13:58:40Z</time>
      </trkpt>
      <trkpt lat="46.58772" lon="5.30945">
        <ele>210.6</ele>
        <time>2022-08-18T13:58:45Z</time>
      </trkpt>
      <trkpt lat="46.58722" lon="5.30997">
        <ele>209.8</ele>
        <time>2022-08-18T13:58:52Z</time>
      </trkpt>
      <trkpt lat="46.58707" lon="5.31013">
        <ele>209.2</ele>
        <time>2022-08-18T13:58:54Z</time>
      </trkpt>
      <trkpt lat="46.58678" lon="5.31043">
        <ele>208</ele>
        <time>2022-08-18T13:58:58Z</time>
      </trkpt>
      <trkpt lat="46.58671" lon="5.3105">
        <ele>207.8</ele>
        <time>2022-08-18T13:58:59Z</time>
      </trkpt>
      <trkpt lat="46.5862" lon="5.31102">
        <ele>206.8</ele>
        <time>2022-08-18T13:59:06Z</time>
      </trkpt>
      <trkpt lat="46.58605" lon="5.31117">
        <ele>206.6</ele>
        <time>2022-08-18T13:59:08Z</time>
      </trkpt>
      <trkpt lat="46.58559" lon="5.31161">
        <ele>207</ele>
        <time>2022-08-18T13:59:15Z</time>
      </trkpt>
      <trkpt lat="46.58525" lon="5.31187">
        <ele>207.4</ele>
        <time>2022-08-18T13:59:20Z</time>
      </trkpt>
      <trkpt lat="46.58489" lon="5.31203">
        <ele>207.8</ele>
        <time>2022-08-18T13:59:25Z</time>
      </trkpt>
      <trkpt lat="46.58482" lon="5.31206">
        <ele>207.8</ele>
        <time>2022-08-18T13:59:26Z</time>
      </trkpt>
      <trkpt lat="46.5843" lon="5.31228">
        <ele>208.2</ele>
        <time>2022-08-18T13:59:33Z</time>
      </trkpt>
      <trkpt lat="46.58415" lon="5.31235">
        <ele>208.2</ele>
        <time>2022-08-18T13:59:35Z</time>
      </trkpt>
      <trkpt lat="46.58361" lon="5.31258">
        <ele>208.2</ele>
        <time>2022-08-18T13:59:42Z</time>
      </trkpt>
      <trkpt lat="46.5831" lon="5.31288">
        <ele>208.2</ele>
        <time>2022-08-18T13:59:49Z</time>
      </trkpt>
      <trkpt lat="46.58262" lon="5.31327">
        <ele>208.6</ele>
        <time>2022-08-18T13:59:56Z</time>
      </trkpt>
      <trkpt lat="46.58248" lon="5.31338">
        <ele>208.8</ele>
        <time>2022-08-18T13:59:58Z</time>
      </trkpt>
      <trkpt lat="46.58221" lon="5.3136">
        <ele>208.8</ele>
        <time>2022-08-18T14:00:02Z</time>
      </trkpt>
      <trkpt lat="46.58168" lon="5.31403">
        <ele>210</ele>
        <time>2022-08-18T14:00:10Z</time>
      </trkpt>
      <trkpt lat="46.58154" lon="5.31413">
        <ele>210.2</ele>
        <time>2022-08-18T14:00:12Z</time>
      </trkpt>
      <trkpt lat="46.58127" lon="5.3143">
        <ele>210.6</ele>
        <time>2022-08-18T14:00:16Z</time>
      </trkpt>
      <trkpt lat="46.5812" lon="5.31432">
        <ele>210.8</ele>
        <time>2022-08-18T14:00:17Z</time>
      </trkpt>
      <trkpt lat="46.58112" lon="5.31433">
        <ele>210.8</ele>
        <time>2022-08-18T14:00:18Z</time>
      </trkpt>
      <trkpt lat="46.58088" lon="5.31431">
        <ele>211.2</ele>
        <time>2022-08-18T14:00:21Z</time>
      </trkpt>
      <trkpt lat="46.5808" lon="5.3143">
        <ele>211.2</ele>
        <time>2022-08-18T14:00:22Z</time>
      </trkpt>
      <trkpt lat="46.58032" lon="5.31429">
        <ele>211.6</ele>
        <time>2022-08-18T14:00:28Z</time>
      </trkpt>
      <trkpt lat="46.57977" lon="5.31443">
        <ele>211.6</ele>
        <time>2022-08-18T14:00:35Z</time>
      </trkpt>
      <trkpt lat="46.57962" lon="5.31448">
        <ele>211.4</ele>
        <time>2022-08-18T14:00:37Z</time>
      </trkpt>
      <trkpt lat="46.57904" lon="5.31465">
        <ele>212</ele>
        <time>2022-08-18T14:00:45Z</time>
      </trkpt>
      <trkpt lat="46.57896" lon="5.31468">
        <ele>212</ele>
        <time>2022-08-18T14:00:46Z</time>
      </trkpt>
      <trkpt lat="46.57882" lon="5.31472">
        <ele>212.2</ele>
        <time>2022-08-18T14:00:48Z</time>
      </trkpt>
      <trkpt lat="46.57834" lon="5.31487">
        <ele>213</ele>
        <time>2022-08-18T14:00:55Z</time>
      </trkpt>
      <trkpt lat="46.57801" lon="5.31506">
        <ele>213.4</ele>
        <time>2022-08-18T14:01:00Z</time>
      </trkpt>
      <trkpt lat="46.57789" lon="5.31513">
        <ele>213.6</ele>
        <time>2022-08-18T14:01:02Z</time>
      </trkpt>
      <trkpt lat="46.57782" lon="5.31518">
        <ele>213.8</ele>
        <time>2022-08-18T14:01:03Z</time>
      </trkpt>
      <trkpt lat="46.57759" lon="5.31538">
        <ele>214.2</ele>
        <time>2022-08-18T14:01:07Z</time>
      </trkpt>
      <trkpt lat="46.57733" lon="5.31556">
        <ele>214.4</ele>
        <time>2022-08-18T14:01:11Z</time>
      </trkpt>
      <trkpt lat="46.57701" lon="5.31575">
        <ele>215</ele>
        <time>2022-08-18T14:01:16Z</time>
      </trkpt>
      <trkpt lat="46.5768" lon="5.31582">
        <ele>215.4</ele>
        <time>2022-08-18T14:01:19Z</time>
      </trkpt>
      <trkpt lat="46.57645" lon="5.31589">
        <ele>215.6</ele>
        <time>2022-08-18T14:01:24Z</time>
      </trkpt>
      <trkpt lat="46.57585" lon="5.31597">
        <ele>216</ele>
        <time>2022-08-18T14:01:32Z</time>
      </trkpt>
      <trkpt lat="46.57525" lon="5.31605">
        <ele>216</ele>
        <time>2022-08-18T14:01:40Z</time>
      </trkpt>
      <trkpt lat="46.57518" lon="5.31606">
        <ele>216</ele>
        <time>2022-08-18T14:01:41Z</time>
      </trkpt>
      <trkpt lat="46.57458" lon="5.31611">
        <ele>216.4</ele>
        <time>2022-08-18T14:01:49Z</time>
      </trkpt>
      <trkpt lat="46.57398" lon="5.31614">
        <ele>216.4</ele>
        <time>2022-08-18T14:01:57Z</time>
      </trkpt>
      <trkpt lat="46.5739" lon="5.31614">
        <ele>216.4</ele>
        <time>2022-08-18T14:01:58Z</time>
      </trkpt>
      <trkpt lat="46.57361" lon="5.3161">
        <ele>216.4</ele>
        <time>2022-08-18T14:02:02Z</time>
      </trkpt>
      <trkpt lat="46.57353" lon="5.31607">
        <ele>216.4</ele>
        <time>2022-08-18T14:02:03Z</time>
      </trkpt>
      <trkpt lat="46.57346" lon="5.31603">
        <ele>216.4</ele>
        <time>2022-08-18T14:02:04Z</time>
      </trkpt>
      <trkpt lat="46.57328" lon="5.31585">
        <ele>216.4</ele>
        <time>2022-08-18T14:02:07Z</time>
      </trkpt>
      <trkpt lat="46.57302" lon="5.31548">
        <ele>216.2</ele>
        <time>2022-08-18T14:02:12Z</time>
      </trkpt>
      <trkpt lat="46.57262" lon="5.31487">
        <ele>216.6</ele>
        <time>2022-08-18T14:02:20Z</time>
      </trkpt>
      <trkpt lat="46.57257" lon="5.31479">
        <ele>216.6</ele>
        <time>2022-08-18T14:02:21Z</time>
      </trkpt>
      <trkpt lat="46.57248" lon="5.31462">
        <ele>216.8</ele>
        <time>2022-08-18T14:02:23Z</time>
      </trkpt>
      <trkpt lat="46.57241" lon="5.31443">
        <ele>216.8</ele>
        <time>2022-08-18T14:02:25Z</time>
      </trkpt>
      <trkpt lat="46.57224" lon="5.31378">
        <ele>216.6</ele>
        <time>2022-08-18T14:02:31Z</time>
      </trkpt>
      <trkpt lat="46.5722" lon="5.31368">
        <ele>216.4</ele>
        <time>2022-08-18T14:02:32Z</time>
      </trkpt>
      <trkpt lat="46.57204" lon="5.3134">
        <ele>216.2</ele>
        <time>2022-08-18T14:02:35Z</time>
      </trkpt>
      <trkpt lat="46.57178" lon="5.31308">
        <ele>215.4</ele>
        <time>2022-08-18T14:02:39Z</time>
      </trkpt>
      <trkpt lat="46.57171" lon="5.31303">
        <ele>215.2</ele>
        <time>2022-08-18T14:02:40Z</time>
      </trkpt>
      <trkpt lat="46.57162" lon="5.31298">
        <ele>215</ele>
        <time>2022-08-18T14:02:41Z</time>
      </trkpt>
      <trkpt lat="46.57145" lon="5.31296">
        <ele>214.6</ele>
        <time>2022-08-18T14:02:43Z</time>
      </trkpt>
      <trkpt lat="46.57117" lon="5.31296">
        <ele>214</ele>
        <time>2022-08-18T14:02:46Z</time>
      </trkpt>
      <trkpt lat="46.57089" lon="5.3129">
        <ele>213.4</ele>
        <time>2022-08-18T14:02:49Z</time>
      </trkpt>
      <trkpt lat="46.57079" lon="5.31286">
        <ele>212.4</ele>
        <time>2022-08-18T14:02:50Z</time>
      </trkpt>
      <trkpt lat="46.57062" lon="5.31274">
        <ele>211.4</ele>
        <time>2022-08-18T14:02:52Z</time>
      </trkpt>
      <trkpt lat="46.57053" lon="5.31268">
        <ele>211</ele>
        <time>2022-08-18T14:02:53Z</time>
      </trkpt>
      <trkpt lat="46.57014" lon="5.31233">
        <ele>210.4</ele>
        <time>2022-08-18T14:02:58Z</time>
      </trkpt>
      <trkpt lat="46.5699" lon="5.31212">
        <ele>210</ele>
        <time>2022-08-18T14:03:01Z</time>
      </trkpt>
      <trkpt lat="46.56944" lon="5.31171">
        <ele>209.4</ele>
        <time>2022-08-18T14:03:07Z</time>
      </trkpt>
      <trkpt lat="46.56936" lon="5.31165">
        <ele>209.2</ele>
        <time>2022-08-18T14:03:08Z</time>
      </trkpt>
      <trkpt lat="46.56928" lon="5.31161">
        <ele>209.2</ele>
        <time>2022-08-18T14:03:09Z</time>
      </trkpt>
      <trkpt lat="46.56919" lon="5.31157">
        <ele>209.2</ele>
        <time>2022-08-18T14:03:10Z</time>
      </trkpt>
      <trkpt lat="46.56901" lon="5.31155">
        <ele>209</ele>
        <time>2022-08-18T14:03:12Z</time>
      </trkpt>
      <trkpt lat="46.56874" lon="5.31151">
        <ele>208.8</ele>
        <time>2022-08-18T14:03:15Z</time>
      </trkpt>
      <trkpt lat="46.56856" lon="5.31142">
        <ele>208.6</ele>
        <time>2022-08-18T14:03:17Z</time>
      </trkpt>
      <trkpt lat="46.5684" lon="5.31127">
        <ele>208.2</ele>
        <time>2022-08-18T14:03:19Z</time>
      </trkpt>
      <trkpt lat="46.56834" lon="5.31118">
        <ele>208.2</ele>
        <time>2022-08-18T14:03:20Z</time>
      </trkpt>
      <trkpt lat="46.56827" lon="5.31109">
        <ele>208</ele>
        <time>2022-08-18T14:03:21Z</time>
      </trkpt>
      <trkpt lat="46.56822" lon="5.31098">
        <ele>208</ele>
        <time>2022-08-18T14:03:22Z</time>
      </trkpt>
      <trkpt lat="46.56814" lon="5.31076">
        <ele>207.8</ele>
        <time>2022-08-18T14:03:24Z</time>
      </trkpt>
      <trkpt lat="46.56811" lon="5.31064">
        <ele>207.6</ele>
        <time>2022-08-18T14:03:25Z</time>
      </trkpt>
      <trkpt lat="46.56809" lon="5.31051">
        <ele>207.6</ele>
        <time>2022-08-18T14:03:26Z</time>
      </trkpt>
      <trkpt lat="46.56808" lon="5.31027">
        <ele>207.4</ele>
        <time>2022-08-18T14:03:28Z</time>
      </trkpt>
      <trkpt lat="46.56808" lon="5.31014">
        <ele>207.4</ele>
        <time>2022-08-18T14:03:29Z</time>
      </trkpt>
      <trkpt lat="46.5681" lon="5.30954">
        <ele>207.2</ele>
        <time>2022-08-18T14:03:34Z</time>
      </trkpt>
      <trkpt lat="46.5681" lon="5.30941">
        <ele>207.2</ele>
        <time>2022-08-18T14:03:35Z</time>
      </trkpt>
      <trkpt lat="46.5681" lon="5.30929">
        <ele>207.2</ele>
        <time>2022-08-18T14:03:36Z</time>
      </trkpt>
      <trkpt lat="46.56801" lon="5.30857">
        <ele>207.2</ele>
        <time>2022-08-18T14:03:42Z</time>
      </trkpt>
      <trkpt lat="46.56787" lon="5.30793">
        <ele>207.2</ele>
        <time>2022-08-18T14:03:48Z</time>
      </trkpt>
      <trkpt lat="46.56765" lon="5.3075">
        <ele>207.2</ele>
        <time>2022-08-18T14:03:53Z</time>
      </trkpt>
      <trkpt lat="46.56737" lon="5.30695">
        <ele>208</ele>
        <time>2022-08-18T14:04:00Z</time>
      </trkpt>
      <trkpt lat="46.56729" lon="5.30681">
        <ele>208.2</ele>
        <time>2022-08-18T14:04:02Z</time>
      </trkpt>
      <trkpt lat="46.5671" lon="5.30655">
        <ele>209</ele>
        <time>2022-08-18T14:04:06Z</time>
      </trkpt>
      <trkpt lat="46.56694" lon="5.3064">
        <ele>209.4</ele>
        <time>2022-08-18T14:04:09Z</time>
      </trkpt>
      <trkpt lat="46.56664" lon="5.30618">
        <ele>210.2</ele>
        <time>2022-08-18T14:04:14Z</time>
      </trkpt>
      <trkpt lat="46.56651" lon="5.30611">
        <ele>210.4</ele>
        <time>2022-08-18T14:04:16Z</time>
      </trkpt>
      <trkpt lat="46.56645" lon="5.30608">
        <ele>210.4</ele>
        <time>2022-08-18T14:04:17Z</time>
      </trkpt>
      <trkpt lat="46.56626" lon="5.30602">
        <ele>210.8</ele>
        <time>2022-08-18T14:04:20Z</time>
      </trkpt>
      <trkpt lat="46.56572" lon="5.30598">
        <ele>211</ele>
        <time>2022-08-18T14:04:28Z</time>
      </trkpt>
      <trkpt lat="46.56522" lon="5.30605">
        <ele>211.2</ele>
        <time>2022-08-18T14:04:35Z</time>
      </trkpt>
      <trkpt lat="46.56465" lon="5.30615">
        <ele>211.2</ele>
        <time>2022-08-18T14:04:43Z</time>
      </trkpt>
      <trkpt lat="46.56459" lon="5.30617">
        <ele>211.2</ele>
        <time>2022-08-18T14:04:44Z</time>
      </trkpt>
      <trkpt lat="46.56453" lon="5.30619">
        <ele>211.4</ele>
        <time>2022-08-18T14:04:45Z</time>
      </trkpt>
      <trkpt lat="46.56435" lon="5.30623">
        <ele>211.4</ele>
        <time>2022-08-18T14:04:48Z</time>
      </trkpt>
      <trkpt lat="46.56431" lon="5.3062">
        <ele>211.4</ele>
        <time>2022-08-18T14:04:49Z</time>
      </trkpt>
      <trkpt lat="46.56429" lon="5.30616">
        <ele>211.4</ele>
        <time>2022-08-18T14:04:50Z</time>
      </trkpt>
      <trkpt lat="46.56426" lon="5.30612">
        <ele>211.6</ele>
        <time>2022-08-18T14:04:51Z</time>
      </trkpt>
      <trkpt lat="46.56423" lon="5.30609">
        <ele>211.6</ele>
        <time>2022-08-18T14:04:52Z</time>
      </trkpt>
      <trkpt lat="46.56415" lon="5.30612">
        <ele>211.6</ele>
        <time>2022-08-18T14:04:54Z</time>
      </trkpt>
      <trkpt lat="46.56404" lon="5.30609">
        <ele>211.6</ele>
        <time>2022-08-18T14:04:56Z</time>
      </trkpt>
      <trkpt lat="46.56399" lon="5.30603">
        <ele>211.6</ele>
        <time>2022-08-18T14:04:57Z</time>
      </trkpt>
      <trkpt lat="46.5636" lon="5.30546">
        <ele>212</ele>
        <time>2022-08-18T14:05:05Z</time>
      </trkpt>
      <trkpt lat="46.56336" lon="5.30513">
        <ele>212.6</ele>
        <time>2022-08-18T14:05:10Z</time>
      </trkpt>
      <trkpt lat="46.56317" lon="5.30486">
        <ele>213.2</ele>
        <time>2022-08-18T14:05:14Z</time>
      </trkpt>
      <trkpt lat="46.56278" lon="5.30432">
        <ele>213.4</ele>
        <time>2022-08-18T14:05:22Z</time>
      </trkpt>
      <trkpt lat="46.56268" lon="5.30418">
        <ele>213.4</ele>
        <time>2022-08-18T14:05:24Z</time>
      </trkpt>
      <trkpt lat="46.56228" lon="5.3036">
        <ele>213</ele>
        <time>2022-08-18T14:05:32Z</time>
      </trkpt>
      <trkpt lat="46.56224" lon="5.30352">
        <ele>213</ele>
        <time>2022-08-18T14:05:33Z</time>
      </trkpt>
      <trkpt lat="46.56196" lon="5.30301">
        <ele>212.8</ele>
        <time>2022-08-18T14:05:39Z</time>
      </trkpt>
      <trkpt lat="46.56152" lon="5.30241">
        <ele>212.8</ele>
        <time>2022-08-18T14:05:47Z</time>
      </trkpt>
      <trkpt lat="46.56112" lon="5.30188">
        <ele>212.8</ele>
        <time>2022-08-18T14:05:54Z</time>
      </trkpt>
      <trkpt lat="46.56094" lon="5.30165">
        <ele>212.8</ele>
        <time>2022-08-18T14:05:57Z</time>
      </trkpt>
      <trkpt lat="46.56054" lon="5.30111">
        <ele>212.4</ele>
        <time>2022-08-18T14:06:04Z</time>
      </trkpt>
      <trkpt lat="46.56042" lon="5.30094">
        <ele>212.2</ele>
        <time>2022-08-18T14:06:06Z</time>
      </trkpt>
      <trkpt lat="46.56007" lon="5.30047">
        <ele>211.6</ele>
        <time>2022-08-18T14:06:11Z</time>
      </trkpt>
      <trkpt lat="46.56" lon="5.30038">
        <ele>211.4</ele>
        <time>2022-08-18T14:06:12Z</time>
      </trkpt>
      <trkpt lat="46.55979" lon="5.30009">
        <ele>210.6</ele>
        <time>2022-08-18T14:06:15Z</time>
      </trkpt>
      <trkpt lat="46.55951" lon="5.29971">
        <ele>209.4</ele>
        <time>2022-08-18T14:06:19Z</time>
      </trkpt>
      <trkpt lat="46.55937" lon="5.29952">
        <ele>208.4</ele>
        <time>2022-08-18T14:06:21Z</time>
      </trkpt>
      <trkpt lat="46.55905" lon="5.2991">
        <ele>207.4</ele>
        <time>2022-08-18T14:06:26Z</time>
      </trkpt>
      <trkpt lat="46.55899" lon="5.29903">
        <ele>207.2</ele>
        <time>2022-08-18T14:06:27Z</time>
      </trkpt>
      <trkpt lat="46.55877" lon="5.29873">
        <ele>207.4</ele>
        <time>2022-08-18T14:06:31Z</time>
      </trkpt>
      <trkpt lat="46.55872" lon="5.29865">
        <ele>207.6</ele>
        <time>2022-08-18T14:06:32Z</time>
      </trkpt>
      <trkpt lat="46.55856" lon="5.29845">
        <ele>208.6</ele>
        <time>2022-08-18T14:06:35Z</time>
      </trkpt>
      <trkpt lat="46.55841" lon="5.29827">
        <ele>209.6</ele>
        <time>2022-08-18T14:06:38Z</time>
      </trkpt>
      <trkpt lat="46.55835" lon="5.2982">
        <ele>209.8</ele>
        <time>2022-08-18T14:06:39Z</time>
      </trkpt>
      <trkpt lat="46.5582" lon="5.29798">
        <ele>210.6</ele>
        <time>2022-08-18T14:06:42Z</time>
      </trkpt>
      <trkpt lat="46.55788" lon="5.29756">
        <ele>211.2</ele>
        <time>2022-08-18T14:06:48Z</time>
      </trkpt>
      <trkpt lat="46.55783" lon="5.29748">
        <ele>211.4</ele>
        <time>2022-08-18T14:06:49Z</time>
      </trkpt>
      <trkpt lat="46.55776" lon="5.29732">
        <ele>211.2</ele>
        <time>2022-08-18T14:06:51Z</time>
      </trkpt>
      <trkpt lat="46.55771" lon="5.29726">
        <ele>211.2</ele>
        <time>2022-08-18T14:06:52Z</time>
      </trkpt>
      <trkpt lat="46.55766" lon="5.29719">
        <ele>211.2</ele>
        <time>2022-08-18T14:06:53Z</time>
      </trkpt>
      <trkpt lat="46.55753" lon="5.2971">
        <ele>211.2</ele>
        <time>2022-08-18T14:06:55Z</time>
      </trkpt>
      <trkpt lat="46.55721" lon="5.29695">
        <ele>210.6</ele>
        <time>2022-08-18T14:06:59Z</time>
      </trkpt>
      <trkpt lat="46.55703" lon="5.2969">
        <ele>210</ele>
        <time>2022-08-18T14:07:01Z</time>
      </trkpt>
      <trkpt lat="46.55693" lon="5.2969">
        <ele>209.6</ele>
        <time>2022-08-18T14:07:02Z</time>
      </trkpt>
      <trkpt lat="46.55684" lon="5.29689">
        <ele>209.2</ele>
        <time>2022-08-18T14:07:03Z</time>
      </trkpt>
      <trkpt lat="46.55654" lon="5.29687">
        <ele>208.4</ele>
        <time>2022-08-18T14:07:06Z</time>
      </trkpt>
      <trkpt lat="46.55644" lon="5.29684">
        <ele>207.8</ele>
        <time>2022-08-18T14:07:07Z</time>
      </trkpt>
      <trkpt lat="46.55635" lon="5.2968">
        <ele>207.4</ele>
        <time>2022-08-18T14:07:08Z</time>
      </trkpt>
      <trkpt lat="46.55616" lon="5.29671">
        <ele>206</ele>
        <time>2022-08-18T14:07:10Z</time>
      </trkpt>
      <trkpt lat="46.55589" lon="5.29657">
        <ele>205.6</ele>
        <time>2022-08-18T14:07:13Z</time>
      </trkpt>
      <trkpt lat="46.55563" lon="5.29641">
        <ele>205</ele>
        <time>2022-08-18T14:07:16Z</time>
      </trkpt>
      <trkpt lat="46.5553" lon="5.29618">
        <ele>204.6</ele>
        <time>2022-08-18T14:07:20Z</time>
      </trkpt>
      <trkpt lat="46.55476" lon="5.29578">
        <ele>204.4</ele>
        <time>2022-08-18T14:07:27Z</time>
      </trkpt>
      <trkpt lat="46.55446" lon="5.29555">
        <ele>204</ele>
        <time>2022-08-18T14:07:31Z</time>
      </trkpt>
      <trkpt lat="46.55401" lon="5.29526">
        <ele>203.6</ele>
        <time>2022-08-18T14:07:37Z</time>
      </trkpt>
      <trkpt lat="46.55354" lon="5.2951">
        <ele>203.2</ele>
        <time>2022-08-18T14:07:43Z</time>
      </trkpt>
      <trkpt lat="46.553" lon="5.29499">
        <ele>203.4</ele>
        <time>2022-08-18T14:07:50Z</time>
      </trkpt>
      <trkpt lat="46.55292" lon="5.29495">
        <ele>203.6</ele>
        <time>2022-08-18T14:07:51Z</time>
      </trkpt>
      <trkpt lat="46.55286" lon="5.2949">
        <ele>203.6</ele>
        <time>2022-08-18T14:07:52Z</time>
      </trkpt>
      <trkpt lat="46.55275" lon="5.29475">
        <ele>203.8</ele>
        <time>2022-08-18T14:07:54Z</time>
      </trkpt>
      <trkpt lat="46.55266" lon="5.29446">
        <ele>204.2</ele>
        <time>2022-08-18T14:07:57Z</time>
      </trkpt>
      <trkpt lat="46.55261" lon="5.29427">
        <ele>205</ele>
        <time>2022-08-18T14:07:59Z</time>
      </trkpt>
      <trkpt lat="46.55252" lon="5.29388">
        <ele>206.6</ele>
        <time>2022-08-18T14:08:03Z</time>
      </trkpt>
      <trkpt lat="46.5525" lon="5.29378">
        <ele>206.8</ele>
        <time>2022-08-18T14:08:04Z</time>
      </trkpt>
      <trkpt lat="46.5525" lon="5.29359">
        <ele>207.8</ele>
        <time>2022-08-18T14:08:06Z</time>
      </trkpt>
      <trkpt lat="46.55254" lon="5.29339">
        <ele>208.4</ele>
        <time>2022-08-18T14:08:08Z</time>
      </trkpt>
      <trkpt lat="46.55261" lon="5.29316">
        <ele>208.6</ele>
        <time>2022-08-18T14:08:10Z</time>
      </trkpt>
      <trkpt lat="46.55279" lon="5.29253">
        <ele>208</ele>
        <time>2022-08-18T14:08:15Z</time>
      </trkpt>
      <trkpt lat="46.55289" lon="5.29214">
        <ele>207</ele>
        <time>2022-08-18T14:08:18Z</time>
      </trkpt>
      <trkpt lat="46.55291" lon="5.29201">
        <ele>206.4</ele>
        <time>2022-08-18T14:08:19Z</time>
      </trkpt>
      <trkpt lat="46.5529" lon="5.29188">
        <ele>205.4</ele>
        <time>2022-08-18T14:08:20Z</time>
      </trkpt>
      <trkpt lat="46.55287" lon="5.29175">
        <ele>205.2</ele>
        <time>2022-08-18T14:08:21Z</time>
      </trkpt>
      <trkpt lat="46.55282" lon="5.29165">
        <ele>204.6</ele>
        <time>2022-08-18T14:08:22Z</time>
      </trkpt>
      <trkpt lat="46.55268" lon="5.29146">
        <ele>204</ele>
        <time>2022-08-18T14:08:24Z</time>
      </trkpt>
      <trkpt lat="46.55254" lon="5.29128">
        <ele>203.4</ele>
        <time>2022-08-18T14:08:26Z</time>
      </trkpt>
      <trkpt lat="46.55246" lon="5.29117">
        <ele>203</ele>
        <time>2022-08-18T14:08:27Z</time>
      </trkpt>
      <trkpt lat="46.55218" lon="5.2907">
        <ele>201.8</ele>
        <time>2022-08-18T14:08:31Z</time>
      </trkpt>
      <trkpt lat="46.55203" lon="5.29044">
        <ele>200.2</ele>
        <time>2022-08-18T14:08:33Z</time>
      </trkpt>
      <trkpt lat="46.55188" lon="5.29018">
        <ele>199.2</ele>
        <time>2022-08-18T14:08:35Z</time>
      </trkpt>
      <trkpt lat="46.55181" lon="5.29004">
        <ele>197.8</ele>
        <time>2022-08-18T14:08:36Z</time>
      </trkpt>
      <trkpt lat="46.55165" lon="5.28977">
        <ele>196.4</ele>
        <time>2022-08-18T14:08:38Z</time>
      </trkpt>
      <trkpt lat="46.55152" lon="5.28947">
        <ele>195.4</ele>
        <time>2022-08-18T14:08:40Z</time>
      </trkpt>
      <trkpt lat="46.55148" lon="5.28932">
        <ele>195</ele>
        <time>2022-08-18T14:08:41Z</time>
      </trkpt>
      <trkpt lat="46.55146" lon="5.28916">
        <ele>194.6</ele>
        <time>2022-08-18T14:08:42Z</time>
      </trkpt>
      <trkpt lat="46.55146" lon="5.28899">
        <ele>193.6</ele>
        <time>2022-08-18T14:08:43Z</time>
      </trkpt>
      <trkpt lat="46.55149" lon="5.28868">
        <ele>192.6</ele>
        <time>2022-08-18T14:08:45Z</time>
      </trkpt>
      <trkpt lat="46.55154" lon="5.28823">
        <ele>191.6</ele>
        <time>2022-08-18T14:08:48Z</time>
      </trkpt>
      <trkpt lat="46.55155" lon="5.28809">
        <ele>191.6</ele>
        <time>2022-08-18T14:08:49Z</time>
      </trkpt>
      <trkpt lat="46.55154" lon="5.28795">
        <ele>191.4</ele>
        <time>2022-08-18T14:08:50Z</time>
      </trkpt>
      <trkpt lat="46.55152" lon="5.28782">
        <ele>191.4</ele>
        <time>2022-08-18T14:08:51Z</time>
      </trkpt>
      <trkpt lat="46.55143" lon="5.2876">
        <ele>191.2</ele>
        <time>2022-08-18T14:08:53Z</time>
      </trkpt>
      <trkpt lat="46.55137" lon="5.28751">
        <ele>190.8</ele>
        <time>2022-08-18T14:08:54Z</time>
      </trkpt>
      <trkpt lat="46.55102" lon="5.28697">
        <ele>190.8</ele>
        <time>2022-08-18T14:09:00Z</time>
      </trkpt>
      <trkpt lat="46.55071" lon="5.2864">
        <ele>191</ele>
        <time>2022-08-18T14:09:06Z</time>
      </trkpt>
      <trkpt lat="46.55032" lon="5.28573">
        <ele>191.2</ele>
        <time>2022-08-18T14:09:14Z</time>
      </trkpt>
      <trkpt lat="46.55004" lon="5.2852">
        <ele>192</ele>
        <time>2022-08-18T14:09:21Z</time>
      </trkpt>
      <trkpt lat="46.54996" lon="5.28506">
        <ele>192.6</ele>
        <time>2022-08-18T14:09:23Z</time>
      </trkpt>
      <trkpt lat="46.54979" lon="5.28479">
        <ele>193</ele>
        <time>2022-08-18T14:09:27Z</time>
      </trkpt>
      <trkpt lat="46.5496" lon="5.2846">
        <ele>193.4</ele>
        <time>2022-08-18T14:09:31Z</time>
      </trkpt>
      <trkpt lat="46.54955" lon="5.28457">
        <ele>193.8</ele>
        <time>2022-08-18T14:09:32Z</time>
      </trkpt>
      <trkpt lat="46.54923" lon="5.28442">
        <ele>194.8</ele>
        <time>2022-08-18T14:09:38Z</time>
      </trkpt>
      <trkpt lat="46.54913" lon="5.28436">
        <ele>195.4</ele>
        <time>2022-08-18T14:09:40Z</time>
      </trkpt>
      <trkpt lat="46.54897" lon="5.28425">
        <ele>196</ele>
        <time>2022-08-18T14:09:43Z</time>
      </trkpt>
      <trkpt lat="46.54872" lon="5.28404">
        <ele>196.6</ele>
        <time>2022-08-18T14:09:48Z</time>
      </trkpt>
      <trkpt lat="46.54867" lon="5.28401">
        <ele>196.8</ele>
        <time>2022-08-18T14:09:49Z</time>
      </trkpt>
      <trkpt lat="46.54852" lon="5.28392">
        <ele>197</ele>
        <time>2022-08-18T14:09:52Z</time>
      </trkpt>
      <trkpt lat="46.54838" lon="5.28383">
        <ele>197.6</ele>
        <time>2022-08-18T14:09:55Z</time>
      </trkpt>
      <trkpt lat="46.54825" lon="5.28375">
        <ele>198.2</ele>
        <time>2022-08-18T14:09:58Z</time>
      </trkpt>
      <trkpt lat="46.54807" lon="5.28365">
        <ele>199.6</ele>
        <time>2022-08-18T14:10:02Z</time>
      </trkpt>
      <trkpt lat="46.54798" lon="5.2836">
        <ele>200</ele>
        <time>2022-08-18T14:10:04Z</time>
      </trkpt>
      <trkpt lat="46.54786" lon="5.28359">
        <ele>200.4</ele>
        <time>2022-08-18T14:10:06Z</time>
      </trkpt>
      <trkpt lat="46.54781" lon="5.28362">
        <ele>200.6</ele>
        <time>2022-08-18T14:10:07Z</time>
      </trkpt>
      <trkpt lat="46.54776" lon="5.28366">
        <ele>200.6</ele>
        <time>2022-08-18T14:10:08Z</time>
      </trkpt>
      <trkpt lat="46.54761" lon="5.28383">
        <ele>200.8</ele>
        <time>2022-08-18T14:10:11Z</time>
      </trkpt>
      <trkpt lat="46.54745" lon="5.28398">
        <ele>200.8</ele>
        <time>2022-08-18T14:10:14Z</time>
      </trkpt>
      <trkpt lat="46.54732" lon="5.28405">
        <ele>200.6</ele>
        <time>2022-08-18T14:10:16Z</time>
      </trkpt>
      <trkpt lat="46.54688" lon="5.28426">
        <ele>199.8</ele>
        <time>2022-08-18T14:10:22Z</time>
      </trkpt>
      <trkpt lat="46.5468" lon="5.2843">
        <ele>199.2</ele>
        <time>2022-08-18T14:10:23Z</time>
      </trkpt>
      <trkpt lat="46.5464" lon="5.2845">
        <ele>198.2</ele>
        <time>2022-08-18T14:10:28Z</time>
      </trkpt>
      <trkpt lat="46.54623" lon="5.28454">
        <ele>197</ele>
        <time>2022-08-18T14:10:30Z</time>
      </trkpt>
      <trkpt lat="46.54588" lon="5.28456">
        <ele>196</ele>
        <time>2022-08-18T14:10:34Z</time>
      </trkpt>
      <trkpt lat="46.54542" lon="5.28448">
        <ele>195.2</ele>
        <time>2022-08-18T14:10:39Z</time>
      </trkpt>
      <trkpt lat="46.54524" lon="5.28449">
        <ele>195.2</ele>
        <time>2022-08-18T14:10:41Z</time>
      </trkpt>
      <trkpt lat="46.54506" lon="5.28453">
        <ele>194.6</ele>
        <time>2022-08-18T14:10:43Z</time>
      </trkpt>
      <trkpt lat="46.54488" lon="5.28453">
        <ele>194.6</ele>
        <time>2022-08-18T14:10:45Z</time>
      </trkpt>
      <trkpt lat="46.5447" lon="5.28451">
        <ele>194.2</ele>
        <time>2022-08-18T14:10:47Z</time>
      </trkpt>
      <trkpt lat="46.54436" lon="5.28453">
        <ele>194.2</ele>
        <time>2022-08-18T14:10:51Z</time>
      </trkpt>
      <trkpt lat="46.54427" lon="5.28457">
        <ele>194.2</ele>
        <time>2022-08-18T14:10:52Z</time>
      </trkpt>
      <trkpt lat="46.5442" lon="5.28462">
        <ele>194.2</ele>
        <time>2022-08-18T14:10:53Z</time>
      </trkpt>
      <trkpt lat="46.54398" lon="5.28481">
        <ele>194.2</ele>
        <time>2022-08-18T14:10:56Z</time>
      </trkpt>
      <trkpt lat="46.54349" lon="5.28521">
        <ele>195</ele>
        <time>2022-08-18T14:11:03Z</time>
      </trkpt>
      <trkpt lat="46.54318" lon="5.28545">
        <ele>196.2</ele>
        <time>2022-08-18T14:11:08Z</time>
      </trkpt>
      <trkpt lat="46.54312" lon="5.28549">
        <ele>196.2</ele>
        <time>2022-08-18T14:11:09Z</time>
      </trkpt>
      <trkpt lat="46.54285" lon="5.28568">
        <ele>197.4</ele>
        <time>2022-08-18T14:11:14Z</time>
      </trkpt>
      <trkpt lat="46.54275" lon="5.28575">
        <ele>198</ele>
        <time>2022-08-18T14:11:16Z</time>
      </trkpt>
      <trkpt lat="46.54264" lon="5.28582">
        <ele>198.4</ele>
        <time>2022-08-18T14:11:18Z</time>
      </trkpt>
      <trkpt lat="46.54242" lon="5.28598">
        <ele>199.4</ele>
        <time>2022-08-18T14:11:22Z</time>
      </trkpt>
      <trkpt lat="46.54237" lon="5.28601">
        <ele>199.6</ele>
        <time>2022-08-18T14:11:23Z</time>
      </trkpt>
      <trkpt lat="46.54222" lon="5.28609">
        <ele>200.8</ele>
        <time>2022-08-18T14:11:26Z</time>
      </trkpt>
      <trkpt lat="46.54207" lon="5.28618">
        <ele>201.8</ele>
        <time>2022-08-18T14:11:29Z</time>
      </trkpt>
      <trkpt lat="46.54196" lon="5.28623">
        <ele>202.6</ele>
        <time>2022-08-18T14:11:31Z</time>
      </trkpt>
      <trkpt lat="46.54186" lon="5.28628">
        <ele>203.4</ele>
        <time>2022-08-18T14:11:33Z</time>
      </trkpt>
      <trkpt lat="46.5417" lon="5.28634">
        <ele>204.4</ele>
        <time>2022-08-18T14:11:36Z</time>
      </trkpt>
      <trkpt lat="46.54148" lon="5.2864">
        <ele>205.2</ele>
        <time>2022-08-18T14:11:40Z</time>
      </trkpt>
      <trkpt lat="46.54142" lon="5.28641">
        <ele>205.6</ele>
        <time>2022-08-18T14:11:41Z</time>
      </trkpt>
      <trkpt lat="46.5413" lon="5.28643">
        <ele>206.4</ele>
        <time>2022-08-18T14:11:43Z</time>
      </trkpt>
      <trkpt lat="46.54105" lon="5.28645">
        <ele>207.2</ele>
        <time>2022-08-18T14:11:47Z</time>
      </trkpt>
      <trkpt lat="46.54093" lon="5.28645">
        <ele>207.6</ele>
        <time>2022-08-18T14:11:49Z</time>
      </trkpt>
      <trkpt lat="46.54062" lon="5.28642">
        <ele>208.6</ele>
        <time>2022-08-18T14:11:54Z</time>
      </trkpt>
      <trkpt lat="46.54054" lon="5.28644">
        <ele>208.8</ele>
        <time>2022-08-18T14:11:55Z</time>
      </trkpt>
      <trkpt lat="46.54016" lon="5.28641">
        <ele>209.2</ele>
        <time>2022-08-18T14:12:01Z</time>
      </trkpt>
      <trkpt lat="46.53965" lon="5.28638">
        <ele>209.6</ele>
        <time>2022-08-18T14:12:09Z</time>
      </trkpt>
      <trkpt lat="46.53958" lon="5.28637">
        <ele>209.8</ele>
        <time>2022-08-18T14:12:10Z</time>
      </trkpt>
      <trkpt lat="46.53908" lon="5.28634">
        <ele>210.6</ele>
        <time>2022-08-18T14:12:18Z</time>
      </trkpt>
      <trkpt lat="46.53896" lon="5.28632">
        <ele>210.8</ele>
        <time>2022-08-18T14:12:20Z</time>
      </trkpt>
      <trkpt lat="46.53847" lon="5.28628">
        <ele>211.8</ele>
        <time>2022-08-18T14:12:28Z</time>
      </trkpt>
      <trkpt lat="46.5384" lon="5.28627">
        <ele>212</ele>
        <time>2022-08-18T14:12:29Z</time>
      </trkpt>
      <trkpt lat="46.53786" lon="5.28623">
        <ele>212.6</ele>
        <time>2022-08-18T14:12:37Z</time>
      </trkpt>
      <trkpt lat="46.53729" lon="5.28617">
        <ele>212.6</ele>
        <time>2022-08-18T14:12:45Z</time>
      </trkpt>
      <trkpt lat="46.53721" lon="5.28617">
        <ele>212.6</ele>
        <time>2022-08-18T14:12:46Z</time>
      </trkpt>
      <trkpt lat="46.5366" lon="5.28612">
        <ele>212.8</ele>
        <time>2022-08-18T14:12:54Z</time>
      </trkpt>
      <trkpt lat="46.53646" lon="5.28609">
        <ele>212.6</ele>
        <time>2022-08-18T14:12:56Z</time>
      </trkpt>
      <trkpt lat="46.53624" lon="5.28605">
        <ele>212.2</ele>
        <time>2022-08-18T14:12:59Z</time>
      </trkpt>
      <trkpt lat="46.53615" lon="5.28605">
        <ele>212.2</ele>
        <time>2022-08-18T14:13:00Z</time>
      </trkpt>
      <trkpt lat="46.53582" lon="5.28604">
        <ele>211.8</ele>
        <time>2022-08-18T14:13:04Z</time>
      </trkpt>
      <trkpt lat="46.53525" lon="5.28601">
        <ele>211</ele>
        <time>2022-08-18T14:13:11Z</time>
      </trkpt>
      <trkpt lat="46.53464" lon="5.28597">
        <ele>210</ele>
        <time>2022-08-18T14:13:18Z</time>
      </trkpt>
      <trkpt lat="46.53454" lon="5.28595">
        <ele>209.8</ele>
        <time>2022-08-18T14:13:19Z</time>
      </trkpt>
      <trkpt lat="46.53444" lon="5.28592">
        <ele>209.6</ele>
        <time>2022-08-18T14:13:20Z</time>
      </trkpt>
      <trkpt lat="46.53424" lon="5.28584">
        <ele>209</ele>
        <time>2022-08-18T14:13:22Z</time>
      </trkpt>
      <trkpt lat="46.53415" lon="5.28577">
        <ele>208.4</ele>
        <time>2022-08-18T14:13:23Z</time>
      </trkpt>
      <trkpt lat="46.53396" lon="5.28564">
        <ele>207.2</ele>
        <time>2022-08-18T14:13:25Z</time>
      </trkpt>
      <trkpt lat="46.53386" lon="5.28557">
        <ele>207</ele>
        <time>2022-08-18T14:13:26Z</time>
      </trkpt>
      <trkpt lat="46.53365" lon="5.28545">
        <ele>206</ele>
        <time>2022-08-18T14:13:28Z</time>
      </trkpt>
      <trkpt lat="46.53344" lon="5.28532">
        <ele>204.4</ele>
        <time>2022-08-18T14:13:30Z</time>
      </trkpt>
      <trkpt lat="46.53324" lon="5.28522">
        <ele>203.6</ele>
        <time>2022-08-18T14:13:32Z</time>
      </trkpt>
      <trkpt lat="46.53302" lon="5.28519">
        <ele>202.8</ele>
        <time>2022-08-18T14:13:34Z</time>
      </trkpt>
      <trkpt lat="46.53281" lon="5.28519">
        <ele>202.2</ele>
        <time>2022-08-18T14:13:36Z</time>
      </trkpt>
      <trkpt lat="46.5327" lon="5.28519">
        <ele>201.4</ele>
        <time>2022-08-18T14:13:37Z</time>
      </trkpt>
      <trkpt lat="46.53232" lon="5.28519">
        <ele>200.4</ele>
        <time>2022-08-18T14:13:41Z</time>
      </trkpt>
      <trkpt lat="46.53189" lon="5.28525">
        <ele>200.6</ele>
        <time>2022-08-18T14:13:46Z</time>
      </trkpt>
      <trkpt lat="46.53169" lon="5.28529">
        <ele>201.8</ele>
        <time>2022-08-18T14:13:49Z</time>
      </trkpt>
      <trkpt lat="46.5316" lon="5.28532">
        <ele>202.6</ele>
        <time>2022-08-18T14:13:51Z</time>
      </trkpt>
      <trkpt lat="46.53154" lon="5.28534">
        <ele>203</ele>
        <time>2022-08-18T14:13:52Z</time>
      </trkpt>
      <trkpt lat="46.53131" lon="5.28539">
        <ele>204.2</ele>
        <time>2022-08-18T14:13:55Z</time>
      </trkpt>
      <trkpt lat="46.53108" lon="5.28544">
        <ele>205.8</ele>
        <time>2022-08-18T14:13:58Z</time>
      </trkpt>
      <trkpt lat="46.53081" lon="5.28547">
        <ele>206.8</ele>
        <time>2022-08-18T14:14:02Z</time>
      </trkpt>
      <trkpt lat="46.53033" lon="5.28558">
        <ele>208</ele>
        <time>2022-08-18T14:14:09Z</time>
      </trkpt>
      <trkpt lat="46.52993" lon="5.28567">
        <ele>208.8</ele>
        <time>2022-08-18T14:14:15Z</time>
      </trkpt>
      <trkpt lat="46.52987" lon="5.28568">
        <ele>209</ele>
        <time>2022-08-18T14:14:16Z</time>
      </trkpt>
      <trkpt lat="46.52964" lon="5.28571">
        <ele>210.2</ele>
        <time>2022-08-18T14:14:20Z</time>
      </trkpt>
      <trkpt lat="46.52951" lon="5.28573">
        <ele>210.2</ele>
        <time>2022-08-18T14:14:22Z</time>
      </trkpt>
      <trkpt lat="46.52914" lon="5.28581">
        <ele>210.8</ele>
        <time>2022-08-18T14:14:28Z</time>
      </trkpt>
      <trkpt lat="46.52887" lon="5.28586">
        <ele>211.2</ele>
        <time>2022-08-18T14:14:32Z</time>
      </trkpt>
      <trkpt lat="46.5288" lon="5.28587">
        <ele>211.2</ele>
        <time>2022-08-18T14:14:33Z</time>
      </trkpt>
      <trkpt lat="46.52826" lon="5.28601">
        <ele>210.8</ele>
        <time>2022-08-18T14:14:41Z</time>
      </trkpt>
      <trkpt lat="46.52773" lon="5.2861">
        <ele>210.6</ele>
        <time>2022-08-18T14:14:48Z</time>
      </trkpt>
      <trkpt lat="46.52725" lon="5.28617">
        <ele>210.4</ele>
        <time>2022-08-18T14:14:54Z</time>
      </trkpt>
      <trkpt lat="46.52708" lon="5.28621">
        <ele>210</ele>
        <time>2022-08-18T14:14:56Z</time>
      </trkpt>
      <trkpt lat="46.52667" lon="5.28625">
        <ele>209.4</ele>
        <time>2022-08-18T14:15:01Z</time>
      </trkpt>
      <trkpt lat="46.52628" lon="5.28615">
        <ele>208.8</ele>
        <time>2022-08-18T14:15:06Z</time>
      </trkpt>
      <trkpt lat="46.52613" lon="5.28609">
        <ele>209</ele>
        <time>2022-08-18T14:15:08Z</time>
      </trkpt>
      <trkpt lat="46.52596" lon="5.28607">
        <ele>208.8</ele>
        <time>2022-08-18T14:15:10Z</time>
      </trkpt>
      <trkpt lat="46.52579" lon="5.28608">
        <ele>208.6</ele>
        <time>2022-08-18T14:15:12Z</time>
      </trkpt>
      <trkpt lat="46.52544" lon="5.28614">
        <ele>207.8</ele>
        <time>2022-08-18T14:15:16Z</time>
      </trkpt>
      <trkpt lat="46.52525" lon="5.28617">
        <ele>207.4</ele>
        <time>2022-08-18T14:15:18Z</time>
      </trkpt>
      <trkpt lat="46.52506" lon="5.2862">
        <ele>206.4</ele>
        <time>2022-08-18T14:15:20Z</time>
      </trkpt>
      <trkpt lat="46.52464" lon="5.28629">
        <ele>205</ele>
        <time>2022-08-18T14:15:24Z</time>
      </trkpt>
      <trkpt lat="46.52432" lon="5.28635">
        <ele>204</ele>
        <time>2022-08-18T14:15:27Z</time>
      </trkpt>
      <trkpt lat="46.52411" lon="5.28638">
        <ele>202.6</ele>
        <time>2022-08-18T14:15:29Z</time>
      </trkpt>
      <trkpt lat="46.52378" lon="5.28645">
        <ele>201.4</ele>
        <time>2022-08-18T14:15:32Z</time>
      </trkpt>
      <trkpt lat="46.52356" lon="5.28648">
        <ele>200.2</ele>
        <time>2022-08-18T14:15:34Z</time>
      </trkpt>
      <trkpt lat="46.52334" lon="5.28652">
        <ele>199.6</ele>
        <time>2022-08-18T14:15:36Z</time>
      </trkpt>
      <trkpt lat="46.52312" lon="5.28655">
        <ele>198.6</ele>
        <time>2022-08-18T14:15:38Z</time>
      </trkpt>
      <trkpt lat="46.5228" lon="5.28657">
        <ele>196.8</ele>
        <time>2022-08-18T14:15:41Z</time>
      </trkpt>
      <trkpt lat="46.52269" lon="5.28658">
        <ele>196.4</ele>
        <time>2022-08-18T14:15:42Z</time>
      </trkpt>
      <trkpt lat="46.52258" lon="5.28659">
        <ele>195.6</ele>
        <time>2022-08-18T14:15:43Z</time>
      </trkpt>
      <trkpt lat="46.52215" lon="5.28665">
        <ele>194.4</ele>
        <time>2022-08-18T14:15:47Z</time>
      </trkpt>
      <trkpt lat="46.52194" lon="5.28672">
        <ele>194</ele>
        <time>2022-08-18T14:15:49Z</time>
      </trkpt>
      <trkpt lat="46.52163" lon="5.28684">
        <ele>193.2</ele>
        <time>2022-08-18T14:15:52Z</time>
      </trkpt>
      <trkpt lat="46.52135" lon="5.28695">
        <ele>192.2</ele>
        <time>2022-08-18T14:15:55Z</time>
      </trkpt>
      <trkpt lat="46.52125" lon="5.28699">
        <ele>192</ele>
        <time>2022-08-18T14:15:56Z</time>
      </trkpt>
      <trkpt lat="46.5207" lon="5.28714">
        <ele>191.8</ele>
        <time>2022-08-18T14:16:02Z</time>
      </trkpt>
      <trkpt lat="46.52061" lon="5.28715">
        <ele>192</ele>
        <time>2022-08-18T14:16:03Z</time>
      </trkpt>
      <trkpt lat="46.52035" lon="5.28721">
        <ele>192</ele>
        <time>2022-08-18T14:16:06Z</time>
      </trkpt>
      <trkpt lat="46.52027" lon="5.28724">
        <ele>192.2</ele>
        <time>2022-08-18T14:16:07Z</time>
      </trkpt>
      <trkpt lat="46.5198" lon="5.28749">
        <ele>192.4</ele>
        <time>2022-08-18T14:16:13Z</time>
      </trkpt>
      <trkpt lat="46.51964" lon="5.28751">
        <ele>192.6</ele>
        <time>2022-08-18T14:16:15Z</time>
      </trkpt>
      <trkpt lat="46.51948" lon="5.2875">
        <ele>192.8</ele>
        <time>2022-08-18T14:16:17Z</time>
      </trkpt>
      <trkpt lat="46.51909" lon="5.28744">
        <ele>193.2</ele>
        <time>2022-08-18T14:16:22Z</time>
      </trkpt>
      <trkpt lat="46.51901" lon="5.28741">
        <ele>193.6</ele>
        <time>2022-08-18T14:16:23Z</time>
      </trkpt>
      <trkpt lat="46.51893" lon="5.28737">
        <ele>193.6</ele>
        <time>2022-08-18T14:16:24Z</time>
      </trkpt>
      <trkpt lat="46.51886" lon="5.28732">
        <ele>194</ele>
        <time>2022-08-18T14:16:25Z</time>
      </trkpt>
      <trkpt lat="46.51873" lon="5.2872">
        <ele>194.4</ele>
        <time>2022-08-18T14:16:27Z</time>
      </trkpt>
      <trkpt lat="46.5186" lon="5.28709">
        <ele>194.6</ele>
        <time>2022-08-18T14:16:29Z</time>
      </trkpt>
      <trkpt lat="46.51825" lon="5.28691">
        <ele>195.4</ele>
        <time>2022-08-18T14:16:34Z</time>
      </trkpt>
      <trkpt lat="46.5181" lon="5.28688">
        <ele>195.8</ele>
        <time>2022-08-18T14:16:36Z</time>
      </trkpt>
      <trkpt lat="46.51794" lon="5.28689">
        <ele>196</ele>
        <time>2022-08-18T14:16:38Z</time>
      </trkpt>
      <trkpt lat="46.51786" lon="5.28688">
        <ele>196</ele>
        <time>2022-08-18T14:16:39Z</time>
      </trkpt>
      <trkpt lat="46.51771" lon="5.28681">
        <ele>196.2</ele>
        <time>2022-08-18T14:16:41Z</time>
      </trkpt>
      <trkpt lat="46.51757" lon="5.2867">
        <ele>196.4</ele>
        <time>2022-08-18T14:16:43Z</time>
      </trkpt>
      <trkpt lat="46.51729" lon="5.28648">
        <ele>197</ele>
        <time>2022-08-18T14:16:47Z</time>
      </trkpt>
      <trkpt lat="46.51721" lon="5.28645">
        <ele>197</ele>
        <time>2022-08-18T14:16:48Z</time>
      </trkpt>
      <trkpt lat="46.51706" lon="5.28642">
        <ele>197</ele>
        <time>2022-08-18T14:16:50Z</time>
      </trkpt>
      <trkpt lat="46.51648" lon="5.2865">
        <ele>196.6</ele>
        <time>2022-08-18T14:16:57Z</time>
      </trkpt>
      <trkpt lat="46.51603" lon="5.2866">
        <ele>195.8</ele>
        <time>2022-08-18T14:17:02Z</time>
      </trkpt>
      <trkpt lat="46.51588" lon="5.28674">
        <ele>195.4</ele>
        <time>2022-08-18T14:17:04Z</time>
      </trkpt>
      <trkpt lat="46.51581" lon="5.28684">
        <ele>195</ele>
        <time>2022-08-18T14:17:05Z</time>
      </trkpt>
      <trkpt lat="46.51546" lon="5.2875">
        <ele>193.8</ele>
        <time>2022-08-18T14:17:11Z</time>
      </trkpt>
      <trkpt lat="46.51517" lon="5.28807">
        <ele>192.8</ele>
        <time>2022-08-18T14:17:16Z</time>
      </trkpt>
      <trkpt lat="46.51512" lon="5.2882">
        <ele>192.8</ele>
        <time>2022-08-18T14:17:17Z</time>
      </trkpt>
      <trkpt lat="46.51508" lon="5.28833">
        <ele>192.6</ele>
        <time>2022-08-18T14:17:18Z</time>
      </trkpt>
      <trkpt lat="46.51502" lon="5.28859">
        <ele>192.4</ele>
        <time>2022-08-18T14:17:20Z</time>
      </trkpt>
      <trkpt lat="46.51499" lon="5.28873">
        <ele>192.2</ele>
        <time>2022-08-18T14:17:21Z</time>
      </trkpt>
      <trkpt lat="46.51487" lon="5.28938">
        <ele>192.2</ele>
        <time>2022-08-18T14:17:26Z</time>
      </trkpt>
      <trkpt lat="46.51473" lon="5.29021">
        <ele>192.2</ele>
        <time>2022-08-18T14:17:33Z</time>
      </trkpt>
      <trkpt lat="46.51461" lon="5.29097">
        <ele>192.6</ele>
        <time>2022-08-18T14:17:40Z</time>
      </trkpt>
      <trkpt lat="46.51446" lon="5.29179">
        <ele>193.4</ele>
        <time>2022-08-18T14:17:48Z</time>
      </trkpt>
      <trkpt lat="46.51443" lon="5.29189">
        <ele>193.6</ele>
        <time>2022-08-18T14:17:49Z</time>
      </trkpt>
      <trkpt lat="46.51433" lon="5.29216">
        <ele>193.8</ele>
        <time>2022-08-18T14:17:52Z</time>
      </trkpt>
      <trkpt lat="46.51429" lon="5.29224">
        <ele>193.8</ele>
        <time>2022-08-18T14:17:53Z</time>
      </trkpt>
      <trkpt lat="46.51425" lon="5.29231">
        <ele>194</ele>
        <time>2022-08-18T14:17:54Z</time>
      </trkpt>
      <trkpt lat="46.51408" lon="5.29254">
        <ele>194</ele>
        <time>2022-08-18T14:17:57Z</time>
      </trkpt>
      <trkpt lat="46.51403" lon="5.29261">
        <ele>194.2</ele>
        <time>2022-08-18T14:17:58Z</time>
      </trkpt>
      <trkpt lat="46.51398" lon="5.29269">
        <ele>194.2</ele>
        <time>2022-08-18T14:17:59Z</time>
      </trkpt>
      <trkpt lat="46.51381" lon="5.29302">
        <ele>194.4</ele>
        <time>2022-08-18T14:18:03Z</time>
      </trkpt>
      <trkpt lat="46.51361" lon="5.29334">
        <ele>194.4</ele>
        <time>2022-08-18T14:18:07Z</time>
      </trkpt>
      <trkpt lat="46.51355" lon="5.29341">
        <ele>194.2</ele>
        <time>2022-08-18T14:18:08Z</time>
      </trkpt>
      <trkpt lat="46.51342" lon="5.29352">
        <ele>194.2</ele>
        <time>2022-08-18T14:18:10Z</time>
      </trkpt>
      <trkpt lat="46.5132" lon="5.29365">
        <ele>194</ele>
        <time>2022-08-18T14:18:13Z</time>
      </trkpt>
      <trkpt lat="46.51269" lon="5.29393">
        <ele>193.6</ele>
        <time>2022-08-18T14:18:20Z</time>
      </trkpt>
      <trkpt lat="46.51224" lon="5.29404">
        <ele>193.6</ele>
        <time>2022-08-18T14:18:26Z</time>
      </trkpt>
      <trkpt lat="46.51166" lon="5.29419">
        <ele>194</ele>
        <time>2022-08-18T14:18:34Z</time>
      </trkpt>
      <trkpt lat="46.51158" lon="5.29421">
        <ele>194</ele>
        <time>2022-08-18T14:18:35Z</time>
      </trkpt>
      <trkpt lat="46.511" lon="5.29438">
        <ele>194.6</ele>
        <time>2022-08-18T14:18:43Z</time>
      </trkpt>
      <trkpt lat="46.51058" lon="5.29454">
        <ele>195</ele>
        <time>2022-08-18T14:18:49Z</time>
      </trkpt>
      <trkpt lat="46.51045" lon="5.29461">
        <ele>195</ele>
        <time>2022-08-18T14:18:51Z</time>
      </trkpt>
      <trkpt lat="46.51016" lon="5.29483">
        <ele>195.6</ele>
        <time>2022-08-18T14:18:56Z</time>
      </trkpt>
      <trkpt lat="46.51001" lon="5.29496">
        <ele>196.2</ele>
        <time>2022-08-18T14:18:59Z</time>
      </trkpt>
      <trkpt lat="46.50986" lon="5.29507">
        <ele>196.6</ele>
        <time>2022-08-18T14:19:02Z</time>
      </trkpt>
      <trkpt lat="46.50977" lon="5.29514">
        <ele>197.2</ele>
        <time>2022-08-18T14:19:04Z</time>
      </trkpt>
      <trkpt lat="46.50961" lon="5.29527">
        <ele>198.2</ele>
        <time>2022-08-18T14:19:08Z</time>
      </trkpt>
      <trkpt lat="46.50957" lon="5.2953">
        <ele>198.4</ele>
        <time>2022-08-18T14:19:09Z</time>
      </trkpt>
      <trkpt lat="46.50943" lon="5.29542">
        <ele>199.4</ele>
        <time>2022-08-18T14:19:13Z</time>
      </trkpt>
      <trkpt lat="46.50936" lon="5.29547">
        <ele>200.2</ele>
        <time>2022-08-18T14:19:15Z</time>
      </trkpt>
      <trkpt lat="46.50928" lon="5.29552">
        <ele>200.8</ele>
        <time>2022-08-18T14:19:17Z</time>
      </trkpt>
      <trkpt lat="46.50918" lon="5.29559">
        <ele>201.8</ele>
        <time>2022-08-18T14:19:20Z</time>
      </trkpt>
      <trkpt lat="46.50911" lon="5.29564">
        <ele>202.2</ele>
        <time>2022-08-18T14:19:22Z</time>
      </trkpt>
      <trkpt lat="46.50901" lon="5.29568">
        <ele>203</ele>
        <time>2022-08-18T14:19:25Z</time>
      </trkpt>
      <trkpt lat="46.50886" lon="5.29571">
        <ele>204.2</ele>
        <time>2022-08-18T14:19:29Z</time>
      </trkpt>
      <trkpt lat="46.50871" lon="5.29571">
        <ele>205.2</ele>
        <time>2022-08-18T14:19:33Z</time>
      </trkpt>
      <trkpt lat="46.50852" lon="5.29569">
        <ele>206.4</ele>
        <time>2022-08-18T14:19:38Z</time>
      </trkpt>
      <trkpt lat="46.50822" lon="5.29565">
        <ele>207.6</ele>
        <time>2022-08-18T14:19:45Z</time>
      </trkpt>
      <trkpt lat="46.5081" lon="5.29564">
        <ele>208.6</ele>
        <time>2022-08-18T14:19:48Z</time>
      </trkpt>
      <trkpt lat="46.50806" lon="5.29564">
        <ele>208.6</ele>
        <time>2022-08-18T14:19:49Z</time>
      </trkpt>
      <trkpt lat="46.50785" lon="5.29563">
        <ele>209.8</ele>
        <time>2022-08-18T14:19:54Z</time>
      </trkpt>
      <trkpt lat="46.50765" lon="5.29561">
        <ele>210.8</ele>
        <time>2022-08-18T14:19:59Z</time>
      </trkpt>
      <trkpt lat="46.5076" lon="5.29561">
        <ele>210.8</ele>
        <time>2022-08-18T14:20:00Z</time>
      </trkpt>
      <trkpt lat="46.50735" lon="5.29553">
        <ele>212.2</ele>
        <time>2022-08-18T14:20:06Z</time>
      </trkpt>
      <trkpt lat="46.50726" lon="5.29549">
        <ele>212.6</ele>
        <time>2022-08-18T14:20:08Z</time>
      </trkpt>
      <trkpt lat="46.50713" lon="5.29543">
        <ele>213.2</ele>
        <time>2022-08-18T14:20:11Z</time>
      </trkpt>
      <trkpt lat="46.5069" lon="5.29532">
        <ele>214</ele>
        <time>2022-08-18T14:20:16Z</time>
      </trkpt>
      <trkpt lat="46.50681" lon="5.29528">
        <ele>214.4</ele>
        <time>2022-08-18T14:20:18Z</time>
      </trkpt>
      <trkpt lat="46.50662" lon="5.29523">
        <ele>215</ele>
        <time>2022-08-18T14:20:22Z</time>
      </trkpt>
      <trkpt lat="46.50657" lon="5.29523">
        <ele>215.2</ele>
        <time>2022-08-18T14:20:23Z</time>
      </trkpt>
      <trkpt lat="46.50651" lon="5.29524">
        <ele>215.4</ele>
        <time>2022-08-18T14:20:24Z</time>
      </trkpt>
      <trkpt lat="46.50625" lon="5.29536">
        <ele>216</ele>
        <time>2022-08-18T14:20:29Z</time>
      </trkpt>
      <trkpt lat="46.5062" lon="5.2954">
        <ele>216.4</ele>
        <time>2022-08-18T14:20:30Z</time>
      </trkpt>
      <trkpt lat="46.50597" lon="5.29558">
        <ele>217.2</ele>
        <time>2022-08-18T14:20:34Z</time>
      </trkpt>
      <trkpt lat="46.50567" lon="5.29582">
        <ele>217.4</ele>
        <time>2022-08-18T14:20:39Z</time>
      </trkpt>
      <trkpt lat="46.50514" lon="5.29621">
        <ele>217.6</ele>
        <time>2022-08-18T14:20:47Z</time>
      </trkpt>
      <trkpt lat="46.50477" lon="5.29647">
        <ele>217.6</ele>
        <time>2022-08-18T14:20:52Z</time>
      </trkpt>
      <trkpt lat="46.50456" lon="5.29662">
        <ele>217.4</ele>
        <time>2022-08-18T14:20:55Z</time>
      </trkpt>
      <trkpt lat="46.50407" lon="5.29695">
        <ele>217.4</ele>
        <time>2022-08-18T14:21:02Z</time>
      </trkpt>
      <trkpt lat="46.50357" lon="5.29723">
        <ele>217.8</ele>
        <time>2022-08-18T14:21:09Z</time>
      </trkpt>
      <trkpt lat="46.50302" lon="5.29746">
        <ele>218</ele>
        <time>2022-08-18T14:21:16Z</time>
      </trkpt>
      <trkpt lat="46.50294" lon="5.29749">
        <ele>218</ele>
        <time>2022-08-18T14:21:17Z</time>
      </trkpt>
      <trkpt lat="46.50235" lon="5.29769">
        <ele>217.4</ele>
        <time>2022-08-18T14:21:24Z</time>
      </trkpt>
      <trkpt lat="46.50227" lon="5.2977">
        <ele>217.4</ele>
        <time>2022-08-18T14:21:25Z</time>
      </trkpt>
      <trkpt lat="46.50171" lon="5.29768">
        <ele>217</ele>
        <time>2022-08-18T14:21:32Z</time>
      </trkpt>
      <trkpt lat="46.50121" lon="5.29778">
        <ele>216.4</ele>
        <time>2022-08-18T14:21:38Z</time>
      </trkpt>
      <trkpt lat="46.50113" lon="5.2978">
        <ele>216.4</ele>
        <time>2022-08-18T14:21:39Z</time>
      </trkpt>
      <trkpt lat="46.5007" lon="5.29796">
        <ele>215</ele>
        <time>2022-08-18T14:21:44Z</time>
      </trkpt>
      <trkpt lat="46.50062" lon="5.298">
        <ele>214.4</ele>
        <time>2022-08-18T14:21:45Z</time>
      </trkpt>
      <trkpt lat="46.50046" lon="5.29813">
        <ele>213.6</ele>
        <time>2022-08-18T14:21:47Z</time>
      </trkpt>
      <trkpt lat="46.50039" lon="5.29821">
        <ele>213.4</ele>
        <time>2022-08-18T14:21:48Z</time>
      </trkpt>
      <trkpt lat="46.50016" lon="5.29853">
        <ele>212.4</ele>
        <time>2022-08-18T14:21:52Z</time>
      </trkpt>
      <trkpt lat="46.50009" lon="5.29859">
        <ele>212</ele>
        <time>2022-08-18T14:21:54Z</time>
      </trkpt>
      <trkpt lat="46.50008" lon="5.29867">
        <ele>211.8</ele>
        <time>2022-08-18T14:21:56Z</time>
      </trkpt>
      <trkpt lat="46.50023" lon="5.29885">
        <ele>211.6</ele>
        <time>2022-08-18T14:22:00Z</time>
      </trkpt>
      <trkpt lat="46.50047" lon="5.29915">
        <ele>211.6</ele>
        <time>2022-08-18T14:22:05Z</time>
      </trkpt>
      <trkpt lat="46.50063" lon="5.29945">
        <ele>211.8</ele>
        <time>2022-08-18T14:22:09Z</time>
      </trkpt>
      <trkpt lat="46.50066" lon="5.29953">
        <ele>212</ele>
        <time>2022-08-18T14:22:10Z</time>
      </trkpt>
      <trkpt lat="46.50077" lon="5.29997">
        <ele>212.6</ele>
        <time>2022-08-18T14:22:15Z</time>
      </trkpt>
      <trkpt lat="46.5008" lon="5.30016">
        <ele>212.8</ele>
        <time>2022-08-18T14:22:17Z</time>
      </trkpt>
      <trkpt lat="46.50083" lon="5.30055">
        <ele>213.2</ele>
        <time>2022-08-18T14:22:21Z</time>
      </trkpt>
      <trkpt lat="46.50084" lon="5.30075">
        <ele>213.4</ele>
        <time>2022-08-18T14:22:23Z</time>
      </trkpt>
      <trkpt lat="46.50084" lon="5.30117">
        <ele>213.6</ele>
        <time>2022-08-18T14:22:27Z</time>
      </trkpt>
      <trkpt lat="46.50084" lon="5.30183">
        <ele>213.4</ele>
        <time>2022-08-18T14:22:33Z</time>
      </trkpt>
      <trkpt lat="46.50085" lon="5.30259">
        <ele>213</ele>
        <time>2022-08-18T14:22:40Z</time>
      </trkpt>
      <trkpt lat="46.50082" lon="5.30293">
        <ele>212.4</ele>
        <time>2022-08-18T14:22:43Z</time>
      </trkpt>
      <trkpt lat="46.5008" lon="5.30305">
        <ele>212.4</ele>
        <time>2022-08-18T14:22:44Z</time>
      </trkpt>
      <trkpt lat="46.50078" lon="5.30316">
        <ele>212.2</ele>
        <time>2022-08-18T14:22:45Z</time>
      </trkpt>
      <trkpt lat="46.50067" lon="5.3035">
        <ele>212</ele>
        <time>2022-08-18T14:22:48Z</time>
      </trkpt>
      <trkpt lat="46.50062" lon="5.30361">
        <ele>212</ele>
        <time>2022-08-18T14:22:49Z</time>
      </trkpt>
      <trkpt lat="46.5005" lon="5.3038">
        <ele>211.6</ele>
        <time>2022-08-18T14:22:51Z</time>
      </trkpt>
      <trkpt lat="46.50043" lon="5.30389">
        <ele>211.4</ele>
        <time>2022-08-18T14:22:52Z</time>
      </trkpt>
      <trkpt lat="46.50036" lon="5.30396">
        <ele>211.2</ele>
        <time>2022-08-18T14:22:53Z</time>
      </trkpt>
      <trkpt lat="46.50005" lon="5.30421">
        <ele>210.2</ele>
        <time>2022-08-18T14:22:57Z</time>
      </trkpt>
      <trkpt lat="46.4999" lon="5.30433">
        <ele>210.2</ele>
        <time>2022-08-18T14:22:59Z</time>
      </trkpt>
      <trkpt lat="46.49959" lon="5.30467">
        <ele>210.2</ele>
        <time>2022-08-18T14:23:04Z</time>
      </trkpt>
      <trkpt lat="46.4994" lon="5.3051">
        <ele>211.4</ele>
        <time>2022-08-18T14:23:09Z</time>
      </trkpt>
      <trkpt lat="46.49931" lon="5.30547">
        <ele>212.4</ele>
        <time>2022-08-18T14:23:13Z</time>
      </trkpt>
      <trkpt lat="46.4993" lon="5.30556">
        <ele>212.6</ele>
        <time>2022-08-18T14:23:14Z</time>
      </trkpt>
      <trkpt lat="46.4993" lon="5.30592">
        <ele>213.6</ele>
        <time>2022-08-18T14:23:18Z</time>
      </trkpt>
      <trkpt lat="46.49931" lon="5.3061">
        <ele>214</ele>
        <time>2022-08-18T14:23:20Z</time>
      </trkpt>
      <trkpt lat="46.49936" lon="5.30635">
        <ele>215</ele>
        <time>2022-08-18T14:23:23Z</time>
      </trkpt>
      <trkpt lat="46.49937" lon="5.30644">
        <ele>215.2</ele>
        <time>2022-08-18T14:23:24Z</time>
      </trkpt>
      <trkpt lat="46.49939" lon="5.30661">
        <ele>215.6</ele>
        <time>2022-08-18T14:23:26Z</time>
      </trkpt>
      <trkpt lat="46.49942" lon="5.30669">
        <ele>215.8</ele>
        <time>2022-08-18T14:23:27Z</time>
      </trkpt>
      <trkpt lat="46.49945" lon="5.30686">
        <ele>216</ele>
        <time>2022-08-18T14:23:29Z</time>
      </trkpt>
      <trkpt lat="46.4995" lon="5.30711">
        <ele>216.4</ele>
        <time>2022-08-18T14:23:32Z</time>
      </trkpt>
      <trkpt lat="46.49955" lon="5.30736">
        <ele>217.2</ele>
        <time>2022-08-18T14:23:35Z</time>
      </trkpt>
      <trkpt lat="46.49961" lon="5.30772">
        <ele>218.2</ele>
        <time>2022-08-18T14:23:39Z</time>
      </trkpt>
      <trkpt lat="46.49963" lon="5.30782">
        <ele>218.4</ele>
        <time>2022-08-18T14:23:40Z</time>
      </trkpt>
      <trkpt lat="46.49979" lon="5.30839">
        <ele>218.4</ele>
        <time>2022-08-18T14:23:46Z</time>
      </trkpt>
      <trkpt lat="46.50004" lon="5.3091">
        <ele>217.4</ele>
        <time>2022-08-18T14:23:53Z</time>
      </trkpt>
      <trkpt lat="46.50012" lon="5.30931">
        <ele>217.2</ele>
        <time>2022-08-18T14:23:55Z</time>
      </trkpt>
      <trkpt lat="46.50024" lon="5.30964">
        <ele>216.2</ele>
        <time>2022-08-18T14:23:58Z</time>
      </trkpt>
      <trkpt lat="46.50036" lon="5.31">
        <ele>215</ele>
        <time>2022-08-18T14:24:01Z</time>
      </trkpt>
      <trkpt lat="46.50045" lon="5.31024">
        <ele>213.4</ele>
        <time>2022-08-18T14:24:03Z</time>
      </trkpt>
      <trkpt lat="46.50049" lon="5.31037">
        <ele>213.2</ele>
        <time>2022-08-18T14:24:04Z</time>
      </trkpt>
      <trkpt lat="46.50061" lon="5.31075">
        <ele>212</ele>
        <time>2022-08-18T14:24:07Z</time>
      </trkpt>
      <trkpt lat="46.5007" lon="5.31102">
        <ele>211</ele>
        <time>2022-08-18T14:24:09Z</time>
      </trkpt>
      <trkpt lat="46.50075" lon="5.31115">
        <ele>209.6</ele>
        <time>2022-08-18T14:24:10Z</time>
      </trkpt>
      <trkpt lat="46.50088" lon="5.31156">
        <ele>208.6</ele>
        <time>2022-08-18T14:24:13Z</time>
      </trkpt>
      <trkpt lat="46.501" lon="5.31192">
        <ele>207.4</ele>
        <time>2022-08-18T14:24:16Z</time>
      </trkpt>
      <trkpt lat="46.50104" lon="5.31204">
        <ele>207.4</ele>
        <time>2022-08-18T14:24:17Z</time>
      </trkpt>
      <trkpt lat="46.50126" lon="5.31266">
        <ele>207.4</ele>
        <time>2022-08-18T14:24:23Z</time>
      </trkpt>
      <trkpt lat="46.5013" lon="5.31276">
        <ele>207.6</ele>
        <time>2022-08-18T14:24:24Z</time>
      </trkpt>
      <trkpt lat="46.50155" lon="5.31348">
        <ele>208</ele>
        <time>2022-08-18T14:24:31Z</time>
      </trkpt>
      <trkpt lat="46.50161" lon="5.31368">
        <ele>208.2</ele>
        <time>2022-08-18T14:24:33Z</time>
      </trkpt>
      <trkpt lat="46.50185" lon="5.31442">
        <ele>207.6</ele>
        <time>2022-08-18T14:24:40Z</time>
      </trkpt>
      <trkpt lat="46.50201" lon="5.31491">
        <ele>206.6</ele>
        <time>2022-08-18T14:24:44Z</time>
      </trkpt>
      <trkpt lat="46.50215" lon="5.31528">
        <ele>205.2</ele>
        <time>2022-08-18T14:24:47Z</time>
      </trkpt>
      <trkpt lat="46.50221" lon="5.31539">
        <ele>205</ele>
        <time>2022-08-18T14:24:48Z</time>
      </trkpt>
      <trkpt lat="46.50242" lon="5.3157">
        <ele>203.8</ele>
        <time>2022-08-18T14:24:51Z</time>
      </trkpt>
      <trkpt lat="46.50264" lon="5.31594">
        <ele>202.8</ele>
        <time>2022-08-18T14:24:54Z</time>
      </trkpt>
      <trkpt lat="46.5028" lon="5.31607">
        <ele>202.2</ele>
        <time>2022-08-18T14:24:56Z</time>
      </trkpt>
      <trkpt lat="46.50325" lon="5.31641">
        <ele>201.8</ele>
        <time>2022-08-18T14:25:02Z</time>
      </trkpt>
      <trkpt lat="46.50332" lon="5.31646">
        <ele>201.8</ele>
        <time>2022-08-18T14:25:03Z</time>
      </trkpt>
      <trkpt lat="46.50365" lon="5.31677">
        <ele>201.4</ele>
        <time>2022-08-18T14:25:08Z</time>
      </trkpt>
      <trkpt lat="46.50385" lon="5.31709">
        <ele>201.4</ele>
        <time>2022-08-18T14:25:12Z</time>
      </trkpt>
      <trkpt lat="46.50408" lon="5.31763">
        <ele>201.8</ele>
        <time>2022-08-18T14:25:18Z</time>
      </trkpt>
      <trkpt lat="46.50428" lon="5.31841">
        <ele>202.4</ele>
        <time>2022-08-18T14:25:26Z</time>
      </trkpt>
      <trkpt lat="46.50435" lon="5.31902">
        <ele>202.6</ele>
        <time>2022-08-18T14:25:32Z</time>
      </trkpt>
      <trkpt lat="46.50435" lon="5.31974">
        <ele>203</ele>
        <time>2022-08-18T14:25:39Z</time>
      </trkpt>
      <trkpt lat="46.50434" lon="5.32015">
        <ele>203.2</ele>
        <time>2022-08-18T14:25:43Z</time>
      </trkpt>
      <trkpt lat="46.50432" lon="5.32095">
        <ele>203.4</ele>
        <time>2022-08-18T14:25:51Z</time>
      </trkpt>
      <trkpt lat="46.50431" lon="5.32105">
        <ele>203.4</ele>
        <time>2022-08-18T14:25:52Z</time>
      </trkpt>
      <trkpt lat="46.5043" lon="5.32173">
        <ele>204</ele>
        <time>2022-08-18T14:25:59Z</time>
      </trkpt>
      <trkpt lat="46.50429" lon="5.32182">
        <ele>204</ele>
        <time>2022-08-18T14:26:00Z</time>
      </trkpt>
      <trkpt lat="46.50429" lon="5.32248">
        <ele>205</ele>
        <time>2022-08-18T14:26:07Z</time>
      </trkpt>
      <trkpt lat="46.50429" lon="5.32266">
        <ele>205.2</ele>
        <time>2022-08-18T14:26:09Z</time>
      </trkpt>
      <trkpt lat="46.50437" lon="5.32322">
        <ele>205.8</ele>
        <time>2022-08-18T14:26:15Z</time>
      </trkpt>
      <trkpt lat="46.50451" lon="5.32384">
        <ele>206</ele>
        <time>2022-08-18T14:26:21Z</time>
      </trkpt>
      <trkpt lat="46.50465" lon="5.32466">
        <ele>206</ele>
        <time>2022-08-18T14:26:29Z</time>
      </trkpt>
      <trkpt lat="46.50468" lon="5.32506">
        <ele>206</ele>
        <time>2022-08-18T14:26:33Z</time>
      </trkpt>
      <trkpt lat="46.50472" lon="5.32555">
        <ele>206.4</ele>
        <time>2022-08-18T14:26:38Z</time>
      </trkpt>
      <trkpt lat="46.50474" lon="5.3264">
        <ele>207</ele>
        <time>2022-08-18T14:26:47Z</time>
      </trkpt>
      <trkpt lat="46.50474" lon="5.32649">
        <ele>207.2</ele>
        <time>2022-08-18T14:26:48Z</time>
      </trkpt>
      <trkpt lat="46.50473" lon="5.32721">
        <ele>207.8</ele>
        <time>2022-08-18T14:26:56Z</time>
      </trkpt>
      <trkpt lat="46.50472" lon="5.32747">
        <ele>208.2</ele>
        <time>2022-08-18T14:26:59Z</time>
      </trkpt>
      <trkpt lat="46.50471" lon="5.32811">
        <ele>208.4</ele>
        <time>2022-08-18T14:27:06Z</time>
      </trkpt>
      <trkpt lat="46.5047" lon="5.32886">
        <ele>209.2</ele>
        <time>2022-08-18T14:27:14Z</time>
      </trkpt>
      <trkpt lat="46.50469" lon="5.32895">
        <ele>209.2</ele>
        <time>2022-08-18T14:27:15Z</time>
      </trkpt>
      <trkpt lat="46.50469" lon="5.32934">
        <ele>210</ele>
        <time>2022-08-18T14:27:20Z</time>
      </trkpt>
      <trkpt lat="46.50469" lon="5.32941">
        <ele>210.6</ele>
        <time>2022-08-18T14:27:21Z</time>
      </trkpt>
      <trkpt lat="46.50469" lon="5.32971">
        <ele>211.6</ele>
        <time>2022-08-18T14:27:25Z</time>
      </trkpt>
      <trkpt lat="46.50469" lon="5.32993">
        <ele>212.6</ele>
        <time>2022-08-18T14:27:28Z</time>
      </trkpt>
      <trkpt lat="46.50468" lon="5.33028">
        <ele>213.8</ele>
        <time>2022-08-18T14:27:33Z</time>
      </trkpt>
      <trkpt lat="46.50468" lon="5.33035">
        <ele>214</ele>
        <time>2022-08-18T14:27:34Z</time>
      </trkpt>
      <trkpt lat="46.50468" lon="5.33056">
        <ele>214.8</ele>
        <time>2022-08-18T14:27:37Z</time>
      </trkpt>
      <trkpt lat="46.50467" lon="5.33083">
        <ele>216</ele>
        <time>2022-08-18T14:27:41Z</time>
      </trkpt>
      <trkpt lat="46.50466" lon="5.33097">
        <ele>216.2</ele>
        <time>2022-08-18T14:27:43Z</time>
      </trkpt>
      <trkpt lat="46.50464" lon="5.33117">
        <ele>217</ele>
        <time>2022-08-18T14:27:46Z</time>
      </trkpt>
      <trkpt lat="46.50463" lon="5.33123">
        <ele>217.4</ele>
        <time>2022-08-18T14:27:47Z</time>
      </trkpt>
      <trkpt lat="46.50461" lon="5.33137">
        <ele>217.8</ele>
        <time>2022-08-18T14:27:49Z</time>
      </trkpt>
      <trkpt lat="46.5046" lon="5.33144">
        <ele>218</ele>
        <time>2022-08-18T14:27:50Z</time>
      </trkpt>
      <trkpt lat="46.50455" lon="5.33165">
        <ele>219.2</ele>
        <time>2022-08-18T14:27:53Z</time>
      </trkpt>
      <trkpt lat="46.50453" lon="5.33172">
        <ele>219.6</ele>
        <time>2022-08-18T14:27:54Z</time>
      </trkpt>
      <trkpt lat="46.50452" lon="5.3318">
        <ele>219.6</ele>
        <time>2022-08-18T14:27:55Z</time>
      </trkpt>
      <trkpt lat="46.50451" lon="5.33188">
        <ele>220</ele>
        <time>2022-08-18T14:27:56Z</time>
      </trkpt>
      <trkpt lat="46.5045" lon="5.33195">
        <ele>220.2</ele>
        <time>2022-08-18T14:27:57Z</time>
      </trkpt>
      <trkpt lat="46.5045" lon="5.33203">
        <ele>220.4</ele>
        <time>2022-08-18T14:27:58Z</time>
      </trkpt>
      <trkpt lat="46.50451" lon="5.33226">
        <ele>220.8</ele>
        <time>2022-08-18T14:28:01Z</time>
      </trkpt>
      <trkpt lat="46.50451" lon="5.33235">
        <ele>220.8</ele>
        <time>2022-08-18T14:28:02Z</time>
      </trkpt>
      <trkpt lat="46.50452" lon="5.33243">
        <ele>221</ele>
        <time>2022-08-18T14:28:03Z</time>
      </trkpt>
      <trkpt lat="46.50453" lon="5.33261">
        <ele>221.2</ele>
        <time>2022-08-18T14:28:05Z</time>
      </trkpt>
      <trkpt lat="46.50452" lon="5.33279">
        <ele>221.2</ele>
        <time>2022-08-18T14:28:07Z</time>
      </trkpt>
      <trkpt lat="46.50453" lon="5.33298">
        <ele>221.2</ele>
        <time>2022-08-18T14:28:09Z</time>
      </trkpt>
      <trkpt lat="46.50454" lon="5.33327">
        <ele>221.2</ele>
        <time>2022-08-18T14:28:12Z</time>
      </trkpt>
      <trkpt lat="46.50456" lon="5.33359">
        <ele>221</ele>
        <time>2022-08-18T14:28:15Z</time>
      </trkpt>
      <trkpt lat="46.50454" lon="5.3338">
        <ele>221</ele>
        <time>2022-08-18T14:28:17Z</time>
      </trkpt>
      <trkpt lat="46.5045" lon="5.33399">
        <ele>221</ele>
        <time>2022-08-18T14:28:19Z</time>
      </trkpt>
      <trkpt lat="46.50445" lon="5.33417">
        <ele>220.8</ele>
        <time>2022-08-18T14:28:21Z</time>
      </trkpt>
      <trkpt lat="46.5042" lon="5.33453">
        <ele>221</ele>
        <time>2022-08-18T14:28:26Z</time>
      </trkpt>
      <trkpt lat="46.50385" lon="5.33491">
        <ele>221.2</ele>
        <time>2022-08-18T14:28:33Z</time>
      </trkpt>
      <trkpt lat="46.5037" lon="5.33507">
        <ele>222</ele>
        <time>2022-08-18T14:28:36Z</time>
      </trkpt>
      <trkpt lat="46.50339" lon="5.33542">
        <ele>222.8</ele>
        <time>2022-08-18T14:28:42Z</time>
      </trkpt>
      <trkpt lat="46.50324" lon="5.33559">
        <ele>223</ele>
        <time>2022-08-18T14:28:45Z</time>
      </trkpt>
      <trkpt lat="46.50297" lon="5.33588">
        <ele>223.2</ele>
        <time>2022-08-18T14:28:50Z</time>
      </trkpt>
      <trkpt lat="46.5027" lon="5.33615">
        <ele>223.8</ele>
        <time>2022-08-18T14:28:55Z</time>
      </trkpt>
      <trkpt lat="46.50252" lon="5.33637">
        <ele>224</ele>
        <time>2022-08-18T14:28:59Z</time>
      </trkpt>
      <trkpt lat="46.50242" lon="5.33648">
        <ele>224.2</ele>
        <time>2022-08-18T14:29:01Z</time>
      </trkpt>
      <trkpt lat="46.50197" lon="5.33692">
        <ele>224.6</ele>
        <time>2022-08-18T14:29:09Z</time>
      </trkpt>
      <trkpt lat="46.50182" lon="5.33707">
        <ele>224.8</ele>
        <time>2022-08-18T14:29:12Z</time>
      </trkpt>
      <trkpt lat="46.50171" lon="5.33718">
        <ele>224.8</ele>
        <time>2022-08-18T14:29:14Z</time>
      </trkpt>
      <trkpt lat="46.50135" lon="5.33756">
        <ele>224.8</ele>
        <time>2022-08-18T14:29:20Z</time>
      </trkpt>
      <trkpt lat="46.5009" lon="5.33804">
        <ele>224.6</ele>
        <time>2022-08-18T14:29:27Z</time>
      </trkpt>
      <trkpt lat="46.50052" lon="5.33845">
        <ele>224.8</ele>
        <time>2022-08-18T14:29:34Z</time>
      </trkpt>
      <trkpt lat="46.50031" lon="5.3387">
        <ele>225.2</ele>
        <time>2022-08-18T14:29:38Z</time>
      </trkpt>
      <trkpt lat="46.50021" lon="5.33882">
        <ele>225.4</ele>
        <time>2022-08-18T14:29:40Z</time>
      </trkpt>
      <trkpt lat="46.49998" lon="5.33905">
        <ele>226.2</ele>
        <time>2022-08-18T14:29:44Z</time>
      </trkpt>
      <trkpt lat="46.49976" lon="5.3393">
        <ele>226.6</ele>
        <time>2022-08-18T14:29:48Z</time>
      </trkpt>
      <trkpt lat="46.49963" lon="5.33943">
        <ele>226.8</ele>
        <time>2022-08-18T14:29:50Z</time>
      </trkpt>
      <trkpt lat="46.49932" lon="5.33977">
        <ele>226.6</ele>
        <time>2022-08-18T14:29:55Z</time>
      </trkpt>
      <trkpt lat="46.49882" lon="5.34033">
        <ele>226</ele>
        <time>2022-08-18T14:30:02Z</time>
      </trkpt>
      <trkpt lat="46.49849" lon="5.34075">
        <ele>224.8</ele>
        <time>2022-08-18T14:30:07Z</time>
      </trkpt>
      <trkpt lat="46.49843" lon="5.34083">
        <ele>224.8</ele>
        <time>2022-08-18T14:30:08Z</time>
      </trkpt>
      <trkpt lat="46.49818" lon="5.34123">
        <ele>224.2</ele>
        <time>2022-08-18T14:30:13Z</time>
      </trkpt>
      <trkpt lat="46.49793" lon="5.34163">
        <ele>224.2</ele>
        <time>2022-08-18T14:30:18Z</time>
      </trkpt>
      <trkpt lat="46.49756" lon="5.34225">
        <ele>224.4</ele>
        <time>2022-08-18T14:30:25Z</time>
      </trkpt>
      <trkpt lat="46.49751" lon="5.34234">
        <ele>224.4</ele>
        <time>2022-08-18T14:30:26Z</time>
      </trkpt>
      <trkpt lat="46.4972" lon="5.34289">
        <ele>224.2</ele>
        <time>2022-08-18T14:30:32Z</time>
      </trkpt>
      <trkpt lat="46.49697" lon="5.34353">
        <ele>224.4</ele>
        <time>2022-08-18T14:30:38Z</time>
      </trkpt>
      <trkpt lat="46.49679" lon="5.34415">
        <ele>224.2</ele>
        <time>2022-08-18T14:30:43Z</time>
      </trkpt>
      <trkpt lat="46.49672" lon="5.34439">
        <ele>223.6</ele>
        <time>2022-08-18T14:30:45Z</time>
      </trkpt>
      <trkpt lat="46.49662" lon="5.34475">
        <ele>222.6</ele>
        <time>2022-08-18T14:30:48Z</time>
      </trkpt>
      <trkpt lat="46.49655" lon="5.34499">
        <ele>222</ele>
        <time>2022-08-18T14:30:50Z</time>
      </trkpt>
      <trkpt lat="46.49649" lon="5.34522">
        <ele>221.4</ele>
        <time>2022-08-18T14:30:52Z</time>
      </trkpt>
      <trkpt lat="46.49644" lon="5.34533">
        <ele>221</ele>
        <time>2022-08-18T14:30:53Z</time>
      </trkpt>
      <trkpt lat="46.49632" lon="5.34551">
        <ele>220.8</ele>
        <time>2022-08-18T14:30:55Z</time>
      </trkpt>
      <trkpt lat="46.49601" lon="5.34588">
        <ele>220</ele>
        <time>2022-08-18T14:31:00Z</time>
      </trkpt>
      <trkpt lat="46.49597" lon="5.34596">
        <ele>220</ele>
        <time>2022-08-18T14:31:01Z</time>
      </trkpt>
      <trkpt lat="46.49591" lon="5.34604">
        <ele>219.8</ele>
        <time>2022-08-18T14:31:02Z</time>
      </trkpt>
      <trkpt lat="46.49573" lon="5.34627">
        <ele>219.4</ele>
        <time>2022-08-18T14:31:05Z</time>
      </trkpt>
      <trkpt lat="46.49536" lon="5.34669">
        <ele>220.4</ele>
        <time>2022-08-18T14:31:12Z</time>
      </trkpt>
      <trkpt lat="46.49517" lon="5.3469">
        <ele>221</ele>
        <time>2022-08-18T14:31:16Z</time>
      </trkpt>
      <trkpt lat="46.49514" lon="5.34695">
        <ele>221.2</ele>
        <time>2022-08-18T14:31:17Z</time>
      </trkpt>
      <trkpt lat="46.49511" lon="5.34699">
        <ele>221.6</ele>
        <time>2022-08-18T14:31:18Z</time>
      </trkpt>
      <trkpt lat="46.49503" lon="5.34706">
        <ele>222.2</ele>
        <time>2022-08-18T14:31:20Z</time>
      </trkpt>
      <trkpt lat="46.495" lon="5.3471">
        <ele>222.6</ele>
        <time>2022-08-18T14:31:21Z</time>
      </trkpt>
      <trkpt lat="46.49481" lon="5.34731">
        <ele>223.6</ele>
        <time>2022-08-18T14:31:26Z</time>
      </trkpt>
      <trkpt lat="46.49478" lon="5.34734">
        <ele>224</ele>
        <time>2022-08-18T14:31:27Z</time>
      </trkpt>
      <trkpt lat="46.49473" lon="5.3474">
        <ele>224.8</ele>
        <time>2022-08-18T14:31:29Z</time>
      </trkpt>
      <trkpt lat="46.49469" lon="5.34746">
        <ele>225.2</ele>
        <time>2022-08-18T14:31:31Z</time>
      </trkpt>
      <trkpt lat="46.49463" lon="5.34754">
        <ele>225.8</ele>
        <time>2022-08-18T14:31:34Z</time>
      </trkpt>
      <trkpt lat="46.49457" lon="5.3476">
        <ele>226.4</ele>
        <time>2022-08-18T14:31:36Z</time>
      </trkpt>
      <trkpt lat="46.49453" lon="5.34765">
        <ele>227</ele>
        <time>2022-08-18T14:31:38Z</time>
      </trkpt>
      <trkpt lat="46.49447" lon="5.3477">
        <ele>227.2</ele>
        <time>2022-08-18T14:31:40Z</time>
      </trkpt>
      <trkpt lat="46.49435" lon="5.34782">
        <ele>228.2</ele>
        <time>2022-08-18T14:31:44Z</time>
      </trkpt>
      <trkpt lat="46.49426" lon="5.3479">
        <ele>228.8</ele>
        <time>2022-08-18T14:31:46Z</time>
      </trkpt>
      <trkpt lat="46.49414" lon="5.34796">
        <ele>229.2</ele>
        <time>2022-08-18T14:31:48Z</time>
      </trkpt>
      <trkpt lat="46.49406" lon="5.348">
        <ele>229.4</ele>
        <time>2022-08-18T14:31:49Z</time>
      </trkpt>
      <trkpt lat="46.49386" lon="5.34811">
        <ele>229.8</ele>
        <time>2022-08-18T14:31:52Z</time>
      </trkpt>
      <trkpt lat="46.49375" lon="5.34814">
        <ele>229.8</ele>
        <time>2022-08-18T14:31:54Z</time>
      </trkpt>
      <trkpt lat="46.49363" lon="5.34817">
        <ele>230</ele>
        <time>2022-08-18T14:31:56Z</time>
      </trkpt>
      <trkpt lat="46.49351" lon="5.34822">
        <ele>229.8</ele>
        <time>2022-08-18T14:31:58Z</time>
      </trkpt>
      <trkpt lat="46.49329" lon="5.34826">
        <ele>230</ele>
        <time>2022-08-18T14:32:01Z</time>
      </trkpt>
      <trkpt lat="46.49315" lon="5.3483">
        <ele>230</ele>
        <time>2022-08-18T14:32:03Z</time>
      </trkpt>
      <trkpt lat="46.49304" lon="5.34832">
        <ele>230.2</ele>
        <time>2022-08-18T14:32:05Z</time>
      </trkpt>
      <trkpt lat="46.49291" lon="5.3484">
        <ele>230.2</ele>
        <time>2022-08-18T14:32:07Z</time>
      </trkpt>
      <trkpt lat="46.49285" lon="5.34844">
        <ele>230.2</ele>
        <time>2022-08-18T14:32:08Z</time>
      </trkpt>
      <trkpt lat="46.49279" lon="5.34849">
        <ele>230.2</ele>
        <time>2022-08-18T14:32:09Z</time>
      </trkpt>
      <trkpt lat="46.49266" lon="5.34862">
        <ele>230.2</ele>
        <time>2022-08-18T14:32:11Z</time>
      </trkpt>
      <trkpt lat="46.4926" lon="5.34869">
        <ele>230.2</ele>
        <time>2022-08-18T14:32:12Z</time>
      </trkpt>
      <trkpt lat="46.49236" lon="5.34907">
        <ele>230.2</ele>
        <time>2022-08-18T14:32:17Z</time>
      </trkpt>
      <trkpt lat="46.49224" lon="5.34926">
        <ele>230.2</ele>
        <time>2022-08-18T14:32:19Z</time>
      </trkpt>
      <trkpt lat="46.49214" lon="5.34938">
        <ele>230.2</ele>
        <time>2022-08-18T14:32:21Z</time>
      </trkpt>
      <trkpt lat="46.49202" lon="5.34958">
        <ele>230</ele>
        <time>2022-08-18T14:32:24Z</time>
      </trkpt>
      <trkpt lat="46.49176" lon="5.34993">
        <ele>230.4</ele>
        <time>2022-08-18T14:32:29Z</time>
      </trkpt>
      <trkpt lat="46.49152" lon="5.35015">
        <ele>231.2</ele>
        <time>2022-08-18T14:32:33Z</time>
      </trkpt>
      <trkpt lat="46.49147" lon="5.35019">
        <ele>231.4</ele>
        <time>2022-08-18T14:32:34Z</time>
      </trkpt>
      <trkpt lat="46.49131" lon="5.3503">
        <ele>231.4</ele>
        <time>2022-08-18T14:32:37Z</time>
      </trkpt>
      <trkpt lat="46.4912" lon="5.35038">
        <ele>231.6</ele>
        <time>2022-08-18T14:32:39Z</time>
      </trkpt>
      <trkpt lat="46.49104" lon="5.35053">
        <ele>231.6</ele>
        <time>2022-08-18T14:32:42Z</time>
      </trkpt>
      <trkpt lat="46.49084" lon="5.35072">
        <ele>231.6</ele>
        <time>2022-08-18T14:32:46Z</time>
      </trkpt>
      <trkpt lat="46.49059" lon="5.3509">
        <ele>232.4</ele>
        <time>2022-08-18T14:32:51Z</time>
      </trkpt>
      <trkpt lat="46.49048" lon="5.351">
        <ele>232.8</ele>
        <time>2022-08-18T14:32:53Z</time>
      </trkpt>
      <trkpt lat="46.49033" lon="5.35119">
        <ele>233</ele>
        <time>2022-08-18T14:32:55Z</time>
      </trkpt>
      <trkpt lat="46.49028" lon="5.35127">
        <ele>233.2</ele>
        <time>2022-08-18T14:32:57Z</time>
      </trkpt>
      <trkpt lat="46.49013" lon="5.35162">
        <ele>233.4</ele>
        <time>2022-08-18T14:33:01Z</time>
      </trkpt>
      <trkpt lat="46.49009" lon="5.35171">
        <ele>233.4</ele>
        <time>2022-08-18T14:33:02Z</time>
      </trkpt>
      <trkpt lat="46.48987" lon="5.3522">
        <ele>232.8</ele>
        <time>2022-08-18T14:33:07Z</time>
      </trkpt>
      <trkpt lat="46.48982" lon="5.3523">
        <ele>232.4</ele>
        <time>2022-08-18T14:33:08Z</time>
      </trkpt>
      <trkpt lat="46.48955" lon="5.35292">
        <ele>231.8</ele>
        <time>2022-08-18T14:33:14Z</time>
      </trkpt>
      <trkpt lat="46.48942" lon="5.35324">
        <ele>231.4</ele>
        <time>2022-08-18T14:33:17Z</time>
      </trkpt>
      <trkpt lat="46.48927" lon="5.35355">
        <ele>231</ele>
        <time>2022-08-18T14:33:20Z</time>
      </trkpt>
      <trkpt lat="46.48897" lon="5.35422">
        <ele>231</ele>
        <time>2022-08-18T14:33:27Z</time>
      </trkpt>
      <trkpt lat="46.48885" lon="5.35449">
        <ele>231</ele>
        <time>2022-08-18T14:33:30Z</time>
      </trkpt>
      <trkpt lat="46.48876" lon="5.35466">
        <ele>231.2</ele>
        <time>2022-08-18T14:33:32Z</time>
      </trkpt>
      <trkpt lat="46.48846" lon="5.35537">
        <ele>232</ele>
        <time>2022-08-18T14:33:40Z</time>
      </trkpt>
      <trkpt lat="46.48842" lon="5.35545">
        <ele>232</ele>
        <time>2022-08-18T14:33:41Z</time>
      </trkpt>
      <trkpt lat="46.48819" lon="5.356">
        <ele>232.4</ele>
        <time>2022-08-18T14:33:47Z</time>
      </trkpt>
      <trkpt lat="46.48788" lon="5.35673">
        <ele>232</ele>
        <time>2022-08-18T14:33:55Z</time>
      </trkpt>
      <trkpt lat="46.48759" lon="5.35737">
        <ele>232</ele>
        <time>2022-08-18T14:34:01Z</time>
      </trkpt>
      <trkpt lat="46.48729" lon="5.35808">
        <ele>232</ele>
        <time>2022-08-18T14:34:09Z</time>
      </trkpt>
      <trkpt lat="46.48722" lon="5.35825">
        <ele>232.4</ele>
        <time>2022-08-18T14:34:11Z</time>
      </trkpt>
      <trkpt lat="46.48712" lon="5.35849">
        <ele>232.4</ele>
        <time>2022-08-18T14:34:14Z</time>
      </trkpt>
      <trkpt lat="46.48704" lon="5.35865">
        <ele>232.6</ele>
        <time>2022-08-18T14:34:16Z</time>
      </trkpt>
      <trkpt lat="46.48688" lon="5.35896">
        <ele>232.8</ele>
        <time>2022-08-18T14:34:20Z</time>
      </trkpt>
      <trkpt lat="46.48686" lon="5.35904">
        <ele>233</ele>
        <time>2022-08-18T14:34:21Z</time>
      </trkpt>
      <trkpt lat="46.48676" lon="5.35935">
        <ele>233.8</ele>
        <time>2022-08-18T14:34:25Z</time>
      </trkpt>
      <trkpt lat="46.48674" lon="5.35955">
        <ele>234.2</ele>
        <time>2022-08-18T14:34:27Z</time>
      </trkpt>
      <trkpt lat="46.48671" lon="5.35982">
        <ele>234.8</ele>
        <time>2022-08-18T14:34:30Z</time>
      </trkpt>
      <trkpt lat="46.48668" lon="5.36001">
        <ele>235</ele>
        <time>2022-08-18T14:34:32Z</time>
      </trkpt>
      <trkpt lat="46.4866" lon="5.36056">
        <ele>235.2</ele>
        <time>2022-08-18T14:34:37Z</time>
      </trkpt>
      <trkpt lat="46.48643" lon="5.3614">
        <ele>234.2</ele>
        <time>2022-08-18T14:34:44Z</time>
      </trkpt>
      <trkpt lat="46.48641" lon="5.36174">
        <ele>233.4</ele>
        <time>2022-08-18T14:34:47Z</time>
      </trkpt>
      <trkpt lat="46.48637" lon="5.36227">
        <ele>233.4</ele>
        <time>2022-08-18T14:34:52Z</time>
      </trkpt>
      <trkpt lat="46.48628" lon="5.36294">
        <ele>234.2</ele>
        <time>2022-08-18T14:34:59Z</time>
      </trkpt>
      <trkpt lat="46.48625" lon="5.36302">
        <ele>234.2</ele>
        <time>2022-08-18T14:35:00Z</time>
      </trkpt>
      <trkpt lat="46.48617" lon="5.36315">
        <ele>234.6</ele>
        <time>2022-08-18T14:35:02Z</time>
      </trkpt>
      <trkpt lat="46.48612" lon="5.36319">
        <ele>234.8</ele>
        <time>2022-08-18T14:35:03Z</time>
      </trkpt>
      <trkpt lat="46.48606" lon="5.36321">
        <ele>234.8</ele>
        <time>2022-08-18T14:35:04Z</time>
      </trkpt>
      <trkpt lat="46.48601" lon="5.36322">
        <ele>235</ele>
        <time>2022-08-18T14:35:05Z</time>
      </trkpt>
      <trkpt lat="46.48584" lon="5.36323">
        <ele>235.8</ele>
        <time>2022-08-18T14:35:08Z</time>
      </trkpt>
      <trkpt lat="46.48568" lon="5.36326">
        <ele>236.6</ele>
        <time>2022-08-18T14:35:11Z</time>
      </trkpt>
      <trkpt lat="46.48558" lon="5.36328">
        <ele>237</ele>
        <time>2022-08-18T14:35:13Z</time>
      </trkpt>
      <trkpt lat="46.4853" lon="5.36332">
        <ele>238</ele>
        <time>2022-08-18T14:35:18Z</time>
      </trkpt>
      <trkpt lat="46.48518" lon="5.36334">
        <ele>238.6</ele>
        <time>2022-08-18T14:35:20Z</time>
      </trkpt>
      <trkpt lat="46.48507" lon="5.36336">
        <ele>239.2</ele>
        <time>2022-08-18T14:35:22Z</time>
      </trkpt>
      <trkpt lat="46.48471" lon="5.36342">
        <ele>239.8</ele>
        <time>2022-08-18T14:35:28Z</time>
      </trkpt>
      <trkpt lat="46.48439" lon="5.36347">
        <ele>240.4</ele>
        <time>2022-08-18T14:35:33Z</time>
      </trkpt>
      <trkpt lat="46.48421" lon="5.36352">
        <ele>240.6</ele>
        <time>2022-08-18T14:35:36Z</time>
      </trkpt>
      <trkpt lat="46.48391" lon="5.36374">
        <ele>240.8</ele>
        <time>2022-08-18T14:35:41Z</time>
      </trkpt>
      <trkpt lat="46.48343" lon="5.36426">
        <ele>241.4</ele>
        <time>2022-08-18T14:35:50Z</time>
      </trkpt>
      <trkpt lat="46.48333" lon="5.36437">
        <ele>241.4</ele>
        <time>2022-08-18T14:35:52Z</time>
      </trkpt>
      <trkpt lat="46.48291" lon="5.36483">
        <ele>242.4</ele>
        <time>2022-08-18T14:36:01Z</time>
      </trkpt>
      <trkpt lat="46.48287" lon="5.36488">
        <ele>242.6</ele>
        <time>2022-08-18T14:36:02Z</time>
      </trkpt>
      <trkpt lat="46.48269" lon="5.36508">
        <ele>243.6</ele>
        <time>2022-08-18T14:36:06Z</time>
      </trkpt>
      <trkpt lat="46.48239" lon="5.36542">
        <ele>244.6</ele>
        <time>2022-08-18T14:36:13Z</time>
      </trkpt>
      <trkpt lat="46.48225" lon="5.36555">
        <ele>245.2</ele>
        <time>2022-08-18T14:36:16Z</time>
      </trkpt>
      <trkpt lat="46.48215" lon="5.3656">
        <ele>245.6</ele>
        <time>2022-08-18T14:36:18Z</time>
      </trkpt>
      <trkpt lat="46.48209" lon="5.36559">
        <ele>245.6</ele>
        <time>2022-08-18T14:36:19Z</time>
      </trkpt>
      <trkpt lat="46.48203" lon="5.36559">
        <ele>245.8</ele>
        <time>2022-08-18T14:36:20Z</time>
      </trkpt>
      <trkpt lat="46.48194" lon="5.36563">
        <ele>246</ele>
        <time>2022-08-18T14:36:22Z</time>
      </trkpt>
      <trkpt lat="46.48188" lon="5.36575">
        <ele>246.2</ele>
        <time>2022-08-18T14:36:24Z</time>
      </trkpt>
      <trkpt lat="46.48186" lon="5.36583">
        <ele>246.4</ele>
        <time>2022-08-18T14:36:25Z</time>
      </trkpt>
      <trkpt lat="46.4818" lon="5.36598">
        <ele>246.6</ele>
        <time>2022-08-18T14:36:27Z</time>
      </trkpt>
      <trkpt lat="46.48177" lon="5.36604">
        <ele>246.8</ele>
        <time>2022-08-18T14:36:28Z</time>
      </trkpt>
      <trkpt lat="46.48173" lon="5.3661">
        <ele>247</ele>
        <time>2022-08-18T14:36:29Z</time>
      </trkpt>
      <trkpt lat="46.48141" lon="5.36649">
        <ele>247.6</ele>
        <time>2022-08-18T14:36:36Z</time>
      </trkpt>
      <trkpt lat="46.48136" lon="5.36654">
        <ele>247.8</ele>
        <time>2022-08-18T14:36:38Z</time>
      </trkpt>
      <trkpt lat="46.48121" lon="5.36665">
        <ele>247.8</ele>
        <time>2022-08-18T14:36:40Z</time>
      </trkpt>
      <trkpt lat="46.48105" lon="5.36684">
        <ele>248</ele>
        <time>2022-08-18T14:36:44Z</time>
      </trkpt>
      <trkpt lat="46.48102" lon="5.36689">
        <ele>248</ele>
        <time>2022-08-18T14:36:45Z</time>
      </trkpt>
      <trkpt lat="46.48102" lon="5.36699">
        <ele>248.2</ele>
        <time>2022-08-18T14:36:47Z</time>
      </trkpt>
      <trkpt lat="46.48113" lon="5.36712">
        <ele>248.8</ele>
        <time>2022-08-18T14:36:50Z</time>
      </trkpt>
      <trkpt lat="46.48117" lon="5.36715">
        <ele>248.8</ele>
        <time>2022-08-18T14:36:51Z</time>
      </trkpt>
      <trkpt lat="46.48143" lon="5.36734">
        <ele>250</ele>
        <time>2022-08-18T14:36:57Z</time>
      </trkpt>
      <trkpt lat="46.48163" lon="5.3675">
        <ele>251</ele>
        <time>2022-08-18T14:37:02Z</time>
      </trkpt>
      <trkpt lat="46.48175" lon="5.36759">
        <ele>251.8</ele>
        <time>2022-08-18T14:37:05Z</time>
      </trkpt>
      <trkpt lat="46.48183" lon="5.36767">
        <ele>252.2</ele>
        <time>2022-08-18T14:37:07Z</time>
      </trkpt>
      <trkpt lat="46.48202" lon="5.36783">
        <ele>253.2</ele>
        <time>2022-08-18T14:37:12Z</time>
      </trkpt>
      <trkpt lat="46.48213" lon="5.36792">
        <ele>254.2</ele>
        <time>2022-08-18T14:37:15Z</time>
      </trkpt>
      <trkpt lat="46.48216" lon="5.36795">
        <ele>254.4</ele>
        <time>2022-08-18T14:37:16Z</time>
      </trkpt>
      <trkpt lat="46.48233" lon="5.36809">
        <ele>255.6</ele>
        <time>2022-08-18T14:37:21Z</time>
      </trkpt>
      <trkpt lat="46.48243" lon="5.36818">
        <ele>256</ele>
        <time>2022-08-18T14:37:24Z</time>
      </trkpt>
      <trkpt lat="46.48246" lon="5.36821">
        <ele>256.6</ele>
        <time>2022-08-18T14:37:25Z</time>
      </trkpt>
    </trkseg>
  </trk>
</gpx>